GFSGBSN_sfc_wetblb_000.txt.gz
Wetbulb
60.39 59.85 58.89 58.64 58.45 58.17 57.66 57.64 56.55 56.41 56.24 56.83 56.32 55.55 55.64 55.77 55.94 56.46 56.03 55.82 54.93 54.62 54.32 53.76 53.42 53.11 50.73 48.72 48.82 55.75 63.27 62.72 56.20 51.07 48.96 48.10 46.17 45.91 43.54 44.66 42.10 39.88 40.82 42.60 41.82 41.91 40.92
59.59 58.96 58.46 58.22 58.22 57.94 57.51 57.71 57.28 55.91 56.09 55.92 55.33 54.90 54.95 54.82 55.15 55.16 55.55 55.60 54.63 54.11 53.45 52.89 52.40 52.88 47.25 44.07 52.44 57.07 57.69 54.28 52.69 50.79 49.23 48.68 48.14 48.55 45.95 41.93 42.28 43.41 40.02 39.44 42.10 40.12 40.00
59.28 58.56 58.04 57.67 57.48 57.46 57.48 57.23 56.99 55.61 55.76 55.72 55.24 54.47 54.29 55.26 55.12 55.08 55.22 55.05 53.95 53.39 52.76 52.11 52.52 51.37 49.91 48.55 53.40 53.76 55.12 52.27 52.52 51.64 49.17 50.35 49.88 46.91 44.95 41.31 43.70 41.91 39.19 40.33 40.98 40.44 40.04
58.98 58.73 58.19 57.48 56.91 56.67 56.72 56.56 56.48 55.74 55.55 55.01 55.25 54.32 54.16 54.50 54.56 54.26 54.50 54.04 53.34 52.94 52.40 51.94 52.79 50.91 47.62 55.06 55.01 54.04 49.52 48.96 52.34 52.30 50.89 51.35 51.79 48.42 45.40 44.47 42.53 39.29 38.03 34.75 38.97 40.91 40.65
58.79 58.71 58.31 57.55 56.85 56.72 56.46 56.22 56.00 55.42 55.21 54.68 54.61 53.91 53.78 54.01 54.00 53.77 53.48 52.94 52.65 51.75 51.61 52.51 49.08 47.93 46.45 55.24 51.22 50.72 50.06 49.27 50.49 50.35 50.12 51.17 48.83 44.41 42.75 38.95 36.32 36.39 32.23 34.33 37.00 40.87 40.58
58.68 58.41 58.03 57.73 57.09 56.92 56.74 56.22 55.88 55.10 54.71 54.26 54.40 53.86 53.97 54.78 54.46 53.08 52.32 52.15 51.72 52.04 51.43 51.50 51.59 45.11 49.05 47.26 51.19 49.49 50.31 49.99 49.05 49.32 48.21 46.99 43.40 40.73 39.63 36.87 31.64 32.73 33.20 32.32 35.09 38.12 40.21
58.58 58.26 57.99 57.53 57.15 57.07 56.98 56.74 55.69 54.87 54.23 54.03 54.44 55.03 55.15 55.03 54.53 52.34 50.69 49.16 45.32 44.77 48.42 43.56 44.65 45.67 48.88 50.99 49.98 47.50 49.01 49.51 48.70 46.82 41.45 43.47 39.66 35.60 36.33 38.49 38.50 37.84 36.05 34.19 34.53 39.57 39.92
57.82 57.78 57.84 57.69 57.26 57.09 57.08 56.48 55.88 55.41 55.21 55.19 54.67 54.75 55.09 54.93 54.20 52.32 51.09 48.30 48.96 50.92 45.36 50.15 50.26 49.79 51.60 50.72 45.17 46.81 50.49 45.78 44.87 40.51 41.74 40.55 36.72 39.84 42.79 42.12 40.82 39.31 36.49 34.97 37.82 41.34 40.51
57.10 57.00 57.43 57.44 57.22 56.89 56.68 56.45 56.16 55.05 54.75 54.26 54.15 54.41 54.85 54.31 53.76 52.17 48.60 49.32 55.72 52.71 44.37 45.63 49.78 49.17 48.82 49.81 44.74 45.46 48.35 46.25 42.98 40.76 40.34 37.80 39.55 43.56 42.37 41.20 40.59 38.75 36.61 35.80 36.65 40.90 40.42
56.71 56.33 56.53 56.90 56.99 56.37 55.86 56.18 55.91 55.13 54.26 53.70 53.63 53.94 53.77 53.41 50.63 49.55 48.13 52.58 55.72 51.44 36.61 41.04 43.89 46.65 48.58 48.24 44.71 48.33 48.61 46.68 43.61 39.56 40.79 40.80 43.19 42.08 40.46 40.23 39.84 36.38 40.48 39.55 38.51 36.56 32.97
56.06 55.65 55.71 55.94 55.78 54.94 54.52 55.15 54.99 54.48 53.90 53.49 53.30 53.66 53.37 52.65 48.92 52.47 54.86 58.46 54.66 48.53 24.02 41.28 44.33 50.46 47.23 46.33 44.90 45.64 49.36 46.89 41.31 41.23 41.68 39.13 39.99 40.37 39.86 39.14 41.59 39.26 42.01 39.50 37.46 34.74 33.46
55.76 55.47 55.25 55.15 54.64 53.93 54.03 54.04 53.62 53.27 53.18 53.19 53.28 53.67 53.23 51.80 49.31 52.09 56.03 50.73 47.91 35.70 26.15 39.40 44.42 42.89 43.60 45.09 44.60 45.86 46.93 48.74 45.92 42.75 42.25 40.35 42.66 41.68 39.98 42.51 41.75 43.13 41.21 39.55 37.28 35.00 28.01
55.27 55.11 54.88 54.48 53.93 53.44 53.77 53.60 53.13 52.87 52.78 52.85 53.26 53.77 52.16 53.61 53.54 58.10 52.64 46.00 34.27 28.21 41.29 38.18 40.06 42.47 41.96 41.39 43.15 42.91 41.68 40.23 38.62 35.84 35.63 39.62 39.81 41.47 42.51 39.92 41.16 40.53 36.67 29.38 28.56 25.40 26.24
54.80 54.36 54.19 53.95 53.37 53.16 53.23 53.01 52.41 52.05 52.17 52.60 52.92 52.68 52.39 52.58 53.89 53.52 47.76 39.74 29.70 38.11 38.32 41.31 41.61 41.38 40.01 41.83 41.33 41.57 39.62 37.56 40.63 39.29 35.71 34.03 31.08 38.78 42.10 39.12 37.22 36.01 36.29 29.43 24.97 22.35 27.91
54.70 54.23 53.77 53.35 52.95 53.14 52.99 52.53 52.17 51.72 51.80 52.58 52.65 50.98 50.12 56.52 54.38 50.79 43.83 29.14 33.90 37.93 41.06 40.93 41.49 38.62 38.33 41.11 41.08 40.05 37.09 37.23 38.41 39.09 36.93 33.88 33.89 40.16 40.94 41.20 40.68 36.57 32.15 36.38 30.23 28.40 26.67
54.54 53.89 53.27 52.66 52.73 52.83 52.41 52.09 51.61 51.76 51.86 52.61 51.21 50.82 50.85 55.54 51.92 48.72 39.47 35.89 41.48 45.09 43.77 42.26 37.11 39.64 36.47 38.25 38.53 38.12 37.71 40.65 40.06 41.56 41.00 38.95 32.82 38.08 40.57 42.23 41.77 38.18 39.71 31.03 28.65 22.94 21.45
53.70 53.25 52.68 52.29 52.41 52.21 52.06 51.19 51.44 51.68 52.44 53.03 47.63 43.58 47.45 55.01 47.43 42.38 32.66 37.11 44.11 47.68 46.16 41.81 39.90 38.96 39.00 38.33 38.83 37.84 38.32 41.05 42.59 42.45 41.79 38.42 35.72 35.04 38.83 37.03 34.87 37.02 34.50 33.20 32.40 27.37 21.72
52.70 52.33 52.02 52.20 52.16 51.97 50.83 49.75 51.35 51.84 52.51 52.02 43.45 38.67 50.28 47.32 39.36 37.38 36.50 43.52 46.14 44.22 45.70 45.09 43.91 41.71 39.73 40.53 39.45 38.62 38.98 40.39 43.51 43.25 38.16 38.71 34.99 28.37 33.85 39.04 40.16 37.26 34.79 32.97 24.60 26.22 24.57
52.02 51.83 51.93 52.00 51.85 51.11 49.66 50.17 51.28 51.74 53.48 50.58 43.79 48.33 53.68 46.72 31.71 29.23 38.98 44.03 45.55 43.22 43.29 43.41 42.75 43.79 43.58 40.86 37.56 39.98 40.66 43.30 41.92 41.29 39.38 39.36 32.80 27.74 32.04 35.73 37.52 35.16 36.60 34.48 31.76 28.60 27.34
51.48 51.43 51.71 51.82 51.21 49.90 50.77 50.74 51.06 51.55 53.28 50.65 46.88 41.63 45.38 43.14 39.80 38.38 38.42 39.78 41.62 45.03 44.21 44.70 43.82 44.54 42.26 40.61 41.96 39.69 39.88 42.71 42.01 41.73 44.43 42.18 34.87 31.37 27.80 30.65 32.82 31.42 35.09 34.41 32.81 24.66 26.31
51.03 51.06 50.95 50.50 49.29 49.58 49.87 50.89 51.02 51.38 52.04 51.55 43.95 41.67 44.50 35.92 38.35 38.78 40.28 41.79 40.80 40.62 44.21 44.53 42.41 42.73 41.52 36.90 37.55 37.52 40.54 40.02 42.05 43.70 41.81 38.12 32.00 32.08 32.83 33.95 33.73 32.49 32.91 34.47 32.83 31.77 28.87
50.43 50.48 49.92 49.01 48.85 48.38 49.06 50.58 50.70 50.96 51.14 49.16 45.97 41.40 39.45 38.67 43.08 42.81 39.89 41.51 41.87 41.93 42.63 41.13 41.37 42.14 41.50 38.15 40.05 38.70 39.89 37.47 36.53 41.35 38.25 36.34 28.99 29.41 30.68 33.75 32.89 31.36 33.07 33.01 33.16 33.02 33.07
50.24 48.71 48.33 48.17 48.02 48.89 50.52 50.27 50.39 50.83 51.01 47.07 48.09 47.68 43.63 37.04 37.74 39.74 38.40 43.01 43.72 44.04 43.61 44.36 43.69 41.32 38.66 42.02 42.72 41.83 41.50 40.78 40.77 39.79 34.25 30.90 28.67 25.96 23.18 28.98 27.70 24.55 31.17 32.69 32.60 33.65 33.95
49.36 47.99 47.93 48.03 50.17 50.66 50.16 49.94 50.19 50.46 51.00 50.11 50.05 48.63 41.47 31.95 34.08 38.75 43.04 44.37 43.65 43.07 42.62 43.72 43.90 41.07 43.12 45.65 43.41 41.94 40.40 41.01 41.60 39.60 37.29 28.89 27.08 23.25 21.54 21.93 17.04 31.59 34.68 35.64 34.85 35.79 36.92
49.69 49.28 50.60 50.83 50.33 49.86 49.48 49.48 49.80 50.27 51.00 51.95 51.23 48.77 42.84 30.71 36.38 40.47 43.23 43.63 44.19 44.15 42.99 44.02 45.73 44.83 45.37 39.93 34.82 34.15 31.30 32.80 32.95 38.15 35.15 33.91 26.65 23.74 21.07 19.86 26.75 31.10 36.14 35.48 34.30 33.86 38.15
49.96 50.43 50.37 49.96 49.45 49.18 49.02 49.07 49.04 50.16 51.09 52.02 52.06 49.49 46.59 39.79 38.62 44.68 43.14 43.21 37.08 37.77 37.58 41.16 46.96 45.26 41.20 30.62 29.37 26.39 26.71 30.69 29.74 34.54 36.88 33.41 27.99 25.18 17.41 16.40 15.96 29.66 34.84 39.05 37.64 29.72 38.61
49.81 49.84 49.55 49.29 48.98 48.98 49.00 48.86 48.93 50.00 51.45 53.60 51.35 51.18 48.41 43.11 45.50 45.61 42.22 42.21 42.66 39.52 36.94 40.86 41.98 40.63 39.46 26.41 22.94 24.32 26.36 32.47 28.97 27.68 25.51 26.71 24.84 19.15 16.09 14.61 24.46 32.41 37.79 39.10 29.21 31.20 38.95
49.37 49.15 49.71 49.03 48.81 49.01 49.01 49.03 49.19 49.54 51.45 53.50 52.30 52.69 49.74 45.50 46.01 48.69 47.78 44.28 43.91 42.18 38.18 42.30 40.23 38.51 32.14 29.22 25.97 25.99 23.31 30.05 29.12 31.89 31.06 29.93 25.06 22.66 21.61 15.81 21.65 36.32 37.64 33.10 37.14 36.25 38.99
48.73 48.63 49.29 50.12 48.60 48.26 47.85 47.70 48.21 49.73 51.10 53.50 52.77 54.72 51.96 48.03 47.01 49.56 49.77 49.30 48.37 47.13 44.26 41.23 42.08 40.38 38.49 32.52 25.06 30.56 30.03 31.99 26.01 26.57 34.34 29.22 30.90 27.38 28.50 28.34 35.34 37.80 37.85 39.35 39.44 38.51 39.41

GFSGBSN_sfc_wetblb_003.txt.gz
Wetbulb
60.92 60.78 60.07 59.74 58.79 58.42 58.25 58.24 57.57 56.41 56.43 56.42 56.41 55.77 55.96 55.52 55.66 56.11 55.17 55.71 55.88 55.78 55.07 54.04 53.57 53.19 50.76 48.79 50.41 58.32 62.85 62.38 58.71 51.74 50.78 49.74 48.46 48.55 46.92 47.20 44.90 43.65 43.71 44.18 43.02 45.04 47.77
60.56 60.28 59.74 59.26 58.64 58.37 58.47 58.11 57.55 57.00 56.24 56.09 56.08 55.17 55.43 54.94 54.80 55.37 54.72 54.84 55.42 55.16 54.22 53.12 52.72 52.52 47.85 45.35 54.89 59.47 58.56 56.45 54.57 51.50 50.10 50.25 49.08 50.49 48.55 45.99 45.84 45.49 44.13 44.15 43.78 43.19 44.17
60.71 60.07 59.28 58.57 57.93 57.72 58.04 57.34 57.07 57.15 56.23 55.99 55.66 54.84 54.70 55.04 55.06 54.78 54.41 55.18 54.93 54.22 52.90 52.22 52.48 51.96 48.42 49.69 55.31 57.33 55.98 55.03 53.39 52.76 50.11 51.06 51.40 50.19 48.83 43.46 45.66 44.63 43.32 44.01 44.45 45.32 44.92
60.22 59.82 59.25 58.07 57.37 57.12 56.89 56.62 56.68 56.68 56.43 55.70 55.40 54.76 54.34 53.85 54.52 54.05 54.40 54.44 53.84 52.71 51.88 51.95 53.47 50.94 47.25 56.36 56.86 55.10 53.56 52.09 53.53 53.92 52.40 52.94 52.38 49.74 47.05 46.91 45.19 43.27 43.05 40.69 43.93 45.80 44.90
60.02 59.62 59.06 58.13 57.25 56.95 56.62 56.38 56.48 56.60 56.24 55.48 54.82 54.52 53.62 53.60 53.78 53.70 53.85 53.04 52.50 51.34 51.46 53.23 50.27 47.94 48.43 56.63 53.73 54.17 51.82 50.97 50.36 51.94 52.16 51.79 51.53 47.25 46.26 43.91 42.21 41.80 38.62 39.60 42.02 45.49 45.32
60.19 59.46 58.83 58.19 57.50 57.17 56.77 56.62 56.42 56.08 55.42 55.09 54.44 53.99 53.62 53.73 53.91 53.28 52.33 52.28 51.57 52.34 51.99 52.34 51.13 46.32 50.46 50.19 53.64 50.77 53.38 52.80 51.60 50.32 49.69 49.68 46.40 44.69 43.40 42.60 37.31 39.10 39.19 40.07 41.08 43.35 45.46
59.52 59.42 58.83 58.27 57.81 57.48 57.62 57.35 56.64 55.71 55.03 54.99 54.44 53.85 54.17 54.76 54.38 52.24 50.97 49.80 46.89 46.33 48.40 47.25 47.89 46.91 49.42 53.12 51.40 50.30 52.09 52.86 51.88 49.63 45.63 45.89 44.02 41.25 42.64 42.59 41.63 41.10 40.31 40.05 40.93 44.46 44.48
57.20 59.07 58.75 58.27 57.89 57.62 57.74 57.34 56.42 55.57 54.85 55.07 54.17 53.86 54.50 54.56 53.72 51.95 50.94 47.69 49.40 52.92 48.84 50.15 50.57 50.45 51.66 52.58 48.03 49.33 54.32 50.10 48.79 44.55 45.50 44.88 41.28 43.48 45.16 44.55 43.16 42.31 40.75 40.24 42.55 44.37 45.01
55.77 57.74 58.36 58.08 57.80 57.50 57.30 57.09 56.00 55.09 54.76 54.77 53.70 53.89 54.50 53.99 52.58 50.53 48.74 49.37 55.46 55.60 48.35 47.35 50.36 49.52 50.40 51.37 47.71 48.83 51.96 50.07 46.24 44.11 43.00 42.47 43.33 45.60 44.96 43.41 43.20 42.13 41.18 39.68 41.19 43.83 45.00
54.58 55.86 57.45 57.63 57.49 57.23 56.75 56.56 55.94 55.53 54.99 54.35 53.09 53.52 53.44 52.81 49.00 50.02 48.38 53.08 53.68 54.37 40.36 42.92 46.08 48.99 50.22 49.81 47.27 50.52 51.68 49.67 45.95 42.33 43.38 44.50 45.44 44.12 43.42 42.81 43.69 41.09 42.90 43.37 41.72 41.39 38.40
54.30 54.38 56.58 56.75 56.67 56.00 55.67 55.33 55.07 55.39 54.85 53.84 52.51 53.32 52.97 52.63 49.53 50.58 55.56 58.97 53.87 51.03 29.61 43.62 46.44 52.37 49.70 47.42 47.71 48.87 51.19 49.22 44.03 43.49 44.58 42.58 43.58 43.08 42.66 42.79 45.00 42.49 44.31 43.41 41.22 39.93 39.81
53.86 53.09 55.95 56.20 55.86 55.45 54.93 54.28 54.20 54.41 54.03 53.15 52.53 53.27 52.97 51.38 50.43 51.69 54.64 54.72 50.50 39.12 29.85 41.64 46.52 45.77 46.20 46.62 46.76 47.59 49.26 50.08 48.02 44.93 45.04 43.42 46.21 45.24 44.53 44.52 44.59 45.22 44.09 43.06 41.64 40.47 35.98
53.31 53.29 53.23 55.75 55.23 54.91 54.40 53.83 53.58 53.75 53.06 52.00 52.21 53.27 52.36 52.73 50.93 55.57 55.22 48.53 38.33 32.94 42.87 40.14 42.30 45.09 44.29 43.94 44.60 44.66 43.57 43.27 42.75 40.36 39.55 42.44 42.71 44.80 46.03 43.92 44.79 44.35 42.16 36.59 35.26 35.15 33.40
52.44 52.80 52.19 55.29 54.87 54.28 53.83 53.31 53.26 53.01 52.54 51.45 51.93 52.31 51.98 52.31 53.39 51.98 48.99 42.74 33.36 38.56 39.25 43.31 42.95 43.60 42.26 44.38 43.54 42.84 42.25 41.06 43.34 42.37 39.11 37.75 36.90 42.55 45.20 44.00 42.29 41.31 41.92 36.92 29.12 30.44 34.48
52.21 52.66 52.39 54.61 54.46 53.89 53.22 53.05 52.92 52.40 51.89 51.16 52.33 51.01 50.78 52.34 53.93 51.72 45.96 33.72 34.81 37.92 42.10 41.87 43.11 40.98 42.01 43.61 42.97 42.40 40.68 40.67 42.22 43.18 40.52 38.34 37.64 43.66 44.09 44.97 44.86 40.25 38.50 41.02 34.27 31.67 32.78
51.63 52.52 52.54 54.14 54.05 53.14 52.59 52.49 52.59 52.02 51.28 52.03 50.21 48.85 50.69 56.64 55.07 49.08 41.59 36.19 40.94 44.43 45.13 43.63 39.06 41.81 39.52 41.77 41.55 41.33 41.37 43.82 43.00 45.04 45.02 42.17 36.96 41.70 43.57 44.95 44.04 43.02 42.11 36.95 36.01 29.54 27.37
51.27 52.03 52.28 53.98 53.22 52.57 52.29 52.56 52.34 51.86 51.07 52.25 50.54 47.98 50.47 54.72 49.97 45.51 37.64 37.73 43.97 47.61 46.52 43.35 41.72 40.98 41.72 41.09 41.64 40.93 40.92 43.94 45.51 44.70 45.18 41.92 40.95 39.57 42.26 40.78 40.41 40.57 38.33 36.29 36.68 33.40 29.88
50.68 51.43 52.16 53.47 52.87 52.36 52.31 52.45 51.97 51.84 51.32 51.31 46.28 41.35 51.63 48.85 41.79 39.31 38.70 42.27 45.45 46.68 47.35 46.98 45.20 43.74 41.89 42.94 41.79 41.30 41.27 43.67 46.03 46.89 43.06 42.57 39.86 36.28 38.13 42.45 43.79 42.21 39.25 38.00 33.57 30.29 29.94
50.53 50.85 51.05 53.00 52.25 51.93 51.85 51.53 50.63 51.44 52.46 50.01 43.49 49.05 54.76 48.66 35.58 34.75 41.03 44.85 46.91 45.02 45.09 46.04 45.41 46.08 46.52 43.07 40.31 42.58 43.15 45.81 44.94 44.77 42.90 42.90 38.38 34.16 36.64 39.74 41.81 40.57 39.46 36.95 35.32 34.07 30.73
49.83 49.65 51.02 52.57 51.96 51.81 51.43 50.12 50.62 51.72 52.73 50.98 48.20 43.90 47.98 43.51 41.52 40.31 40.19 41.68 42.84 45.99 45.99 46.40 45.25 46.50 44.92 43.61 43.83 41.59 42.42 45.02 45.38 44.78 44.05 44.03 37.65 36.77 34.01 35.67 37.86 36.92 38.20 37.47 37.67 33.70 32.23
49.54 49.74 51.59 51.68 51.57 51.33 50.15 50.30 50.77 51.62 52.27 50.17 45.75 43.34 47.42 39.27 38.25 39.81 41.51 41.92 42.05 42.45 46.57 46.63 45.35 45.24 43.77 40.21 41.21 40.65 43.01 42.87 44.55 44.68 43.70 42.27 37.11 36.54 35.92 36.25 37.07 36.89 37.20 36.83 36.29 36.52 35.52
50.20 51.09 50.95 51.13 51.04 50.30 50.22 50.49 50.71 51.37 52.33 48.93 43.73 42.86 41.49 41.42 42.73 40.55 39.51 42.52 42.77 43.99 45.04 44.20 44.04 45.11 45.80 41.34 42.78 40.71 42.21 41.03 41.04 43.44 41.01 39.24 35.10 34.90 34.60 35.58 35.26 35.43 36.85 37.02 36.95 36.81 36.08
49.83 50.89 50.31 49.83 49.48 49.63 49.61 50.15 50.56 51.37 52.63 48.70 48.88 47.44 45.34 36.98 40.51 39.59 39.20 41.53 43.74 45.76 45.38 46.23 45.78 44.15 42.25 45.15 45.17 43.72 43.21 42.58 43.39 42.24 37.54 36.21 33.37 32.42 29.56 31.21 31.65 30.89 34.79 36.51 36.83 37.84 39.51
50.59 49.98 49.79 49.20 48.53 48.82 49.27 50.36 50.59 51.50 51.51 50.93 50.56 47.60 42.12 33.89 37.70 39.00 43.05 45.06 44.65 44.92 44.26 45.88 46.42 44.71 45.65 47.31 45.67 45.09 43.10 42.38 42.03 38.97 38.83 32.71 31.18 29.15 30.83 27.44 27.51 36.91 39.08 38.69 37.69 38.04 39.31
49.28 49.15 49.07 48.56 48.88 50.27 50.00 50.05 50.24 51.37 51.94 53.13 52.07 48.73 42.50 33.33 38.08 40.20 43.35 44.22 44.90 45.57 45.06 45.72 46.58 46.79 47.70 43.68 39.48 37.02 35.79 36.10 36.27 37.64 36.20 36.49 32.59 27.86 30.89 28.42 31.20 35.97 36.10 37.89 37.62 38.63 41.54
48.69 48.52 49.52 50.13 49.64 49.29 49.38 49.78 50.10 50.62 51.45 52.84 52.57 50.39 46.80 39.39 38.33 43.63 43.85 44.34 40.47 40.61 41.50 43.91 47.09 46.89 43.12 36.00 35.20 32.89 33.00 35.04 34.06 37.16 38.54 35.36 32.51 33.94 27.31 28.58 26.26 35.03 37.75 42.52 42.09 35.30 42.13
49.74 49.83 49.82 49.32 49.04 48.96 48.91 49.11 49.61 50.35 51.38 53.52 53.11 51.73 50.07 43.58 46.18 46.26 44.05 43.46 44.02 42.58 41.06 42.59 43.75 43.97 43.22 34.27 32.75 33.53 34.04 35.32 33.00 30.85 30.30 32.76 29.81 30.26 23.19 30.28 31.24 36.58 40.36 42.21 34.13 37.02 41.56
49.18 49.04 48.99 48.90 48.77 48.72 48.88 49.02 49.61 50.21 51.25 54.01 52.93 53.51 51.16 46.97 47.94 50.10 48.10 44.79 44.69 44.99 41.71 44.20 43.34 42.74 37.42 35.67 35.24 33.62 33.85 35.05 34.18 35.03 33.66 33.53 31.38 29.26 25.04 26.42 28.62 38.48 41.07 37.95 43.06 42.44 42.59
48.77 48.72 48.53 48.43 48.13 47.08 47.77 48.94 49.79 50.34 51.13 52.86 53.01 54.42 53.27 49.30 48.44 50.75 51.08 51.14 51.17 48.90 45.91 43.88 45.34 42.89 42.21 37.32 33.69 33.39 33.15 32.97 30.63 33.49 36.81 33.16 35.83 34.33 33.37 34.67 40.19 40.79 42.73 44.00 43.12 42.91 43.81

GFSGBSN_sfc_wetblb_006.txt.gz
Wetbulb
61.65 61.39 60.68 60.37 59.95 59.56 59.28 58.71 58.31 57.41 57.06 56.29 56.85 56.63 56.60 56.08 55.82 56.00 55.61 55.30 55.81 56.07 55.42 54.49 54.09 53.82 53.83 52.56 53.23 62.18 62.35 61.70 59.73 56.34 53.86 53.19 51.63 50.75 47.43 50.21 50.20 48.69 48.81 47.40 46.97 49.78 54.33
60.81 60.88 60.51 60.09 59.74 59.50 59.25 58.63 58.18 57.36 57.07 55.91 56.31 56.14 56.22 55.56 55.34 55.33 55.49 55.12 55.14 55.40 54.15 53.30 53.18 53.09 52.13 49.21 58.00 61.83 62.24 58.68 57.47 55.33 54.89 54.58 51.95 52.92 51.00 50.62 49.67 49.39 47.18 46.26 47.17 50.39 49.86
58.42 60.66 60.14 59.58 59.15 58.75 58.62 57.74 57.83 57.44 57.17 56.76 56.01 55.85 55.64 55.26 55.04 55.22 55.22 54.81 55.09 53.96 52.97 52.47 52.60 52.45 51.00 52.90 58.78 62.02 59.98 58.26 58.05 55.91 54.80 56.47 54.85 51.78 52.24 48.58 49.28 48.99 45.59 47.13 48.50 49.90 48.45
58.01 58.65 60.34 59.35 58.66 57.75 57.34 57.19 57.34 57.11 56.93 56.65 55.65 55.79 55.15 54.52 54.22 54.70 54.28 54.52 53.50 52.61 52.15 52.20 53.17 52.03 51.79 59.17 60.47 58.60 58.94 57.18 57.97 58.00 56.42 55.66 56.10 53.32 50.83 50.34 48.18 46.24 46.94 43.41 47.52 48.37 48.16
57.16 58.24 60.23 59.52 58.26 57.49 56.87 56.82 56.69 56.83 56.77 56.50 55.30 55.30 54.70 53.81 53.66 54.05 54.09 53.27 52.63 51.84 51.65 52.98 52.16 51.67 51.81 58.80 55.67 56.67 57.53 52.77 55.08 56.36 55.59 53.67 54.29 51.43 49.44 47.25 45.12 45.74 41.54 43.02 44.17 49.67 48.19
56.29 57.80 58.85 59.52 58.38 57.65 57.21 56.94 56.61 56.28 56.32 55.96 55.21 54.93 54.17 53.70 53.73 53.48 52.36 52.57 51.86 52.13 52.53 53.16 53.25 49.68 55.41 52.54 56.23 54.20 55.95 54.87 53.20 53.13 51.34 51.70 50.56 48.47 48.31 45.93 40.40 41.77 41.70 43.53 43.29 48.22 48.43
56.12 57.65 58.21 59.63 58.67 58.06 58.01 57.69 56.69 56.02 55.68 55.54 54.97 54.77 54.28 54.05 54.14 52.31 51.99 52.74 51.32 50.25 50.56 52.28 51.63 51.96 51.84 55.46 56.13 53.13 54.99 54.98 54.24 51.46 48.07 50.14 45.98 44.39 46.86 46.86 46.37 45.66 44.82 43.56 46.38 49.25 49.09
54.52 56.24 57.45 59.30 58.77 58.24 58.25 57.74 56.83 55.94 55.68 54.93 54.83 54.54 54.14 54.54 53.55 52.19 52.72 52.65 55.09 56.91 51.22 54.61 53.95 52.90 54.86 55.19 51.00 52.47 56.87 50.92 50.44 46.46 49.78 46.95 44.80 47.16 48.75 47.29 46.73 45.89 44.43 44.88 46.16 48.44 49.21
54.01 55.12 56.37 57.50 58.95 58.12 57.82 57.51 56.54 55.86 55.41 54.67 54.77 54.12 54.04 54.13 52.57 51.28 51.58 53.39 60.31 59.65 53.11 51.65 54.35 52.26 53.04 54.53 50.01 50.29 54.52 52.19 48.85 46.08 47.76 45.98 47.20 49.15 48.42 47.42 46.49 46.70 45.41 45.61 44.85 47.35 49.54
53.36 54.16 55.52 56.21 58.10 57.91 57.42 57.11 56.50 55.68 54.83 54.17 54.24 53.39 53.46 52.34 50.29 54.34 52.02 56.58 58.40 58.60 46.85 46.50 49.27 52.21 52.57 52.96 49.52 53.89 54.89 52.54 49.38 46.60 48.53 48.01 48.56 48.06 48.13 46.38 47.05 44.57 47.21 46.99 46.02 45.58 42.10
52.59 53.64 54.31 54.66 56.24 56.93 56.14 56.16 56.02 55.45 55.03 54.56 53.50 53.11 52.85 52.16 56.00 53.28 59.01 62.87 62.15 57.33 34.89 47.71 48.96 54.63 52.99 50.08 51.27 51.78 54.56 52.80 48.00 47.72 48.40 45.53 47.24 47.22 46.64 46.44 47.94 45.90 49.48 47.99 47.08 46.19 45.05
51.97 52.90 53.75 53.92 54.99 55.92 55.51 55.27 55.03 54.65 54.69 54.27 53.09 53.03 52.94 51.81 53.48 57.19 60.19 61.04 58.37 46.55 34.31 44.67 49.34 48.87 49.13 49.90 49.84 51.82 51.90 53.67 52.38 48.95 49.78 48.09 50.08 49.41 48.24 48.69 48.56 49.45 48.29 47.60 47.35 46.23 40.01
51.15 52.19 52.80 53.72 54.52 55.53 55.31 54.77 54.16 54.00 54.11 53.70 52.77 53.03 52.78 55.81 55.14 59.81 61.93 57.60 45.06 38.68 45.56 43.45 45.45 48.43 48.25 47.18 48.16 49.21 48.90 48.37 46.72 44.04 44.45 47.05 46.97 48.87 50.16 47.71 49.24 48.89 46.61 40.16 38.05 38.72 37.66
50.58 51.53 52.19 53.11 53.50 54.91 54.85 54.21 53.57 53.40 53.49 52.71 52.25 52.15 53.27 55.60 59.29 58.76 57.12 49.10 38.02 42.21 43.58 46.60 46.85 48.00 45.92 47.43 47.13 47.45 47.65 46.00 47.98 47.58 45.38 42.41 40.43 46.31 48.65 47.86 46.31 47.32 46.52 40.68 31.92 34.70 38.30
50.29 51.13 51.80 52.51 52.78 54.49 54.57 53.98 53.09 52.96 52.67 51.95 51.94 51.92 51.12 55.76 56.97 56.75 53.08 44.94 42.14 44.33 46.64 45.35 46.31 44.45 44.85 46.70 46.91 47.21 46.77 46.54 47.14 48.50 43.69 42.49 41.25 47.42 47.67 48.71 48.27 44.84 43.12 46.77 40.66 39.16 38.90
50.06 50.41 50.71 51.48 52.11 53.70 54.01 53.45 52.73 52.55 51.89 51.66 51.69 50.32 54.57 60.40 60.31 56.29 50.78 43.29 45.02 48.58 48.47 47.46 42.52 45.48 43.07 45.15 44.81 45.94 46.31 47.45 46.86 48.68 50.17 46.50 40.68 45.53 46.43 48.62 48.22 46.88 47.65 41.46 43.15 33.59 32.01
49.46 50.01 50.13 51.02 51.87 52.76 53.59 53.00 52.67 52.30 51.74 52.08 54.70 51.41 58.63 62.41 59.41 52.89 46.93 46.14 47.31 51.60 51.16 47.06 45.28 44.42 45.54 45.14 45.99 44.79 45.17 47.30 48.71 47.91 49.66 48.02 45.79 43.40 46.00 45.30 44.93 44.21 43.67 42.48 43.70 40.92 35.43
49.07 49.25 49.65 50.37 52.00 52.49 53.39 52.72 52.33 52.12 51.34 51.42 54.76 48.32 58.36 59.01 50.97 50.47 47.16 47.61 47.71 50.71 50.55 49.71 49.30 47.78 46.84 47.58 46.03 45.90 45.04 47.34 50.16 50.08 46.83 47.67 46.85 42.15 43.41 46.42 47.55 46.88 44.67 43.91 38.96 35.99 38.91
48.79 49.07 49.55 50.21 51.78 51.89 52.83 52.32 52.04 51.38 51.84 52.05 51.12 54.02 57.37 54.66 46.07 47.76 47.32 48.03 50.41 49.12 48.93 49.68 48.44 49.71 49.82 48.12 44.96 47.16 47.41 47.84 48.76 49.40 48.24 48.18 45.16 39.45 40.48 43.95 46.06 44.57 45.12 43.68 42.69 42.01 37.12
48.34 48.85 49.73 50.58 51.34 51.49 52.56 51.89 51.62 51.28 52.12 56.49 53.14 49.53 53.72 51.93 51.68 48.81 46.41 46.54 46.00 50.24 49.60 50.23 49.64 51.02 49.57 47.35 48.54 46.47 46.88 47.14 48.47 48.76 43.86 47.62 45.51 43.33 39.75 41.12 44.54 42.07 43.63 44.08 43.47 38.92 38.71
48.07 48.91 49.31 49.97 50.24 50.60 52.06 51.60 51.07 51.18 51.73 55.32 53.87 50.92 53.05 47.29 47.30 48.66 48.77 47.37 45.46 46.62 50.22 50.86 49.09 49.87 49.11 45.79 46.03 46.07 47.62 46.11 47.88 45.64 48.13 48.54 43.26 42.68 41.83 41.86 41.76 42.17 43.00 43.01 41.73 43.00 39.19
48.57 48.71 48.82 49.15 49.33 49.32 51.49 50.85 50.71 50.96 51.91 53.74 51.51 50.77 51.53 50.37 48.91 47.47 45.02 45.71 45.62 47.78 49.34 48.38 48.79 49.85 50.52 47.61 48.33 46.39 47.92 47.29 46.87 48.08 47.91 45.65 42.92 41.08 39.29 40.89 40.86 40.04 42.72 43.82 43.78 43.81 42.74
48.47 48.50 48.33 48.79 49.15 51.07 50.96 50.42 50.42 50.55 52.80 53.74 56.21 54.38 53.76 43.39 47.67 46.67 45.54 46.76 46.46 51.04 49.50 50.30 51.38 50.61 48.80 49.29 51.00 51.56 50.36 49.88 49.47 48.22 46.06 44.65 41.35 39.01 36.93 37.87 38.37 36.41 40.79 42.87 43.47 45.03 44.31
48.59 48.42 48.80 49.71 50.31 51.20 50.53 49.89 50.06 50.73 54.00 57.96 58.54 56.08 51.75 45.07 47.25 46.25 46.56 47.44 49.57 51.01 49.90 49.81 51.86 51.11 49.68 52.39 52.37 51.42 49.88 48.31 47.64 45.14 45.71 40.18 40.09 38.71 37.88 34.09 32.42 41.42 43.79 43.40 43.70 44.68 45.88
48.30 48.93 50.47 51.24 50.62 50.20 49.76 49.73 50.13 50.92 52.55 58.79 59.23 56.44 51.92 41.21 48.28 46.72 47.27 47.30 49.79 50.57 50.19 50.43 50.44 51.53 53.26 50.76 48.17 43.96 44.53 43.75 43.32 43.63 43.08 43.85 41.59 35.97 37.36 35.69 39.08 40.52 40.50 40.96 41.40 41.99 46.51
49.01 49.57 50.32 49.60 49.06 48.72 48.93 49.39 50.12 50.99 52.21 60.00 60.31 59.40 56.57 49.01 46.77 49.27 47.91 49.81 49.04 49.96 49.46 47.60 50.54 52.56 49.72 49.02 46.34 41.42 39.30 40.93 39.48 41.54 43.60 41.30 41.37 41.86 35.54 36.29 34.09 40.34 42.21 46.49 45.92 39.04 46.36
49.49 49.34 48.71 48.30 48.46 48.77 49.09 49.36 50.07 50.74 52.07 59.15 59.85 58.22 56.64 50.64 51.77 51.60 48.70 48.72 52.28 51.70 50.13 48.40 48.25 48.37 48.79 46.34 43.67 43.93 41.86 41.78 39.15 37.14 36.16 39.29 39.13 37.70 36.36 37.22 39.23 42.85 44.32 46.36 36.38 39.69 47.30
48.61 49.04 49.07 49.27 49.11 49.14 49.24 49.49 49.73 50.58 51.46 57.68 59.04 59.47 59.34 54.84 52.34 53.38 53.37 51.30 50.43 53.03 49.93 49.72 49.16 48.59 47.87 45.82 46.26 43.81 42.81 42.34 40.93 41.31 39.66 39.42 38.53 37.29 34.77 35.34 33.58 43.68 44.66 41.20 46.60 49.02 48.48
48.89 48.83 48.56 48.48 48.40 48.60 48.89 49.29 49.71 50.41 51.42 55.33 58.48 58.85 60.08 56.72 53.95 55.97 55.16 55.10 55.36 56.90 54.15 51.86 52.14 50.61 52.08 48.23 46.01 44.44 38.88 37.10 40.63 40.10 42.15 39.01 43.01 42.53 40.96 42.40 45.30 46.83 48.69 49.91 48.66 48.50 49.28

GFSGBSN_sfc_wetblb_009.txt.gz
Wetbulb
58.86 58.95 61.50 60.93 60.45 60.17 60.16 59.64 58.87 58.09 57.66 57.42 57.16 56.75 57.05 56.80 56.56 56.59 55.89 55.37 55.69 56.41 56.16 55.04 54.47 54.05 54.79 54.38 55.52 63.94 61.95 61.61 59.02 58.05 55.57 53.44 52.15 51.77 48.53 49.76 50.24 49.49 50.39 50.49 49.66 50.50 53.63
57.16 58.30 58.68 60.85 60.50 60.22 60.24 59.70 58.78 57.93 57.73 57.47 56.86 56.45 56.51 56.49 56.11 55.90 55.55 55.24 55.30 55.73 54.89 53.78 53.61 53.31 54.82 50.60 59.44 63.39 60.97 59.00 58.22 57.82 54.80 54.94 53.27 53.35 50.77 50.24 50.18 51.49 50.93 48.03 51.31 52.08 54.57
56.46 57.06 58.03 59.18 59.90 59.75 59.80 58.86 58.25 57.81 57.61 57.42 56.80 56.17 55.99 56.05 55.77 55.50 55.50 55.12 55.32 54.58 53.29 53.09 52.83 54.79 53.50 53.91 60.15 63.36 60.51 57.47 58.30 57.27 54.01 55.80 55.86 52.72 53.41 50.88 52.44 49.88 46.59 46.80 51.01 52.10 52.93
55.78 56.41 57.77 57.90 59.31 58.93 58.52 58.05 57.76 57.68 57.67 57.28 56.93 55.95 55.56 55.34 54.79 54.66 55.07 54.61 53.69 52.93 52.53 52.33 53.16 55.69 52.82 60.41 61.52 59.59 61.58 59.08 59.99 59.40 57.42 57.63 57.79 55.10 52.91 52.40 50.03 47.60 48.33 46.19 50.86 51.24 49.85
55.44 55.86 56.40 57.59 58.04 58.69 58.23 57.70 57.39 57.47 57.51 56.97 56.63 55.63 55.19 54.54 54.13 54.03 54.03 53.23 52.72 52.01 51.65 52.59 54.13 54.93 53.55 58.79 56.10 58.83 59.94 55.79 57.15 57.96 57.87 56.10 55.55 52.71 52.39 47.94 45.99 46.48 41.68 44.63 46.51 50.08 47.87
54.49 55.39 56.02 56.37 57.36 58.77 58.41 57.70 56.98 57.00 56.71 56.67 56.36 55.33 55.01 54.24 53.87 54.03 53.27 52.28 52.20 52.07 53.63 55.40 56.51 53.14 56.45 53.02 57.09 56.30 58.84 56.41 55.17 55.82 52.89 52.67 52.51 49.32 49.01 46.21 39.75 42.55 43.47 44.75 44.29 47.26 47.92
53.52 54.33 55.23 55.95 57.38 58.37 59.24 58.50 57.12 56.34 56.24 56.32 56.06 55.49 54.93 54.24 54.05 52.96 52.32 54.86 53.20 53.10 53.94 53.82 54.00 53.45 53.63 56.76 57.85 55.83 56.39 55.39 55.43 54.24 48.31 51.08 47.55 45.41 47.06 47.81 47.68 46.68 44.44 43.74 46.27 48.23 47.03
53.04 53.92 54.59 55.24 56.75 58.22 59.29 58.68 57.14 56.14 56.14 56.14 55.62 55.15 54.64 54.44 54.49 52.60 54.23 53.84 57.57 59.40 53.61 54.98 55.03 54.88 56.21 56.58 51.84 53.82 56.86 52.23 51.74 48.05 49.82 48.13 45.31 48.73 49.75 49.17 47.05 46.08 44.65 45.04 47.32 49.04 49.97
52.80 53.23 54.05 54.65 55.77 57.16 58.97 58.45 57.07 56.08 55.84 55.68 54.99 55.01 54.54 54.10 52.94 51.98 54.34 55.49 62.52 61.76 55.01 53.72 54.97 53.94 54.13 55.79 51.51 52.05 54.57 52.90 50.17 47.71 47.94 46.62 47.88 49.97 48.38 46.84 45.62 46.09 44.78 45.67 45.76 49.16 50.51
52.30 52.41 53.06 54.16 54.93 56.11 57.47 57.94 57.01 56.08 55.62 55.17 54.54 54.24 53.47 52.50 50.63 56.91 54.73 58.80 59.45 59.70 49.52 48.15 50.71 53.61 54.46 54.74 50.18 54.89 55.56 53.27 50.69 46.85 49.01 47.38 50.60 49.01 47.57 46.08 47.90 44.09 49.07 48.08 46.39 46.53 42.45
50.68 51.89 52.37 53.05 53.81 54.75 55.56 56.68 56.64 56.18 55.55 54.64 54.18 53.57 53.01 52.62 58.45 55.10 61.54 64.18 62.62 60.75 37.09 49.37 50.76 56.67 54.74 51.57 51.88 52.41 56.40 52.80 48.87 48.59 49.31 47.32 48.63 47.79 46.69 47.85 49.56 46.93 50.65 48.93 48.28 47.13 45.87
50.17 51.46 51.89 52.51 53.23 53.97 54.56 55.50 55.58 55.41 55.05 54.48 53.82 53.49 52.97 52.66 55.20 59.44 62.67 64.07 62.17 47.55 36.52 46.00 50.50 49.68 50.15 50.64 50.50 52.86 51.76 54.30 53.30 49.50 49.77 48.86 52.39 50.76 50.08 50.36 50.30 51.19 49.13 48.66 48.12 46.56 40.59
50.29 50.81 51.55 51.92 52.49 53.25 53.81 55.07 54.93 54.97 54.44 54.30 53.48 53.35 53.43 57.15 56.44 62.06 63.44 60.79 46.77 39.73 48.00 44.61 46.17 49.01 48.84 47.42 48.66 49.81 48.46 47.88 45.26 42.51 44.21 47.51 48.15 50.63 51.45 48.37 50.79 49.84 47.10 40.08 38.99 39.59 38.09
49.17 50.29 50.83 51.31 52.07 52.57 53.25 54.44 54.39 54.17 54.08 53.76 52.73 52.55 53.43 57.66 60.67 62.14 61.74 53.45 40.09 44.61 45.62 48.05 47.50 48.11 46.12 47.93 48.11 48.67 47.28 45.45 48.62 48.36 44.98 42.68 41.74 48.39 50.99 49.52 46.84 47.51 46.43 40.65 33.45 35.53 39.15
47.30 48.97 50.00 50.75 51.57 52.19 52.96 53.98 54.13 53.55 53.32 52.55 52.06 52.82 53.00 55.64 58.90 59.96 56.29 44.83 43.86 45.03 48.27 46.43 46.82 44.75 45.63 47.28 47.28 48.56 48.04 46.80 48.22 49.41 43.95 43.32 42.47 49.61 49.92 50.82 49.92 46.87 44.22 48.51 43.08 43.35 39.70
47.27 47.72 48.85 49.96 50.60 51.76 52.57 53.52 53.73 53.25 52.47 51.79 54.11 51.36 54.28 58.87 59.28 57.16 51.80 44.27 47.65 49.57 49.61 48.67 43.45 46.31 43.99 45.71 45.14 46.85 46.79 49.28 48.66 50.87 52.30 47.42 42.30 47.55 48.61 50.67 50.37 48.53 49.83 42.34 43.12 34.06 33.17
47.04 46.86 48.67 49.40 50.35 51.14 52.17 53.40 53.43 52.91 52.08 51.86 55.56 51.29 58.73 61.10 59.19 52.77 46.98 47.78 49.09 51.99 51.71 48.09 46.17 45.37 46.52 45.71 46.25 46.15 46.89 49.68 51.24 50.42 51.54 49.20 46.55 45.64 47.75 46.37 45.61 46.46 44.58 45.07 45.52 44.03 37.07
46.25 47.09 47.43 48.97 49.86 50.65 51.81 53.11 53.19 52.40 51.68 51.51 54.13 47.97 60.55 62.45 50.26 52.10 49.00 50.32 49.32 51.42 53.48 50.64 50.58 48.28 47.37 47.80 46.37 46.04 45.64 47.93 52.67 52.15 47.18 49.56 47.69 43.74 45.22 49.23 50.26 49.55 47.32 46.86 40.64 38.94 41.59
46.42 45.96 46.60 49.02 49.31 50.07 51.26 52.47 52.67 52.01 51.72 53.75 51.62 53.37 60.18 59.49 46.87 50.55 51.43 49.97 50.46 50.90 50.80 50.36 48.42 49.96 50.07 47.88 44.90 47.16 47.81 51.55 52.38 51.78 48.94 50.85 45.90 40.92 42.53 46.45 48.24 45.54 47.35 47.17 45.51 44.35 39.64
45.87 46.63 47.43 48.86 48.95 48.89 50.87 52.04 52.45 51.66 51.86 56.58 53.11 48.84 52.72 52.82 54.99 51.05 48.91 48.35 47.75 52.46 51.19 51.86 49.73 51.46 50.36 48.42 50.36 47.91 48.68 50.00 51.59 52.06 45.50 49.38 47.19 44.21 40.33 43.39 46.89 44.11 45.04 46.48 45.07 40.60 40.76
46.16 47.44 47.82 48.37 49.03 48.69 50.67 52.07 52.10 51.42 51.73 55.12 53.86 50.54 53.57 47.98 51.21 51.70 50.99 48.99 46.96 47.35 52.03 53.14 50.88 50.03 48.96 46.24 47.99 47.91 50.67 49.08 50.39 46.65 49.50 50.70 44.55 46.19 46.75 45.96 45.17 44.92 44.85 45.43 43.67 44.08 41.59
46.56 47.26 47.81 48.36 48.85 49.30 50.21 51.34 51.41 51.37 51.63 52.83 51.46 51.78 54.31 52.98 52.66 50.83 47.63 47.70 47.48 49.10 50.58 49.84 49.26 50.11 50.79 48.22 49.06 47.06 50.43 50.01 49.03 50.94 50.50 50.77 45.17 45.27 42.97 45.88 44.92 43.23 45.04 44.65 45.03 45.10 44.18
47.17 47.25 47.85 48.60 49.01 49.68 49.77 50.36 51.18 51.26 52.15 52.75 57.44 57.44 55.51 49.38 51.78 49.13 49.16 48.29 48.61 51.62 52.44 52.89 51.66 51.45 49.87 51.75 54.68 54.68 54.80 53.82 53.04 51.12 49.70 48.46 45.94 42.01 38.53 42.15 42.54 37.62 43.01 44.91 45.23 46.36 45.63
47.34 47.65 48.34 48.75 49.25 49.55 49.25 47.89 50.93 51.08 52.83 56.61 57.64 57.25 50.97 48.04 51.29 48.71 48.94 49.37 49.05 51.16 50.91 52.50 53.98 52.27 53.49 56.28 55.60 54.50 52.81 51.41 50.48 49.82 52.09 45.72 45.15 43.20 39.40 36.25 31.17 43.26 46.84 45.99 45.32 46.66 47.76
47.29 47.93 48.75 49.16 49.15 48.37 48.71 48.21 50.74 50.69 51.58 58.07 60.86 57.84 53.95 46.29 50.24 48.92 48.90 48.54 50.72 53.01 53.09 53.04 53.48 55.71 56.75 54.74 49.29 45.60 45.95 45.51 45.51 46.87 46.50 48.60 45.75 39.80 39.02 37.53 41.05 42.48 43.66 43.26 42.85 43.13 47.70
47.65 48.23 48.60 48.56 48.47 48.15 48.23 48.77 50.31 50.37 51.52 56.57 58.95 62.40 57.33 51.37 49.70 51.11 49.04 49.43 50.31 51.30 51.69 50.57 54.38 56.87 54.58 53.61 49.09 41.78 39.97 42.99 42.29 44.57 46.74 44.88 45.76 42.99 38.34 35.69 32.85 42.79 45.47 48.54 47.78 40.04 47.43
47.46 47.95 48.25 48.52 48.68 48.72 49.61 49.53 49.83 50.19 50.95 56.17 61.18 63.18 56.96 50.80 52.85 52.67 49.25 48.93 51.99 52.54 51.96 51.30 51.33 50.85 53.19 50.15 44.45 44.11 42.78 45.88 40.68 39.27 38.35 41.20 42.00 39.27 38.97 38.14 41.38 45.87 46.48 48.33 37.82 41.57 48.45
47.47 48.03 48.37 49.18 48.75 48.41 49.25 49.23 49.29 49.89 50.46 53.75 61.63 63.50 58.24 52.83 54.32 54.36 53.79 52.11 52.33 52.95 51.58 53.12 51.21 51.71 51.23 46.84 47.03 46.67 45.22 45.82 44.11 45.03 42.87 41.51 40.48 39.62 40.59 35.75 34.01 46.74 46.66 42.37 48.41 50.10 49.84
46.98 48.36 48.50 48.49 48.42 48.61 48.86 48.88 49.08 49.66 50.26 52.44 59.99 62.89 64.59 56.22 56.28 58.62 58.94 58.62 57.67 57.36 56.05 54.52 53.56 53.17 53.84 51.22 49.77 50.92 42.90 40.69 44.99 40.65 46.94 41.85 45.57 44.75 43.49 43.94 48.49 49.24 48.30 50.39 50.88 49.89 49.99

GFSGBSN_sfc_wetblb_015.txt.gz
Wetbulb
56.50 56.50 56.90 57.66 57.72 58.68 59.74 60.96 59.95 59.16 58.54 58.25 57.94 57.69 57.81 57.35 57.41 56.67 55.27 54.62 54.56 55.26 56.01 56.28 55.95 54.97 51.26 49.69 52.79 61.26 62.18 62.09 56.43 54.90 52.10 51.48 50.51 47.73 43.77 45.04 45.85 45.11 45.98 48.81 52.45 52.86 52.53
55.96 55.94 56.02 56.55 57.02 57.73 58.77 59.63 60.29 59.04 58.52 58.01 57.63 57.46 57.23 57.20 56.90 56.61 55.51 55.15 54.85 55.25 55.54 56.09 55.32 54.55 48.87 47.28 59.55 60.70 57.84 55.44 53.78 53.38 52.92 52.82 49.72 49.85 47.62 46.81 44.80 47.70 46.73 45.39 47.25 50.61 51.89
55.63 55.92 55.83 55.91 56.03 56.67 57.84 57.99 59.59 59.24 58.65 58.26 57.62 57.28 56.91 56.61 56.26 56.18 55.41 55.04 54.76 55.04 55.50 54.92 54.15 51.67 49.35 48.75 56.97 56.92 57.62 53.42 52.85 52.96 51.06 53.26 51.97 50.41 49.56 47.34 51.21 48.58 43.93 44.52 48.14 50.01 49.93
55.46 55.50 55.78 55.52 55.59 55.66 56.51 57.24 58.03 59.19 58.86 58.40 57.90 57.28 56.58 55.67 55.41 55.08 54.57 54.39 54.85 54.94 54.76 54.37 53.59 49.89 47.30 59.12 56.13 56.05 55.54 53.81 54.43 54.64 53.99 54.79 54.21 51.50 49.35 50.09 48.80 44.93 44.27 38.94 47.10 49.31 51.06
54.82 55.19 55.36 55.07 55.14 55.44 55.47 56.29 57.23 58.46 58.93 58.13 57.62 56.93 56.24 55.34 54.73 54.47 54.18 54.45 54.61 54.60 54.36 53.70 48.94 48.83 49.19 59.96 55.72 57.04 56.32 56.02 55.52 55.91 55.11 56.13 52.27 48.23 49.17 43.68 41.20 42.91 37.14 42.38 44.53 49.25 47.22
53.65 54.58 54.91 54.63 54.41 55.02 55.57 56.03 56.44 57.46 58.03 57.86 57.19 56.75 56.22 55.18 54.55 53.77 53.65 54.10 54.21 52.91 52.50 52.72 52.11 46.83 52.47 52.73 56.41 56.29 55.75 55.51 53.54 53.42 52.10 50.52 46.11 43.51 43.20 40.56 35.75 37.74 40.31 40.29 42.21 44.64 45.17
53.17 53.50 54.37 54.68 54.29 54.69 54.79 55.85 55.95 56.76 57.35 57.41 56.96 56.66 56.22 54.92 54.43 53.61 51.82 49.97 47.30 47.55 48.34 47.93 49.53 49.90 52.55 55.33 55.84 53.64 54.79 53.38 52.67 50.48 43.21 46.46 40.78 38.74 42.91 44.77 45.74 44.55 41.98 41.62 42.57 46.01 42.42
52.81 53.36 53.33 53.51 54.41 53.99 54.06 54.43 54.82 56.29 57.15 57.33 56.69 56.26 55.75 54.79 54.12 53.98 50.47 48.26 51.98 52.22 47.20 53.38 51.50 51.92 54.00 55.32 51.05 52.61 54.07 48.93 48.80 44.72 46.43 44.12 40.15 46.11 48.42 47.74 45.40 44.19 41.95 41.47 43.91 43.93 41.57
52.15 52.46 53.01 52.92 54.23 54.30 54.19 54.37 54.42 55.36 56.77 56.67 56.29 55.69 55.16 54.18 53.68 52.25 49.25 50.59 55.02 53.91 47.06 53.02 54.72 51.93 51.22 54.10 50.62 50.18 51.39 49.38 47.16 45.69 45.95 42.35 45.58 49.55 48.25 46.00 44.01 44.04 43.30 41.20 41.59 42.30 41.90
51.16 51.14 51.79 52.36 53.08 53.65 53.75 53.82 54.26 54.78 56.37 56.09 55.60 54.96 54.00 53.14 50.16 51.22 49.65 54.54 53.91 52.71 41.71 47.58 50.64 49.76 51.47 52.53 48.95 53.31 52.59 49.83 47.67 45.08 46.42 45.37 48.15 47.43 46.26 44.85 44.60 40.87 46.58 46.04 44.39 42.09 35.48
50.05 50.26 50.54 51.49 51.91 52.04 52.58 52.97 53.59 54.35 55.87 55.63 55.02 54.37 53.09 53.49 50.99 51.12 56.58 57.19 54.99 53.12 31.22 47.93 48.66 54.91 53.21 49.74 49.63 50.06 52.86 50.39 45.63 47.84 45.89 44.52 46.28 45.85 44.61 45.28 47.04 43.06 46.61 45.46 45.36 41.23 41.64
50.16 49.71 49.67 50.27 51.27 51.26 51.87 52.51 52.76 53.63 55.10 55.35 54.72 54.13 52.93 52.06 51.22 51.79 54.83 55.36 57.89 43.14 31.35 46.35 49.73 48.23 47.69 48.90 48.68 49.74 48.94 51.50 49.88 46.24 47.06 45.43 48.82 47.19 46.39 48.72 47.55 48.71 45.52 44.55 43.29 39.74 32.91
49.49 49.63 49.41 49.67 50.02 50.45 50.69 51.87 52.18 53.06 54.21 54.95 54.30 53.89 52.67 53.88 50.32 56.10 54.08 54.43 40.26 32.35 46.82 44.23 44.68 47.73 46.52 45.41 46.45 47.05 45.65 43.74 40.39 38.13 39.47 44.56 44.55 49.02 49.87 44.93 47.37 46.45 41.28 33.03 31.25 30.39 29.19
48.12 48.86 48.69 48.61 48.92 49.58 50.08 50.44 51.67 52.46 53.79 54.47 53.66 52.89 52.99 53.06 55.41 56.30 55.16 49.53 36.16 41.97 42.84 47.85 46.62 46.46 43.24 45.55 44.96 45.62 43.95 40.55 43.27 42.72 39.17 38.87 36.31 44.36 47.69 44.32 42.85 43.39 40.70 33.47 27.36 27.55 33.66
47.60 47.40 48.00 47.94 47.89 48.54 49.39 49.83 51.00 51.99 53.27 53.85 53.03 52.35 52.16 51.91 53.19 53.90 51.51 41.10 37.37 43.94 45.48 45.76 45.14 42.09 41.95 45.01 44.26 43.63 41.76 40.87 42.89 43.71 38.07 38.38 40.36 47.61 48.81 48.80 46.57 43.26 38.14 43.02 37.07 38.07 34.07
47.28 47.38 47.34 47.01 47.86 48.11 49.16 49.68 50.68 51.80 53.21 52.99 51.24 50.42 49.73 53.50 54.10 52.33 46.16 40.63 44.37 48.86 49.36 47.21 41.40 42.97 39.45 42.26 42.72 42.11 41.89 44.80 43.87 45.77 47.59 43.95 38.33 45.25 47.37 49.15 47.21 44.44 45.19 36.48 36.36 28.10 26.40
46.59 46.83 46.86 46.55 46.77 46.99 48.48 49.68 50.68 51.91 53.05 52.90 51.04 46.63 50.89 54.67 54.22 49.18 39.93 42.03 46.65 51.06 50.56 47.30 44.15 42.10 42.63 42.22 43.52 41.47 42.75 45.68 46.60 47.27 48.56 44.87 42.58 41.88 46.03 43.87 41.02 41.70 39.45 40.08 39.80 34.44 27.71
45.56 45.98 46.05 46.20 46.38 46.87 47.79 49.26 50.27 51.51 52.51 51.28 50.19 41.98 51.50 54.86 43.71 43.89 39.66 45.10 47.56 49.26 51.45 49.55 48.28 45.61 43.33 45.20 42.71 41.56 42.33 46.71 51.24 48.44 44.54 46.02 42.51 34.43 41.42 46.68 47.01 44.42 42.23 41.55 29.99 31.76 31.83
45.16 45.40 45.57 45.56 46.32 46.95 47.60 48.99 49.83 51.01 52.06 49.58 46.65 47.08 53.61 51.32 36.64 38.73 42.47 45.33 48.60 48.47 48.37 47.74 47.12 47.68 47.61 44.97 41.38 42.91 45.90 50.26 50.75 48.39 44.94 45.96 38.81 29.70 35.67 42.09 45.32 41.59 42.93 43.01 42.75 35.77 31.76
44.59 44.87 45.12 44.94 45.46 47.00 47.78 48.23 49.71 50.32 52.07 50.54 47.37 41.35 48.55 49.49 46.12 41.69 40.25 42.02 44.11 50.50 49.37 50.13 48.28 48.56 45.67 44.40 46.12 43.49 45.24 49.80 50.33 48.32 45.79 47.81 42.68 36.46 30.60 37.16 42.09 39.45 42.28 42.36 40.29 29.80 30.34
44.29 44.47 44.32 44.77 44.18 46.97 47.29 47.59 49.00 49.94 51.47 50.43 47.60 42.13 47.96 42.27 43.67 43.45 43.73 44.10 43.85 44.89 49.53 50.14 46.52 46.47 44.68 39.80 42.96 42.15 46.38 47.01 49.38 47.03 47.03 45.40 38.04 39.68 41.82 44.08 44.38 42.68 42.93 42.54 38.97 39.42 33.18
43.84 44.15 44.44 44.24 46.00 46.47 46.83 47.18 47.95 49.44 51.24 47.82 44.74 43.98 47.61 44.20 46.28 44.45 43.21 43.53 44.43 46.08 47.37 46.05 45.86 46.33 45.50 42.55 44.64 42.47 46.46 45.84 44.67 46.34 44.32 45.76 37.71 38.30 36.82 43.29 42.26 39.61 41.82 41.88 41.74 41.48 39.78
44.47 44.68 44.94 44.85 45.69 46.52 47.14 47.00 47.25 49.34 50.66 46.18 46.75 49.57 48.76 45.39 44.35 42.68 41.97 45.74 45.93 48.09 49.01 49.36 48.50 46.70 44.59 47.84 49.39 49.99 49.66 49.59 48.88 45.37 42.78 42.20 36.80 33.41 31.44 37.12 36.40 29.44 37.19 40.77 41.82 42.69 40.79
44.83 45.14 45.54 45.84 45.95 46.70 46.92 46.88 46.93 49.10 50.24 48.91 47.19 49.30 46.92 41.33 44.08 43.19 46.07 48.45 47.18 47.90 47.17 49.26 49.73 46.55 50.46 53.13 51.40 49.68 48.30 49.37 49.43 49.02 48.85 39.72 37.90 32.77 29.43 29.75 21.33 37.99 44.32 43.09 41.95 42.27 42.07
44.68 45.19 45.17 45.62 46.18 46.62 46.79 46.42 47.60 48.85 50.51 47.24 49.97 50.47 48.18 37.51 45.60 45.02 47.12 47.67 49.78 49.93 48.17 50.54 52.28 52.94 53.33 50.04 42.62 39.06 35.42 35.55 40.52 46.53 46.60 46.80 36.51 32.37 27.28 27.62 34.14 38.56 41.56 41.03 38.75 38.00 42.85
45.20 45.65 45.43 45.45 45.89 45.93 46.10 47.00 48.21 49.04 50.68 48.52 47.73 50.55 50.98 46.55 44.52 48.45 47.02 48.82 45.49 43.58 46.30 49.22 52.78 53.16 53.64 45.68 35.93 32.79 30.83 35.81 35.50 39.97 44.62 43.10 39.32 31.79 29.07 25.69 21.16 35.88 42.75 45.55 44.02 31.71 43.84
45.23 45.42 44.73 45.23 45.82 46.33 46.22 47.78 48.02 49.18 50.22 49.40 48.01 50.70 48.18 48.70 49.39 49.49 46.98 47.28 49.13 47.65 44.90 49.10 48.48 46.55 51.01 35.14 35.00 30.88 32.13 42.53 34.16 33.48 31.86 31.01 31.20 28.22 25.42 23.48 31.14 43.61 44.45 44.89 30.61 33.05 44.16
45.25 45.00 45.66 46.33 46.61 46.91 47.55 47.91 48.55 49.08 49.38 49.69 48.04 51.05 50.50 49.94 49.88 51.82 52.27 48.71 48.37 48.41 42.57 48.92 45.73 45.49 40.18 37.09 35.00 33.29 32.51 35.18 35.03 40.51 36.45 33.16 30.79 28.22 31.68 28.91 27.02 44.79 43.03 35.68 41.13 43.69 44.55
45.30 45.59 45.94 45.91 46.03 46.67 47.66 47.67 47.83 48.05 48.04 48.40 45.78 51.75 53.39 48.94 51.87 55.75 55.69 55.15 55.20 54.43 50.46 48.13 46.30 47.76 47.33 41.33 39.49 37.14 33.14 34.28 33.72 30.10 43.43 34.20 38.73 33.96 35.96 33.82 42.85 43.62 43.47 46.33 45.52 44.25 43.95

GFSGBSN_sfc_wetblb_018.txt.gz
Wetbulb
56.51 56.32 56.51 56.69 57.47 57.43 58.34 58.89 59.75 59.37 58.86 58.51 58.07 57.81 57.79 58.04 57.73 57.00 56.36 55.42 55.55 55.56 55.68 55.85 55.86 55.11 50.09 48.03 50.44 59.85 62.59 62.30 56.67 53.88 50.61 49.09 48.86 47.09 42.87 43.68 43.14 42.74 44.92 45.87 50.21 51.38 51.19
56.07 56.20 56.09 55.96 56.40 57.08 56.78 58.08 58.00 59.38 59.08 58.47 57.86 57.40 57.16 57.41 57.15 56.65 56.14 55.37 54.98 55.04 55.27 54.90 55.05 54.06 48.81 44.66 57.88 59.57 57.58 54.21 52.76 51.58 50.87 50.20 49.84 48.72 46.01 45.45 43.44 46.53 45.68 44.60 50.56 50.90 51.53
55.83 55.82 56.14 55.90 55.89 56.01 56.24 56.94 57.20 58.14 59.29 58.94 58.15 57.27 56.91 56.87 56.60 56.16 55.77 55.12 54.45 54.80 55.34 55.03 53.97 51.42 47.86 45.06 57.20 56.74 55.83 51.87 51.39 51.74 49.52 51.51 51.51 48.93 48.69 46.28 49.09 48.66 42.70 45.58 47.40 48.74 48.74
55.17 55.82 55.68 55.78 55.88 55.66 55.68 56.02 56.55 57.10 58.54 58.98 58.63 57.51 56.44 56.14 55.53 55.10 54.88 54.43 54.17 54.90 54.94 54.60 53.37 48.91 43.92 56.16 54.42 53.93 53.95 52.43 53.12 52.55 51.97 52.63 52.62 49.92 48.37 48.71 47.50 44.01 41.52 38.30 45.87 49.35 48.74
54.65 55.04 55.58 55.47 55.28 55.42 55.45 55.39 55.82 56.55 57.73 58.69 58.40 57.32 56.15 55.63 55.00 54.39 54.33 54.15 54.11 54.82 54.72 54.47 48.12 48.09 46.44 57.72 55.25 56.87 54.85 52.82 52.75 52.38 52.32 54.41 50.67 46.89 47.43 42.26 39.13 39.99 35.26 39.79 43.03 48.68 48.72
54.34 54.35 54.49 55.02 54.83 55.09 55.28 55.44 55.37 55.83 56.34 57.44 57.96 57.26 56.22 55.41 54.63 53.96 53.46 53.82 53.72 52.98 51.96 52.56 50.99 43.81 49.49 50.81 55.55 55.34 54.28 55.21 52.91 51.52 50.57 48.88 44.33 41.96 41.93 39.54 33.46 36.51 39.07 39.21 40.34 44.70 46.61
53.60 54.15 54.31 54.05 54.65 54.83 54.89 55.47 55.72 55.12 56.13 56.60 57.54 57.28 56.30 55.40 54.47 53.51 51.62 49.20 47.47 47.32 47.20 44.49 45.31 46.41 49.06 53.47 55.22 53.46 53.88 52.40 51.64 48.67 42.39 45.13 39.74 37.18 40.34 41.93 43.52 43.27 41.41 40.62 40.67 44.37 42.19
53.04 53.58 53.63 53.74 53.94 54.14 54.86 54.71 54.06 54.51 54.90 56.47 56.99 56.77 56.01 55.04 54.14 53.51 50.43 46.76 49.59 49.45 44.78 51.39 51.51 50.92 52.88 53.12 48.07 51.52 52.90 47.85 47.59 43.01 44.34 41.63 37.84 43.46 45.26 46.62 44.99 42.63 40.53 39.62 42.21 44.18 41.69
52.54 52.65 53.04 53.07 53.50 53.35 53.48 54.32 53.73 53.82 54.31 55.61 56.45 56.43 55.44 54.10 53.58 51.78 48.84 48.78 53.79 52.46 44.58 49.89 52.93 52.18 53.18 51.54 48.13 49.66 50.67 47.76 45.83 43.57 43.30 39.83 42.96 47.38 47.20 44.79 42.76 41.39 41.03 40.25 39.95 40.44 42.10
51.87 51.89 51.89 52.55 53.01 53.09 52.97 53.99 53.72 54.08 54.12 54.86 55.75 55.59 54.03 53.22 49.38 50.39 48.82 53.49 53.49 51.48 40.23 44.64 49.64 52.20 50.19 50.16 46.98 52.48 51.50 48.71 45.23 43.12 43.84 42.33 46.03 45.46 44.72 43.49 43.34 38.05 44.83 44.33 43.09 39.05 34.31
51.42 51.35 51.37 51.56 52.06 51.97 51.72 52.29 53.30 53.59 54.06 54.45 55.27 54.78 53.11 53.04 50.40 50.27 54.02 54.15 53.32 51.92 25.55 45.30 49.39 53.54 49.65 47.98 48.26 48.63 51.63 48.22 43.73 45.03 44.36 41.80 43.98 43.23 43.73 43.61 45.49 41.85 44.47 43.38 43.55 38.83 36.54
50.05 50.86 50.94 50.99 51.16 50.73 50.95 51.37 52.22 52.66 53.43 54.23 54.75 54.34 53.07 51.76 50.48 50.48 52.81 54.57 55.16 38.47 28.81 44.88 47.75 46.48 45.97 47.40 47.57 48.03 47.73 49.45 48.28 44.96 44.59 42.65 47.08 46.38 45.75 47.65 46.68 46.51 43.54 42.87 40.45 37.93 30.01
48.90 50.02 50.57 50.44 50.42 50.08 50.08 51.12 51.18 51.72 52.81 53.68 54.57 54.20 53.13 53.21 48.39 53.72 55.10 54.96 41.85 33.74 44.80 43.30 43.22 46.24 44.90 44.22 45.20 45.37 43.96 42.26 39.57 36.47 37.43 41.97 42.76 46.32 48.27 42.91 45.87 44.15 39.25 31.79 29.74 27.85 27.29
48.04 48.98 50.22 50.07 49.91 49.46 49.02 50.27 50.53 50.91 52.25 52.94 53.93 53.11 53.42 52.91 52.56 53.53 54.34 48.27 34.07 39.71 41.51 46.78 45.09 45.10 42.09 44.13 43.72 43.87 41.60 39.17 41.40 40.76 37.23 36.49 34.44 43.29 47.40 43.32 40.17 41.83 39.08 30.80 26.08 25.57 31.13
48.22 48.46 49.58 49.93 49.65 49.26 49.10 49.32 49.78 49.89 51.59 52.42 53.32 52.63 51.82 52.58 52.02 53.39 50.10 39.37 35.60 41.29 44.48 43.33 44.15 41.00 40.59 43.46 43.05 41.90 40.60 39.80 42.03 41.84 36.99 35.93 37.47 45.61 46.87 47.03 45.18 40.97 36.77 41.03 34.40 34.46 31.31
47.49 48.56 48.66 48.62 48.81 48.72 48.65 48.47 49.48 49.88 50.66 52.08 50.36 50.12 50.57 52.85 52.70 51.22 45.38 38.08 42.09 47.58 47.83 45.40 39.50 41.78 37.66 40.23 39.98 39.58 39.58 42.65 42.22 43.50 45.53 42.09 36.39 44.96 46.35 47.13 46.04 42.57 43.03 35.31 34.40 28.18 26.91
47.20 47.64 47.82 47.84 48.20 48.12 47.86 48.05 48.41 49.51 50.50 51.53 48.78 45.04 51.30 53.66 52.56 45.76 40.04 38.72 43.48 49.18 49.10 45.83 43.00 41.07 41.05 39.99 41.13 39.56 40.39 43.35 44.43 43.80 46.26 43.76 39.33 39.39 44.62 42.70 41.87 40.33 37.97 38.05 37.92 32.32 27.53
46.78 46.57 46.99 47.14 47.26 47.32 47.75 47.65 48.24 49.08 49.88 49.30 46.50 40.43 51.51 52.98 41.85 41.81 40.43 43.01 44.13 46.43 49.63 48.35 47.27 44.77 41.24 41.71 40.80 40.23 40.62 43.93 48.52 47.03 42.78 44.49 40.28 32.03 40.00 45.78 46.67 43.17 40.51 38.81 29.14 30.68 29.55
46.67 46.23 46.80 47.07 47.03 46.75 47.16 47.52 48.07 48.27 49.66 46.35 42.76 44.60 51.74 50.33 36.53 36.08 41.79 43.58 44.71 44.55 46.46 46.77 45.28 46.47 45.66 42.52 38.93 41.66 43.21 48.05 49.77 46.91 43.88 43.99 37.65 29.41 35.01 40.11 43.05 40.25 41.30 41.52 39.06 32.64 30.17
46.45 45.94 46.10 46.67 47.02 46.98 46.60 46.83 47.28 47.98 49.64 47.51 44.03 38.50 45.32 46.96 44.01 38.75 38.70 40.30 40.46 46.04 45.79 47.96 47.26 47.21 44.25 41.80 44.19 42.72 43.92 47.73 49.08 48.19 46.02 45.89 39.36 34.87 30.10 35.54 39.85 37.19 40.63 40.59 38.87 29.06 30.18
45.79 45.51 45.71 46.21 46.33 46.27 46.39 46.73 47.13 47.28 49.13 47.28 44.37 41.44 43.10 37.27 39.99 40.30 40.56 41.10 39.30 39.39 47.20 48.21 45.60 46.08 43.49 38.48 40.30 40.53 44.78 45.39 47.19 45.44 46.43 43.50 37.09 38.30 39.26 41.44 41.57 40.20 40.00 39.95 37.86 37.02 32.24
45.48 45.41 45.42 45.56 45.63 46.06 46.36 46.64 46.90 47.46 48.96 44.81 41.25 43.36 44.17 42.12 42.33 40.28 39.77 38.92 39.09 41.00 43.78 44.10 44.23 45.81 44.13 40.42 41.86 41.56 44.84 43.55 42.72 44.62 42.84 43.57 36.12 36.62 35.56 39.72 39.82 37.35 39.60 39.35 39.77 39.50 38.36
45.24 45.08 45.01 45.16 45.25 45.73 46.27 46.61 46.51 47.58 48.97 43.43 45.46 47.85 46.04 41.55 41.49 39.62 39.93 40.08 40.50 42.63 45.61 46.47 46.67 45.40 41.88 44.48 46.67 47.02 48.19 47.35 46.55 43.83 41.11 40.12 35.46 31.84 30.79 34.46 34.56 29.26 35.65 38.67 39.80 40.42 40.21
44.70 44.87 44.86 44.87 44.99 45.46 45.09 45.58 46.89 47.71 48.81 47.07 46.69 47.20 44.61 38.82 42.33 41.08 42.43 42.68 41.68 43.85 42.29 47.75 48.15 45.12 47.43 50.67 48.44 46.79 46.26 46.33 47.63 46.38 46.07 37.45 34.75 30.53 27.76 28.44 22.00 37.72 41.87 41.80 39.35 39.19 40.03
44.43 44.62 44.81 44.79 44.94 45.32 45.06 45.84 46.58 47.05 47.28 46.87 48.76 46.35 44.88 33.81 43.49 43.58 43.34 43.44 44.52 45.81 45.80 46.06 48.76 49.97 51.58 47.29 40.24 36.81 34.00 36.05 40.57 44.94 44.99 46.24 35.25 30.80 26.36 26.55 32.68 37.55 39.60 38.39 37.02 36.03 40.68
44.30 44.36 44.43 44.89 44.60 45.37 45.62 46.19 46.98 47.03 46.95 46.78 46.91 48.89 46.25 41.72 41.82 46.83 43.85 44.69 42.21 42.88 43.79 47.08 50.73 51.22 50.54 40.98 34.23 31.27 29.24 33.85 33.98 38.15 42.40 40.82 37.75 32.89 28.27 24.64 21.62 34.13 40.81 43.35 41.57 31.23 42.01
44.70 44.78 44.77 44.92 45.27 45.48 45.79 46.16 46.28 46.61 46.81 46.92 46.16 48.86 45.45 44.53 47.37 47.85 43.32 43.28 46.32 44.75 43.93 46.60 47.04 46.09 47.00 34.10 30.61 29.45 31.11 39.11 31.91 31.67 30.45 29.80 29.61 26.62 22.26 22.13 28.64 38.89 42.94 42.10 29.63 31.43 42.71
44.64 44.89 44.91 45.24 45.24 45.39 45.70 45.88 46.19 46.48 46.98 47.63 46.89 49.83 46.87 45.01 47.57 50.46 49.04 46.57 47.58 47.36 41.86 45.69 45.81 44.72 38.31 35.53 34.33 31.72 29.31 34.38 33.78 37.65 34.88 32.02 28.94 25.75 30.35 24.28 25.32 43.36 41.14 35.21 37.57 41.55 42.72
44.85 44.99 44.89 44.94 45.49 45.48 45.55 45.98 46.43 46.68 47.86 48.33 45.64 49.71 50.59 45.87 46.78 50.86 53.35 53.64 52.15 51.52 48.79 46.67 45.93 46.71 46.72 40.41 36.47 34.86 31.15 31.04 32.08 29.94 40.82 32.22 35.37 31.59 33.41 32.31 41.08 42.09 42.55 44.52 43.91 42.52 42.10

GFSGBSN_sfc_wetblb_021.txt.gz
Wetbulb
56.25 56.13 56.80 56.78 56.74 57.42 57.09 57.97 58.02 58.32 59.23 59.01 58.56 57.96 57.95 58.14 58.05 57.41 56.46 55.77 55.73 55.29 54.90 55.06 54.98 55.23 49.80 44.08 46.45 57.64 62.22 61.30 58.12 52.35 49.78 47.78 46.88 45.23 41.98 42.42 41.40 40.49 43.41 44.18 47.34 51.18 50.65
55.66 56.27 56.18 56.17 56.19 55.84 55.76 57.04 57.39 57.02 58.09 58.81 58.44 57.89 57.49 57.50 57.47 57.06 56.27 55.64 55.18 54.94 54.92 55.08 54.89 54.18 46.77 39.73 55.26 59.06 57.06 53.85 52.07 50.15 48.42 48.37 48.29 48.00 45.20 44.09 41.78 45.49 45.95 44.09 46.49 49.58 51.49
55.13 55.56 55.95 55.84 55.92 55.88 55.77 55.71 56.27 56.79 57.15 58.77 58.63 57.94 57.36 57.13 56.96 56.54 55.87 55.26 54.83 54.41 54.92 54.66 54.35 50.92 46.52 42.51 55.25 54.37 55.44 51.65 50.55 50.76 48.90 50.66 50.45 47.11 47.06 44.73 48.10 46.72 42.60 44.98 46.36 48.40 48.55
55.26 55.16 55.14 55.41 55.42 55.66 55.68 55.53 55.63 56.18 56.74 57.72 58.81 57.93 57.05 56.35 55.97 55.48 55.06 54.77 54.37 54.51 54.79 54.35 53.60 47.56 44.00 52.50 53.06 53.41 52.47 51.78 51.46 51.78 50.09 51.12 50.62 48.24 46.09 47.49 46.75 43.12 40.98 39.30 44.42 47.47 48.41
54.44 54.75 54.95 54.74 55.03 54.93 55.25 55.35 55.31 55.31 55.88 56.44 57.75 57.91 56.79 55.72 55.24 54.77 54.29 54.37 54.31 54.63 54.57 54.43 47.20 46.70 45.31 54.72 52.97 55.89 53.76 51.19 51.90 51.05 50.60 53.44 49.33 45.18 45.81 40.26 37.45 39.18 34.80 37.79 42.33 47.57 48.29
54.16 54.33 54.25 54.79 54.20 54.93 54.99 55.03 55.08 55.06 55.08 55.63 56.85 57.57 56.85 55.84 55.06 54.16 53.37 53.74 53.90 52.98 51.76 52.15 50.28 41.86 46.39 48.04 53.15 53.63 53.05 53.46 51.22 49.98 48.64 47.17 43.44 40.58 40.16 37.94 32.11 33.77 35.98 36.76 38.93 43.59 45.60
53.78 54.28 54.22 54.38 54.44 54.16 54.55 55.11 54.73 54.79 55.00 55.56 55.97 56.87 56.99 55.70 54.98 53.55 51.03 48.58 46.72 47.18 47.47 43.14 42.90 42.55 46.08 51.73 53.44 51.43 52.51 51.54 50.16 47.15 41.21 43.40 38.78 36.04 39.20 40.93 41.63 41.14 38.19 37.73 39.86 43.61 42.40
52.97 53.58 53.91 53.91 54.05 54.32 53.98 54.59 54.24 54.12 54.67 54.73 55.08 55.92 56.51 55.75 54.45 53.51 48.65 46.18 48.13 49.38 43.64 49.49 49.81 48.37 51.02 52.31 48.66 49.66 52.42 47.42 46.24 41.76 42.74 40.38 36.72 42.12 43.75 42.96 42.14 42.25 39.07 38.23 41.15 42.35 41.57
51.34 51.62 53.06 53.39 53.63 53.78 54.04 53.27 53.85 53.63 53.55 53.77 53.90 55.56 56.21 54.92 53.39 51.33 47.91 48.58 53.26 51.88 41.58 46.66 51.01 50.15 51.41 52.20 48.36 47.24 49.62 46.48 44.09 42.00 41.78 38.38 41.29 45.04 44.94 42.75 41.78 40.83 38.70 38.18 39.19 39.20 40.19
50.41 50.97 51.58 52.84 52.93 53.01 52.77 52.80 52.68 52.81 53.26 53.38 53.49 54.53 54.89 53.19 49.60 49.92 48.34 53.18 52.57 50.50 37.99 42.59 48.27 50.81 51.86 49.93 45.73 51.48 50.08 47.75 43.69 41.80 41.62 40.44 44.41 44.03 42.34 42.38 43.11 37.98 42.80 41.75 40.60 36.36 33.16
49.61 50.03 50.78 51.72 52.02 51.68 51.72 52.29 52.36 52.99 53.20 53.28 53.10 54.17 53.77 53.39 49.62 49.90 53.00 53.68 52.35 50.28 24.25 42.17 48.39 53.86 48.82 46.51 46.72 47.91 50.23 46.68 42.15 42.44 42.78 40.96 42.65 41.90 41.71 42.77 43.76 40.81 43.81 41.82 40.82 37.14 36.13
48.89 49.09 49.64 50.70 51.50 51.28 51.13 51.39 51.70 51.41 52.64 52.78 53.08 53.94 53.50 51.92 50.54 50.15 52.14 54.10 54.74 35.94 25.95 41.40 48.34 43.80 43.67 45.46 45.82 46.07 46.98 47.81 46.33 42.49 42.59 41.74 45.34 44.23 43.81 46.22 44.92 44.75 41.79 40.64 38.50 36.34 29.38
48.68 48.46 48.59 49.44 50.27 51.07 51.00 51.03 50.86 50.88 51.26 52.14 52.87 53.72 53.24 53.43 47.82 53.34 53.80 54.35 39.94 30.35 41.84 41.72 42.02 43.82 41.87 41.82 43.18 44.09 42.33 40.62 38.72 35.22 35.64 40.14 41.06 44.28 46.44 42.38 44.13 42.33 37.62 30.41 29.00 27.37 27.14
48.83 48.58 48.33 48.66 49.55 50.41 50.55 50.38 50.21 50.36 50.54 51.32 52.27 52.99 53.58 53.25 52.17 52.36 54.89 47.07 33.93 38.07 39.41 46.28 43.78 42.97 40.11 42.46 42.22 42.65 40.06 37.83 39.30 38.85 35.60 34.93 33.26 41.53 45.85 42.18 39.89 39.45 38.05 30.06 26.08 24.90 29.61
49.49 48.66 48.30 48.11 48.63 49.37 50.01 49.81 49.64 50.10 50.49 50.82 51.59 51.78 52.23 53.49 53.12 51.35 48.46 38.64 35.55 39.88 44.59 41.25 42.46 39.27 38.76 41.86 41.69 40.75 38.92 38.07 40.20 41.05 36.02 33.96 35.82 43.20 45.22 46.27 44.41 39.09 35.10 38.67 32.85 31.94 29.28
49.75 49.01 48.38 47.86 47.57 48.43 49.58 49.54 49.05 49.38 50.22 50.91 46.32 47.38 49.37 54.24 53.29 50.26 44.94 38.00 40.72 46.01 47.04 45.40 38.12 40.38 36.39 38.72 38.92 38.41 37.92 41.38 40.86 42.55 43.10 40.25 34.74 42.28 44.43 45.31 45.34 41.04 42.41 33.23 32.66 27.30 26.14
49.72 49.02 48.27 47.94 47.63 48.16 49.48 49.43 48.73 49.12 49.47 50.30 45.44 42.75 49.48 53.55 53.03 45.19 36.72 38.29 41.49 47.54 47.35 44.51 41.73 39.35 39.65 38.82 39.10 37.25 38.60 41.43 42.95 41.87 43.12 41.95 38.04 37.23 43.38 40.34 39.84 38.93 36.66 36.09 36.09 31.39 26.45
49.35 48.79 48.15 47.72 47.78 48.75 49.48 48.90 48.80 49.14 49.31 48.09 43.58 37.56 50.96 53.09 42.97 41.76 37.82 41.58 43.95 44.06 47.00 46.43 46.31 44.32 40.89 40.11 38.75 38.56 38.58 41.91 44.86 44.99 40.85 42.66 37.73 30.44 38.02 42.93 43.75 41.45 39.30 37.18 28.74 29.52 28.10
49.42 48.93 48.06 47.69 47.99 48.59 49.07 48.61 48.24 48.31 48.63 45.01 38.90 42.78 50.97 50.17 37.70 37.62 40.41 41.54 44.26 42.60 43.31 43.88 44.21 45.27 43.56 39.73 36.84 39.62 40.60 45.13 46.81 44.00 41.70 42.93 35.84 28.81 33.97 38.67 40.89 38.81 39.86 39.53 36.68 31.03 29.64
49.16 48.64 47.99 47.57 47.85 48.14 48.22 47.95 47.79 47.48 48.40 46.09 41.17 36.33 43.86 46.11 44.36 39.86 38.31 38.74 39.83 45.88 43.53 44.72 44.66 46.13 43.23 40.34 41.92 39.94 41.51 45.89 47.37 45.46 45.59 44.23 37.48 34.75 31.33 34.92 38.13 35.15 38.96 39.01 37.06 28.52 29.02
49.10 48.31 47.67 47.29 47.41 47.50 47.57 47.50 47.46 47.13 47.78 45.46 41.76 38.15 42.14 36.16 38.97 39.77 40.27 39.53 38.93 39.61 43.65 44.11 41.57 43.62 42.42 36.89 38.15 38.26 42.93 43.92 45.44 44.72 43.75 42.84 36.82 36.15 36.77 38.43 40.26 38.94 38.57 37.59 36.57 35.64 31.48
48.70 47.86 47.31 46.77 46.91 46.97 47.18 47.22 47.20 46.64 47.75 42.74 38.25 40.78 42.97 38.94 41.31 39.27 39.64 37.88 38.44 40.76 41.62 40.49 40.03 43.95 42.99 40.31 40.18 38.82 42.69 41.68 41.71 42.97 40.72 41.71 34.13 35.71 33.67 37.85 37.80 36.30 38.93 38.51 38.12 37.47 36.73
48.67 47.49 46.84 46.39 46.56 46.84 46.92 46.63 46.29 46.20 46.53 40.10 43.29 44.58 43.54 39.87 38.69 38.13 37.24 38.46 39.13 42.20 43.03 44.06 44.41 43.68 41.08 43.36 45.07 44.04 44.96 45.29 45.10 42.57 39.23 38.36 34.08 31.59 29.92 32.89 33.21 28.99 34.45 37.55 38.02 39.12 38.74
48.35 47.33 46.66 46.29 46.49 46.93 46.65 46.25 45.94 46.78 45.63 42.79 44.41 44.66 42.36 35.04 38.81 37.99 39.24 40.43 39.75 41.38 39.65 43.67 43.83 41.49 45.55 48.54 46.58 45.41 43.94 45.26 46.06 44.79 42.99 35.13 33.06 29.81 26.85 28.22 21.39 36.24 39.95 39.73 37.61 37.19 37.98
47.18 46.71 46.43 46.08 46.07 46.09 46.06 45.76 45.86 46.72 46.40 40.78 46.24 44.32 43.66 34.78 38.99 40.33 39.73 40.02 41.83 42.46 41.37 41.92 45.07 46.26 49.06 45.08 39.04 37.24 32.84 36.19 38.41 41.94 43.68 41.75 33.10 29.31 28.09 26.95 31.74 36.47 37.77 37.41 36.16 34.89 38.58
46.34 46.10 45.83 45.57 45.68 45.45 45.50 45.66 46.12 46.40 46.53 42.25 45.53 47.47 44.96 40.93 38.76 43.94 40.66 41.72 39.25 38.91 39.49 42.34 47.22 49.47 47.54 38.94 33.08 31.11 30.04 34.57 33.09 37.15 40.65 38.27 35.60 33.17 26.54 26.48 23.42 34.44 38.95 41.32 40.43 30.26 39.89
45.53 45.38 45.23 45.33 45.21 44.95 45.05 45.40 45.62 46.35 46.18 42.21 45.90 49.17 45.54 40.20 44.91 45.89 41.93 40.71 44.00 41.34 38.87 42.47 46.76 45.12 45.97 32.56 28.32 29.52 29.04 37.67 31.53 31.54 30.48 30.10 28.74 28.57 23.56 23.32 28.95 37.03 40.95 40.77 30.34 32.07 40.92
44.42 44.38 44.54 44.59 44.57 44.45 44.66 44.81 45.54 46.20 46.68 44.98 43.89 48.80 45.39 41.47 42.35 47.26 47.77 43.99 44.67 43.73 39.17 42.71 46.27 43.58 35.29 35.21 33.26 30.32 29.24 33.62 31.67 35.23 33.20 32.89 29.34 25.92 25.18 22.05 25.92 40.58 39.84 34.31 36.88 39.53 41.66
44.22 44.07 44.02 43.97 43.97 44.26 45.02 45.19 45.76 46.57 47.01 46.24 42.50 48.84 50.42 44.79 42.27 47.18 47.10 47.75 47.67 48.89 46.35 46.02 44.39 44.79 44.22 39.21 36.14 33.26 30.05 28.48 32.02 29.46 38.44 31.64 34.74 31.87 33.13 31.88 39.24 40.73 39.30 41.19 41.91 41.53 40.77

GFSGBSN_sfc_wetblb_024.txt.gz
Wetbulb
55.31 55.37 56.34 56.47 56.51 56.35 56.01 56.73 57.11 57.33 57.52 58.26 59.04 58.85 58.61 58.68 58.46 57.54 56.70 55.95 55.79 55.39 55.00 55.03 55.36 55.19 50.18 42.10 44.17 57.43 61.99 61.24 56.45 51.58 48.35 45.93 45.08 43.34 40.20 40.72 40.09 39.67 42.10 43.27 43.89 49.72 49.47
55.26 54.88 54.94 56.25 56.05 55.81 55.26 55.59 56.22 56.63 56.73 56.91 57.89 58.61 58.19 58.12 57.70 57.25 56.68 55.73 55.28 55.06 54.66 54.96 54.91 53.98 47.21 38.23 53.39 57.84 56.39 53.59 51.91 49.15 47.44 46.81 46.60 47.13 43.90 42.91 40.65 43.41 43.84 43.14 46.38 49.21 50.45
54.25 54.77 54.85 54.83 54.12 55.54 55.41 55.35 55.38 55.28 55.70 56.52 57.07 58.13 58.01 57.80 57.41 56.76 56.30 55.55 54.92 54.66 54.59 54.78 54.44 50.69 45.85 42.87 53.14 53.44 53.84 50.70 51.00 49.37 46.76 48.64 48.98 45.60 45.27 43.14 46.06 44.74 41.64 44.02 45.72 48.01 49.05
54.70 54.01 54.64 54.46 53.88 54.57 53.68 54.57 55.09 55.28 55.09 55.56 56.30 56.90 57.35 57.25 56.64 56.08 55.45 54.92 54.56 54.76 54.60 54.47 53.66 48.74 42.64 50.52 51.53 52.67 51.90 51.08 50.27 50.91 49.02 49.47 49.25 46.53 44.44 45.63 44.55 41.16 41.56 39.83 44.33 47.34 48.53
54.70 54.25 54.17 54.45 54.53 54.27 54.31 54.39 54.63 55.09 55.23 55.11 55.33 55.57 56.63 56.47 55.73 55.18 54.76 54.52 54.43 54.70 54.51 54.31 47.63 47.69 42.53 53.00 49.35 53.52 52.88 50.68 50.11 49.35 49.31 51.94 47.91 43.58 44.19 39.44 36.05 37.14 34.14 37.73 41.10 46.52 47.04
52.42 54.06 54.28 54.18 53.89 54.17 54.33 53.81 54.42 54.54 54.58 54.74 54.76 55.24 55.67 56.37 55.73 54.64 53.60 53.68 53.47 52.30 51.98 52.15 49.99 41.18 44.71 45.62 51.11 52.49 51.93 51.75 49.80 49.02 47.27 45.91 42.22 39.38 38.83 36.49 31.33 33.14 34.38 34.46 37.89 41.80 44.00
50.83 52.19 53.25 54.02 53.62 53.95 54.40 54.20 53.95 54.33 54.19 54.55 54.70 55.31 55.49 55.69 55.81 53.80 50.97 47.30 43.84 45.04 47.13 44.54 41.98 40.76 43.74 50.19 52.93 49.62 51.76 50.62 49.12 46.09 40.37 42.01 37.95 35.36 37.64 39.58 39.88 38.97 36.26 35.56 38.85 42.91 43.22
51.72 51.49 51.75 52.24 53.97 53.73 53.60 54.47 53.69 53.58 53.99 54.13 54.41 54.11 54.45 55.59 55.55 53.31 48.33 44.34 46.64 47.38 42.88 48.04 48.29 46.92 49.04 51.89 48.56 49.36 51.65 46.65 44.84 40.57 41.22 39.80 36.07 40.88 41.93 41.71 41.15 40.19 37.13 35.92 39.58 41.32 39.85
50.66 50.97 51.69 51.75 51.73 53.73 53.58 53.52 53.71 53.15 53.37 53.51 53.26 53.31 53.53 55.21 53.88 50.67 46.38 47.84 52.35 50.35 42.35 45.15 48.87 48.58 49.80 51.57 47.41 47.26 48.69 45.83 43.00 40.84 40.23 37.48 39.87 43.37 43.11 40.46 39.83 39.12 37.74 37.29 38.29 38.61 39.04
50.33 50.06 50.57 51.29 51.67 52.31 53.22 53.05 52.93 52.65 52.50 53.26 52.62 52.75 52.70 53.95 49.66 48.96 46.68 53.17 52.96 50.07 35.46 40.72 45.81 49.40 50.55 50.71 45.30 50.41 49.16 46.38 42.42 40.61 40.86 39.36 42.62 42.27 41.12 40.03 40.83 37.97 42.40 40.01 39.01 35.60 31.66
50.08 49.93 49.78 50.21 50.50 50.95 51.73 52.19 52.40 52.26 51.96 50.93 52.19 52.51 52.44 53.49 48.07 47.65 51.85 52.21 51.72 49.31 22.61 41.93 47.52 53.37 50.06 45.79 45.79 46.66 49.09 45.75 41.08 40.91 40.86 39.12 40.54 40.29 39.38 40.93 42.56 40.20 42.44 39.84 39.33 35.99 34.90
50.32 50.17 49.97 49.78 49.42 49.95 50.60 51.45 51.47 51.49 51.52 51.64 51.89 52.55 52.57 52.61 51.10 49.67 52.34 53.18 53.09 36.99 24.06 37.97 46.39 44.25 43.29 43.91 44.40 44.72 45.36 46.78 44.97 41.30 41.15 40.59 42.92 42.19 41.77 43.31 43.17 43.42 41.45 39.45 37.32 35.20 28.57
50.19 50.01 49.96 49.68 49.27 49.48 50.13 50.47 51.19 50.97 51.27 51.35 51.69 52.21 52.90 53.74 49.22 51.65 53.74 52.23 41.17 29.56 39.79 38.12 41.85 42.39 40.43 40.18 41.93 42.72 41.20 39.98 37.57 34.23 34.08 38.38 39.74 43.00 44.43 40.22 42.25 40.98 37.13 30.10 28.74 27.23 26.89
50.30 50.13 49.90 49.55 49.15 48.71 49.22 49.80 50.36 50.51 50.85 50.64 50.83 51.14 51.52 52.73 53.06 50.71 53.26 45.10 32.43 36.76 37.90 44.08 42.91 40.77 38.25 40.22 40.59 41.00 39.24 36.57 37.63 37.78 33.96 34.00 32.15 40.02 43.76 40.97 39.06 38.00 37.00 29.24 25.27 24.14 28.88
50.34 50.30 49.98 49.54 49.00 48.81 48.48 49.12 49.78 50.44 50.44 49.96 50.05 48.42 47.00 51.02 53.41 51.22 47.22 35.56 35.76 39.00 43.24 41.68 41.85 37.24 36.99 39.95 39.87 39.55 37.96 37.04 38.99 39.76 35.17 32.54 33.85 41.56 43.78 44.13 41.93 37.77 33.92 37.24 31.46 30.33 28.42
50.40 50.15 50.10 49.55 49.06 48.67 48.07 48.43 49.65 50.49 49.82 49.67 45.54 45.30 43.72 52.33 53.51 50.19 42.95 36.75 38.86 44.61 46.52 45.13 37.45 39.94 35.01 37.21 37.81 37.84 36.50 39.67 39.39 41.16 41.37 38.46 33.02 40.37 42.56 44.28 43.37 39.78 41.03 32.96 31.23 26.83 25.23
49.84 49.99 49.91 49.89 48.86 48.42 48.00 48.17 49.04 50.29 49.54 49.66 44.82 40.14 43.60 53.98 52.78 45.63 36.34 37.70 40.99 45.90 46.82 43.95 41.96 40.04 38.05 37.60 38.08 35.92 37.22 39.63 41.59 39.86 41.38 39.36 36.49 35.34 41.04 38.98 38.51 38.04 35.67 34.75 34.83 30.33 26.11
48.96 49.78 49.49 49.87 49.08 48.51 47.98 48.11 48.63 49.57 49.27 47.41 43.38 33.35 49.74 52.58 41.66 41.58 36.87 39.88 43.04 43.83 46.35 45.07 44.90 43.88 41.52 38.94 37.24 36.96 36.98 40.71 43.05 42.84 39.18 41.15 36.55 29.35 36.88 40.58 42.62 39.40 37.84 36.07 29.12 29.12 27.56
48.27 49.06 49.52 49.73 49.11 48.40 48.06 47.76 48.08 48.95 48.81 44.03 39.08 39.88 49.90 48.58 34.34 36.42 40.05 40.51 42.15 42.04 42.23 43.25 42.56 44.62 43.13 39.02 35.56 38.40 38.87 42.94 43.62 42.00 39.94 41.28 33.84 27.46 32.10 36.36 38.93 36.84 38.20 37.68 34.74 30.68 28.64
47.99 48.47 49.19 49.89 49.36 48.33 48.00 47.56 47.84 48.63 48.58 44.61 40.03 32.72 42.02 44.10 40.98 37.66 37.05 37.43 37.86 45.04 42.84 43.61 42.77 44.67 42.56 40.26 39.92 37.51 38.68 43.80 44.55 43.20 44.67 43.59 36.04 32.81 30.32 32.45 36.55 34.15 36.96 37.09 35.86 28.03 28.97
47.41 47.84 48.38 48.54 49.18 48.29 47.87 47.67 47.97 48.30 48.19 44.53 40.00 34.61 39.95 33.93 36.26 37.67 38.67 38.80 36.88 37.77 43.55 43.86 40.29 42.00 41.03 36.76 36.69 37.38 40.71 42.44 43.56 44.48 42.14 41.12 34.31 34.27 35.50 37.27 38.00 37.75 37.59 36.21 35.10 34.71 31.49
47.06 47.51 47.56 48.13 48.67 48.08 47.73 47.89 48.20 47.59 47.99 41.93 36.91 36.55 41.38 36.61 38.42 37.78 39.20 37.07 37.31 39.18 41.32 39.63 38.92 41.23 41.93 39.32 39.42 36.76 41.03 40.18 40.29 41.51 40.08 39.64 34.26 33.31 32.77 36.61 36.74 35.02 37.29 36.53 35.81 35.24 34.66
47.26 47.38 47.47 47.52 48.35 48.01 47.84 48.42 47.85 47.56 47.04 39.95 41.17 42.22 41.08 37.73 37.18 35.26 36.10 37.90 38.49 41.14 41.96 43.23 42.21 40.67 39.01 41.84 44.53 44.12 43.51 43.59 42.48 41.14 38.55 36.69 33.39 31.11 30.58 31.53 32.63 29.13 33.91 36.35 36.31 37.08 37.60
47.13 47.05 47.55 47.40 48.04 47.98 47.72 47.52 47.20 46.95 45.84 40.43 40.65 43.43 39.59 32.37 37.21 35.57 37.11 39.50 39.60 40.65 39.59 43.04 44.02 40.10 43.46 48.14 45.92 44.28 42.62 43.35 43.96 42.32 40.90 33.50 32.37 29.67 25.89 27.80 21.49 35.78 38.24 38.26 37.12 36.92 37.31
47.02 47.08 47.59 48.18 47.62 47.65 47.49 46.87 46.85 46.86 46.77 40.83 42.59 42.12 41.09 33.08 37.37 38.82 38.14 38.41 40.57 42.01 40.89 42.18 43.83 45.81 48.02 45.57 40.06 36.89 33.60 34.48 36.49 40.08 40.01 39.19 32.52 29.17 27.22 26.52 30.85 34.77 36.78 36.54 35.63 35.03 37.91
46.99 47.01 47.28 47.86 47.10 46.87 46.94 46.79 46.45 46.66 46.81 42.54 42.06 43.49 42.77 38.58 35.54 41.17 38.98 39.03 36.53 37.16 37.85 41.07 45.94 46.98 46.08 40.65 34.25 31.94 31.67 34.24 32.59 35.87 39.01 37.61 34.46 32.27 25.44 24.08 22.75 33.64 39.22 39.85 38.91 30.44 38.66
45.44 46.53 47.73 47.18 46.49 46.36 46.40 46.36 46.32 46.41 46.50 43.59 39.82 44.02 41.96 37.59 42.82 41.78 39.06 38.24 41.35 39.51 36.71 39.07 41.41 42.89 45.06 31.13 30.84 29.82 31.08 37.38 31.85 32.61 31.50 30.13 28.39 27.86 21.98 23.13 29.74 37.35 39.18 39.74 30.42 32.79 39.16
46.39 47.18 46.59 46.19 45.85 45.85 45.87 46.01 45.92 45.71 46.18 43.12 39.65 45.27 44.09 39.96 41.38 44.99 45.61 41.36 41.91 41.28 35.72 40.32 41.86 41.07 35.16 34.08 33.42 31.76 28.16 33.05 31.21 34.93 34.41 34.21 30.14 25.61 25.24 22.49 27.23 39.04 38.30 34.58 37.65 37.41 39.55
46.42 45.76 45.36 45.44 45.35 45.54 45.58 45.61 45.50 45.73 46.09 44.37 38.58 43.55 44.71 42.81 43.09 46.24 45.85 45.16 44.54 46.07 43.24 41.81 40.97 42.70 42.72 38.51 34.64 32.24 31.40 26.99 31.43 29.06 36.79 33.11 35.67 32.38 33.57 33.16 39.17 39.47 38.56 40.13 40.15 39.93 40.04

GFSGBSN_sfc_wetblb_027.txt.gz
Wetbulb
54.87 55.09 54.53 54.58 56.10 55.68 54.68 55.00 55.68 55.73 56.80 56.82 57.19 57.37 59.10 59.72 59.21 58.05 57.10 56.33 56.13 55.97 55.51 55.33 55.52 55.57 51.60 45.53 44.18 59.35 62.17 61.14 58.07 53.92 50.24 49.13 48.42 47.36 45.16 45.14 44.81 43.52 45.29 46.05 46.26 50.74 51.78
54.84 54.62 54.93 53.91 53.84 53.87 54.72 54.69 55.42 55.11 55.39 55.27 55.87 56.67 57.42 58.86 58.77 57.82 57.04 56.35 55.80 55.58 55.34 55.06 55.15 54.48 48.59 41.99 56.11 59.30 57.64 55.10 54.14 52.14 50.41 50.28 49.99 50.18 47.40 46.57 44.53 46.53 45.44 46.68 49.20 51.84 51.71
55.25 54.57 54.60 54.58 54.46 54.42 53.35 53.27 54.49 54.91 55.05 54.98 55.12 55.78 56.45 57.57 58.18 57.65 56.93 56.08 55.50 55.09 55.18 54.88 54.76 51.13 46.63 44.55 54.32 57.06 55.37 53.32 53.36 52.10 49.29 50.45 51.94 49.77 49.14 46.62 48.71 47.72 44.67 47.01 49.32 50.97 50.27
53.19 53.85 54.97 54.23 53.97 54.33 54.02 53.25 52.56 54.07 54.87 54.96 55.14 54.85 55.03 55.56 56.76 57.02 56.22 55.46 55.05 55.26 55.16 54.79 53.75 49.40 44.05 51.79 53.67 53.33 54.72 53.57 52.77 53.16 52.05 52.33 52.40 50.15 48.52 49.56 47.12 43.83 44.45 43.53 47.73 49.48 50.25
51.69 52.78 53.57 54.17 53.70 53.64 53.87 54.14 53.56 53.04 53.57 54.66 54.77 54.36 54.44 54.49 55.46 55.96 55.54 54.99 54.77 54.81 54.67 54.32 49.61 48.29 43.58 53.60 50.22 53.48 54.72 52.10 50.97 51.31 51.99 52.25 51.58 48.03 47.86 44.57 42.41 42.51 40.01 42.34 44.47 50.22 49.59
51.41 51.74 52.24 53.69 53.37 53.97 53.55 53.66 54.09 53.14 53.86 54.27 54.18 54.16 54.42 54.71 54.81 55.42 54.21 53.88 53.63 52.78 52.53 52.29 50.34 43.92 46.23 46.16 52.10 54.47 53.81 53.30 51.70 50.20 49.71 49.42 47.01 45.29 44.34 43.36 37.87 39.17 39.86 41.77 43.50 47.10 48.55
50.81 50.59 51.30 51.72 52.49 53.13 54.38 53.89 53.58 53.61 52.52 53.68 53.83 54.16 54.40 54.32 54.90 54.35 52.27 49.83 45.97 45.46 48.06 46.76 45.70 43.16 43.79 50.52 54.10 51.90 53.57 52.58 51.86 49.76 45.63 46.01 44.00 41.45 43.57 43.53 43.68 43.15 41.01 40.59 43.80 45.71 46.97
51.65 51.60 50.72 51.44 51.83 52.42 52.99 54.21 53.18 53.59 53.55 53.44 53.40 53.54 53.30 53.26 55.02 53.58 51.30 46.41 47.50 49.09 43.66 48.65 48.39 47.00 48.27 52.45 48.77 51.52 53.98 49.56 48.01 44.43 45.32 43.80 41.27 44.29 43.79 43.48 43.28 42.97 41.04 41.34 43.53 43.72 45.62
51.40 51.38 51.64 50.98 50.85 51.57 51.91 52.43 53.27 52.85 53.20 53.07 53.20 52.95 52.70 52.47 54.07 52.55 49.24 48.30 52.78 52.60 44.90 46.06 48.30 47.86 49.14 51.13 48.15 48.57 51.33 48.30 46.02 43.21 43.35 42.00 44.26 44.63 44.00 43.01 42.41 42.72 41.18 41.28 41.34 42.28 43.74
51.00 50.92 51.02 51.26 51.37 51.01 51.37 51.88 52.43 52.77 52.60 52.51 52.26 52.57 51.92 52.81 51.33 50.21 47.88 52.65 53.41 52.35 37.28 39.94 44.30 48.58 50.56 51.50 46.92 52.06 51.34 49.45 45.75 43.56 43.22 43.33 44.92 43.89 43.05 42.26 43.15 40.51 44.90 42.99 41.67 40.19 37.98
50.92 50.71 50.67 50.73 50.60 50.41 50.20 50.69 51.59 52.23 52.23 51.93 51.70 52.28 51.71 53.15 49.40 48.29 51.48 52.51 52.68 50.43 26.37 42.44 46.84 53.94 51.28 47.40 46.89 47.81 50.25 48.72 43.91 43.16 44.18 42.75 43.38 43.17 42.34 43.37 44.69 43.04 44.95 43.71 42.78 40.00 39.73
50.86 50.96 50.86 50.67 50.41 50.13 50.07 50.01 50.31 51.02 51.91 51.58 51.23 51.09 51.43 50.90 51.69 51.06 52.74 54.34 53.21 38.57 27.04 38.81 46.61 45.48 45.32 45.75 46.31 46.99 47.76 49.67 47.69 44.46 44.54 43.61 46.33 46.09 45.60 45.58 45.49 45.63 43.79 42.63 40.87 40.06 35.21
50.83 50.76 50.78 50.61 50.32 50.06 49.76 49.80 49.82 50.65 51.10 51.47 50.84 51.04 50.52 52.97 48.60 53.52 54.47 51.63 39.13 32.49 41.11 38.52 42.23 43.29 43.04 41.47 43.47 43.95 43.80 42.88 41.59 38.45 38.60 41.97 43.31 46.18 47.32 43.90 45.55 44.49 42.26 36.23 33.98 33.46 32.79
50.60 50.39 50.56 50.55 50.39 49.97 49.66 49.36 49.20 49.82 50.41 51.24 50.52 50.65 51.13 50.18 54.19 52.46 52.82 43.39 33.96 36.63 38.49 43.92 43.35 41.74 39.68 41.46 42.11 42.82 41.48 41.15 41.91 41.54 37.83 37.68 36.37 43.30 46.41 44.97 43.28 42.41 42.61 36.28 28.96 29.90 33.52
50.51 50.60 50.31 50.27 50.31 50.06 49.77 49.32 49.06 49.52 49.52 50.48 50.01 47.88 47.51 49.55 52.03 51.72 47.26 35.36 33.92 38.55 42.18 41.67 42.08 38.43 38.07 40.79 40.93 41.85 40.76 41.36 42.75 42.56 39.45 36.41 37.15 44.13 46.34 46.84 45.97 41.14 39.49 42.18 35.71 34.16 33.74
50.75 50.54 50.17 50.05 50.07 50.07 49.57 49.10 48.77 49.27 49.70 49.98 45.66 44.20 43.71 49.97 52.12 49.34 42.13 35.80 38.98 44.18 45.91 45.33 38.00 40.29 36.36 38.65 38.98 39.95 39.13 42.31 41.44 43.15 45.46 42.07 37.34 43.17 45.00 47.25 45.49 43.59 44.08 38.05 37.06 30.71 28.73
50.51 50.41 50.32 49.89 49.82 49.68 49.61 49.30 48.77 48.88 49.30 49.94 44.27 38.83 44.58 49.83 51.17 44.11 34.26 36.59 40.20 45.03 46.47 43.85 42.25 40.87 39.57 38.85 39.60 38.37 39.40 42.17 43.36 41.53 44.18 42.63 41.15 39.54 44.14 42.88 42.05 41.24 40.10 38.32 39.67 36.75 32.75
49.17 49.90 50.11 49.79 49.80 49.74 49.77 49.24 48.65 48.61 49.05 47.78 41.68 32.59 45.25 48.58 37.37 39.66 35.44 39.03 42.23 42.36 46.28 44.61 45.45 44.34 42.40 40.74 38.07 38.44 39.44 42.95 43.94 44.25 41.82 44.35 41.04 35.79 40.18 43.78 45.43 43.88 41.87 40.50 36.65 33.88 33.57
48.06 48.24 48.72 50.18 49.61 49.63 49.66 49.02 48.54 48.42 48.63 44.59 37.28 38.10 45.96 45.63 31.56 34.58 38.56 39.17 41.68 41.32 42.47 42.74 42.54 45.14 45.97 42.13 36.76 39.94 40.57 44.44 43.94 43.52 43.01 43.67 38.43 34.48 36.79 40.14 43.12 41.97 41.76 40.41 38.12 36.77 33.42
47.64 47.92 48.34 48.54 48.61 49.60 49.71 48.77 48.17 48.18 48.97 44.43 39.22 32.02 40.10 41.59 40.82 37.09 35.55 36.52 37.74 43.30 42.31 43.70 43.40 45.21 44.04 42.17 42.01 40.00 40.31 44.61 44.39 44.66 44.60 45.44 39.20 37.95 34.20 37.59 40.53 38.71 39.78 39.95 40.69 35.51 36.16
47.16 47.55 47.62 48.13 47.98 48.43 49.61 48.75 48.13 48.16 48.36 44.01 39.55 35.24 39.13 32.29 34.57 37.13 37.71 37.57 36.06 37.00 42.82 43.89 41.37 41.60 42.45 38.59 38.84 38.54 42.78 44.68 44.95 45.10 44.36 45.12 38.28 37.57 38.48 39.27 40.22 40.35 39.86 39.05 38.89 39.88 37.68
47.04 47.16 47.10 47.37 47.81 47.83 49.38 48.37 47.85 48.07 48.06 41.48 35.50 36.08 39.42 37.34 37.38 35.69 36.77 35.98 35.94 38.42 39.81 39.60 39.58 41.53 41.83 40.73 41.37 38.96 42.62 43.12 42.54 43.85 42.74 42.58 38.34 37.85 36.71 38.89 38.99 38.85 40.24 40.16 39.94 38.59 39.13
47.09 47.06 46.86 47.11 47.80 48.01 48.64 48.21 47.76 47.84 46.94 40.12 41.43 41.62 40.45 37.17 36.04 34.26 33.68 36.57 37.80 40.60 41.85 43.26 42.22 41.08 40.24 42.60 45.64 45.35 45.55 45.83 45.65 44.62 41.11 40.55 37.23 36.05 34.13 35.59 37.47 33.74 37.70 39.50 40.24 41.00 41.97
46.18 46.99 47.33 47.33 47.69 48.04 47.79 48.07 47.32 47.60 46.55 43.69 41.84 41.24 37.09 32.85 35.99 34.48 36.05 37.98 38.12 39.76 38.80 42.12 44.22 41.45 44.35 48.05 47.71 47.20 44.62 44.53 44.46 43.31 44.13 37.83 37.65 35.54 32.76 32.76 29.75 40.60 41.91 42.57 41.60 41.44 42.17
46.63 47.02 47.46 47.52 47.53 47.46 47.35 47.74 47.22 47.27 47.35 42.98 42.62 41.53 39.01 34.00 36.66 37.15 36.66 36.66 40.33 41.80 41.00 41.80 43.98 46.39 48.20 45.32 41.37 38.13 37.38 38.47 39.25 40.89 42.02 41.44 37.05 32.24 32.76 32.58 35.50 38.12 40.11 40.54 40.03 41.07 43.09
46.92 46.79 47.41 47.04 47.09 47.06 47.27 47.26 46.90 47.18 47.57 43.23 42.79 44.09 42.10 36.68 35.11 39.58 37.57 38.48 36.28 38.23 39.32 41.30 46.64 47.16 46.38 40.55 36.09 34.48 33.32 36.46 36.04 38.04 40.75 38.28 38.25 39.13 30.84 31.41 29.76 39.44 42.59 43.11 43.59 36.41 43.28
46.39 46.60 47.01 46.83 46.60 46.52 47.29 46.85 46.95 47.23 47.38 43.28 40.55 44.55 42.92 36.93 40.34 41.71 38.34 37.48 41.22 40.09 38.15 40.48 42.00 42.43 45.71 35.63 33.92 32.72 34.54 39.56 34.69 35.05 34.98 35.43 34.44 34.24 29.96 34.02 35.87 41.20 42.23 43.51 35.95 39.93 43.71
46.58 46.46 46.40 46.36 46.29 47.10 46.74 46.92 47.01 46.85 46.91 43.21 39.69 44.39 42.62 38.91 40.05 41.70 43.53 41.28 41.27 40.87 36.21 40.10 40.22 41.19 38.62 34.82 35.26 35.44 33.82 37.14 36.39 38.10 37.00 37.05 35.41 34.53 32.39 33.33 32.97 42.33 40.28 39.12 44.68 43.02 44.05
46.32 46.51 46.37 46.39 46.87 46.37 46.57 46.83 46.72 46.78 46.56 44.74 39.09 44.56 44.80 38.60 40.42 46.28 46.14 46.22 45.04 45.88 42.44 42.63 40.61 41.11 41.44 38.83 37.12 36.14 35.19 34.80 35.67 34.41 38.70 37.15 39.91 38.44 39.21 40.00 45.04 43.19 45.61 45.20 44.42 44.90 43.65

GFSGBSN_sfc_wetblb_030.txt.gz
Wetbulb
55.55 54.98 55.07 55.39 54.90 54.81 54.89 55.28 55.17 55.35 55.45 55.60 55.34 55.99 56.37 57.31 58.62 59.19 58.02 57.18 56.84 56.74 56.32 56.01 55.85 55.85 55.00 50.78 49.46 61.03 62.93 60.72 59.30 56.67 53.97 52.70 51.61 51.14 48.55 49.81 49.89 48.31 49.65 50.25 51.44 50.76 54.25
54.18 54.59 55.48 54.97 55.01 54.64 54.58 54.68 54.86 54.89 54.95 55.06 55.19 55.39 56.31 56.98 57.66 58.29 57.99 57.23 56.47 56.33 56.15 55.84 55.71 54.92 52.33 46.51 57.38 61.83 59.92 58.89 56.95 55.79 54.15 53.99 52.93 53.36 51.08 50.32 49.35 50.82 50.64 50.90 51.28 53.30 55.01
52.66 52.93 54.25 55.00 54.59 54.51 54.31 54.64 54.13 53.40 54.42 54.85 54.79 54.98 55.22 55.71 56.08 56.97 57.71 57.19 56.29 55.89 55.93 55.67 55.40 53.95 50.44 49.98 57.72 60.74 59.13 57.39 57.24 55.59 53.15 54.13 54.62 53.07 52.81 50.06 52.28 51.23 48.48 50.63 51.17 54.28 53.26
52.17 52.36 52.42 53.11 54.14 54.67 53.80 53.64 54.04 53.87 52.85 54.34 54.83 54.48 54.45 54.30 54.59 55.40 56.21 56.39 55.89 55.83 55.64 55.49 54.60 53.23 49.35 54.23 56.92 58.21 58.48 56.38 56.75 56.74 54.87 55.32 55.51 54.11 52.41 53.22 51.03 48.44 47.74 46.30 50.94 53.12 53.79
51.55 51.72 52.14 52.62 52.79 53.25 54.10 53.72 53.75 53.93 53.74 52.77 53.14 53.88 54.10 53.75 54.31 54.81 55.46 55.95 55.48 55.02 54.53 54.33 53.34 52.33 48.17 54.89 52.40 55.41 58.94 54.93 55.43 55.39 55.43 54.55 55.00 52.71 52.11 48.36 46.70 47.62 43.37 45.07 46.78 52.78 53.01
51.87 51.33 51.56 52.51 52.71 52.55 53.07 53.61 53.67 53.09 53.29 53.33 52.42 53.58 53.76 54.10 54.37 54.50 54.92 54.45 55.12 53.41 54.60 54.79 53.34 49.07 51.68 48.31 52.71 55.59 56.94 56.66 54.40 54.06 52.24 51.97 52.92 49.78 49.10 46.75 41.34 42.74 43.45 45.27 45.82 50.97 51.95
51.44 52.44 52.06 52.40 52.31 52.60 52.00 52.78 53.53 53.36 52.97 53.17 52.80 53.03 53.43 53.94 53.43 54.77 55.22 57.78 53.21 50.75 52.09 51.06 50.55 49.76 47.26 52.54 56.80 55.34 56.33 54.23 54.72 53.37 49.43 51.78 48.01 45.05 46.55 47.70 47.55 46.57 44.99 44.08 47.32 50.07 49.78
52.25 52.30 51.81 52.53 52.45 52.29 51.14 52.09 52.22 53.05 53.15 52.99 53.00 52.40 53.00 53.01 52.74 54.39 56.32 52.99 52.21 52.34 46.97 53.05 52.04 51.99 53.42 52.75 50.38 53.84 57.55 51.45 51.54 48.36 50.43 47.88 45.30 47.93 48.52 47.78 46.82 46.74 45.02 44.56 47.15 48.19 47.85
51.85 52.03 52.02 52.01 52.43 52.45 51.94 51.68 51.49 51.87 52.53 52.86 52.89 52.64 52.82 52.26 52.89 53.79 54.91 54.64 56.72 56.12 49.01 50.09 52.73 51.14 51.37 52.57 49.74 51.43 54.75 53.11 50.43 48.23 48.21 46.63 47.27 49.14 47.78 47.23 45.90 46.58 45.20 44.80 44.40 46.51 47.72
51.76 51.78 51.68 51.95 51.98 51.83 51.94 51.73 51.56 51.62 51.51 52.62 52.35 52.27 52.33 51.98 50.83 54.60 52.93 56.68 57.19 56.40 43.28 43.38 46.06 50.15 51.74 52.11 48.28 54.42 55.42 52.88 49.76 47.32 48.47 48.11 49.37 47.07 47.12 45.96 47.30 44.13 48.36 46.36 45.39 44.18 41.08
51.39 51.39 51.43 51.72 51.57 51.24 51.09 51.20 51.05 50.94 51.47 51.69 52.02 51.93 52.17 52.04 51.22 52.46 54.55 57.79 57.35 54.54 29.88 44.78 47.57 55.18 52.92 49.06 49.52 50.42 55.56 52.00 47.70 47.57 48.13 45.78 46.76 46.45 45.86 46.21 48.53 45.41 48.76 47.13 46.70 45.19 43.78
51.41 51.52 51.37 51.47 51.24 50.95 50.76 50.54 50.46 50.44 50.56 51.53 51.71 51.62 51.73 50.71 50.60 54.17 57.09 57.90 54.98 42.37 30.85 41.36 48.66 47.48 47.04 48.77 48.51 50.60 50.72 52.74 51.99 48.42 48.72 47.94 50.01 49.22 48.37 48.91 49.07 49.52 47.53 47.12 46.96 45.81 38.55
51.06 51.17 51.44 51.39 51.24 50.99 50.81 50.47 50.34 50.21 50.16 50.65 51.06 51.47 50.42 50.32 46.61 55.54 56.69 53.47 40.58 34.23 42.76 40.58 44.25 47.12 46.39 44.74 46.22 47.26 46.53 46.03 44.65 41.88 42.70 46.16 46.59 49.14 49.68 46.88 48.67 48.41 45.62 39.32 37.67 37.92 36.65
51.29 51.00 51.19 51.15 51.12 51.00 50.81 50.54 50.09 50.05 49.89 50.29 50.74 50.67 50.90 49.93 52.02 53.30 52.60 45.44 32.35 38.26 40.45 45.76 45.69 46.23 43.26 44.74 45.38 46.08 45.57 43.80 47.44 46.24 43.89 41.40 39.68 46.33 49.95 48.11 46.11 46.67 45.60 39.59 31.84 34.08 37.99
51.46 51.17 50.94 50.98 51.02 50.84 50.75 50.55 50.18 49.80 49.71 50.07 50.41 48.47 49.64 51.36 52.79 51.01 46.23 35.33 34.48 39.75 44.01 43.52 43.92 42.35 43.22 43.83 44.27 45.09 44.83 43.85 46.20 48.02 42.62 41.75 41.39 47.67 49.14 49.89 48.89 45.56 43.14 47.02 41.11 40.84 38.65
51.21 51.08 50.99 50.71 50.48 50.63 50.40 50.24 50.19 49.89 49.57 49.87 47.45 44.77 46.01 52.13 53.40 46.59 39.33 36.11 38.93 44.55 46.28 45.70 40.03 43.22 41.08 42.69 41.62 43.82 43.92 46.33 45.90 48.48 49.84 45.74 40.54 46.46 48.40 50.03 48.93 47.90 48.96 41.45 43.06 33.66 31.92
50.68 50.82 50.70 50.78 50.49 50.24 50.18 50.24 50.20 49.73 49.46 49.71 46.20 38.26 46.28 52.15 51.21 40.61 32.63 37.69 41.25 46.04 47.55 46.04 43.41 42.94 43.30 42.86 43.39 42.58 42.89 44.52 48.29 47.77 49.52 47.70 44.90 43.87 47.42 45.95 45.24 45.25 44.43 44.46 44.61 42.23 35.84
49.79 49.58 49.81 50.17 50.45 50.43 50.18 50.08 50.10 49.73 49.24 47.94 43.20 33.67 47.82 51.19 36.53 38.68 34.77 40.25 42.82 43.32 48.17 47.40 47.95 46.45 44.90 44.24 43.39 42.70 41.73 44.66 48.88 49.65 45.22 48.56 45.56 40.69 42.69 47.64 49.34 48.77 46.24 46.36 40.80 38.73 41.32
48.68 48.37 48.39 48.95 50.20 50.16 50.02 49.80 49.86 49.46 49.11 46.43 37.20 38.81 47.74 48.09 31.63 33.33 39.32 39.91 42.61 42.45 44.02 45.80 45.64 48.17 49.08 45.44 41.79 43.93 43.88 48.46 48.82 48.36 46.91 48.11 43.59 38.61 40.21 43.84 46.87 45.42 46.99 47.08 45.59 44.25 39.72
47.41 47.51 47.85 48.41 48.76 49.46 49.82 49.78 49.67 49.32 49.09 46.57 38.24 32.24 39.37 41.57 42.02 37.94 36.88 36.21 37.98 43.90 43.70 46.86 46.65 48.43 46.74 45.25 46.12 42.77 43.29 45.37 48.08 49.05 47.31 48.51 45.28 41.60 37.58 40.67 44.71 42.73 44.70 46.29 45.27 40.72 40.75
47.19 47.46 47.56 47.99 48.03 48.50 48.60 49.53 49.75 49.13 48.65 45.45 38.79 35.99 39.26 31.43 36.89 38.61 40.99 39.41 37.00 37.23 43.84 45.84 44.44 45.43 45.26 41.83 42.95 41.78 43.22 45.41 45.77 45.78 48.23 48.82 42.06 43.93 44.05 44.60 44.58 43.78 43.57 44.52 43.06 43.91 40.93
47.04 47.32 47.32 47.38 47.69 48.00 48.43 49.26 49.49 48.92 48.43 42.02 35.38 38.48 42.38 38.83 38.80 36.79 38.52 37.93 36.57 39.17 40.49 40.82 42.12 44.87 46.21 42.80 43.30 41.44 44.26 43.94 44.86 47.19 47.18 48.80 42.49 44.58 41.92 44.55 43.69 42.18 44.14 44.47 44.38 44.47 44.20
47.04 46.98 47.02 47.35 47.47 48.00 48.09 48.10 49.36 48.51 47.34 40.51 42.67 45.22 43.20 38.64 37.61 35.79 37.52 38.39 38.83 41.11 42.88 44.13 43.28 42.11 41.84 43.55 46.73 48.00 47.35 47.15 47.36 46.71 45.98 45.83 44.22 41.51 38.08 42.57 41.88 37.07 42.48 44.10 44.84 46.08 45.57
47.63 47.70 47.37 47.30 47.51 47.79 47.92 47.43 48.86 48.32 46.45 44.98 44.55 44.30 40.07 35.27 37.98 36.19 37.25 39.55 39.27 41.15 40.47 43.76 45.64 43.65 45.54 48.90 49.30 48.17 46.74 48.30 48.65 48.61 49.85 44.81 43.67 43.19 39.10 37.54 33.03 44.11 47.46 47.96 45.92 46.74 48.65
46.73 46.64 47.93 47.47 47.31 47.31 47.55 46.83 48.10 47.94 47.13 45.66 47.15 44.18 41.35 37.11 39.07 37.71 36.84 38.36 40.97 42.68 41.60 42.99 46.47 48.07 50.01 47.21 41.27 37.07 37.98 41.65 44.31 47.29 47.34 48.38 45.13 40.34 38.55 37.53 41.95 42.55 44.27 45.17 44.97 45.43 49.73
45.73 47.28 47.52 47.01 46.95 47.01 47.14 46.24 48.09 47.38 47.25 45.55 46.78 48.51 45.28 39.59 37.83 41.36 37.07 38.88 38.36 39.81 41.78 43.47 48.40 50.56 48.23 44.78 41.43 34.63 31.08 36.00 38.43 41.89 44.57 44.56 45.60 44.32 37.46 35.89 34.64 44.27 48.54 50.11 48.86 41.51 50.37
45.42 45.66 46.27 46.52 46.74 46.72 46.63 46.39 47.59 47.10 47.05 45.68 45.75 49.79 45.49 39.78 43.12 43.17 38.87 39.22 42.48 42.00 41.17 43.16 45.25 45.22 47.29 41.47 39.04 36.54 36.88 40.34 35.48 38.19 38.10 39.20 40.49 39.63 39.46 39.00 42.48 47.89 48.24 49.18 40.26 43.86 50.99
46.45 46.15 46.04 46.61 46.46 46.45 46.33 46.73 47.23 46.89 46.95 44.78 43.84 49.71 45.92 41.60 42.73 43.76 44.43 42.35 42.87 43.72 40.75 44.12 43.30 43.81 42.06 38.19 39.21 39.16 38.66 40.76 40.57 42.39 41.56 40.33 39.69 39.54 41.23 38.69 36.62 48.79 46.20 44.76 50.54 51.73 51.58
46.38 46.36 46.24 46.33 46.24 46.25 46.68 47.09 46.63 46.96 47.05 45.79 41.92 48.74 50.33 44.57 42.10 44.37 42.54 44.76 46.88 47.96 46.54 46.78 43.88 43.55 44.15 40.72 42.69 43.51 39.81 39.78 41.79 37.98 43.92 39.13 44.73 43.61 44.28 44.46 51.15 49.92 51.48 52.50 52.84 51.90 50.71

GFSGBSN_sfc_wetblb_033.txt.gz
Wetbulb
53.62 54.13 54.44 55.68 55.60 55.17 54.84 55.10 55.31 55.21 55.26 55.56 55.50 55.15 54.85 54.94 56.17 57.73 57.82 58.17 57.95 57.84 57.36 56.93 56.77 56.42 56.90 53.32 52.98 63.74 62.03 60.40 58.56 57.83 54.79 52.60 52.13 52.82 50.06 50.31 51.38 49.77 50.94 51.68 52.86 52.50 55.53
52.95 53.16 53.33 53.66 54.21 55.28 54.57 55.00 55.22 54.67 54.24 54.67 54.91 54.99 55.26 54.74 55.15 56.43 56.98 57.53 57.47 57.25 57.03 56.82 56.68 55.40 55.07 49.04 57.55 62.35 60.74 58.08 57.28 56.72 55.76 55.55 54.38 54.92 52.68 51.48 50.95 52.32 51.80 52.03 52.19 53.26 55.47
52.22 52.65 52.98 53.35 53.72 54.04 54.72 54.79 54.18 54.33 54.19 53.51 53.22 54.66 54.78 55.03 54.88 55.04 55.53 56.59 56.65 56.95 56.85 56.72 56.19 56.02 52.32 52.27 57.68 61.29 60.35 58.47 58.03 57.57 55.26 56.42 56.05 54.27 54.85 51.49 53.50 52.33 49.74 51.40 52.13 53.80 53.30
52.07 52.13 52.25 53.06 53.43 53.37 53.62 54.17 54.38 54.03 54.25 54.16 53.68 53.94 54.08 54.43 54.16 54.18 54.73 55.24 55.98 56.73 56.39 55.94 55.68 55.56 50.34 57.68 58.07 59.11 60.89 57.80 58.31 58.14 56.48 57.22 56.91 55.15 53.98 54.93 52.22 49.76 50.49 45.81 52.44 53.60 54.58
52.37 52.61 52.21 52.77 52.92 53.09 52.99 53.11 53.80 54.19 54.11 53.97 53.89 53.34 53.59 53.54 53.71 54.00 54.61 55.24 55.94 56.61 55.40 54.73 55.25 54.20 50.31 55.99 52.91 57.16 60.58 55.88 56.49 56.98 57.12 56.04 55.70 53.64 53.83 49.30 47.26 48.78 44.06 45.77 49.08 52.59 53.80
51.72 52.26 52.94 53.28 52.58 52.80 53.08 53.05 52.84 53.46 53.98 53.53 53.49 53.33 53.15 53.46 53.67 53.41 53.63 54.79 56.78 53.90 55.04 57.33 56.48 51.29 54.03 50.92 53.96 54.37 61.02 58.37 55.01 55.18 53.36 53.18 52.84 50.21 49.97 47.78 41.24 44.04 44.72 46.93 46.29 50.22 51.99
51.94 51.83 52.15 52.84 52.95 53.03 52.23 52.49 52.67 52.67 53.05 53.77 53.24 53.24 53.08 53.05 53.53 52.66 54.28 57.98 54.43 53.26 54.96 50.52 52.40 50.51 50.25 53.85 56.52 53.76 58.72 57.41 56.44 54.38 49.34 53.13 48.86 46.15 47.86 48.99 48.33 48.47 46.59 46.07 48.44 51.76 49.89
52.64 52.20 52.18 52.77 52.88 52.93 52.53 52.65 52.13 52.29 52.65 52.91 53.36 52.82 52.91 52.86 53.16 52.60 54.99 53.16 53.41 54.95 47.40 52.62 53.09 53.60 55.81 54.26 51.66 52.99 56.88 53.42 52.45 49.34 52.03 50.46 46.37 49.71 50.67 48.88 47.56 47.55 45.91 45.95 48.40 49.62 48.77
52.03 52.16 52.31 52.17 52.69 52.67 52.95 53.03 52.42 51.75 51.91 52.43 52.42 52.97 52.60 52.61 52.72 52.27 53.74 54.65 58.92 57.81 48.46 49.60 52.56 52.17 52.23 54.15 50.10 51.39 55.23 53.65 50.85 49.07 49.71 47.54 49.14 50.91 48.24 47.48 46.56 46.67 45.89 45.46 45.44 48.47 49.51
51.99 52.05 52.22 52.33 52.47 52.24 52.33 52.37 52.29 51.97 51.74 51.82 51.85 52.09 52.07 52.24 49.45 51.98 52.98 57.68 59.40 58.53 43.34 44.23 48.80 52.01 53.34 53.00 49.12 54.12 55.60 53.47 51.07 48.05 49.34 48.70 51.39 48.43 47.43 46.86 47.66 43.90 48.74 47.63 46.09 45.35 41.05
51.82 51.85 52.01 52.12 52.24 51.76 51.53 51.64 51.80 51.93 51.66 51.42 51.90 51.52 51.83 51.38 51.50 51.67 56.14 59.40 59.78 57.16 30.42 45.57 48.52 55.51 52.77 49.43 49.35 50.86 55.43 53.24 48.64 48.85 49.38 47.19 48.59 47.40 46.52 47.17 49.14 46.22 50.09 47.98 47.86 46.13 45.64
51.72 51.83 51.99 52.03 51.66 51.47 51.54 51.31 50.99 51.26 51.22 51.02 51.13 51.35 51.55 51.70 52.57 51.73 52.79 58.55 57.57 41.66 31.05 43.37 49.97 47.85 48.40 49.08 48.51 51.64 51.42 53.96 53.18 49.42 49.74 49.15 51.97 50.09 48.89 50.15 49.74 50.36 48.22 48.02 48.01 46.03 40.01
51.46 51.61 51.75 51.87 51.68 51.48 51.43 51.35 50.98 50.99 51.07 50.84 50.73 51.46 50.66 52.14 48.74 53.88 53.36 52.13 39.80 33.23 42.91 41.66 44.83 48.25 47.36 46.31 46.45 48.56 47.43 47.02 45.45 42.81 43.35 47.19 47.98 50.27 51.07 48.13 50.22 48.99 46.06 39.54 37.80 38.80 37.94
51.36 51.38 51.60 51.69 51.73 51.44 51.36 51.10 51.03 50.73 50.70 50.84 50.38 50.89 50.23 51.33 53.80 54.32 48.00 43.18 31.20 38.25 40.05 46.79 45.89 47.65 44.71 46.80 46.30 47.05 46.37 44.17 47.87 46.88 44.18 41.91 40.32 47.44 50.31 48.48 46.74 46.99 46.07 40.40 31.20 34.14 39.18
50.98 51.19 51.38 51.33 51.54 51.21 51.25 51.11 50.94 50.74 50.40 50.21 49.99 49.85 48.94 50.47 53.51 52.27 42.99 33.34 35.00 38.94 42.29 41.97 45.08 43.91 44.31 46.26 45.69 46.00 45.29 44.53 46.62 47.48 42.37 42.64 42.95 49.38 49.92 50.57 49.72 46.90 44.47 47.86 42.26 43.52 39.89
50.67 50.63 50.88 50.92 51.19 51.15 50.95 50.97 50.84 50.76 50.38 50.15 47.59 46.00 46.33 51.16 53.50 48.96 37.76 33.91 39.91 43.58 43.43 44.30 39.52 44.21 42.18 43.89 43.02 44.16 44.40 47.02 45.90 48.16 49.74 46.59 42.01 47.71 48.83 50.67 50.59 48.39 50.32 42.97 43.90 34.87 33.40
49.77 50.04 50.37 50.33 50.85 50.85 50.76 50.84 50.93 50.60 50.39 50.04 45.33 39.84 47.70 52.32 51.69 42.49 31.29 35.54 41.55 45.86 45.24 42.08 42.62 43.19 44.32 44.49 44.48 43.58 44.65 47.17 48.62 47.92 49.36 47.88 45.93 45.44 48.53 46.42 45.38 46.33 45.58 46.41 45.57 43.85 36.84
49.25 49.52 49.65 49.98 50.11 50.47 50.91 50.76 50.81 50.54 50.25 48.29 42.75 34.69 49.29 50.43 37.61 37.45 33.34 39.42 42.50 44.45 46.07 45.59 46.13 46.34 43.95 45.31 45.26 43.61 43.79 46.98 49.85 49.58 45.48 48.55 46.67 42.14 44.41 49.06 49.81 48.60 46.95 47.01 42.04 40.23 43.04
48.72 47.64 47.46 49.65 50.24 50.10 50.05 50.63 50.57 50.32 50.04 45.76 38.09 39.41 50.16 49.08 31.96 33.89 38.76 38.71 40.98 41.08 44.12 43.17 43.58 47.44 48.62 45.43 42.70 46.10 46.37 49.61 50.29 48.90 47.54 49.03 44.86 39.49 42.15 45.69 48.38 46.06 48.30 48.36 46.84 46.58 39.76
47.98 47.94 47.96 48.00 49.52 49.59 49.59 50.19 50.33 50.09 50.10 46.27 38.56 33.01 39.67 42.53 42.80 38.40 36.73 37.05 36.94 42.26 43.24 45.18 43.80 46.45 45.55 45.28 47.92 44.88 45.91 48.80 50.34 49.90 48.52 49.61 45.73 42.46 39.29 42.41 45.63 43.36 45.32 47.27 46.54 42.99 42.33
47.70 47.93 47.94 47.81 47.72 48.30 48.58 48.96 49.78 50.00 49.80 45.71 38.28 36.22 40.02 32.69 36.13 39.89 40.46 38.79 36.88 37.09 42.03 45.02 43.06 43.95 43.66 41.55 43.62 44.12 46.28 47.36 48.18 48.32 49.19 49.33 43.04 44.37 44.83 45.90 45.65 44.47 44.50 45.38 44.58 45.38 41.72
47.18 47.20 47.33 47.68 47.66 47.72 48.19 48.33 49.03 49.91 49.79 42.93 33.51 37.45 41.47 39.36 40.08 38.80 38.12 37.33 37.52 39.23 40.90 40.85 41.53 44.04 44.19 42.24 44.41 42.30 45.89 45.71 44.88 48.36 47.57 49.75 43.08 44.69 42.72 45.25 44.82 43.06 44.75 45.31 45.67 45.96 45.84
46.69 46.70 46.81 47.00 47.35 47.85 48.03 47.90 48.36 49.46 49.08 40.34 41.18 45.24 42.83 39.14 37.65 37.70 38.48 38.30 37.95 41.23 43.13 44.36 43.80 44.12 43.15 44.14 48.83 49.15 48.72 47.37 48.43 47.28 45.98 46.05 44.67 42.15 38.89 43.96 43.60 39.79 43.79 44.96 45.52 46.62 46.33
46.59 46.86 47.07 47.32 47.18 47.79 47.84 47.67 47.88 48.67 48.67 43.07 44.66 44.88 41.67 35.33 37.04 38.00 39.20 40.42 39.51 40.67 40.22 43.08 45.09 43.95 47.52 51.24 50.60 48.22 45.79 45.43 46.16 46.56 49.04 45.81 44.87 43.89 40.37 41.47 33.40 44.13 49.15 48.44 46.70 47.32 48.31
47.42 47.37 47.43 47.88 47.48 47.28 47.58 47.56 47.57 47.91 49.32 43.99 46.56 45.36 41.80 37.15 39.42 39.12 38.97 39.91 41.49 42.19 41.75 42.81 44.92 47.26 50.27 48.45 42.97 38.53 37.79 38.66 40.00 42.56 45.83 48.72 45.84 41.98 38.85 37.96 41.74 44.00 46.94 46.95 45.81 45.54 49.65
47.35 47.56 47.58 47.59 47.36 46.83 47.06 47.16 47.44 47.05 48.24 45.63 47.15 49.69 45.44 40.36 38.54 41.81 39.52 41.05 39.23 40.46 40.55 43.80 48.47 51.67 50.87 44.96 41.04 34.00 32.15 35.28 33.38 39.41 46.84 47.18 48.37 44.00 41.30 36.26 33.54 44.13 49.06 51.51 50.52 42.97 50.53
46.54 46.81 47.12 47.17 47.05 46.91 46.73 47.12 47.18 46.52 47.54 46.03 47.36 50.50 46.41 39.66 43.18 43.30 39.62 39.96 43.27 41.93 41.13 42.24 44.61 46.22 49.33 42.86 39.65 36.16 35.79 39.67 34.27 35.27 37.74 40.37 41.34 40.32 40.55 39.05 42.37 48.43 50.39 52.18 41.75 44.11 51.66
45.96 45.29 46.65 46.21 46.77 46.58 46.83 46.62 46.48 46.85 47.07 46.29 46.98 52.07 47.18 41.66 42.95 44.42 45.68 43.21 42.24 43.75 40.75 43.57 43.03 43.50 44.27 39.90 38.95 38.27 39.15 40.71 39.76 40.85 39.50 39.75 39.49 40.30 42.05 39.03 36.80 50.79 50.39 45.70 50.42 53.49 53.72
46.00 45.50 46.51 46.40 46.56 46.31 46.56 46.58 46.06 46.96 46.65 46.99 44.15 49.99 50.16 45.75 43.26 47.99 48.48 49.64 48.33 48.05 46.03 46.84 44.42 44.55 45.85 42.08 43.38 42.34 42.80 43.73 41.31 37.20 44.72 37.08 44.80 43.31 44.89 44.49 51.46 52.79 51.99 53.94 54.31 53.92 54.66

GFSGBSN_sfc_wetblb_036.txt.gz
Wetbulb
53.53 53.67 53.61 53.69 54.05 54.42 55.64 55.51 55.60 54.98 53.96 54.02 53.47 54.57 54.96 54.80 54.85 55.44 55.56 56.08 57.02 58.03 58.16 58.11 57.96 57.80 56.08 53.19 53.70 61.49 61.41 60.42 57.41 55.70 55.58 52.36 50.81 50.81 49.11 50.86 50.56 48.38 49.75 51.58 52.02 52.25 53.36
52.54 52.68 52.93 53.28 53.40 53.56 53.72 54.14 55.51 54.82 54.40 54.43 53.22 52.85 53.78 55.08 54.98 55.26 54.81 54.84 55.45 56.81 57.48 57.88 57.53 56.57 55.28 47.61 58.74 63.19 60.56 56.89 56.02 54.56 54.74 53.64 52.74 54.40 51.51 51.21 49.80 51.71 51.49 50.98 51.57 51.67 53.75
52.95 52.94 53.07 53.43 53.57 53.67 53.28 53.89 53.97 54.90 54.48 54.19 54.22 52.91 53.71 54.19 54.71 54.70 54.54 54.47 55.00 55.63 56.86 57.46 57.17 56.17 52.34 51.21 58.00 58.89 60.57 57.10 56.50 55.75 54.46 56.05 55.94 53.08 53.19 51.05 52.90 51.73 48.38 49.79 50.98 51.62 52.37
52.32 52.90 52.97 53.07 53.25 53.19 53.63 53.67 53.90 54.02 54.37 54.69 54.14 53.91 53.43 52.69 53.34 53.94 54.10 54.31 54.69 55.66 56.89 57.36 56.28 54.80 48.18 57.77 59.08 58.14 59.41 58.20 57.70 57.38 57.05 57.22 56.49 53.83 52.41 53.74 51.60 48.48 48.26 44.51 50.68 52.26 53.08
52.43 52.81 52.69 53.33 53.36 52.96 53.12 53.23 53.27 53.28 53.75 53.93 54.36 53.70 53.28 53.01 52.25 53.28 53.77 53.57 53.55 55.26 56.86 56.57 54.35 53.50 47.99 57.40 54.57 56.02 58.01 56.60 56.46 56.41 57.01 56.62 54.96 51.70 51.73 48.19 45.65 47.06 42.30 44.85 47.29 52.58 52.72
51.94 52.34 53.08 53.11 53.16 53.34 53.20 53.14 53.09 53.21 53.10 53.57 53.94 53.98 53.34 52.92 52.90 52.43 52.91 52.10 53.58 56.01 56.74 57.41 56.06 49.77 52.40 50.08 54.95 55.46 56.99 58.43 54.40 54.13 53.10 52.66 50.72 47.74 48.18 46.24 39.70 42.80 43.76 45.61 46.35 50.30 51.21
52.10 52.44 52.42 53.29 53.07 53.36 52.58 52.95 52.84 52.80 53.04 53.00 53.47 53.36 53.78 52.86 52.88 52.48 51.80 52.84 52.45 53.17 54.78 51.19 50.77 48.36 50.14 55.80 55.43 53.23 54.92 56.56 54.89 52.26 47.20 50.26 45.91 43.29 46.20 48.30 47.67 46.57 45.92 45.44 48.09 50.97 49.34
52.67 52.08 52.20 52.74 53.29 53.27 52.62 53.14 52.63 52.69 52.67 52.62 52.97 52.79 53.12 53.26 52.82 52.79 51.67 48.76 52.37 54.77 47.08 52.01 53.26 52.96 54.70 56.15 50.30 52.68 55.37 52.75 51.30 47.09 49.54 47.60 44.63 48.86 50.10 49.58 47.56 46.46 44.49 44.94 48.14 50.60 48.99
51.99 52.18 51.69 51.76 52.18 52.69 52.59 52.99 52.42 52.54 52.50 52.27 52.31 52.44 52.31 52.72 52.72 50.99 49.50 49.51 56.74 57.71 46.64 46.48 49.01 49.26 50.39 52.96 50.59 51.14 52.25 53.20 49.65 47.57 48.23 45.81 48.34 51.65 49.06 47.45 46.04 45.51 44.33 44.71 45.22 48.00 49.44
51.58 51.64 52.14 52.00 52.29 52.50 52.37 52.52 52.41 52.48 52.27 52.10 51.85 52.21 51.22 51.89 48.23 50.86 48.75 54.14 55.92 57.79 40.78 40.82 45.58 50.66 51.13 51.71 47.90 53.99 53.99 51.84 50.09 46.87 47.97 47.70 50.59 49.23 47.76 45.82 46.48 42.78 47.39 47.22 46.55 45.02 40.31
51.42 51.67 51.73 52.16 52.35 52.23 52.04 52.18 52.26 52.24 52.04 52.14 51.85 52.01 50.94 51.16 50.33 50.43 54.81 57.20 59.15 55.91 26.76 42.84 45.53 54.84 53.09 48.92 49.93 49.78 54.24 52.05 47.13 47.79 48.35 45.94 47.64 47.00 46.21 45.81 47.79 45.23 49.26 47.68 47.19 44.67 44.51
51.14 51.54 51.85 51.96 52.00 51.83 51.90 51.79 51.82 51.69 51.91 51.85 51.73 51.90 51.15 49.64 50.55 51.58 55.46 55.48 56.12 39.09 27.90 40.50 49.02 47.59 47.42 49.05 48.57 50.65 49.80 52.99 51.96 48.06 48.96 47.86 51.38 49.69 48.92 48.95 49.11 49.78 48.01 47.70 47.16 44.71 38.55
50.79 51.00 51.35 51.69 51.80 51.84 51.86 51.76 51.59 51.41 51.44 51.56 51.46 51.25 50.49 49.95 47.41 53.91 54.30 51.87 37.97 30.78 41.35 39.39 44.89 47.92 45.89 45.82 46.04 47.23 46.42 45.52 43.80 41.11 42.80 46.12 46.71 50.05 50.51 46.34 49.18 48.12 45.19 38.11 36.25 36.54 36.77
50.27 50.46 50.69 51.30 51.53 51.57 51.66 51.51 51.43 51.23 51.29 51.30 51.09 50.65 50.41 49.45 52.29 54.06 49.60 41.57 28.80 36.04 38.27 44.81 44.33 46.34 44.44 46.28 45.97 45.59 45.09 42.89 47.13 45.96 43.18 40.92 39.03 46.58 49.48 47.11 45.53 46.05 44.86 39.32 32.08 33.87 37.52
50.12 50.20 50.38 50.63 51.13 51.22 51.45 51.45 51.29 51.19 51.05 50.97 50.81 49.56 48.50 50.00 51.70 51.66 42.86 30.72 32.54 36.38 40.64 40.73 42.63 42.34 43.44 46.33 45.93 44.75 44.37 44.51 46.37 46.82 41.86 41.30 41.21 48.37 49.27 49.44 48.47 46.00 42.44 47.31 41.59 42.70 37.50
49.84 49.99 50.01 50.10 50.47 50.64 50.97 51.16 51.33 51.25 51.11 50.63 48.09 46.48 46.27 50.96 50.51 49.05 37.44 32.49 36.74 40.85 41.49 42.01 37.66 41.00 39.37 44.07 43.66 43.53 43.24 46.59 46.00 48.31 49.39 45.89 40.83 47.32 48.66 49.64 49.40 47.18 48.73 41.93 43.10 34.02 32.07
48.89 49.13 49.36 49.74 49.89 50.14 50.45 51.06 51.17 51.26 50.95 50.55 46.11 40.34 47.03 50.41 50.60 41.56 31.97 34.19 38.64 43.00 43.19 40.21 39.37 39.01 40.36 40.94 44.21 43.68 43.49 46.59 48.53 47.90 48.96 47.40 45.16 44.34 47.72 45.54 43.93 45.05 43.87 45.32 45.62 42.86 35.93
48.18 48.20 48.75 49.07 49.65 49.93 50.16 50.62 50.81 51.05 50.85 48.99 43.50 34.47 47.27 50.55 37.06 37.05 33.39 36.78 41.00 41.20 43.49 42.56 42.82 41.74 40.63 42.28 42.65 44.32 43.56 46.21 49.73 49.16 45.01 47.76 45.42 40.11 42.93 48.14 49.33 47.79 45.99 45.41 39.73 39.24 42.48
47.78 48.00 48.32 49.08 49.29 49.57 49.85 49.89 50.26 50.64 50.74 46.78 39.33 39.02 47.59 47.31 30.18 32.53 36.49 38.32 39.24 39.51 40.71 40.92 41.33 43.36 44.51 42.86 39.85 43.43 45.90 50.30 50.44 49.01 45.91 47.55 42.54 37.41 40.77 44.89 48.09 45.19 46.13 46.80 46.73 45.59 41.17
47.33 47.85 48.24 48.99 49.48 49.35 49.37 49.90 50.11 50.16 50.90 47.39 39.47 32.33 39.75 41.75 42.17 36.74 34.67 36.43 36.13 41.37 40.56 41.74 41.39 44.10 42.91 42.17 44.24 41.80 41.82 48.62 51.49 49.71 47.82 49.19 45.05 41.18 36.50 41.20 45.06 43.27 44.81 46.15 45.85 40.73 40.95
47.35 48.04 48.39 48.14 48.28 48.30 48.64 48.97 50.21 50.18 50.67 47.05 38.47 34.11 38.98 32.67 34.96 38.46 38.65 37.60 35.58 35.88 40.51 42.11 40.88 41.49 41.59 38.22 39.45 39.35 42.01 44.60 48.53 49.14 49.11 48.82 41.84 43.40 44.49 45.20 45.45 44.65 44.17 44.44 43.45 45.34 41.74
47.86 47.77 47.73 47.96 48.06 48.30 48.14 48.72 49.55 50.22 50.36 45.01 32.21 36.93 41.07 38.79 38.56 37.00 36.97 36.94 36.23 38.29 39.30 37.06 38.46 40.69 42.50 39.94 41.92 39.70 43.42 43.64 44.88 48.37 47.32 49.67 41.66 43.34 41.14 45.03 44.41 42.63 44.78 45.06 44.70 44.82 44.47
47.13 47.03 46.99 47.13 47.34 47.85 48.03 47.93 48.65 49.21 49.40 44.04 39.36 43.84 41.42 38.02 37.63 34.96 35.72 37.90 38.13 40.93 41.89 42.12 41.24 40.98 41.26 43.15 47.10 46.54 47.45 45.77 44.41 45.26 45.33 45.53 43.89 41.41 37.59 43.59 41.97 37.11 42.91 44.41 45.26 46.53 46.06
46.58 47.00 47.26 47.21 47.13 47.35 47.45 47.48 47.71 48.56 48.41 43.23 39.83 43.32 38.31 34.50 37.40 36.50 37.87 39.39 39.06 40.03 39.52 42.36 43.70 41.51 45.59 50.76 50.00 48.11 44.98 44.84 44.31 44.48 46.16 42.66 44.24 42.67 37.91 38.80 30.63 43.09 48.14 47.02 45.29 46.26 47.68
46.37 46.72 47.37 47.74 47.59 47.29 46.99 47.12 47.29 47.52 48.13 44.98 42.16 43.04 39.48 35.38 38.53 38.28 38.33 39.16 40.32 41.67 40.98 41.87 44.03 46.54 49.41 46.98 40.79 37.85 37.60 38.36 39.17 41.53 41.50 43.83 42.73 40.33 36.27 36.27 40.62 42.76 45.90 45.73 44.96 44.51 48.73
47.38 47.66 47.60 47.74 47.55 47.31 46.97 46.96 47.21 47.36 47.88 46.45 42.89 46.30 43.97 37.10 37.64 41.35 38.92 40.49 37.58 38.54 39.80 42.50 46.76 48.09 48.69 43.18 39.37 32.57 31.08 35.05 32.82 34.93 41.62 42.14 44.88 41.59 39.73 34.31 31.63 42.86 48.08 50.18 49.55 40.21 49.81
47.08 47.18 46.90 46.93 46.76 47.18 46.85 46.69 47.09 47.22 47.75 46.54 43.11 45.18 44.94 39.18 42.44 42.45 38.67 38.19 42.35 40.66 39.67 42.34 43.73 44.60 47.85 37.12 33.40 34.26 34.01 38.69 33.17 33.42 33.96 33.70 38.40 38.08 37.73 36.44 40.95 47.36 49.07 50.22 39.56 42.08 52.13
47.10 46.06 46.23 46.36 47.13 46.92 46.73 46.85 46.73 47.02 47.50 46.29 42.97 47.36 45.55 40.71 43.62 44.59 44.58 41.78 42.29 42.08 38.59 42.89 41.79 41.88 43.01 37.44 36.31 37.02 37.21 38.19 36.88 39.33 38.94 35.70 35.75 38.06 39.70 35.47 33.41 50.63 48.71 43.91 48.88 53.97 54.21
45.38 45.88 46.06 45.74 46.80 46.45 46.53 46.73 46.74 46.98 47.03 46.39 42.48 47.98 51.13 44.32 43.38 48.19 48.18 48.89 47.71 47.01 44.65 45.37 43.20 42.50 41.90 38.92 41.76 41.57 41.48 42.09 40.21 34.30 43.50 35.86 39.57 40.01 40.28 41.86 50.06 50.22 49.46 52.99 54.96 54.51 54.36

GFSGBSN_sfc_wetblb_042.txt.gz
Wetbulb
53.40 53.63 53.56 53.58 53.38 53.00 53.00 53.32 54.42 54.49 54.73 54.53 54.65 54.75 54.80 54.54 53.37 53.11 52.67 53.54 54.17 54.47 54.25 54.38 55.14 56.25 53.87 48.89 49.07 56.42 61.63 60.14 55.78 53.13 50.52 49.61 47.95 44.98 41.68 43.18 45.31 43.29 44.63 46.15 47.53 47.86 50.89
52.80 52.90 53.14 53.17 53.19 53.50 53.35 53.06 53.62 54.15 54.15 54.42 54.42 54.32 54.41 54.61 54.29 53.74 53.47 53.39 53.32 53.87 54.04 54.01 54.45 56.62 50.83 43.12 52.75 55.92 57.49 54.58 52.47 49.78 49.09 50.32 49.56 47.85 44.97 45.76 43.92 47.07 46.85 45.83 47.12 46.33 52.86
52.61 52.78 52.89 53.28 53.01 53.32 53.13 53.40 53.43 53.91 53.80 54.05 54.21 54.17 54.04 53.97 54.30 53.95 53.52 53.42 53.06 53.16 53.57 53.67 54.05 54.89 48.38 45.72 52.74 52.43 54.99 52.19 52.08 51.24 47.61 50.30 50.82 47.60 47.55 45.35 48.71 47.62 43.35 44.74 45.48 45.35 48.63
52.48 52.62 52.81 53.32 53.46 53.40 53.23 53.34 53.84 52.95 53.40 53.85 53.82 53.78 53.85 53.62 53.50 53.58 53.28 53.05 52.89 53.18 53.38 53.95 54.16 52.92 44.74 54.25 53.17 52.89 52.92 52.16 54.33 53.12 51.77 51.60 51.49 49.51 47.21 47.79 46.29 43.22 42.06 37.22 43.13 47.52 48.19
51.97 52.30 52.36 53.17 53.33 53.34 53.36 53.37 53.60 53.82 53.86 53.59 53.71 53.48 53.36 53.36 52.95 52.70 53.03 52.94 52.84 53.19 53.72 54.01 52.08 49.47 43.69 55.93 51.93 53.87 52.59 50.82 53.03 53.72 52.07 53.77 50.56 46.46 46.09 40.63 37.29 38.84 34.52 37.20 40.49 46.49 47.91
51.91 52.06 52.56 52.89 53.36 53.62 53.75 53.56 53.33 53.36 53.63 53.59 53.52 53.44 53.23 53.22 52.39 52.14 52.37 52.36 52.09 52.49 51.84 54.65 54.23 45.62 48.36 46.15 52.23 53.06 52.34 52.37 51.30 52.04 50.33 47.78 44.57 41.33 39.32 36.75 31.14 34.91 35.45 34.74 37.03 44.89 46.44
51.59 52.01 51.96 52.05 52.61 52.70 53.03 53.13 53.36 53.30 53.19 53.24 53.40 53.25 52.99 52.91 52.35 52.21 50.63 46.72 43.28 45.76 49.29 47.84 47.82 45.82 47.33 51.61 55.66 51.31 52.64 50.62 49.62 47.87 42.06 44.66 39.29 36.49 38.67 40.07 41.45 40.73 39.25 37.78 41.24 46.64 46.51
50.48 51.02 51.55 51.72 51.90 52.55 52.65 52.88 52.81 52.64 52.84 53.19 52.99 52.99 52.70 52.64 52.24 51.84 49.30 42.70 43.50 42.83 37.07 46.28 49.12 50.48 51.93 53.02 48.55 50.87 51.73 45.92 45.62 42.22 43.32 41.18 38.09 42.65 44.05 43.40 42.09 41.39 39.29 39.33 41.80 46.37 45.32
50.13 50.77 51.01 51.30 51.81 52.19 52.30 52.69 52.55 52.68 52.68 52.74 52.93 52.74 52.47 52.02 51.61 48.77 46.09 45.20 49.34 48.29 38.27 42.92 47.61 47.87 49.62 51.29 47.70 47.78 49.03 46.00 44.66 42.69 41.81 39.15 41.82 45.81 44.03 42.49 41.26 41.27 39.62 39.81 39.49 43.39 42.65
50.03 50.66 50.30 50.41 50.96 51.15 51.76 51.82 52.32 52.38 52.47 52.45 52.48 52.20 51.52 50.81 46.06 46.16 43.66 49.59 50.28 50.23 34.33 36.72 41.96 44.52 47.22 47.08 42.68 49.05 50.10 46.07 44.62 42.82 43.30 40.75 45.19 43.82 42.75 41.66 42.62 38.81 44.91 43.10 41.41 39.03 34.12
49.49 50.03 49.49 49.75 50.16 50.99 51.40 51.65 52.10 52.24 52.26 52.25 52.17 52.06 51.31 51.05 44.01 42.28 47.84 47.83 50.51 45.22 17.13 36.98 41.88 49.74 47.70 42.51 44.09 45.37 49.61 46.42 41.95 44.00 43.34 40.49 42.33 41.96 41.23 42.75 44.99 42.08 46.03 43.10 42.95 38.72 36.09
48.63 48.74 48.65 49.34 50.05 50.46 50.78 51.07 51.47 51.76 51.93 52.00 51.90 51.88 51.59 47.99 44.98 45.92 47.66 48.46 48.89 33.27 20.47 35.77 43.11 41.41 40.66 42.26 43.98 46.42 45.37 48.22 46.81 44.08 44.68 43.05 46.38 44.57 44.08 46.52 46.05 46.86 43.80 42.98 41.36 37.85 30.37
48.08 47.75 47.96 48.88 49.50 50.06 50.69 50.80 50.93 51.33 51.68 51.74 51.53 51.73 50.52 48.04 39.86 44.97 47.37 46.77 33.97 25.31 36.91 33.96 39.74 43.42 40.83 38.62 40.61 42.27 41.41 39.99 38.18 34.95 36.51 41.87 43.10 46.08 46.37 42.09 45.40 43.13 38.44 31.62 29.97 29.32 28.59
47.31 47.45 47.91 48.74 48.92 49.52 49.83 50.20 50.44 50.85 51.31 51.35 51.16 50.89 50.26 48.64 45.52 45.93 45.85 39.01 27.60 31.48 31.98 38.86 38.69 38.69 38.56 40.57 39.39 40.61 39.13 36.55 40.41 38.82 35.03 34.15 31.90 41.94 45.66 43.22 41.18 40.70 38.98 31.04 26.22 25.94 30.89
46.44 47.16 48.04 48.61 48.72 49.01 49.39 49.66 50.20 50.52 50.90 51.13 51.01 48.62 47.21 47.40 45.95 47.87 39.60 30.58 29.60 33.05 37.06 35.22 36.01 33.22 34.67 38.76 41.11 39.85 38.73 38.34 39.90 41.06 35.31 33.90 34.70 43.82 45.54 45.98 44.52 40.94 36.06 41.69 34.72 35.33 31.07
46.09 47.08 47.87 48.21 48.36 48.83 48.81 49.07 49.94 50.27 50.90 50.86 47.38 45.66 44.41 47.58 45.87 44.44 35.19 30.39 32.81 38.48 38.51 37.77 31.32 34.33 31.76 34.67 36.50 36.29 37.58 41.83 41.20 42.98 43.84 39.74 34.19 42.35 44.34 45.62 45.22 43.23 44.21 35.19 34.35 27.57 26.37
46.28 46.99 47.66 47.70 47.77 48.05 48.35 48.89 49.41 50.20 50.53 50.76 46.36 40.41 45.78 47.12 46.11 38.88 29.04 30.57 34.38 39.19 39.04 36.14 33.43 32.98 33.56 33.94 35.83 36.61 36.47 41.15 43.17 42.81 44.42 41.14 38.61 37.64 42.06 40.29 39.64 39.71 38.04 39.38 38.57 35.10 28.40
46.51 46.84 47.10 47.41 47.72 47.93 48.36 48.71 48.90 49.57 50.28 48.67 44.33 34.55 45.43 47.49 35.16 35.01 30.13 33.64 38.76 36.94 39.75 37.28 38.21 36.55 34.03 35.79 34.58 34.87 36.39 40.82 46.36 45.60 40.92 42.47 38.00 33.72 37.20 43.42 45.01 42.53 41.39 40.77 33.36 33.01 33.92
46.30 46.66 46.79 47.09 47.47 47.84 47.98 48.39 48.70 49.02 49.72 46.42 39.44 38.39 45.72 43.68 28.89 29.86 33.49 33.68 35.81 35.81 36.21 36.42 35.67 37.50 37.77 34.96 32.44 35.97 38.34 47.20 47.21 45.28 42.06 43.66 37.49 30.13 34.33 38.87 41.37 39.32 40.98 42.49 40.78 37.51 33.29
46.10 46.29 46.64 47.26 47.61 47.77 48.06 48.17 48.39 48.74 49.48 46.39 38.83 31.60 38.99 40.03 36.56 32.43 30.43 30.82 31.47 37.72 35.76 36.91 36.15 37.41 34.98 33.04 35.93 33.75 37.12 44.54 47.14 46.12 46.06 46.24 40.81 36.24 30.68 34.72 38.71 37.42 40.78 41.69 40.61 31.59 32.56
45.69 46.03 46.43 46.86 47.10 47.57 47.61 47.90 48.11 48.61 49.00 45.63 38.45 32.40 36.75 32.10 33.13 33.98 33.82 32.64 30.61 30.50 36.66 37.97 34.88 34.54 33.60 29.86 31.73 31.71 36.55 41.55 46.00 45.48 45.80 44.81 37.35 38.41 39.48 40.96 40.81 40.42 40.61 40.75 39.22 38.39 34.57
45.48 45.89 46.23 46.60 46.89 47.14 47.68 47.82 47.93 48.28 48.74 43.62 32.36 34.03 37.88 34.24 36.48 34.02 33.88 31.04 30.81 32.52 34.13 33.04 33.64 35.23 34.85 31.52 32.84 30.85 34.34 35.50 39.06 43.55 41.89 42.09 36.75 36.02 33.95 40.07 40.42 38.35 40.64 41.45 41.66 40.84 39.37
45.72 46.07 46.34 46.55 46.92 47.57 47.85 47.90 48.11 48.37 48.16 41.72 42.33 40.11 38.84 36.42 35.34 33.19 31.68 31.63 32.64 34.41 36.31 37.06 36.32 35.16 33.19 34.89 37.92 39.95 40.27 41.32 41.64 40.21 37.25 38.92 35.45 33.07 29.01 36.65 37.56 32.36 38.50 40.76 41.37 42.22 42.54
45.85 46.09 46.60 47.11 47.47 47.82 47.74 47.58 47.65 48.19 48.30 45.11 42.81 41.65 35.84 32.03 33.79 33.13 34.17 34.59 33.23 35.53 32.69 37.22 37.86 34.95 38.48 42.11 44.26 42.61 42.12 42.23 42.75 41.91 41.76 36.74 35.00 33.73 29.49 32.47 27.06 38.62 42.86 43.52 42.02 42.37 43.01
45.60 46.43 47.15 47.18 47.25 47.33 47.24 47.15 47.11 47.59 48.04 44.73 43.99 41.25 37.64 31.68 34.87 34.08 34.66 34.62 35.50 36.28 35.73 35.73 37.90 40.64 41.70 38.83 34.96 33.36 29.84 32.59 36.49 40.97 41.07 41.26 36.01 31.21 28.64 29.50 34.81 38.02 41.67 40.00 38.93 39.59 43.83
46.08 46.46 46.51 46.58 46.76 46.79 46.63 46.79 47.00 47.21 47.92 45.63 44.08 44.02 39.90 34.78 33.95 37.22 34.56 35.45 32.85 32.45 33.55 35.95 41.60 43.38 40.91 35.27 33.08 26.41 23.47 29.99 30.34 35.14 42.40 38.55 38.20 33.20 30.53 26.08 26.52 35.80 43.00 46.47 44.76 33.74 43.81
45.92 45.88 46.23 46.48 46.76 46.85 46.98 47.10 47.04 47.07 47.61 45.53 44.00 43.86 39.34 32.57 38.08 38.28 34.26 34.22 37.28 35.13 32.74 34.55 36.89 37.83 41.31 30.68 28.73 26.82 25.88 34.30 28.26 28.87 31.46 31.52 31.30 30.33 29.44 27.95 33.28 41.84 43.07 46.46 35.37 35.62 45.59
45.64 45.80 45.95 46.25 46.57 46.85 47.08 47.12 47.06 47.16 47.27 45.65 42.75 43.95 40.39 35.43 37.76 41.05 41.42 37.57 37.20 36.69 32.11 34.63 35.33 36.99 35.88 31.08 29.56 27.50 25.68 31.31 30.44 34.04 32.12 30.57 29.33 28.49 31.34 28.67 27.96 43.95 43.42 38.57 41.99 45.53 47.96
46.39 46.61 46.55 46.63 46.71 46.66 46.99 46.96 47.08 47.19 47.25 46.99 41.27 44.35 45.69 39.15 39.03 44.10 43.69 44.73 42.95 42.23 39.00 38.44 36.98 37.28 38.29 34.29 31.93 30.21 26.45 24.77 29.52 25.25 38.40 30.90 34.91 32.35 33.85 33.07 43.25 45.50 45.07 46.27 47.68 46.84 47.27

GFSGBSN_sfc_wetblb_045.txt.gz
Wetbulb
52.83 53.08 53.19 53.35 53.34 53.36 53.55 53.53 53.50 54.02 54.13 53.59 54.06 54.00 53.49 53.86 53.77 54.91 54.20 53.84 53.90 53.92 53.81 53.43 53.77 54.47 52.70 46.39 47.38 54.16 61.08 60.14 55.39 51.10 48.08 47.88 46.32 43.37 40.54 41.57 43.00 41.27 43.68 46.02 45.70 46.58 48.44
52.47 52.82 52.84 52.99 53.10 53.13 52.94 52.95 53.09 53.43 53.72 54.07 53.94 54.19 54.01 53.55 53.70 54.07 54.01 54.00 53.80 53.78 53.70 53.47 53.59 54.20 49.09 41.37 50.44 53.30 56.21 53.92 50.75 48.97 48.04 48.63 46.92 46.83 43.93 43.10 42.71 45.35 45.26 44.98 45.24 49.62 52.62
52.07 52.62 52.72 53.50 53.41 53.22 53.08 53.57 53.73 53.81 53.17 52.69 53.48 53.72 53.71 53.94 53.98 53.98 53.69 53.30 53.42 53.40 53.62 53.37 53.41 51.78 47.93 43.74 51.18 51.25 51.63 50.19 50.11 49.25 46.26 48.70 49.41 46.29 46.01 43.79 47.16 45.82 41.92 43.26 43.50 44.89 49.31
51.68 51.86 52.06 52.96 53.27 53.54 53.45 53.60 53.89 53.76 53.95 53.91 52.37 53.24 53.38 53.28 53.26 53.20 52.74 52.45 52.72 53.38 53.78 53.94 53.39 51.08 43.01 52.61 51.39 51.89 51.09 50.85 52.47 51.51 50.14 50.20 49.85 47.19 45.65 46.75 44.62 41.33 40.16 36.17 41.02 46.22 46.39
50.74 51.49 51.99 52.85 53.38 53.21 53.43 53.57 53.76 53.84 53.84 53.82 54.02 53.46 53.03 53.10 52.87 52.56 52.31 52.23 52.58 53.39 53.73 53.54 50.45 48.99 42.78 54.30 51.07 53.56 52.08 48.92 50.84 52.07 50.44 52.68 48.74 44.67 44.15 39.51 36.65 37.09 32.67 35.66 39.80 44.08 45.22
50.34 51.11 52.05 52.17 52.25 52.66 52.68 53.41 53.66 53.76 53.63 53.67 53.71 53.61 53.28 52.81 52.56 51.96 51.63 51.94 52.31 52.18 51.15 52.10 53.31 44.18 46.84 45.82 50.49 52.53 52.05 51.08 48.84 50.00 48.77 47.21 43.55 40.11 37.70 35.73 29.86 32.69 33.81 32.99 35.12 40.42 44.56
49.98 50.45 50.55 51.27 51.65 51.98 52.21 52.92 53.33 53.12 53.26 53.26 53.44 53.44 53.32 52.99 52.44 51.99 49.81 46.42 40.46 42.62 43.97 44.60 45.92 45.78 47.32 51.70 54.47 51.29 51.82 48.66 48.19 46.92 41.34 42.79 38.10 35.29 37.47 39.15 39.14 38.77 36.50 35.02 38.02 42.04 42.79
49.13 49.33 50.33 51.13 51.29 51.40 51.95 52.53 52.66 52.64 52.70 52.89 52.85 53.03 52.99 52.77 52.42 51.83 48.74 42.23 42.61 43.28 38.04 45.06 43.85 45.03 50.40 51.79 46.57 49.28 51.49 44.58 43.88 39.88 42.42 39.56 37.32 40.65 42.10 41.34 39.72 38.61 36.54 36.25 39.82 42.91 42.32
49.50 49.37 49.85 50.55 50.57 50.69 51.21 51.77 52.14 52.22 52.45 52.49 52.54 52.87 52.79 52.30 51.73 47.07 45.10 44.98 49.87 48.88 39.42 41.88 44.58 43.36 44.50 48.85 45.60 46.25 49.55 45.29 42.27 40.49 40.59 37.94 40.42 43.92 42.34 40.32 39.10 38.56 36.65 37.25 37.89 40.63 41.60
49.19 48.80 49.49 49.73 49.92 49.92 50.24 50.60 50.86 52.08 52.11 52.26 52.26 52.55 51.85 51.25 45.16 44.59 43.49 47.37 47.84 49.19 32.60 34.23 39.80 42.85 46.05 47.67 42.81 49.81 49.98 45.79 42.69 40.23 41.34 39.50 44.67 42.30 40.43 39.86 40.07 35.39 41.63 41.55 40.26 36.63 33.24
48.72 48.46 48.41 49.35 49.11 49.35 50.13 50.22 50.72 51.14 51.88 52.09 52.14 52.08 51.73 51.23 42.34 41.50 45.37 47.55 47.91 46.60 16.94 35.85 40.86 47.20 46.27 41.14 41.59 44.55 49.39 44.65 40.10 42.33 42.01 39.64 40.10 39.89 39.44 40.77 42.26 39.02 43.30 41.49 40.96 36.61 35.10
48.12 47.49 47.58 48.20 48.14 49.06 49.68 50.15 50.75 51.04 51.41 51.60 51.77 51.90 51.53 48.20 44.49 45.12 46.44 46.06 47.37 33.68 19.02 33.75 40.99 41.08 40.57 41.69 41.34 44.49 43.00 46.95 45.68 41.23 42.31 42.33 44.50 42.85 41.58 43.88 43.52 44.81 41.89 40.28 38.55 36.19 29.81
47.60 47.51 47.51 47.07 47.57 48.55 49.14 49.74 50.08 50.62 51.00 51.32 51.39 51.54 50.31 47.12 40.16 44.07 44.59 43.39 34.46 25.43 35.36 32.20 35.51 40.65 39.25 37.81 38.94 41.98 39.79 39.91 38.27 34.43 34.78 39.89 41.79 43.61 44.75 40.25 42.93 41.10 36.10 29.12 27.76 27.22 28.29
47.37 46.95 46.78 46.64 47.23 48.36 48.86 49.04 49.77 49.81 50.31 50.73 51.09 50.86 50.22 48.11 45.70 44.98 42.51 38.09 26.82 31.49 31.14 36.96 35.78 36.13 37.76 38.56 38.12 39.68 37.98 35.13 39.00 38.22 34.57 33.29 30.54 40.83 44.09 42.35 39.09 38.56 37.41 29.19 25.11 24.87 28.94
46.53 46.84 46.60 46.64 47.00 47.91 48.48 48.65 49.16 49.46 49.92 50.33 50.54 48.60 47.52 46.01 45.06 44.99 36.32 28.83 28.81 32.92 36.15 34.38 35.66 31.67 33.36 37.30 39.45 37.97 36.28 35.90 38.37 39.27 34.30 31.91 32.85 41.56 43.23 44.31 43.13 38.49 34.54 39.61 32.75 32.45 29.09
46.65 46.23 45.98 46.43 46.78 47.64 47.98 48.17 48.88 49.34 49.66 50.12 46.10 45.86 45.01 46.77 46.63 42.22 32.61 29.48 33.41 38.10 37.86 36.45 30.08 33.33 30.04 32.73 35.06 36.50 36.55 39.92 39.14 40.58 42.57 37.65 32.33 40.44 42.50 43.28 42.68 41.22 41.69 33.43 32.27 26.49 25.81
46.03 45.63 45.69 45.95 46.92 47.25 47.60 47.92 48.55 48.81 49.30 49.75 44.99 40.30 45.78 47.38 46.91 38.27 27.35 28.85 33.61 38.07 38.11 34.21 32.79 31.36 32.50 32.26 33.51 33.72 35.66 41.08 43.56 43.10 41.98 39.24 36.41 35.92 40.42 38.12 37.40 37.68 35.75 37.11 36.83 32.48 28.54
45.63 45.04 45.16 45.75 46.15 47.08 47.19 47.84 48.32 48.35 48.64 47.53 42.47 33.55 45.63 47.04 34.57 35.31 29.08 32.13 37.33 36.14 38.89 36.86 36.48 35.84 33.53 34.65 32.18 33.20 33.64 37.39 45.51 44.35 39.67 42.22 36.06 30.78 36.14 42.28 42.61 39.55 38.08 38.11 32.64 30.80 31.98
45.64 44.56 44.98 45.53 46.52 46.62 47.10 47.66 47.93 48.01 48.67 44.82 37.09 37.40 45.98 44.05 29.76 30.07 33.25 32.04 34.97 34.74 35.19 35.35 34.51 36.11 36.61 33.26 29.80 33.96 35.94 44.54 46.39 44.06 40.95 43.24 37.00 29.22 31.94 37.39 39.15 36.87 38.53 39.25 38.31 35.11 33.31
44.58 44.67 44.80 45.16 46.16 46.71 47.01 47.35 47.83 48.15 48.61 44.48 36.37 30.97 38.18 40.44 36.29 32.44 31.22 30.99 30.93 36.26 34.55 36.07 35.09 35.80 33.73 32.03 34.16 31.35 34.87 39.87 46.44 44.89 46.08 44.59 39.27 36.73 31.89 33.68 37.78 35.11 38.47 39.85 38.91 31.20 31.03
44.79 44.95 45.36 45.83 45.90 46.56 46.87 47.11 47.76 48.01 48.11 43.90 36.91 31.35 37.48 31.07 33.17 33.78 33.64 32.85 30.63 30.25 35.61 36.12 32.97 33.21 31.77 28.27 29.72 29.27 34.12 38.69 43.64 45.48 44.94 42.48 34.08 36.48 36.73 37.24 38.29 37.14 38.46 39.51 37.38 37.76 34.04
44.33 44.66 45.12 45.26 45.83 46.21 46.56 47.19 47.40 47.88 47.67 40.86 32.08 34.30 37.58 35.86 36.82 33.88 33.82 31.18 30.73 32.19 33.84 32.16 31.94 34.56 33.83 30.23 31.18 29.36 32.65 32.79 35.67 41.41 39.99 42.69 33.60 35.56 32.01 38.01 36.61 34.62 37.16 38.07 39.46 38.87 37.23
44.35 44.54 44.88 45.26 45.66 46.38 46.84 47.18 47.04 47.30 46.65 39.70 39.78 40.54 38.66 36.53 35.38 32.99 31.66 32.49 32.49 34.79 35.07 36.03 34.79 33.04 31.87 34.00 35.96 36.76 36.73 37.18 37.95 38.53 37.21 37.81 35.24 32.57 27.29 33.08 34.13 28.91 34.99 37.36 39.61 41.25 40.32
44.50 44.90 45.17 45.38 46.11 46.78 46.95 46.90 47.06 47.53 46.88 42.85 42.11 40.97 35.04 30.93 33.73 32.94 34.63 34.57 33.09 34.46 32.05 35.47 36.15 33.62 36.93 40.31 40.41 41.69 41.45 41.21 41.29 40.68 40.00 34.66 33.37 32.09 28.56 30.17 22.51 33.91 39.50 39.98 39.36 41.47 42.78
44.52 44.81 45.68 46.27 46.32 46.43 46.78 47.05 47.36 47.37 47.46 44.35 44.34 41.13 37.29 30.64 34.76 34.46 35.21 35.15 35.38 35.27 34.16 34.30 36.54 38.98 41.62 37.14 33.90 30.53 28.45 31.78 35.63 40.15 38.58 38.34 33.37 29.53 24.79 25.58 30.64 32.95 38.10 38.32 35.55 36.55 42.99
44.86 45.47 45.82 45.91 46.40 46.47 46.43 46.73 46.90 47.01 47.52 45.62 44.67 44.70 40.35 34.04 31.87 36.92 35.24 36.20 32.79 31.53 31.92 34.55 40.05 41.33 39.82 35.11 32.44 26.75 22.02 27.94 29.27 35.47 40.64 38.20 36.58 28.20 30.15 22.28 19.53 32.27 39.72 43.99 43.56 34.20 42.82
45.02 45.20 45.78 46.08 46.05 46.24 46.50 46.66 46.89 47.20 47.45 45.09 43.76 45.20 40.16 32.27 37.35 38.24 34.49 34.38 37.65 34.71 31.52 33.68 35.83 36.68 39.69 29.73 29.65 26.89 25.77 31.93 27.09 28.45 31.15 31.91 31.80 30.41 30.07 28.14 29.01 37.89 41.87 44.79 33.07 33.47 43.67
45.20 45.46 45.68 45.80 45.94 45.97 46.24 46.41 46.52 46.82 47.11 44.95 42.06 45.66 40.40 34.94 36.29 40.94 40.94 37.80 37.14 36.40 30.83 34.04 35.04 35.79 34.61 29.04 29.99 28.27 23.33 28.68 28.95 32.32 30.73 29.60 29.05 28.12 30.95 28.47 25.53 41.83 43.11 37.06 41.09 43.95 45.40
45.57 45.64 45.57 45.85 46.08 46.13 46.03 46.45 46.93 47.09 46.94 46.52 40.94 45.06 45.47 38.87 36.33 41.30 42.81 44.95 43.35 41.75 38.36 37.53 36.02 36.42 36.61 32.54 30.94 29.31 24.32 23.38 28.78 25.17 35.00 28.27 31.29 28.65 31.61 30.84 40.34 44.77 44.30 45.76 45.82 45.26 46.36

GFSGBSN_sfc_wetblb_048.txt.gz
Wetbulb
52.28 52.38 52.48 52.68 52.80 52.97 53.01 52.89 52.96 53.47 52.86 53.17 53.22 53.17 53.21 53.03 52.93 53.19 53.70 53.57 53.68 53.83 54.10 53.83 53.64 53.72 50.95 45.03 44.67 51.91 60.52 60.80 55.12 49.98 46.83 46.53 44.52 41.74 38.83 39.85 41.49 39.13 41.59 44.07 44.78 44.51 44.24
50.96 51.89 52.14 52.61 52.75 52.75 53.03 52.87 52.80 53.54 53.02 52.74 53.02 53.37 53.29 53.00 52.90 52.77 53.29 53.24 52.98 53.10 53.47 53.36 53.66 53.31 48.23 38.57 48.48 51.65 50.65 52.90 49.60 47.67 47.12 47.07 45.69 45.53 42.12 41.43 41.40 43.89 43.56 43.67 43.49 44.04 50.75
50.80 51.11 51.37 52.00 52.33 52.34 52.74 53.14 52.97 53.56 53.70 53.50 53.76 53.27 52.89 52.53 53.23 53.20 53.20 52.89 52.37 52.31 52.62 52.68 53.68 50.78 44.93 42.00 49.29 49.82 50.61 48.38 48.50 47.51 45.30 47.40 47.48 44.55 44.04 41.89 45.47 44.44 40.55 41.94 41.96 41.59 47.09
51.16 50.99 51.34 52.09 52.77 53.19 52.88 52.89 53.02 53.00 53.58 53.60 53.75 53.72 53.59 52.93 52.98 53.04 52.87 52.48 52.23 52.14 52.48 52.65 53.24 49.46 41.45 51.56 50.37 50.57 48.85 49.21 50.68 49.79 48.89 48.92 47.83 45.48 43.57 44.78 43.07 39.64 38.78 34.76 39.63 44.10 45.09
50.66 50.32 50.72 51.75 52.41 52.28 52.77 52.98 53.47 53.54 53.41 53.72 53.80 53.59 53.47 53.14 52.94 52.53 52.53 52.22 51.85 52.15 52.90 53.21 48.65 46.61 40.54 53.48 49.71 52.09 51.05 47.57 48.25 50.05 49.27 52.00 47.29 43.21 43.01 38.24 35.55 35.37 30.95 33.35 37.69 41.94 43.08
49.84 50.26 50.54 50.36 50.93 51.43 51.77 52.37 52.82 53.04 53.37 53.28 53.28 53.14 53.10 53.08 52.92 52.48 51.95 51.42 51.01 51.31 50.61 50.91 51.07 41.02 43.71 41.72 49.03 51.00 51.28 50.36 46.64 47.94 47.06 45.50 42.78 38.16 36.79 35.65 29.89 31.78 31.63 31.67 33.82 37.35 41.76
49.49 49.81 49.90 49.63 50.52 51.26 51.70 51.68 52.61 52.40 52.64 52.64 52.83 52.95 53.04 52.81 52.78 52.35 49.46 44.62 40.23 40.14 42.12 42.31 43.30 42.48 45.86 51.78 53.34 50.20 50.15 47.72 45.69 45.63 40.20 42.47 37.47 35.30 36.34 38.17 37.52 36.68 34.57 32.94 35.82 39.39 38.92
49.19 49.62 49.08 49.14 49.77 50.65 50.59 50.98 51.71 51.98 52.23 52.27 52.61 52.57 52.73 52.67 52.68 52.03 46.26 41.95 43.02 43.58 37.50 43.64 43.07 43.16 46.26 48.88 43.95 45.25 50.34 43.24 42.14 38.67 41.55 38.05 36.70 39.75 41.52 39.93 38.67 37.13 34.48 34.08 37.83 40.57 39.44
48.34 48.94 49.53 48.79 49.42 49.87 50.12 50.16 50.55 51.17 51.44 52.01 52.14 52.57 52.61 52.19 51.89 46.06 42.99 44.52 48.33 46.62 38.86 40.15 43.46 42.46 43.65 44.93 41.55 42.91 48.04 44.20 40.80 38.79 40.10 37.40 39.05 42.64 41.01 38.67 37.26 36.19 34.50 34.75 35.84 38.17 39.10
48.37 48.51 48.74 48.74 48.32 49.82 49.20 49.48 49.48 49.76 50.79 51.42 51.63 52.11 51.85 51.57 44.80 43.57 41.07 47.03 47.47 46.85 31.96 33.24 38.70 42.03 44.62 45.43 40.39 47.55 48.58 45.19 41.60 38.65 40.02 39.18 43.10 40.36 38.55 38.33 38.76 33.49 39.36 39.34 37.65 35.17 31.18
48.36 48.12 48.13 48.16 47.56 48.46 48.37 48.50 48.91 49.41 49.99 51.19 51.33 51.76 51.64 51.63 42.56 40.99 43.47 47.52 46.89 46.16 16.40 35.19 39.59 46.16 46.23 39.65 39.58 43.56 48.31 44.42 39.28 40.30 40.90 37.75 39.29 39.66 37.67 38.60 40.64 37.57 41.00 39.17 38.58 34.61 32.29
47.65 47.67 48.04 47.45 47.12 47.82 47.35 47.85 48.60 48.91 49.46 50.64 51.14 51.28 51.66 47.88 47.11 45.17 45.70 44.52 46.05 31.17 18.20 31.04 39.49 39.92 39.88 40.67 39.64 43.46 42.59 45.32 44.27 40.99 40.74 40.59 43.19 41.79 41.96 42.70 42.16 43.00 40.07 38.74 36.76 34.21 27.51
47.32 47.64 47.94 47.38 47.52 46.47 46.96 47.68 48.62 48.62 48.84 49.92 50.81 50.85 49.76 47.96 42.31 43.67 43.65 43.05 31.50 23.98 34.95 31.88 33.40 38.47 38.22 36.85 37.51 39.55 37.48 37.16 36.25 33.39 32.69 37.73 40.30 42.76 43.60 39.43 40.57 39.74 35.00 28.25 26.73 26.30 26.82
47.08 47.20 47.32 47.01 46.92 46.54 46.64 47.40 48.28 48.70 48.48 49.60 49.81 49.93 48.86 49.12 45.79 44.97 41.65 36.32 24.72 30.55 30.62 36.44 36.07 36.39 35.07 37.80 36.82 39.32 35.49 32.49 37.93 37.11 33.58 31.75 29.24 39.64 43.06 41.08 38.31 36.80 35.78 28.33 24.90 24.67 27.65
45.49 46.03 46.39 46.47 46.80 46.74 46.75 46.55 47.95 48.12 48.52 49.15 49.29 44.10 44.44 47.31 46.47 45.38 36.45 26.29 26.43 30.49 34.84 32.97 34.01 31.13 32.65 35.78 37.65 37.32 35.78 34.24 37.35 39.59 34.73 32.00 32.82 40.41 42.39 43.64 43.24 37.87 32.98 38.91 31.40 30.40 27.66
45.27 45.80 45.85 46.60 46.50 46.28 46.09 46.12 46.80 46.98 48.01 48.95 42.95 43.44 42.89 47.58 47.71 43.52 33.04 26.90 31.31 36.55 36.21 35.04 28.29 32.06 28.54 31.44 32.66 33.96 35.95 39.58 37.96 40.09 41.00 37.25 32.02 39.54 41.58 42.26 41.14 39.99 40.75 32.33 30.70 26.01 24.89
44.84 45.34 45.65 46.07 46.08 45.77 45.62 45.69 46.28 46.75 47.64 48.34 42.58 38.14 45.54 47.83 47.27 38.62 28.02 28.85 31.53 35.89 36.82 33.37 31.93 30.25 30.76 30.35 31.68 31.15 33.45 40.10 42.61 41.49 39.76 37.72 34.97 34.72 39.44 37.36 36.26 36.32 34.89 35.20 35.01 30.86 25.96
44.47 45.02 45.07 45.31 45.45 45.32 45.30 45.57 46.09 46.55 48.08 45.54 40.66 32.51 45.84 47.26 35.39 34.11 29.90 32.03 36.30 34.47 38.15 35.62 35.49 33.93 31.96 32.78 30.65 31.48 32.22 38.40 44.96 44.02 38.49 41.13 34.38 28.74 34.27 40.33 41.27 38.03 36.21 36.46 29.68 29.54 30.24
44.27 44.55 44.52 44.61 44.99 44.89 45.00 45.55 45.76 47.19 47.32 43.10 36.40 36.53 45.87 45.21 30.31 30.53 33.41 32.72 33.14 33.83 34.66 34.61 33.67 34.97 35.71 31.44 28.23 32.64 36.21 42.56 42.90 43.27 40.75 41.20 36.60 28.98 31.09 35.66 39.46 36.42 37.14 38.30 36.02 32.97 29.11
43.69 43.93 44.00 44.16 45.08 44.47 44.93 45.45 45.78 46.77 47.45 43.67 35.41 29.58 37.67 40.31 38.47 33.42 31.72 30.91 29.88 34.75 33.60 34.83 34.15 35.14 33.08 31.25 33.35 31.16 32.76 38.58 43.58 44.36 45.58 43.73 38.17 33.15 30.16 33.74 36.82 34.07 35.91 37.43 36.56 28.19 29.10
43.81 43.59 44.45 44.25 44.28 44.09 44.67 44.87 45.61 46.85 47.16 43.29 35.39 31.30 37.07 30.95 32.37 34.19 33.95 32.75 30.10 29.89 34.49 34.64 31.73 32.36 31.21 27.77 28.89 28.72 33.82 35.59 38.47 43.61 42.47 40.42 32.57 35.76 37.94 38.43 36.98 36.01 35.01 35.71 33.71 34.77 30.68
43.52 44.00 44.05 43.78 43.68 44.30 44.40 45.07 45.95 46.74 47.10 40.74 31.98 33.14 36.27 35.43 35.82 33.97 33.64 31.37 30.85 31.92 33.01 31.41 30.41 33.36 32.66 29.32 30.46 28.44 31.52 31.25 31.70 36.48 38.35 39.83 30.53 34.48 31.59 37.33 36.76 33.44 35.30 35.75 36.62 36.88 35.92
43.14 43.25 43.47 44.03 44.46 43.83 44.27 45.16 45.84 46.39 46.13 39.59 39.49 40.18 37.81 33.31 34.55 32.65 32.13 32.36 32.03 34.20 35.11 35.15 33.93 32.14 30.61 32.91 34.73 35.77 34.95 35.15 34.19 32.93 33.29 35.74 33.88 31.40 27.05 32.87 32.79 27.33 31.89 35.45 35.92 37.00 36.99
42.50 43.04 43.14 43.81 44.12 43.93 44.92 45.56 45.77 46.15 46.20 42.49 40.44 39.31 33.91 29.54 31.59 32.69 34.10 34.42 33.50 34.03 32.04 35.44 36.09 32.92 36.73 38.62 37.86 36.30 35.70 34.70 34.62 34.27 37.34 33.89 31.75 29.71 26.66 28.31 21.77 31.04 37.47 37.95 35.47 37.67 38.88
43.57 44.00 44.18 44.51 44.92 45.25 45.20 45.37 45.58 46.39 46.88 43.40 42.44 39.58 35.23 29.29 32.70 34.37 34.84 34.95 35.26 35.97 34.45 34.95 36.35 38.76 39.00 37.31 33.11 29.64 27.76 31.80 33.43 36.99 36.66 37.34 31.34 25.56 22.62 24.81 29.01 31.68 34.51 35.29 35.41 34.28 39.21
44.02 44.40 44.76 44.74 44.78 44.56 44.95 45.39 46.08 46.54 46.94 44.44 42.54 43.69 39.46 33.93 31.41 35.48 35.41 36.32 33.10 32.53 32.95 34.55 39.08 40.86 38.03 32.53 29.77 25.63 21.25 26.70 28.87 33.29 38.73 36.01 34.12 30.71 28.64 21.58 17.12 28.46 37.23 42.66 40.48 29.22 40.58
44.15 44.69 45.08 45.82 45.26 45.02 45.49 45.73 45.98 46.58 46.98 45.09 43.23 44.39 40.74 32.18 36.86 37.18 33.89 35.03 37.54 34.57 32.28 33.73 35.40 36.57 38.70 30.74 28.41 25.76 24.58 30.81 25.95 28.24 31.01 31.47 31.89 29.97 28.56 27.36 27.86 35.25 38.99 42.62 28.36 29.18 41.81
44.30 44.90 44.85 45.17 45.50 45.35 45.44 45.73 45.94 45.82 46.30 45.12 42.87 45.72 40.75 34.47 37.58 40.39 39.95 37.37 37.86 36.29 31.67 34.68 34.30 35.24 34.03 29.69 27.62 27.46 24.48 28.45 27.47 30.86 30.23 28.74 26.41 28.08 30.04 27.49 22.95 38.31 40.97 34.19 38.02 42.20 41.85
44.76 44.98 45.16 45.29 45.34 45.34 45.56 45.80 45.77 45.84 45.84 45.50 39.74 44.83 45.07 38.03 37.74 41.55 42.69 43.85 42.44 41.24 38.21 37.02 34.03 35.35 34.91 29.99 29.73 28.18 23.68 22.61 28.03 23.83 33.06 27.51 30.55 28.19 30.14 29.43 36.76 41.50 42.24 44.43 44.39 41.97 43.39

GFSGBSN_sfc_wetblb_051.txt.gz
Wetbulb
51.44 51.38 51.92 51.65 51.89 52.72 52.91 52.94 52.97 53.12 52.96 52.81 53.04 52.87 52.90 52.92 52.81 53.27 53.73 53.58 53.52 52.66 52.38 52.37 53.14 53.90 50.85 44.39 42.83 51.71 56.72 59.38 58.17 52.57 49.67 48.92 48.39 45.91 43.89 44.38 44.32 43.04 44.90 45.57 47.40 47.31 46.81
50.99 50.80 50.80 50.93 51.23 52.18 52.16 52.53 52.63 52.91 52.97 53.25 53.60 53.64 53.38 53.20 52.87 53.14 53.44 53.37 53.14 53.04 52.63 52.11 52.56 53.46 47.54 38.24 48.91 52.51 51.30 51.51 53.15 50.19 49.34 49.29 48.44 48.20 45.57 44.72 44.51 46.75 45.64 47.28 47.59 47.58 51.90
50.28 50.71 51.11 51.21 51.58 51.91 52.55 52.68 52.80 52.87 52.92 53.28 53.85 53.99 53.91 53.64 53.70 53.64 53.41 53.10 52.80 52.81 52.71 52.25 52.14 50.95 43.79 40.81 50.22 50.80 50.97 50.34 51.41 50.14 48.17 49.67 50.58 48.22 48.02 45.51 47.78 47.25 44.57 45.99 46.07 47.05 49.49
50.05 50.28 50.17 50.69 51.78 52.34 52.03 52.09 52.14 52.39 53.15 53.25 53.19 53.41 53.31 53.60 53.62 53.44 53.37 52.90 52.70 52.88 52.77 52.47 52.38 49.45 40.58 50.68 52.37 51.18 51.05 49.87 51.15 51.26 50.20 51.18 51.09 48.91 47.86 48.59 45.88 44.40 43.33 40.67 44.54 47.20 48.74
50.56 50.11 49.92 50.57 50.54 50.97 51.80 52.26 52.51 52.33 52.55 52.69 52.61 53.06 52.88 52.92 52.87 53.07 53.05 52.72 52.42 52.26 53.43 52.84 49.15 45.92 38.82 52.75 49.61 52.51 51.15 48.30 49.31 50.47 51.23 52.24 50.11 46.87 46.74 43.65 41.72 40.81 38.41 38.43 41.28 45.95 47.49
50.40 49.81 50.10 50.11 49.78 50.20 51.20 51.47 52.01 52.11 51.88 51.88 52.09 52.80 52.88 52.66 52.56 52.36 52.18 51.83 51.12 51.58 51.12 51.08 49.63 40.92 44.20 41.27 49.97 51.76 52.22 51.38 47.37 48.31 47.81 48.03 45.99 43.23 41.81 41.62 35.23 37.52 37.47 38.40 39.51 44.10 46.28
49.94 49.54 49.51 49.61 49.34 49.52 50.76 50.59 50.81 51.71 51.25 51.23 51.59 51.90 52.76 52.58 52.60 52.26 50.01 45.28 42.39 41.55 43.34 41.40 42.46 41.82 44.17 49.58 52.66 51.45 51.91 49.58 48.30 46.56 42.71 45.21 41.86 38.15 40.59 43.24 41.59 40.78 38.88 38.70 40.66 43.47 42.85
49.06 49.56 48.87 49.13 49.25 48.86 49.86 50.02 50.10 50.62 50.47 50.81 51.15 51.74 52.48 52.54 52.47 51.68 46.75 43.10 42.76 42.78 36.85 43.44 42.94 42.74 46.11 48.16 41.91 46.86 50.83 45.26 43.80 40.39 43.53 41.54 38.82 43.12 43.24 42.62 41.55 40.78 39.27 39.29 41.33 42.49 42.53
48.90 48.93 48.27 48.54 49.40 48.27 49.02 49.79 49.27 49.27 49.51 50.24 50.80 51.25 52.01 51.96 51.86 45.88 43.92 44.21 47.65 46.39 38.50 40.08 43.49 42.11 42.76 44.72 40.91 42.03 48.28 45.76 42.16 40.00 41.38 40.10 41.69 44.05 42.59 40.61 39.42 40.10 39.35 38.84 39.28 41.21 43.42
48.70 48.97 48.94 47.98 48.72 48.52 47.75 48.94 48.56 48.58 48.98 49.47 50.44 51.19 51.32 51.33 44.83 44.18 41.66 47.04 47.93 46.50 33.52 34.07 38.83 42.18 44.16 44.60 39.21 46.05 48.38 46.51 42.85 39.88 41.51 41.44 44.36 41.71 41.11 40.29 41.12 36.87 41.50 41.06 39.70 38.82 35.56
47.55 48.70 48.42 48.47 47.70 47.88 46.99 47.55 47.80 48.11 48.60 48.91 50.25 50.77 50.85 51.29 45.77 43.05 44.81 47.83 47.00 45.75 19.17 35.46 39.11 47.05 45.53 40.93 40.48 43.14 47.61 45.39 41.51 40.86 42.37 39.38 40.70 40.68 39.16 40.56 42.47 40.23 42.64 41.55 41.08 39.03 38.36
46.98 47.64 48.19 47.74 48.10 47.55 47.79 47.13 46.87 47.94 48.08 48.42 49.21 49.92 50.69 47.92 47.91 47.05 46.87 45.42 45.70 32.28 20.43 32.46 39.90 39.93 38.98 41.26 41.17 44.23 43.73 46.82 46.05 42.53 42.99 41.49 45.33 44.14 43.18 43.24 43.70 44.46 42.47 41.24 40.26 39.15 33.34
46.68 47.02 47.63 47.34 47.60 47.52 47.24 46.44 46.99 47.14 47.65 48.04 48.55 49.53 48.46 49.32 43.23 45.84 46.23 42.49 30.49 23.74 35.56 31.98 33.76 37.74 37.06 37.27 38.42 39.91 38.91 38.51 37.28 34.26 35.81 40.37 41.12 44.35 44.73 41.50 42.94 42.75 39.69 32.77 31.72 31.96 32.31
46.55 46.35 47.08 47.13 47.17 47.07 47.22 46.95 47.00 46.78 47.17 47.55 48.34 49.13 47.44 49.02 48.10 47.90 43.60 35.56 23.62 30.31 31.99 37.28 36.00 36.28 34.19 37.34 37.97 38.02 36.48 34.82 40.09 39.27 36.08 34.35 32.12 41.53 45.05 42.83 40.08 39.94 39.80 34.33 27.98 29.32 33.57
46.46 46.25 45.94 45.94 46.34 46.28 47.32 46.58 46.51 46.19 46.90 47.64 48.25 44.27 44.46 46.25 48.36 46.75 38.35 25.83 26.97 30.71 35.11 33.18 34.87 31.85 32.69 35.58 36.62 37.26 36.08 34.90 37.75 40.35 35.88 33.83 34.22 42.32 44.05 44.97 44.96 39.38 36.63 42.08 35.33 34.90 33.41
45.60 45.76 45.58 45.68 46.22 46.30 46.89 46.41 45.95 45.80 46.51 47.16 42.86 41.16 41.38 46.93 48.60 43.93 33.89 28.20 30.13 36.53 36.23 35.07 29.33 32.41 28.81 31.82 32.46 33.57 35.98 41.57 40.02 41.48 42.74 39.03 34.04 40.70 42.33 44.58 44.23 43.00 43.83 35.92 35.72 28.96 27.84
45.12 45.56 45.11 45.02 45.65 46.34 46.53 45.92 45.47 45.51 46.12 46.81 41.30 35.95 43.77 47.48 47.57 38.84 28.80 29.28 31.58 36.00 35.94 33.08 31.52 30.61 31.75 31.30 32.49 32.13 34.05 39.88 41.53 43.39 41.59 41.06 38.23 36.93 41.75 39.89 38.89 39.72 39.06 39.09 38.94 35.99 31.33
44.84 44.42 44.39 44.48 45.13 45.34 45.83 45.60 45.36 45.68 46.28 44.11 40.31 30.03 45.07 47.54 34.08 35.05 31.10 32.61 36.00 33.88 37.72 35.92 35.77 34.15 32.62 32.90 31.13 32.44 33.11 38.55 41.57 44.86 40.17 42.72 36.94 32.95 36.14 41.65 42.64 41.20 39.72 39.76 34.79 32.92 33.94
44.18 44.34 44.57 44.55 44.85 44.97 45.08 45.16 45.26 45.61 45.93 41.26 35.89 35.03 44.74 44.71 28.59 29.55 34.79 33.67 33.87 33.69 34.32 34.70 33.86 35.23 36.39 32.84 29.22 32.73 35.38 41.28 41.16 43.87 41.96 42.90 37.04 32.06 33.72 37.77 41.28 38.67 39.83 39.61 38.57 35.97 32.78
43.79 43.85 43.99 44.24 44.45 44.31 44.77 45.04 44.87 45.54 45.76 42.73 35.78 29.63 36.07 38.76 37.56 33.22 32.11 31.15 30.47 34.75 33.87 35.17 33.88 35.81 33.80 32.11 34.49 32.02 33.46 38.35 40.52 42.62 44.99 44.54 39.28 34.68 30.99 33.47 38.26 35.52 37.17 38.24 37.98 33.96 33.81
43.31 43.30 43.44 43.67 43.90 44.03 44.59 44.69 44.71 45.10 45.61 41.95 36.10 30.91 35.30 29.82 30.89 33.49 33.75 33.60 29.90 29.60 34.31 35.62 32.73 33.14 32.18 29.25 30.29 30.87 34.32 35.31 38.18 40.62 43.67 41.71 34.67 37.30 37.50 38.35 38.33 37.43 36.51 36.93 35.37 36.57 33.14
43.05 43.04 43.05 43.36 43.57 43.89 44.08 44.44 44.31 44.77 45.39 39.22 32.20 33.06 36.15 33.41 35.11 32.83 32.88 32.45 30.57 31.80 33.24 31.35 31.06 33.52 33.86 30.49 31.74 30.28 32.37 33.44 33.08 36.67 38.94 38.67 33.57 36.06 33.59 37.99 37.65 34.64 36.53 37.09 37.11 37.57 37.75
42.93 42.81 42.51 42.92 43.04 43.66 44.12 43.95 44.26 44.42 44.83 37.67 39.14 39.63 36.50 33.01 31.84 30.99 31.11 32.33 32.56 34.61 35.35 36.12 34.72 32.89 31.82 33.75 37.03 37.54 37.84 37.23 36.23 33.68 33.09 33.75 35.18 32.62 28.96 33.70 33.47 29.57 34.24 36.06 37.43 39.35 39.00
42.24 42.36 42.41 42.67 42.81 42.97 43.07 43.69 44.15 44.78 44.73 40.06 40.15 39.12 33.22 28.23 31.18 30.44 32.71 34.37 33.62 34.60 32.70 35.58 36.35 33.54 37.29 41.35 40.75 38.62 36.67 35.86 36.12 35.45 36.74 33.72 34.37 31.64 29.20 30.64 22.64 34.09 38.87 38.94 37.45 39.10 40.75
41.92 42.32 42.69 42.77 43.34 43.76 44.08 44.25 44.68 44.92 45.50 41.41 41.13 38.39 35.35 28.60 31.68 32.04 32.57 33.60 35.97 36.24 34.49 34.72 36.85 39.28 41.27 37.84 33.02 30.45 30.77 32.70 34.54 36.46 36.27 36.89 35.19 31.04 27.81 27.56 31.28 34.18 36.75 36.49 35.34 35.80 40.88
41.90 42.12 42.52 43.30 43.56 43.92 44.03 44.01 44.81 44.64 45.88 42.75 41.35 42.85 38.16 33.21 30.32 34.45 33.66 35.12 32.88 33.12 33.97 35.11 39.97 42.37 40.06 35.05 31.98 25.23 24.46 28.53 28.30 32.37 38.87 37.11 37.50 33.75 30.17 24.99 22.23 32.18 40.02 44.31 42.78 32.39 43.58
43.22 43.32 43.41 43.83 43.98 44.18 44.41 44.59 44.61 44.75 45.64 43.18 41.50 43.76 39.03 31.82 36.04 35.97 32.60 32.96 37.24 35.33 33.35 34.91 36.42 35.98 38.58 32.69 28.23 26.56 25.75 31.52 26.59 28.12 29.19 31.13 31.78 30.06 30.37 27.92 31.05 37.80 40.32 43.20 31.43 34.62 43.14
43.14 43.46 43.70 43.71 44.17 44.68 45.04 45.34 45.00 45.09 45.11 43.67 41.75 44.82 39.38 34.14 37.28 39.22 39.21 36.47 37.09 36.57 32.70 35.15 34.61 35.40 34.53 29.91 29.49 29.36 28.28 30.80 29.86 33.14 31.48 30.03 29.37 29.57 31.20 28.11 25.09 40.06 42.78 36.79 41.18 45.02 45.05
43.69 43.81 43.98 44.38 44.44 44.60 44.47 45.61 45.40 45.14 45.65 45.51 39.92 44.72 43.97 37.44 37.68 42.44 43.12 43.92 42.44 41.48 38.22 37.73 35.88 35.50 36.68 32.95 32.47 32.13 29.44 29.70 31.26 27.18 35.23 30.98 34.40 32.21 33.49 33.52 39.75 42.15 43.01 46.33 45.27 44.46 45.56

GFSGBSN_sfc_wetblb_054.txt.gz
Wetbulb
51.19 50.97 51.17 51.64 51.63 51.94 52.22 52.50 52.87 53.44 53.13 53.31 53.41 53.58 53.85 53.82 53.64 53.77 53.94 53.73 53.62 53.36 53.04 53.06 53.14 53.14 52.19 45.73 42.77 51.83 58.16 59.45 59.89 57.27 53.08 52.65 50.04 48.47 46.34 48.22 49.74 47.60 48.88 49.93 50.79 50.89 51.53
51.12 51.27 51.29 51.18 51.10 51.31 52.21 52.75 52.80 52.96 53.10 53.51 53.98 54.04 53.65 53.51 53.33 53.47 53.99 53.87 53.70 53.50 53.66 53.16 53.09 52.60 48.08 40.10 48.96 53.14 53.91 54.23 55.25 56.41 55.20 53.17 50.69 51.54 49.32 48.60 48.38 49.56 49.70 49.88 50.84 51.16 51.56
50.51 50.69 50.89 50.51 50.78 52.07 52.58 52.27 52.38 52.44 52.79 53.33 53.77 53.75 53.56 53.15 53.17 53.17 53.52 53.60 53.42 53.27 53.38 53.28 53.07 51.26 45.66 43.18 49.78 52.34 52.30 50.68 54.21 54.59 51.88 55.22 54.64 50.52 50.49 48.21 50.69 49.53 47.09 48.94 49.99 50.63 50.03
50.76 50.40 50.20 50.46 50.80 50.92 50.88 51.67 51.94 52.15 52.43 52.61 52.72 52.90 53.19 53.01 53.09 53.19 53.20 53.05 53.09 53.07 53.38 53.20 53.06 50.03 41.34 50.90 53.05 51.21 52.53 50.69 51.00 53.98 53.35 53.84 54.15 51.52 50.92 51.32 49.27 46.90 47.82 44.26 48.87 49.59 50.47
50.08 50.46 50.10 50.16 50.36 50.47 50.66 51.49 51.70 51.77 52.03 52.11 52.05 52.63 52.86 52.99 52.83 52.71 52.60 52.56 52.51 52.45 53.25 52.81 50.77 48.22 40.89 52.58 49.45 52.27 52.20 47.62 49.38 50.68 53.64 53.70 52.57 49.91 50.04 46.71 45.01 46.23 42.51 43.97 45.91 49.42 49.50
50.53 50.29 50.41 50.01 50.20 49.46 50.09 50.63 51.41 50.98 51.17 51.30 51.51 52.05 52.53 52.65 52.83 52.42 51.93 52.02 51.97 51.64 52.98 52.74 51.12 43.25 45.54 41.63 49.50 52.69 53.90 52.54 49.47 48.09 50.33 50.37 49.63 46.18 46.12 44.67 39.29 42.21 42.51 44.38 43.90 47.19 48.59
50.41 50.57 50.41 49.39 49.73 50.12 49.36 49.75 50.61 50.38 50.51 50.60 50.98 51.30 51.93 52.65 52.48 52.16 50.92 51.52 47.33 46.01 45.26 42.31 43.99 43.33 45.07 51.10 53.08 51.99 53.40 51.64 50.77 48.05 44.61 48.74 44.77 41.83 44.46 45.91 46.24 45.20 43.91 43.33 44.97 46.91 45.89
49.95 49.75 49.39 49.57 48.87 49.53 49.20 49.22 50.56 49.90 49.49 49.64 50.18 50.90 51.22 51.59 52.22 51.58 51.35 46.17 43.20 43.97 36.65 44.89 45.07 45.11 47.16 48.98 43.72 48.76 53.28 47.77 47.73 42.43 45.42 45.69 42.00 46.80 47.90 47.07 44.82 44.13 42.41 42.88 45.04 46.37 45.77
48.76 48.86 49.82 49.49 48.83 49.07 49.15 48.60 48.92 49.25 48.76 49.15 49.63 50.51 50.80 51.53 51.71 50.51 48.41 47.15 49.75 49.14 38.17 42.21 45.70 44.34 45.27 46.53 41.99 43.43 50.00 47.53 45.78 44.47 42.58 42.82 44.13 47.92 46.24 44.69 43.20 43.63 42.13 42.81 42.87 44.85 46.90
48.32 48.45 48.59 49.64 49.07 48.55 48.46 47.81 47.78 48.19 48.03 48.65 49.27 50.00 50.87 50.76 48.37 49.59 47.75 50.33 51.63 49.69 35.27 37.31 40.69 44.44 45.57 45.37 40.13 46.31 47.72 48.63 44.83 42.02 42.86 42.98 45.61 44.54 44.72 43.30 44.68 40.97 45.64 44.53 43.80 42.44 38.97
48.49 48.45 47.79 48.71 48.54 48.45 48.84 47.35 47.27 47.55 47.42 48.38 48.92 49.44 50.41 50.48 49.06 46.53 48.76 51.60 51.42 47.69 25.60 37.87 41.15 49.30 46.48 41.67 42.24 43.47 49.16 45.04 41.02 43.17 43.78 41.85 41.35 42.94 42.35 43.50 45.69 42.97 46.03 44.86 44.57 42.95 42.21
48.02 47.94 47.82 47.47 48.15 48.46 48.72 48.13 47.10 46.93 47.67 48.00 48.20 48.66 49.87 49.43 49.85 48.94 51.56 51.55 48.92 36.09 25.13 34.54 41.09 40.46 41.12 42.58 41.55 44.36 43.51 46.28 45.50 43.53 45.73 44.67 46.86 45.11 45.08 45.99 46.12 46.44 44.52 44.45 44.37 42.57 36.41
47.24 46.81 47.30 46.87 47.46 47.81 47.92 47.79 47.19 46.78 46.89 47.43 47.68 48.13 48.73 49.24 46.00 51.29 50.47 46.95 34.72 27.81 38.18 34.76 35.88 39.90 39.24 38.59 40.58 40.38 39.96 37.45 37.48 33.84 37.12 42.40 42.35 46.40 46.90 42.96 46.24 45.28 42.09 36.84 35.13 35.38 34.26
46.68 46.54 46.98 46.57 46.93 47.41 47.61 47.19 47.55 47.21 46.67 47.09 47.40 48.01 48.86 48.49 51.48 51.66 46.65 39.10 26.45 32.00 33.86 39.60 38.15 38.81 36.50 39.52 39.67 40.04 38.57 35.33 41.08 39.02 36.40 34.93 33.86 42.06 46.23 44.41 42.40 42.64 42.68 37.62 30.51 32.95 37.13
46.13 46.49 46.61 46.72 46.23 46.15 46.53 47.28 47.37 47.31 46.35 46.48 47.19 47.28 46.85 48.64 51.05 49.65 39.50 29.92 31.13 33.24 36.78 36.11 37.49 34.31 35.02 38.37 38.61 39.10 38.92 37.75 39.70 41.91 35.10 34.91 35.67 44.50 45.87 46.48 45.68 42.93 39.97 44.93 39.44 39.83 38.07
45.35 45.74 45.86 45.95 45.98 45.94 46.61 47.07 46.72 46.43 45.79 46.12 43.67 41.84 43.37 49.93 52.14 47.48 34.92 29.10 33.43 38.68 38.88 37.73 31.87 35.20 31.62 35.00 35.80 37.24 37.98 42.14 41.38 43.16 45.09 41.29 35.57 42.47 44.66 47.15 47.34 45.48 47.20 38.80 40.30 32.01 31.06
45.13 45.39 45.27 45.62 45.73 45.39 45.46 45.99 45.95 46.19 45.52 45.81 42.80 38.16 46.47 50.45 49.94 40.21 30.05 32.21 35.82 39.66 39.46 35.56 34.29 33.59 34.06 33.84 35.68 35.14 36.53 40.78 42.60 45.16 45.13 42.81 40.77 39.61 43.44 42.28 41.96 42.85 41.95 42.53 43.19 41.06 34.76
44.24 44.45 44.75 45.22 45.21 44.90 45.24 45.71 45.80 46.12 45.65 44.32 41.49 32.26 47.54 50.21 35.83 35.51 30.84 34.80 37.98 37.40 39.80 38.21 38.13 36.28 34.59 35.64 34.00 34.64 33.87 39.46 43.71 44.95 41.19 43.04 40.47 37.00 39.27 43.99 46.21 46.04 43.37 43.44 37.83 36.78 39.63
43.97 44.03 44.55 44.76 44.89 44.85 45.13 45.34 45.49 45.71 45.80 44.35 36.80 35.87 47.25 46.84 29.09 30.24 34.54 34.87 37.53 36.60 37.20 36.58 36.35 37.65 38.52 35.41 31.70 35.40 37.15 42.28 42.64 42.81 42.02 44.47 39.62 33.44 36.06 40.31 43.75 42.32 43.12 43.71 42.50 41.76 38.20
43.78 43.96 44.14 44.27 44.43 44.56 44.66 44.54 44.90 45.01 45.85 44.24 38.01 31.54 36.62 40.49 38.50 34.72 32.82 33.23 33.14 38.61 37.55 38.44 37.21 38.60 36.25 35.22 38.15 34.44 35.68 39.43 41.84 41.86 43.01 45.32 40.93 37.21 33.36 36.61 41.51 38.72 40.16 41.19 41.54 37.88 38.42
43.23 43.27 43.47 43.80 44.00 44.19 44.18 44.23 44.83 44.78 45.48 43.57 36.54 32.51 36.92 30.18 32.70 33.73 34.99 34.15 33.14 32.02 37.53 38.69 35.92 36.14 35.14 31.89 34.52 34.32 37.08 38.44 40.25 41.48 44.17 43.20 35.22 38.58 38.77 39.25 39.30 39.18 39.77 40.04 38.66 39.78 36.55
43.04 43.23 43.34 43.46 44.03 44.05 43.93 43.99 44.83 44.31 45.36 40.73 32.53 32.75 37.01 35.27 36.56 33.77 33.85 32.00 32.83 33.55 34.82 34.03 33.89 36.34 36.60 33.81 35.54 33.70 35.84 37.05 36.20 39.57 39.84 42.28 35.91 37.85 34.76 37.96 38.80 36.96 39.30 39.84 40.08 39.92 40.11
42.71 42.76 42.83 43.06 43.28 43.85 43.81 44.01 44.23 44.54 44.84 39.81 39.23 40.49 36.45 33.81 33.88 33.09 33.00 33.63 33.28 36.65 37.60 38.43 37.58 35.76 34.83 36.91 40.26 40.95 40.71 40.67 40.08 37.61 36.49 37.18 38.47 35.32 30.91 36.55 36.30 32.01 37.42 39.36 40.82 42.79 41.62
42.22 42.56 42.78 42.86 43.11 43.28 43.18 44.27 44.42 44.31 44.70 42.56 41.04 39.48 33.66 27.76 31.79 32.64 33.85 34.86 34.59 35.18 35.27 38.16 38.23 35.56 38.96 43.35 43.15 42.31 41.30 40.24 40.07 39.68 40.10 35.90 37.76 37.54 32.80 33.89 24.92 37.32 42.01 41.27 40.11 41.52 42.75
41.88 42.00 42.51 42.74 42.76 43.04 43.56 43.54 43.56 44.21 44.44 44.34 43.86 38.44 34.75 29.65 33.15 33.17 34.10 34.43 36.16 37.50 35.25 36.64 38.35 40.77 41.94 38.41 34.97 33.23 34.04 35.26 36.82 38.45 38.67 39.53 37.57 33.78 30.51 31.05 34.95 36.91 39.15 39.08 38.34 37.82 43.18
42.73 42.05 42.25 42.66 43.11 43.29 43.51 43.71 43.97 44.27 44.71 44.48 44.43 44.40 38.25 30.43 31.95 36.14 34.29 35.68 33.43 33.03 34.16 35.30 40.27 42.41 40.25 36.02 34.53 27.68 27.28 31.20 30.78 34.05 39.73 38.91 39.40 35.47 32.65 26.87 24.40 36.60 41.95 44.98 44.35 34.95 45.18
43.07 42.91 42.71 42.95 43.12 43.06 43.44 43.45 43.69 44.03 44.48 43.99 42.63 45.61 39.14 31.03 35.04 36.52 33.88 33.74 37.35 35.77 33.56 35.94 36.85 37.39 39.60 34.47 30.60 29.52 28.66 34.60 29.51 30.06 30.81 32.06 33.99 31.18 31.16 30.43 33.66 41.12 42.81 44.57 34.53 37.22 45.67
43.21 43.16 43.13 43.06 43.19 43.33 43.60 43.87 44.09 44.42 44.41 44.05 41.76 45.96 40.04 33.02 35.55 39.60 39.30 36.45 37.37 36.76 32.16 36.95 35.57 35.32 34.37 32.85 31.89 31.44 31.17 33.54 32.55 35.36 33.21 30.88 30.96 31.20 32.72 28.71 27.03 43.62 42.45 37.67 44.56 47.04 46.56
44.40 43.47 43.21 43.31 43.36 43.62 43.93 44.29 44.48 44.79 44.83 44.78 40.94 45.69 45.91 36.45 36.83 42.85 42.77 44.78 42.68 41.99 38.52 38.50 37.48 37.12 38.20 35.10 35.49 35.98 32.94 35.99 33.96 29.49 39.60 32.89 36.87 35.14 36.08 35.97 43.20 45.62 45.68 46.98 47.28 46.14 46.95

GFSGBSN_sfc_wetblb_057.txt.gz
Wetbulb
50.85 51.65 51.41 51.99 51.83 51.91 51.76 52.66 53.07 53.34 53.35 53.44 53.76 53.88 53.96 53.83 53.73 53.84 54.21 54.09 54.41 54.07 53.84 53.82 53.78 53.52 52.22 48.74 49.63 54.64 58.26 59.13 60.56 58.72 55.92 53.61 52.19 51.17 47.81 49.11 50.18 48.79 50.03 51.10 51.35 51.12 51.48
51.05 51.02 51.14 51.28 51.18 51.51 52.75 53.02 52.75 52.54 52.54 53.13 54.17 53.76 53.48 53.32 53.32 53.46 53.76 53.55 53.71 53.88 53.94 53.44 53.57 52.80 50.26 42.97 54.39 53.38 53.50 50.37 52.96 57.41 55.55 54.87 53.22 53.13 49.62 48.99 48.78 50.58 50.84 50.49 51.48 51.17 51.46
51.06 51.12 51.01 50.88 50.74 51.25 51.58 51.22 51.96 52.33 52.56 52.84 52.98 53.41 53.06 52.81 52.95 53.47 53.49 53.41 53.18 53.45 53.67 53.33 53.30 53.09 48.05 46.78 53.29 54.11 54.17 52.04 51.16 49.53 51.15 56.73 56.06 51.52 51.27 48.87 51.96 50.94 48.17 49.79 50.22 51.17 50.40
51.39 50.97 51.12 50.60 50.56 50.84 50.85 50.56 51.49 52.22 52.17 52.30 52.27 52.37 52.93 52.96 53.16 53.29 53.27 53.02 52.79 53.14 53.41 53.31 53.69 53.20 45.26 52.20 54.28 52.90 52.84 51.60 54.55 50.91 52.11 55.12 55.83 53.50 50.92 52.30 50.77 48.22 48.38 44.58 49.79 50.76 51.22
50.69 50.95 50.96 51.03 50.43 50.79 50.18 50.38 50.76 51.45 51.36 51.56 51.60 51.96 52.23 52.63 52.70 52.88 52.69 52.63 52.54 53.18 53.13 53.01 52.91 50.86 44.90 52.54 48.87 50.71 51.86 50.77 52.45 51.07 50.16 53.58 53.13 49.74 51.27 47.29 46.22 47.86 43.23 44.94 47.34 51.78 50.45
50.08 50.28 50.79 50.84 50.32 50.14 50.44 49.91 50.73 51.15 50.76 50.76 50.67 51.20 51.96 52.20 52.29 52.11 52.18 51.90 53.14 52.12 53.47 54.74 52.99 46.76 49.19 44.60 50.08 53.08 54.98 51.41 50.90 50.01 46.82 47.09 48.71 45.80 46.66 46.37 40.22 43.60 44.54 46.15 46.25 49.95 49.26
50.61 50.65 50.38 50.03 50.32 49.83 49.72 50.63 50.34 50.65 50.20 49.80 49.86 50.33 51.48 51.70 52.05 51.96 51.89 53.95 49.43 49.29 49.71 45.39 46.11 46.88 47.59 51.15 52.55 51.52 54.54 52.53 51.82 48.42 42.26 46.39 42.64 41.01 44.85 47.45 47.55 47.01 46.75 45.80 48.14 49.60 47.66
49.56 49.58 49.85 50.20 49.59 49.87 49.34 50.20 50.03 49.67 49.89 49.22 49.18 49.67 50.70 51.36 51.77 51.56 52.44 48.26 46.98 47.59 40.62 47.29 47.34 47.02 48.99 49.90 43.57 47.64 54.75 48.02 47.54 42.65 44.73 42.48 40.95 44.36 46.10 47.42 46.59 45.71 45.03 45.06 47.85 48.01 46.94
49.08 49.08 48.64 48.82 49.71 50.16 49.38 49.20 49.44 49.20 48.98 48.59 48.75 49.21 49.91 51.01 51.04 51.10 50.86 49.24 53.24 51.13 41.51 44.75 47.40 46.18 46.77 48.58 43.27 44.24 50.12 47.70 45.85 41.43 42.80 42.10 44.13 46.74 45.77 46.31 45.08 45.49 44.37 44.81 44.76 47.39 48.18
48.85 48.88 49.00 48.88 48.66 49.48 49.33 49.10 48.44 47.73 48.31 48.61 48.81 49.06 49.78 50.39 47.58 51.27 47.82 52.93 54.10 52.15 37.67 40.15 43.27 46.72 48.00 46.73 41.51 48.15 49.17 49.12 44.04 42.54 42.92 43.42 46.39 45.01 45.03 44.85 46.61 43.14 47.59 46.35 45.27 44.44 41.01
48.68 48.77 48.79 48.81 48.26 48.35 49.03 48.87 48.27 47.57 47.50 47.43 48.48 48.48 49.34 49.68 48.40 45.97 50.53 54.11 53.92 48.85 29.42 39.47 43.66 50.95 48.37 43.61 44.37 44.38 48.79 45.77 43.08 41.99 44.46 42.27 43.53 42.85 42.41 45.09 47.33 44.79 48.13 46.93 45.64 44.24 43.75
48.65 48.26 48.47 47.87 47.99 48.38 48.08 48.93 48.38 47.63 47.17 47.19 47.75 48.00 48.68 48.75 49.23 51.61 53.37 53.72 51.19 36.42 28.92 37.16 42.60 42.25 42.37 44.86 43.71 44.76 45.27 47.34 45.61 43.43 43.97 44.27 48.45 46.94 43.99 46.21 47.40 48.20 45.98 46.11 46.01 44.54 37.97
47.42 47.58 47.69 47.35 47.23 47.73 47.39 48.14 48.15 47.51 47.19 46.83 47.38 47.68 47.38 48.85 44.39 52.09 53.22 49.45 36.83 31.01 39.90 37.40 38.34 41.38 41.33 41.19 42.26 42.52 41.12 39.77 36.14 33.65 36.88 40.93 43.07 47.18 46.60 42.52 47.00 46.31 43.68 37.63 36.20 37.01 35.68
46.62 46.58 46.92 46.93 47.02 47.36 47.27 47.17 47.74 47.31 47.66 46.55 46.93 47.23 47.30 48.83 50.84 51.74 49.78 41.34 29.36 34.96 36.08 41.34 40.13 40.64 38.08 41.11 41.73 41.84 40.52 38.27 39.73 39.85 37.85 36.01 34.34 43.25 46.90 43.55 42.04 43.69 43.45 37.91 31.58 34.30 38.37
46.14 46.19 46.23 46.66 46.85 47.02 46.78 46.99 46.36 47.11 47.38 46.50 46.45 46.04 46.38 49.27 51.67 50.39 42.74 33.01 33.40 36.29 38.89 37.67 39.05 36.32 36.77 39.96 40.52 40.90 40.75 40.11 40.64 40.63 35.36 35.81 36.52 44.70 46.55 46.75 45.30 43.68 40.67 45.06 40.29 41.78 39.22
45.78 45.72 45.50 45.87 46.11 46.41 46.34 46.49 46.36 46.54 46.47 46.18 43.16 41.70 44.09 50.72 51.87 47.70 36.67 31.75 36.62 40.05 40.54 39.14 33.23 36.94 34.24 36.81 38.23 39.33 39.99 43.20 41.64 43.63 44.55 40.94 34.97 42.14 44.31 47.06 46.81 44.59 47.09 39.60 41.33 32.81 31.12
44.77 44.49 45.09 45.67 45.65 46.11 45.85 45.77 45.70 45.72 46.07 46.01 42.33 36.62 47.50 51.04 50.41 40.65 32.16 34.33 37.42 41.01 41.77 37.80 36.43 36.09 36.89 36.03 37.23 37.65 38.47 42.47 44.14 43.44 45.29 42.85 40.82 39.38 43.27 42.16 41.46 41.68 41.32 43.88 43.60 41.33 34.85
44.51 44.19 44.22 44.64 45.11 45.39 45.62 45.28 46.01 45.75 46.08 43.96 40.64 32.26 49.21 50.81 35.61 36.56 33.06 37.39 39.88 39.51 41.77 39.95 39.98 39.05 37.42 37.62 36.43 36.38 36.79 39.60 44.58 44.24 42.02 43.42 41.07 36.76 40.10 44.79 47.25 45.73 43.45 43.88 38.64 37.45 41.14
44.23 43.92 44.22 44.34 44.78 45.21 45.38 45.44 45.44 45.50 45.64 42.99 36.61 36.42 47.33 47.57 31.75 33.30 36.38 35.93 38.22 38.11 38.87 38.98 37.70 39.85 40.62 37.67 33.72 37.70 38.85 43.23 43.25 41.72 40.34 43.63 39.28 33.66 37.43 42.30 45.02 42.68 44.24 45.33 45.18 44.02 37.99
43.74 43.56 43.79 44.53 44.80 44.72 44.84 45.11 44.95 45.07 45.63 43.52 38.10 32.84 37.78 42.16 40.53 35.80 33.89 33.98 34.16 40.20 39.56 40.24 39.02 40.68 39.11 37.01 39.02 36.16 37.89 41.08 42.97 42.07 42.96 44.28 41.39 37.52 33.58 38.13 42.59 40.76 42.86 44.44 43.81 38.98 39.37
43.09 43.39 43.75 43.98 44.13 44.20 44.28 44.66 45.01 44.99 44.88 42.67 37.63 34.12 37.60 31.81 34.61 35.89 36.67 35.77 33.19 33.69 39.41 40.20 37.41 38.00 37.45 34.31 35.71 35.46 39.21 40.47 42.12 41.88 41.85 42.12 37.71 40.32 40.79 41.75 41.78 41.99 42.20 42.42 41.40 42.63 38.97
43.11 43.04 43.41 43.56 43.77 43.88 44.22 44.47 44.66 44.97 45.15 39.99 34.75 34.09 38.31 36.22 37.79 35.16 35.36 32.98 33.79 36.09 37.11 35.46 35.74 38.12 39.06 35.88 36.83 35.67 38.25 38.28 38.49 41.34 40.18 42.65 35.51 38.03 37.25 40.30 39.91 38.92 41.51 42.39 42.48 42.29 41.90
42.84 42.94 42.93 43.19 43.63 43.97 44.13 44.31 44.48 44.73 44.77 38.98 40.83 41.61 37.91 34.22 34.81 34.19 34.59 34.62 34.91 37.19 38.76 40.19 39.19 37.98 36.87 38.81 41.21 42.47 42.52 41.31 41.37 39.45 38.95 38.79 36.69 34.88 30.97 38.12 37.81 33.62 39.05 41.15 42.32 44.04 43.48
42.56 42.76 42.93 42.98 43.16 43.48 43.76 44.27 44.56 44.44 44.73 41.63 40.92 40.65 34.58 30.65 33.58 33.48 35.50 36.49 35.90 37.10 35.80 39.40 40.99 38.62 41.10 45.02 44.58 43.18 42.02 40.83 41.07 40.84 42.04 37.95 37.88 37.55 33.01 35.06 25.44 39.26 43.71 43.29 42.50 43.57 45.14
42.56 42.71 42.89 42.86 42.70 43.16 43.33 43.87 44.09 44.32 44.53 44.42 42.85 40.47 35.91 30.87 33.57 33.93 34.99 35.85 37.44 38.20 37.25 37.99 39.94 40.73 44.14 40.79 35.02 32.89 34.30 35.11 36.78 40.54 40.61 41.38 38.32 34.67 31.42 32.13 36.71 38.74 40.81 40.65 39.58 39.82 43.67
43.51 42.91 42.79 43.21 43.29 43.36 43.41 43.88 43.92 44.34 44.27 45.43 42.11 44.66 39.18 33.35 32.32 36.71 34.83 36.53 34.29 35.27 36.40 38.36 42.39 43.95 41.01 36.84 34.31 28.31 27.85 32.45 32.08 35.29 41.39 40.45 40.08 35.90 34.22 28.54 26.73 37.73 43.30 45.87 44.43 36.04 46.09
43.97 43.86 43.80 43.57 43.32 43.29 43.10 43.49 43.83 43.80 43.80 43.85 42.99 45.65 40.02 32.17 36.91 36.79 32.96 35.27 39.24 37.54 35.52 37.43 37.99 37.43 39.62 34.80 31.20 30.55 30.49 36.04 30.80 31.28 32.10 34.23 34.74 31.31 32.40 30.70 34.95 41.94 44.51 44.72 34.80 37.87 46.50
44.05 44.51 44.40 43.76 43.16 43.37 43.32 43.57 43.86 44.03 44.07 44.54 42.52 45.83 41.36 35.50 37.18 39.29 39.99 36.79 37.12 38.69 34.71 37.26 35.16 35.74 34.53 32.67 32.15 33.05 32.65 34.96 34.25 35.78 35.10 32.74 31.24 31.30 32.69 29.83 27.83 44.89 43.52 38.32 43.95 46.84 47.34
45.14 45.22 45.10 44.59 43.12 43.21 43.28 43.47 43.50 43.57 43.78 44.32 40.37 44.17 45.99 37.53 37.66 42.83 43.36 43.51 42.91 41.61 38.00 38.65 37.68 37.53 39.42 36.43 37.45 36.62 34.31 36.67 35.12 30.30 40.12 32.40 37.35 35.24 36.22 36.30 44.28 46.43 46.59 47.75 48.05 46.64 47.07

GFSGBSN_sfc_wetblb_060.txt.gz
Wetbulb
51.43 51.33 51.19 51.73 51.80 51.72 52.04 53.21 53.11 52.85 52.80 52.64 53.12 53.40 53.63 53.58 53.33 53.51 54.01 53.98 54.13 54.23 54.23 53.67 53.67 53.90 51.47 45.93 47.11 55.48 58.11 59.49 59.89 57.69 53.99 52.13 51.67 50.60 47.74 49.65 49.61 47.65 48.62 50.29 51.21 51.32 50.64
51.04 51.04 50.77 51.44 51.51 51.26 51.20 51.83 51.40 51.80 52.66 52.78 52.86 53.06 52.94 52.73 52.74 52.88 53.57 53.47 53.57 53.69 53.90 53.58 53.47 53.45 48.76 40.76 53.27 55.24 54.13 52.74 51.10 56.38 55.20 54.03 51.84 52.35 50.07 49.04 47.94 49.30 49.16 49.24 50.44 50.50 51.04
51.40 51.13 51.36 51.47 51.24 51.21 51.15 51.11 50.84 51.40 52.26 52.20 52.07 52.11 52.27 52.16 52.27 52.48 53.12 53.18 53.06 53.35 53.67 53.47 53.48 52.37 47.09 44.77 53.34 53.72 53.70 53.91 54.30 49.54 46.71 49.00 52.98 52.86 51.95 48.47 50.78 49.20 45.82 48.27 49.53 50.42 49.21
51.69 51.47 51.37 51.36 51.44 51.01 51.02 50.66 50.53 50.77 51.68 51.57 51.38 51.43 52.06 52.19 52.36 52.61 52.69 52.50 52.57 53.10 53.63 53.88 53.92 51.98 44.52 53.07 54.22 51.77 52.58 51.46 53.02 54.33 50.78 49.53 50.96 51.41 50.56 51.64 48.63 45.87 47.13 42.76 48.14 49.79 50.20
51.29 50.93 50.45 50.89 51.24 51.13 50.77 50.75 50.60 49.95 51.13 51.16 50.70 51.01 51.47 51.74 52.05 52.05 51.97 52.05 52.13 52.97 54.15 54.28 51.72 49.89 44.50 54.41 49.52 51.70 50.86 50.50 52.40 54.52 52.51 50.70 48.34 47.84 48.66 45.33 42.40 44.46 40.50 43.15 45.18 50.05 49.63
50.91 50.95 50.67 50.85 50.93 50.97 50.57 50.18 51.43 51.11 50.42 50.86 50.12 49.99 50.72 51.09 51.54 51.19 51.02 51.26 52.86 53.88 53.47 54.71 53.93 46.43 49.66 46.35 50.60 52.41 54.42 51.79 50.31 51.54 48.84 47.73 44.41 42.19 44.63 42.58 35.81 39.35 41.85 43.91 44.42 48.56 49.82
50.07 50.31 50.69 50.73 50.70 50.42 50.00 50.13 50.61 50.99 49.70 49.76 49.50 49.15 50.01 50.60 51.12 50.96 49.76 50.05 47.74 47.90 49.61 46.20 45.95 47.30 48.03 50.48 52.77 49.97 54.48 50.79 51.49 48.37 42.81 44.44 38.91 37.00 41.84 44.18 44.26 44.59 44.19 43.98 47.43 50.25 48.56
49.67 49.76 49.57 49.41 49.54 49.66 50.44 50.35 50.43 50.29 49.20 48.79 48.85 48.76 49.11 50.11 50.83 50.90 49.83 47.99 47.55 48.20 39.99 46.74 47.04 47.29 49.17 49.90 44.56 47.50 53.99 48.11 46.55 41.49 44.33 42.40 37.70 41.14 43.47 45.50 44.25 43.79 42.94 43.39 47.09 49.33 47.37
49.08 49.02 49.11 49.17 48.76 48.83 49.20 50.29 50.19 49.69 48.73 48.44 48.18 48.53 48.97 49.99 50.06 49.93 50.22 48.52 53.36 51.48 40.73 43.80 47.67 46.72 47.50 49.07 44.47 44.44 47.88 48.74 44.55 41.68 42.36 39.82 42.20 44.94 43.35 41.88 41.47 42.92 42.76 43.42 43.53 47.27 48.42
49.16 49.22 49.37 49.31 49.14 48.91 48.58 49.00 49.37 48.79 48.59 48.50 47.67 48.45 49.27 49.42 46.59 48.78 47.29 52.48 53.69 51.09 35.43 42.32 44.18 47.49 49.13 47.47 42.97 48.65 48.97 46.90 43.81 41.04 42.25 41.71 45.49 43.53 42.62 41.57 42.96 40.12 46.11 45.47 44.80 43.73 39.41
48.55 48.46 48.96 49.09 48.87 48.75 48.18 47.89 48.42 48.66 48.44 48.00 48.25 47.83 48.80 48.37 45.37 44.66 49.68 52.71 53.06 48.27 27.00 41.04 44.18 51.48 49.18 44.57 45.21 44.76 48.76 45.09 40.68 41.37 42.01 40.21 42.10 41.75 41.52 42.70 45.19 42.62 48.11 46.44 45.71 43.54 42.94
48.14 48.09 48.30 48.27 48.64 47.94 47.97 48.21 47.85 48.38 48.18 47.87 47.81 47.43 48.07 46.25 47.00 49.47 51.46 52.29 49.43 34.64 27.89 38.24 43.49 42.94 42.82 45.16 45.10 45.61 45.17 45.90 44.38 40.58 43.06 42.01 46.66 45.09 44.17 45.66 46.26 46.79 45.80 45.68 44.98 43.53 36.00
46.50 47.13 47.28 47.50 47.65 47.55 47.66 47.75 47.47 47.97 47.91 47.22 47.26 47.22 45.84 46.63 41.95 49.52 51.34 46.89 35.19 29.49 40.50 38.08 39.27 41.11 41.14 40.74 42.93 43.15 41.89 39.56 35.93 32.45 33.66 38.72 40.16 44.09 47.01 43.14 45.11 43.86 41.34 35.20 33.35 34.17 33.80
45.56 45.96 46.49 46.69 46.74 47.09 47.17 47.51 47.33 47.17 46.96 46.98 47.81 47.44 46.37 46.12 48.14 50.67 46.48 38.24 27.98 35.85 37.88 41.94 40.24 40.38 38.00 41.33 42.50 42.36 40.75 38.11 40.71 39.12 36.22 33.85 30.88 39.52 45.38 43.84 40.97 41.30 40.99 35.94 28.93 31.77 35.66
45.82 45.93 46.25 46.50 45.94 46.22 46.73 47.05 47.02 46.86 46.94 46.85 47.08 45.18 45.06 47.76 49.91 49.72 38.93 30.24 31.70 36.68 39.64 38.36 39.23 35.57 36.16 39.98 40.24 41.48 40.61 40.39 41.70 40.27 34.29 33.80 34.87 43.73 45.61 46.37 44.73 40.53 37.04 44.09 39.16 39.95 35.89
45.55 45.69 45.66 45.48 45.73 45.87 46.45 46.36 46.70 46.46 46.43 46.38 43.17 42.23 42.21 49.64 52.25 45.54 35.42 29.77 35.64 40.82 40.68 40.24 33.62 36.54 34.69 37.51 37.24 38.93 39.87 42.88 42.24 43.33 43.26 39.16 32.55 41.43 43.67 46.12 46.15 43.18 44.95 36.75 38.50 29.54 29.13
44.33 45.00 44.94 45.02 44.84 45.29 45.64 45.95 46.09 46.17 45.93 45.49 41.82 35.54 44.77 51.43 49.37 40.35 28.93 31.87 36.86 41.16 41.15 38.34 36.45 35.32 37.10 36.75 37.72 37.53 38.49 42.42 44.19 43.29 45.04 41.69 38.25 37.33 42.04 40.69 40.15 41.09 39.70 41.01 40.63 38.93 33.34
43.81 44.38 44.81 44.75 44.44 44.84 45.16 45.40 45.63 45.68 45.72 43.43 39.57 31.58 47.21 49.20 36.37 36.34 30.79 35.59 39.16 39.91 42.05 39.43 40.04 38.25 37.58 37.99 36.64 36.69 36.97 40.29 43.99 43.83 40.05 43.73 40.05 34.17 37.51 44.34 45.20 43.23 41.54 41.23 35.94 35.22 39.07
44.11 44.22 44.57 44.43 44.43 44.70 44.74 45.16 45.70 45.75 45.22 43.27 35.92 36.12 46.08 46.87 30.76 32.02 35.36 35.47 37.79 37.81 38.49 38.26 37.53 39.13 39.66 36.75 33.87 37.27 38.71 43.72 43.43 41.52 39.59 40.76 38.08 32.20 34.96 40.89 43.94 40.47 41.85 43.12 42.47 41.40 36.19
43.59 43.81 44.08 44.25 44.27 44.31 44.70 45.02 45.13 45.29 45.17 43.88 35.77 31.46 37.36 41.31 39.28 35.03 33.37 33.58 34.03 39.33 37.89 39.53 38.75 40.30 37.97 36.64 38.84 36.04 37.62 41.86 43.14 42.13 43.09 41.92 38.75 36.01 32.15 36.15 39.04 36.39 41.39 42.65 41.97 35.65 36.98
43.01 43.27 43.47 43.76 43.76 44.22 44.56 44.60 44.79 45.16 45.40 42.46 36.16 32.85 37.06 31.46 33.92 34.90 35.26 35.15 33.41 33.44 39.04 39.60 37.34 37.78 36.62 33.65 35.25 35.21 38.06 39.45 42.05 42.80 42.23 40.64 35.61 38.69 39.53 40.95 40.60 40.58 40.37 41.65 40.25 40.22 36.84
43.06 43.17 43.18 43.53 43.63 44.02 44.28 44.33 44.87 45.13 45.16 39.27 32.07 33.10 36.75 34.27 36.24 34.66 34.77 32.90 33.15 35.10 36.59 35.83 35.22 37.31 38.10 34.67 36.05 34.17 37.63 38.57 37.97 42.02 40.07 41.56 34.04 36.52 35.73 40.64 40.65 38.49 41.30 40.87 40.74 42.54 42.19
43.24 43.13 43.16 43.23 43.29 43.63 43.88 44.12 44.58 44.58 44.51 37.74 38.84 40.16 36.65 33.13 33.65 32.49 32.85 33.88 34.31 36.82 38.18 39.75 38.56 37.51 36.22 38.02 40.56 41.80 42.50 41.50 40.85 38.90 38.14 37.38 35.75 34.27 31.32 37.51 37.66 33.77 38.53 40.65 40.80 43.06 42.49
42.89 43.04 43.13 43.18 43.26 43.41 43.48 43.91 44.56 44.44 44.07 41.82 40.59 40.10 33.09 28.73 31.00 31.76 34.49 35.31 35.08 36.52 35.23 38.12 39.75 37.84 40.25 45.56 44.84 43.44 41.86 40.92 40.71 40.07 41.19 36.39 35.41 34.22 30.79 33.97 25.94 38.35 43.74 43.35 41.99 43.16 44.52
42.63 42.79 42.98 43.06 43.13 43.43 43.41 43.90 44.10 44.07 44.26 42.57 42.33 39.25 35.27 29.37 32.04 32.64 33.92 35.00 36.68 37.38 37.21 37.77 39.58 42.43 43.63 41.49 35.85 32.48 33.41 34.25 36.69 38.93 38.81 40.33 36.56 31.93 30.07 30.20 34.44 38.15 40.73 40.02 39.44 39.69 44.49
42.76 42.66 42.81 43.58 43.63 43.71 43.61 43.61 44.14 44.09 44.22 43.17 43.84 44.31 35.46 32.52 31.23 35.50 33.73 34.87 32.61 34.40 35.51 38.21 42.71 44.65 41.95 36.54 32.91 26.67 25.62 31.01 30.97 34.44 40.34 39.82 40.00 34.04 32.57 27.28 25.31 37.56 42.90 45.59 44.06 35.37 45.43
43.45 43.79 43.94 43.87 43.79 43.74 43.79 43.71 43.93 43.66 44.19 43.91 42.58 44.05 38.63 32.22 36.48 36.88 33.37 33.15 37.01 35.77 34.43 37.29 38.72 38.31 40.18 33.15 29.90 28.30 27.87 35.02 29.15 30.27 32.07 33.27 34.06 30.57 30.73 29.22 34.14 41.22 43.79 44.94 33.62 36.26 45.75
43.99 44.28 44.45 44.34 44.35 44.32 43.88 43.60 43.83 43.83 44.12 43.69 41.30 44.50 40.07 35.28 36.60 38.89 38.66 35.09 35.82 35.96 34.21 37.64 36.34 36.01 35.06 30.15 30.46 31.17 31.26 33.84 33.38 35.20 33.47 32.50 30.96 30.45 31.62 28.62 26.76 43.63 43.57 37.68 43.20 45.60 45.60
44.12 44.24 44.51 44.60 45.32 44.13 44.01 43.48 43.69 43.84 44.05 43.96 39.35 44.24 44.71 37.60 36.50 41.97 42.40 42.68 40.66 39.90 37.30 38.84 36.87 34.82 37.81 33.70 35.44 35.99 33.49 36.60 34.30 29.25 37.99 31.40 36.47 33.84 34.78 33.94 44.33 46.48 45.66 47.17 47.37 45.38 44.67

GFSGBSN_sfc_wetblb_063.txt.gz
Wetbulb
50.91 51.37 51.15 51.09 51.72 51.58 50.99 51.56 51.80 51.81 52.15 52.73 52.93 52.77 52.79 52.76 52.53 52.52 53.03 53.25 53.44 53.07 53.30 53.47 53.69 53.59 49.55 42.90 43.58 51.09 59.62 58.53 58.14 55.70 52.08 49.96 45.75 45.30 43.58 46.90 47.69 45.61 46.57 47.89 48.63 48.71 48.74
51.12 51.53 51.19 51.41 51.29 51.33 51.18 51.16 51.13 51.15 51.75 52.48 52.08 51.85 51.97 51.87 51.81 51.97 52.32 52.80 52.92 53.11 52.96 53.26 53.64 53.24 45.87 37.57 49.73 50.71 50.79 50.67 50.18 48.31 51.47 51.22 49.28 49.74 47.13 46.76 45.89 47.95 47.30 47.15 47.90 47.39 48.31
51.78 51.45 51.71 51.47 51.57 51.45 51.15 51.15 50.66 50.67 51.13 51.90 51.62 51.40 51.10 50.96 51.08 51.34 52.15 52.20 52.14 52.61 52.84 52.99 53.71 50.46 44.38 41.55 49.55 49.92 50.32 47.94 50.90 50.58 44.78 47.08 46.64 44.35 47.48 46.17 48.98 47.92 43.45 45.57 45.75 46.06 46.35
51.51 51.74 51.04 51.08 51.80 52.07 51.59 51.00 50.69 50.67 50.61 51.18 51.34 50.81 51.02 50.96 50.99 51.41 51.87 51.79 51.47 51.95 52.36 53.03 53.86 49.56 41.92 51.65 51.14 50.45 48.96 47.44 49.53 50.60 50.07 49.82 48.12 44.20 45.89 48.63 47.91 43.74 42.31 37.28 45.00 46.95 47.65
51.25 51.38 51.22 50.87 51.94 51.52 51.33 50.97 50.93 50.77 50.60 50.67 50.74 50.19 50.56 50.42 50.68 50.75 51.10 51.15 51.26 52.26 53.37 53.98 49.83 47.42 42.39 54.51 49.29 50.57 49.12 45.69 49.15 50.07 49.91 52.54 46.95 42.17 44.40 40.89 39.74 40.94 34.20 38.36 42.36 47.61 46.59
50.28 50.46 50.79 51.15 51.49 50.98 50.64 50.48 51.12 51.10 50.71 49.96 49.96 49.64 49.92 49.84 50.15 50.13 50.04 50.26 51.11 52.52 52.59 52.66 51.32 44.92 47.84 46.38 49.36 49.96 49.60 50.22 46.65 48.56 48.46 45.89 42.35 36.88 39.48 37.98 30.99 35.27 36.95 38.41 39.88 45.12 45.78
49.58 50.03 50.15 50.04 49.93 49.97 50.36 50.52 51.18 50.94 50.68 49.38 49.08 48.93 49.23 49.65 49.76 49.71 47.86 44.75 43.09 42.42 44.00 41.77 44.56 45.25 46.71 49.05 49.38 47.17 51.41 48.81 49.08 46.86 40.62 43.37 35.41 31.24 36.06 40.88 41.97 41.51 40.35 39.09 41.09 46.61 46.83
49.60 49.39 49.74 49.39 49.32 49.37 49.33 49.77 50.28 50.72 49.59 49.01 48.37 48.51 48.41 48.56 49.62 49.19 46.53 43.09 46.07 45.20 38.10 45.06 45.01 44.93 47.15 47.86 43.15 45.54 48.26 45.39 44.83 40.16 43.33 40.49 34.89 39.86 41.58 41.13 41.94 41.35 39.02 38.50 42.82 46.79 45.85
49.68 49.66 49.80 49.42 49.50 49.40 49.29 48.98 49.08 50.30 49.74 49.08 48.78 48.03 48.13 48.81 48.89 46.89 44.76 45.18 51.51 48.60 37.17 40.49 45.84 44.59 46.10 47.47 43.01 42.91 44.81 46.30 42.75 40.32 41.19 38.30 39.94 43.85 41.97 39.46 37.97 39.95 38.40 39.42 40.43 44.47 45.54
49.04 49.19 48.97 49.51 49.79 49.49 49.21 48.91 48.56 48.64 49.17 49.43 48.96 48.60 48.93 48.84 43.88 41.91 41.51 49.08 50.39 49.85 33.40 37.36 42.71 45.57 47.62 46.76 41.57 47.23 46.60 42.61 42.65 38.92 41.86 41.05 43.40 41.41 41.45 40.32 41.28 36.00 42.52 42.27 41.66 40.23 35.36
48.26 48.55 48.69 48.54 49.08 48.96 48.94 48.48 48.14 48.06 48.24 48.74 48.76 48.47 48.53 47.27 40.09 38.99 45.06 47.74 49.82 46.19 21.38 42.85 43.18 50.68 48.40 42.97 43.63 42.73 46.46 42.80 38.28 40.68 41.21 38.89 40.81 40.64 38.96 40.77 43.76 40.08 44.39 42.80 42.44 40.80 38.35
47.07 47.14 47.63 47.84 47.96 48.24 48.08 48.64 48.20 47.94 48.12 48.53 48.36 48.12 48.22 43.41 41.29 42.56 45.58 46.48 46.70 33.09 22.92 37.18 43.12 41.92 42.08 43.18 43.40 44.01 42.47 43.69 42.73 38.79 42.20 40.87 45.54 43.63 42.35 44.55 44.84 45.31 42.54 42.07 41.25 39.95 32.70
46.15 46.24 46.46 46.83 47.28 47.08 47.62 47.79 48.03 47.63 47.57 47.82 48.22 47.93 45.11 44.54 36.43 43.09 43.45 42.33 31.16 24.62 39.97 36.50 38.18 41.52 39.91 38.77 41.03 41.00 39.06 34.95 31.28 28.50 30.99 37.41 39.78 43.31 44.68 39.64 43.24 42.72 37.90 30.78 30.63 30.16 28.69
45.56 45.75 45.75 46.25 46.69 46.85 46.79 47.03 47.96 47.47 47.21 47.13 47.76 47.87 44.99 43.66 42.35 42.51 41.44 35.60 24.06 33.30 36.26 41.58 39.96 39.56 36.43 38.80 40.31 40.18 37.39 33.77 35.94 34.78 31.99 31.16 31.08 39.01 42.95 40.14 39.14 40.21 37.90 31.38 26.41 26.56 31.90
45.51 45.70 46.02 46.26 46.58 46.54 46.15 46.32 46.80 46.98 46.88 47.21 47.31 41.49 40.12 42.38 43.76 41.72 37.72 25.94 26.54 32.47 37.91 37.37 38.05 34.94 34.52 37.39 38.60 38.86 37.52 36.28 39.65 38.16 30.77 32.48 33.72 42.57 42.85 43.96 43.40 39.33 35.61 40.99 34.52 35.39 32.16
44.56 45.54 45.30 45.72 45.58 45.38 45.43 46.00 46.17 46.52 46.34 46.52 38.87 37.70 38.72 43.29 45.16 39.61 33.68 26.83 30.29 37.10 38.32 37.45 32.56 35.66 31.59 35.47 35.64 35.33 37.72 41.54 40.79 42.81 40.21 37.21 31.33 40.33 41.84 44.30 44.47 41.80 43.35 34.15 34.79 27.77 26.86
44.66 44.98 44.48 44.90 45.04 45.27 44.87 45.31 45.75 46.32 46.28 45.57 36.77 32.65 38.94 43.55 43.36 36.88 26.48 27.70 31.73 37.42 37.83 35.71 34.60 34.06 34.52 34.49 36.23 34.65 37.56 41.64 42.66 41.77 42.03 40.06 35.28 35.40 40.29 39.01 38.17 39.70 37.86 37.94 38.01 35.67 28.47
44.37 44.56 44.47 44.86 44.94 45.10 44.93 44.95 45.35 45.71 45.53 42.14 37.99 26.43 41.09 44.64 32.48 33.65 27.61 31.59 36.21 34.60 38.38 36.53 37.17 36.75 34.47 34.93 34.23 34.75 34.92 38.91 42.03 41.74 38.24 39.64 37.40 31.21 34.22 41.12 43.50 42.48 39.98 38.69 33.88 32.88 35.64
44.04 43.90 44.28 44.53 44.78 44.80 44.58 44.87 45.12 45.44 45.24 37.91 33.97 31.14 39.65 42.25 28.38 26.83 31.89 32.55 34.06 33.33 34.30 35.35 35.48 37.53 37.55 33.85 30.29 34.92 36.62 42.51 42.16 40.00 37.01 37.87 34.66 29.54 32.54 38.35 42.52 38.89 40.49 40.52 39.94 38.94 34.63
43.38 43.57 43.83 44.20 44.28 44.37 44.44 44.44 44.94 45.25 45.27 41.33 34.18 26.68 31.36 34.60 33.52 32.59 30.67 30.78 30.83 37.02 35.49 36.95 35.66 37.11 35.48 33.45 35.56 33.03 35.55 41.32 42.20 41.76 42.89 40.41 36.28 33.92 29.57 34.03 38.38 35.94 38.93 40.73 38.56 33.74 34.64
43.10 43.28 43.52 43.54 43.77 43.78 44.17 44.45 44.42 44.78 45.03 40.34 34.12 28.32 31.78 28.29 28.18 30.47 31.67 31.62 30.22 31.64 36.70 37.24 33.51 33.97 33.57 31.15 32.88 32.66 36.18 37.23 40.82 42.54 40.79 38.85 32.62 36.28 36.53 37.63 39.43 37.51 37.11 39.33 37.64 38.04 35.77
43.32 43.26 43.53 43.72 43.58 43.70 43.82 44.04 44.57 44.27 44.58 37.78 29.75 28.00 31.58 30.05 32.02 31.35 32.18 29.30 29.77 31.38 33.77 32.85 32.66 35.05 35.06 32.33 33.44 31.73 35.48 36.19 36.16 40.21 38.80 39.23 31.93 34.87 33.04 38.35 38.29 37.23 38.67 40.36 39.92 40.44 40.65
43.48 43.58 43.55 43.48 43.44 43.56 43.64 43.75 44.21 44.44 43.62 34.96 37.59 36.79 33.14 30.06 29.33 26.69 28.41 31.02 31.46 34.14 35.40 36.53 36.27 34.76 33.65 36.74 37.95 38.28 38.86 38.97 38.10 36.19 36.10 36.21 34.00 31.84 29.02 34.09 35.07 30.58 37.00 39.18 39.39 40.77 40.78
43.31 43.31 43.48 43.31 43.36 43.61 43.63 43.68 44.43 44.27 43.91 36.80 36.37 35.94 30.02 24.05 26.99 27.22 30.26 31.53 31.99 33.37 32.05 36.46 37.61 35.58 38.98 43.33 41.71 41.45 39.39 38.88 38.72 38.55 39.57 34.69 32.74 32.55 27.91 30.79 24.83 36.59 41.91 42.90 40.35 41.02 42.95
42.78 42.95 43.23 43.40 43.28 43.28 43.82 43.77 44.11 43.85 44.36 40.17 38.93 36.65 33.19 22.36 28.34 29.11 30.61 31.05 33.04 34.91 33.38 35.07 38.17 40.76 42.93 40.22 32.61 30.04 28.54 30.06 33.30 36.36 36.43 37.09 33.00 26.90 26.71 28.12 32.34 35.67 39.75 38.74 38.91 38.72 43.53
43.06 43.13 43.01 42.98 43.67 43.68 43.71 43.34 43.53 43.68 43.99 40.96 40.04 40.93 35.98 28.56 24.56 32.17 30.26 32.37 29.87 30.16 33.13 34.59 41.22 41.63 38.46 32.65 28.22 23.76 21.47 27.97 27.72 32.36 37.75 36.47 35.05 29.18 27.16 25.22 23.87 34.53 41.37 44.62 43.15 33.58 43.42
42.88 43.08 43.13 43.46 43.83 43.88 44.07 43.90 43.97 43.43 43.77 41.12 38.35 41.24 37.09 28.99 31.77 32.07 29.21 31.08 34.48 32.21 31.70 35.07 35.96 35.24 37.10 31.01 22.91 24.74 23.64 32.23 25.36 27.51 28.50 29.05 29.42 26.82 26.42 25.20 30.98 40.36 42.77 44.72 32.31 34.83 43.40
43.72 43.91 44.01 44.14 44.21 44.35 44.17 44.15 43.98 44.10 43.83 41.35 38.10 41.95 37.38 32.45 33.46 36.17 35.98 32.74 33.72 34.10 31.11 34.27 32.27 34.97 32.08 25.92 24.14 25.07 23.91 29.07 28.89 33.18 32.43 29.62 28.02 26.90 26.56 23.97 23.66 42.81 41.00 36.75 40.29 43.18 43.24
44.02 43.83 44.12 44.22 44.15 44.38 44.66 44.35 43.98 43.95 44.20 43.29 36.98 41.91 41.29 34.86 33.27 38.51 38.70 39.00 37.60 36.64 34.74 36.20 32.48 34.24 35.31 31.65 28.78 29.93 25.40 29.42 31.38 27.15 37.26 29.97 34.19 29.68 30.57 29.21 39.83 44.57 43.38 44.51 44.22 42.57 42.48

GFSGBSN_sfc_wetblb_066.txt.gz
Wetbulb
51.09 51.11 51.00 50.94 51.14 51.34 51.39 51.08 51.38 51.21 51.06 52.26 52.23 52.01 51.61 51.61 51.43 51.27 51.76 52.14 52.01 52.04 52.25 52.81 53.29 53.53 47.91 41.30 41.30 49.66 57.03 54.34 56.05 54.88 51.96 49.15 45.68 41.81 39.52 41.98 44.19 43.56 45.95 47.69 47.76 47.44 47.28
51.21 51.34 51.57 51.39 51.50 51.42 51.37 51.19 51.05 51.10 50.81 51.10 52.10 51.58 51.22 51.01 50.89 50.63 51.01 51.40 51.87 52.01 51.82 52.18 52.90 53.16 44.23 34.84 47.70 49.54 48.54 48.98 49.21 50.83 47.91 49.28 45.73 44.20 43.91 44.11 42.87 45.98 46.40 46.66 47.64 47.44 46.23
51.66 51.82 51.68 51.63 51.46 51.49 51.53 51.14 50.85 50.88 50.87 50.64 51.25 51.13 50.83 50.62 50.03 49.77 50.50 51.16 51.22 51.58 51.32 51.95 52.61 50.92 43.55 39.78 48.63 47.89 49.05 47.07 47.13 48.98 46.23 46.29 45.42 42.09 42.53 43.07 47.30 46.07 41.88 44.42 45.11 44.65 43.60
51.13 51.73 51.37 51.31 51.88 52.01 51.63 51.17 50.86 50.41 50.84 50.74 50.72 50.45 50.37 49.97 49.99 50.12 50.48 50.51 50.51 51.11 51.66 52.41 52.91 48.79 40.86 50.25 49.22 48.84 47.99 47.65 47.60 47.39 48.26 48.30 47.15 43.10 41.90 45.91 45.22 42.09 40.92 36.14 43.32 44.68 45.49
50.33 50.53 51.08 51.41 51.37 51.16 51.17 51.17 51.15 50.57 50.47 50.54 50.18 49.98 50.22 50.03 49.74 50.02 50.25 50.25 50.31 51.76 53.48 53.10 49.14 45.61 41.26 53.92 48.68 50.72 49.48 46.23 45.81 48.20 48.52 51.27 46.56 40.19 40.89 38.22 36.30 38.43 32.75 35.99 40.80 45.64 44.56
49.99 50.04 50.07 50.36 50.16 50.16 50.33 50.62 51.39 51.30 50.40 50.29 49.79 49.30 49.62 49.65 49.54 49.26 49.41 49.66 50.02 52.01 52.43 52.21 50.90 44.06 46.64 45.67 48.17 47.89 47.20 47.23 44.87 47.17 47.04 44.37 40.94 34.73 34.54 34.99 30.13 33.39 34.92 36.39 37.79 41.55 43.73
50.20 49.54 49.78 50.03 49.88 49.63 49.60 49.92 50.27 50.65 50.26 49.82 49.22 48.72 48.78 49.37 49.22 48.96 46.96 44.03 43.27 41.36 44.04 40.91 44.00 44.50 46.39 49.30 49.06 45.92 47.09 46.84 48.15 45.32 39.10 41.33 34.46 32.51 32.63 36.67 39.82 39.45 38.31 36.44 40.17 43.26 41.93
49.46 49.94 49.76 49.66 49.56 49.46 49.46 49.25 49.40 49.58 49.99 49.43 48.98 48.74 48.50 48.89 49.19 48.80 46.15 42.80 44.65 45.73 37.51 44.03 44.13 43.56 46.57 47.17 41.41 44.78 46.81 42.94 43.54 38.15 41.38 38.90 33.78 38.68 39.32 39.06 38.37 38.65 37.81 37.04 41.03 44.04 42.52
48.85 49.36 49.22 49.46 49.78 49.96 49.85 49.55 49.28 48.78 48.82 49.32 48.92 48.80 48.22 48.90 48.64 44.73 39.93 42.69 47.88 46.72 36.28 39.40 43.36 42.86 43.39 44.97 40.02 41.51 43.95 44.81 41.61 39.57 39.63 36.73 39.66 44.00 40.60 38.48 36.85 36.67 35.90 37.71 37.92 41.72 43.83
48.50 48.70 49.13 48.87 48.80 49.30 49.26 49.28 48.84 48.39 48.22 48.94 49.14 49.04 48.72 48.78 41.99 40.49 39.50 45.41 45.31 46.14 31.86 35.15 40.62 44.49 45.54 45.66 40.06 46.20 45.23 44.52 41.42 38.18 40.40 39.25 43.28 41.33 39.94 38.00 39.88 35.56 40.09 39.37 39.59 38.33 32.15
47.09 47.09 47.47 48.15 48.02 48.06 48.43 48.71 48.25 48.13 48.11 48.16 49.21 48.79 48.47 47.69 40.36 37.99 42.60 43.78 44.62 43.98 18.74 39.93 42.18 49.50 46.94 41.82 41.65 41.58 44.85 40.79 36.33 39.80 39.77 36.66 39.37 39.79 37.64 38.85 42.26 38.85 44.47 41.42 40.11 35.93 33.91
46.32 46.25 46.47 46.56 47.17 47.37 47.58 47.59 47.92 47.85 47.85 47.82 48.18 48.35 48.08 42.43 39.37 41.68 42.42 42.65 43.54 30.87 20.07 36.46 42.44 40.87 40.42 41.66 41.59 41.28 40.65 42.23 41.20 37.79 40.32 38.67 44.01 42.47 40.67 43.35 43.88 44.55 41.61 40.63 39.27 36.28 28.24
45.81 45.43 45.62 45.80 46.14 46.92 47.18 46.96 47.19 47.56 47.56 47.71 47.43 47.71 45.57 44.11 35.38 40.73 41.19 39.73 27.08 22.52 36.06 35.77 37.06 40.62 39.21 38.32 39.45 39.35 36.74 34.16 31.12 28.02 28.06 33.40 37.19 42.02 44.78 39.87 43.08 41.61 37.25 30.56 29.49 27.69 27.67
44.87 45.30 45.82 45.93 46.27 46.39 46.53 46.56 46.67 46.85 47.21 47.25 47.35 47.49 44.82 43.76 40.95 39.58 38.38 32.80 21.51 30.02 32.53 38.97 37.09 37.97 35.29 37.59 37.90 38.26 35.18 31.16 33.81 31.93 28.93 26.75 26.61 36.44 43.19 40.09 37.91 38.28 37.55 30.80 26.15 26.81 29.89
44.70 44.64 45.34 45.47 45.99 45.64 45.74 45.92 45.97 46.37 46.49 46.93 46.47 39.48 38.90 39.87 41.70 39.46 35.03 19.77 23.95 29.19 35.05 33.35 34.50 33.02 32.87 36.48 36.24 36.97 34.97 34.33 35.57 34.34 28.52 28.65 31.58 39.04 42.07 43.22 41.15 36.66 35.18 39.71 32.82 34.76 30.38
44.13 44.25 44.76 44.82 45.03 45.31 45.28 45.20 45.66 45.98 46.45 46.26 37.29 35.21 36.17 41.49 41.07 40.50 31.20 23.68 28.13 34.47 35.01 33.72 28.22 33.87 29.47 32.54 33.24 33.83 35.12 40.12 40.29 41.28 38.16 34.40 29.20 38.19 40.53 43.37 43.22 40.68 42.48 33.62 35.50 27.61 25.89
43.51 44.12 44.42 44.53 44.39 44.79 45.15 45.11 45.07 45.58 45.79 45.48 34.76 30.37 36.92 42.19 42.73 36.11 25.18 24.87 30.07 34.72 34.81 33.16 30.56 30.23 32.52 32.01 32.71 34.14 36.83 40.00 41.18 40.63 41.65 37.78 33.40 32.90 38.53 37.23 36.23 37.89 36.50 36.88 36.98 35.12 29.10
43.49 43.36 44.62 44.55 44.47 44.95 45.10 45.17 45.01 45.14 45.23 41.14 32.81 23.62 38.67 43.05 30.33 32.56 27.04 29.99 34.45 32.60 35.77 33.98 35.80 34.08 32.61 33.49 32.06 32.10 34.39 37.78 40.73 40.87 36.72 38.43 35.57 30.90 34.05 40.08 42.36 40.92 38.61 38.34 33.04 31.82 34.45
43.62 43.71 44.25 43.89 44.13 44.44 44.64 44.63 44.65 45.07 44.64 35.68 34.05 29.60 36.79 38.44 25.77 24.81 29.87 31.05 32.44 31.51 32.13 32.15 33.73 35.07 35.09 31.79 28.89 34.16 35.54 41.37 40.77 38.91 35.55 35.75 32.50 28.43 30.67 36.08 39.83 37.16 39.58 40.25 39.55 37.42 33.65
43.13 42.76 43.30 43.61 43.86 44.22 44.43 44.58 44.54 44.77 44.93 39.79 34.44 23.80 27.58 32.04 31.66 30.18 29.09 29.09 29.25 35.55 33.69 34.26 33.56 35.22 32.70 31.92 34.42 31.27 34.08 40.55 41.48 40.35 42.36 39.63 34.01 32.12 28.91 33.36 37.01 35.40 38.25 39.30 37.87 33.43 33.13
42.62 42.84 43.24 43.50 43.67 43.90 43.92 43.97 44.26 44.45 44.54 40.59 32.99 25.54 28.72 25.59 29.13 30.01 31.01 29.62 27.50 28.14 34.33 34.71 32.33 33.11 31.24 28.35 30.86 30.24 35.09 36.64 40.05 42.33 39.65 36.47 29.06 34.32 35.50 36.78 36.80 37.07 36.98 37.46 36.59 36.57 33.98
43.04 43.46 43.50 43.55 43.75 43.84 43.86 43.96 43.91 44.08 43.88 37.96 30.21 23.31 29.55 27.83 31.56 28.84 28.83 27.59 27.89 31.12 31.64 30.55 30.65 33.14 33.47 31.14 33.20 30.15 34.63 34.71 35.11 38.34 36.62 37.64 29.30 33.20 31.36 35.85 35.31 34.03 38.18 38.50 37.89 39.27 38.23
43.34 43.36 43.66 43.82 43.76 43.69 43.79 43.75 43.92 44.13 42.99 36.52 37.40 34.10 30.76 26.82 25.99 24.95 26.90 29.10 28.43 30.75 33.96 34.93 33.97 32.26 31.81 34.59 37.25 37.50 37.73 38.07 37.03 34.91 34.01 34.42 32.66 28.87 26.37 33.52 32.69 29.69 35.43 38.01 39.48 41.42 40.73
43.07 43.32 43.46 43.37 43.66 43.76 43.79 43.74 44.33 43.91 43.13 35.60 33.31 32.59 29.07 22.44 24.76 25.68 28.28 29.04 28.73 30.86 29.89 33.52 35.42 33.32 36.90 41.58 40.36 38.52 38.13 37.83 37.59 36.67 37.22 32.44 30.80 29.79 26.39 29.29 21.50 35.20 39.65 40.32 40.33 41.17 42.10
43.04 43.09 43.29 43.35 43.30 43.34 43.49 43.76 43.76 44.01 43.98 39.88 37.96 34.39 32.40 22.51 28.34 27.90 29.08 28.98 30.61 32.91 31.49 33.17 35.94 39.15 42.23 37.55 31.50 29.04 27.19 29.14 32.07 35.75 35.90 36.48 31.39 26.07 23.99 24.88 29.91 33.54 38.99 38.16 38.28 36.64 42.31
43.10 43.28 43.51 43.44 43.37 43.57 43.91 43.84 43.76 43.74 43.83 37.97 38.85 40.23 35.51 26.34 24.81 29.98 28.18 30.51 26.83 28.05 29.86 33.77 39.21 40.94 39.75 32.97 30.71 23.75 21.46 26.60 26.79 30.70 35.66 34.94 32.81 26.80 25.13 23.24 20.62 33.93 40.44 43.25 42.66 33.97 42.67
42.22 42.41 42.64 42.90 43.61 43.76 43.67 44.04 43.62 43.46 43.74 38.61 35.88 40.12 36.54 29.31 29.89 30.32 25.25 28.61 33.28 30.67 29.23 33.98 33.56 35.51 35.00 25.59 24.38 22.68 22.99 30.71 24.01 26.38 26.77 26.98 26.68 25.49 24.18 22.73 27.99 38.54 41.82 43.62 30.32 34.34 42.41
42.23 42.46 43.11 43.38 43.56 44.03 44.21 44.38 44.38 44.13 43.72 39.95 36.33 39.78 36.22 32.60 31.99 34.16 35.28 31.43 32.71 33.43 28.18 32.24 31.66 33.08 31.39 22.41 23.56 23.80 22.48 27.31 27.02 29.85 28.52 27.46 26.07 24.17 26.06 23.64 21.89 40.59 41.27 35.14 39.86 42.99 42.44
42.07 43.35 43.84 43.96 44.27 44.32 44.45 44.65 44.90 44.45 44.31 43.06 35.83 40.26 40.94 35.45 29.96 37.22 38.02 38.51 35.98 36.47 33.36 34.86 31.88 32.13 34.70 28.99 29.52 29.25 23.73 23.54 27.60 25.39 36.74 29.78 33.22 29.36 29.13 27.77 38.33 39.46 39.43 42.16 43.72 41.61 41.52

GFSGBSN_sfc_wetblb_069.txt.gz
Wetbulb
50.48 50.90 50.73 50.69 50.95 51.22 51.31 51.25 50.97 50.75 50.83 50.70 51.20 52.04 51.61 51.69 51.25 50.81 50.85 51.11 50.40 50.55 50.74 51.35 52.19 52.44 47.95 39.39 38.52 46.91 55.07 52.27 51.20 55.22 52.17 49.63 44.82 41.39 36.41 38.41 41.91 41.22 42.79 45.25 46.16 45.73 44.72
51.20 51.00 51.41 51.31 51.43 51.49 51.67 51.24 51.06 50.76 50.80 50.97 50.92 51.29 51.12 50.89 50.55 49.98 50.29 50.75 51.01 50.63 50.61 51.08 51.79 51.97 44.46 35.48 45.00 48.26 48.13 47.56 46.49 51.21 48.89 48.69 46.24 44.09 40.86 41.05 40.22 43.54 44.01 44.73 46.40 46.61 46.31
51.18 51.48 51.88 51.54 50.87 50.74 51.03 51.34 51.13 50.69 50.61 51.07 50.93 50.91 50.54 50.38 49.80 49.24 49.71 50.46 50.65 50.89 50.78 51.39 51.88 50.03 44.17 40.46 46.85 47.24 48.01 46.09 46.15 45.78 44.61 45.10 45.12 41.26 40.82 39.84 45.38 44.46 40.15 42.12 43.14 42.04 42.68
50.74 51.46 51.09 51.16 51.06 51.36 51.15 51.29 51.27 50.87 50.70 50.41 50.51 50.40 50.42 49.97 49.84 49.74 49.95 50.04 50.29 50.99 51.81 52.54 52.40 49.63 41.75 49.94 49.08 48.46 46.86 46.64 47.71 46.70 46.15 47.75 46.66 42.50 39.54 42.70 42.94 40.57 39.45 34.81 41.37 43.25 43.94
50.27 49.86 50.15 50.33 50.89 50.82 50.85 50.97 50.94 50.84 51.08 50.23 50.16 50.07 50.22 49.91 49.74 49.53 49.38 49.53 50.49 51.85 53.67 52.79 49.56 46.06 40.27 52.94 48.99 50.75 49.01 46.08 45.94 47.14 46.93 50.43 45.78 40.51 38.74 35.44 34.37 36.08 31.33 34.19 38.03 44.02 42.56
49.98 49.54 49.54 50.05 50.16 50.02 50.00 50.11 50.71 50.04 50.37 50.12 49.88 49.56 49.76 49.93 49.58 49.15 48.92 49.99 50.81 51.37 51.96 51.98 50.24 43.07 45.68 44.99 48.49 48.67 47.08 48.06 44.43 46.68 45.36 43.87 39.12 34.41 32.43 33.01 28.28 31.47 32.61 31.77 34.68 40.73 41.01
49.71 50.16 49.21 49.45 49.64 49.45 49.35 49.22 49.31 49.11 49.48 49.97 49.63 49.47 49.45 49.70 49.32 49.04 47.15 44.89 43.13 41.91 44.21 40.15 42.64 43.62 45.31 48.91 48.82 46.14 46.98 46.98 47.97 44.71 37.56 40.79 34.25 30.85 32.27 34.52 37.07 37.82 35.41 33.65 36.13 43.43 39.23
49.34 49.40 49.44 49.64 50.01 49.73 49.74 49.78 49.48 49.15 48.96 49.07 49.31 49.11 49.01 48.79 48.96 48.78 42.93 41.40 40.76 41.66 36.44 44.18 43.81 43.07 46.00 47.41 41.31 44.06 46.76 41.57 42.39 36.73 40.66 37.82 32.92 37.87 39.00 37.39 35.49 34.85 33.81 34.73 39.37 43.78 40.19
47.86 48.31 49.13 49.22 48.69 49.27 49.76 49.33 49.13 48.63 48.42 48.29 48.43 48.74 48.78 48.76 48.61 41.95 38.33 41.58 44.21 42.57 36.06 38.07 42.02 41.64 42.70 44.30 39.47 39.87 43.68 42.27 40.72 38.08 38.68 34.53 37.88 42.57 39.63 36.83 35.23 34.85 32.65 35.02 35.88 40.02 40.23
47.80 47.94 48.37 48.51 48.27 48.31 48.56 48.79 48.49 48.22 48.10 48.08 48.31 48.49 49.05 48.63 39.60 39.36 38.21 42.79 42.61 42.52 31.30 33.69 39.03 42.68 44.00 43.82 37.78 44.33 44.56 44.46 40.61 37.46 39.19 37.94 41.66 40.46 39.23 37.54 37.69 31.89 38.71 39.48 36.41 34.06 28.47
46.34 46.23 46.41 46.54 47.26 47.38 47.52 47.89 47.98 47.87 47.85 47.91 47.93 47.88 48.61 47.50 38.84 35.13 40.47 41.50 42.85 42.95 18.33 37.03 41.90 48.67 45.53 40.88 41.27 40.68 44.02 40.40 38.30 38.06 38.73 35.03 38.22 38.69 36.68 38.15 41.00 36.31 42.91 40.57 38.96 34.56 32.09
45.62 45.56 45.46 45.48 45.85 46.51 46.92 47.01 46.97 47.31 47.41 47.38 47.54 47.41 47.86 41.54 38.24 38.56 39.63 41.03 41.47 29.23 18.30 34.29 41.67 40.07 39.39 40.83 40.34 40.32 39.98 41.29 39.57 36.10 39.03 37.34 42.19 40.35 39.26 41.69 42.24 42.53 40.82 39.79 39.16 34.45 27.02
45.09 44.71 45.03 45.57 45.72 45.72 46.23 46.56 46.38 46.47 46.67 47.20 47.21 47.29 44.89 43.46 34.98 39.17 39.04 36.84 25.82 21.59 33.92 33.37 34.59 37.93 38.54 37.81 38.49 37.71 35.73 33.94 30.45 26.90 26.45 31.63 34.69 39.94 43.11 38.03 41.75 40.66 36.96 29.29 27.34 25.64 25.38
44.04 43.94 44.95 45.51 45.80 46.27 46.04 46.16 45.93 46.16 46.26 46.49 46.71 46.49 43.84 42.76 39.85 38.91 36.37 31.59 19.04 26.84 30.04 36.61 34.99 35.01 34.28 37.80 37.26 36.47 32.93 29.68 33.24 30.55 27.04 25.35 24.34 35.41 41.68 38.48 36.42 36.89 37.54 30.65 23.96 25.45 27.72
43.52 43.90 44.02 44.73 44.77 45.62 45.17 45.03 45.24 45.68 46.16 46.37 45.00 37.79 37.36 38.49 40.57 38.40 32.99 22.32 21.62 27.01 32.91 30.87 32.62 31.50 31.51 34.90 33.99 35.46 32.47 30.99 33.44 32.93 27.27 26.70 29.17 36.70 41.36 42.05 40.93 37.66 33.90 39.39 33.05 34.31 28.53
42.62 43.39 44.06 44.40 44.59 44.27 44.93 45.02 44.98 45.02 45.74 45.59 36.35 34.46 34.21 38.68 40.36 37.56 29.81 22.47 25.61 32.65 32.35 31.14 26.79 31.36 27.12 30.26 30.62 30.66 33.09 37.46 38.16 36.43 35.85 33.27 27.87 35.76 38.80 41.26 41.44 39.02 41.77 33.33 34.93 27.36 24.73
42.71 43.07 42.93 44.04 44.38 44.32 44.35 45.02 44.93 44.84 45.19 44.60 33.45 28.86 34.69 39.48 39.82 34.28 22.56 23.32 28.28 33.02 33.68 30.66 29.69 29.30 31.18 29.69 31.18 31.41 34.76 38.83 40.21 39.94 37.69 36.34 33.41 31.23 37.26 35.46 35.23 37.52 36.91 36.22 36.71 35.06 28.09
43.11 42.66 42.94 43.76 44.14 44.36 44.41 44.55 44.88 44.68 44.63 39.28 31.16 20.08 34.86 40.69 29.57 27.64 22.52 27.95 33.17 31.50 34.55 32.25 32.89 32.10 30.98 31.54 29.98 32.04 32.15 37.21 41.07 40.54 37.01 38.59 35.95 30.06 33.11 38.30 41.31 40.04 37.77 38.07 32.24 31.29 34.04
42.59 42.60 43.44 43.82 43.88 43.71 44.09 44.16 44.35 44.41 43.68 34.42 31.08 28.28 35.38 35.14 15.18 26.27 28.16 29.19 31.23 30.04 30.02 30.80 30.58 33.25 35.08 30.59 26.75 32.66 33.84 41.05 40.45 37.30 34.52 35.69 32.29 27.49 28.99 33.70 38.75 36.92 39.02 39.12 38.51 37.40 32.54
42.66 42.97 42.64 42.60 43.13 43.54 43.69 43.98 44.31 44.17 43.77 37.52 33.42 20.72 25.18 30.42 30.19 27.08 25.12 27.30 26.50 33.47 32.55 33.61 31.96 33.18 31.07 30.16 33.57 30.52 33.05 39.07 40.98 39.53 42.05 38.99 33.07 30.12 25.30 31.31 36.17 34.08 35.76 39.16 38.22 33.09 32.78
42.98 42.62 42.70 42.83 43.23 43.51 43.56 43.64 43.56 43.86 43.43 38.27 33.12 25.63 27.24 14.39 26.62 27.53 28.34 28.51 27.50 27.37 33.13 33.58 30.16 31.11 30.61 28.38 29.58 28.75 33.89 36.29 39.43 41.51 38.10 34.31 28.26 32.59 33.48 34.18 34.72 35.39 34.82 37.15 36.51 37.03 33.83
42.62 42.49 42.89 43.67 43.43 43.55 43.53 43.70 43.95 43.67 43.25 37.51 28.74 25.17 28.09 27.15 29.39 27.38 28.09 26.92 26.44 26.97 28.44 29.70 29.20 31.76 32.28 30.13 31.38 29.51 33.75 33.40 33.38 37.25 35.86 36.73 28.45 31.11 29.29 34.30 32.91 30.82 34.35 37.45 38.24 37.96 38.25
42.74 43.05 43.35 43.50 43.67 43.98 43.89 43.56 43.63 43.70 42.16 35.74 36.77 35.85 28.53 25.52 25.50 24.06 24.83 26.00 27.27 29.38 30.52 32.71 31.60 31.10 29.88 31.76 35.84 37.01 36.85 36.34 35.90 33.78 33.25 33.91 31.39 28.37 25.32 30.86 29.67 26.79 33.37 35.01 38.59 38.95 38.18
43.47 43.40 43.35 43.37 43.50 43.65 43.53 43.87 43.98 43.82 42.05 38.46 34.55 33.27 27.52 19.90 24.92 24.78 26.90 27.89 27.49 29.40 27.65 31.96 33.61 32.42 36.34 39.47 38.75 37.74 37.03 36.98 36.18 35.57 36.54 32.00 30.06 28.37 24.72 27.34 18.40 31.36 37.54 39.13 37.34 40.31 41.94
42.70 43.01 43.13 43.26 43.28 43.46 43.48 43.50 43.79 43.75 43.58 35.84 37.55 35.31 29.94 21.25 25.67 26.79 28.11 27.88 29.06 29.81 29.56 31.44 35.13 37.72 40.59 37.98 31.24 28.58 27.09 28.88 31.17 34.88 34.60 35.00 30.26 24.96 21.46 22.39 27.26 31.05 37.75 36.89 35.36 35.99 41.58
42.93 43.17 43.36 43.55 43.35 43.58 44.04 43.79 43.72 43.77 43.74 36.64 36.08 39.92 35.14 24.91 23.08 29.02 26.19 27.76 26.28 26.99 27.58 31.79 37.92 37.96 39.58 32.39 28.13 23.16 20.99 25.66 26.07 29.48 34.77 34.15 31.91 26.62 25.22 21.63 17.60 29.31 38.24 42.80 41.32 31.85 41.48
42.73 42.15 42.22 42.30 42.83 43.47 43.97 43.65 43.50 43.69 43.73 37.12 34.50 38.39 36.43 29.10 29.97 29.72 25.93 24.98 30.75 29.39 26.54 31.66 31.34 33.82 36.66 28.07 25.34 23.28 24.24 29.30 23.62 25.63 26.54 27.02 26.84 25.64 24.52 22.05 25.89 34.79 39.50 41.92 29.20 32.88 40.84
41.86 42.41 42.48 42.76 43.14 43.43 43.39 43.61 43.82 43.81 43.70 39.75 36.50 38.26 35.33 30.87 30.58 33.93 33.64 29.01 30.62 29.97 24.04 28.86 28.49 30.01 30.25 24.68 25.79 26.32 23.33 27.34 26.08 27.83 26.44 26.59 24.91 23.54 25.74 23.50 20.22 37.17 39.22 33.17 38.14 41.51 40.70
42.31 41.94 42.11 43.08 43.59 43.46 43.59 44.11 43.90 44.02 44.07 43.25 36.06 39.58 38.09 33.54 30.74 35.48 35.73 36.01 35.14 34.50 31.43 32.31 31.50 31.22 32.32 30.60 29.87 29.20 24.67 23.10 26.52 22.31 33.88 22.21 31.68 28.12 28.31 27.28 36.29 37.36 36.42 39.89 42.22 41.23 40.89

GFSGBSN_sfc_wetblb_072.txt.gz
Wetbulb
50.94 50.58 50.53 50.43 50.79 51.35 51.40 51.20 50.95 50.83 50.80 50.76 50.92 51.11 51.26 51.09 50.90 50.52 50.39 50.72 49.62 49.89 50.36 50.94 51.28 51.89 48.74 39.86 38.82 44.76 53.22 51.21 53.71 54.08 50.70 48.88 43.93 40.46 35.16 36.28 38.11 38.80 40.59 43.22 43.97 44.02 43.53
50.81 50.93 51.14 51.12 51.38 51.14 51.13 51.16 51.06 50.84 50.65 50.63 50.98 50.89 50.96 50.81 50.20 49.80 49.53 50.19 50.34 49.89 50.25 50.98 51.61 51.40 45.08 34.76 46.47 47.47 47.62 46.94 46.41 50.30 49.58 48.49 45.08 44.11 40.06 38.62 37.42 40.61 41.09 42.10 43.89 44.45 45.00
51.12 51.03 50.93 51.45 50.21 50.30 50.73 50.99 51.30 50.85 50.73 50.72 50.60 50.36 50.36 50.15 49.72 49.42 49.35 50.19 50.32 50.53 50.87 51.77 52.22 49.66 44.77 40.39 48.25 48.09 48.08 46.38 45.88 46.27 43.88 45.03 46.01 40.17 39.28 36.83 42.09 42.58 38.34 40.77 41.54 41.72 42.25
50.68 50.51 50.91 50.79 50.84 51.11 50.79 50.73 50.94 50.60 50.94 51.17 50.58 50.23 50.34 49.68 49.57 49.75 50.03 49.90 50.39 51.36 52.61 53.40 52.38 48.60 42.08 50.57 49.36 47.94 47.58 46.99 47.59 47.26 46.20 47.00 45.84 42.28 39.22 40.40 40.92 38.48 37.72 33.46 39.96 41.22 42.27
51.00 50.04 49.60 49.66 49.70 49.57 49.92 50.07 50.14 50.01 50.10 50.28 50.27 50.04 50.13 50.29 50.19 49.87 49.41 49.63 50.54 52.21 52.96 52.75 47.79 46.00 39.59 52.60 48.50 50.83 48.86 46.03 46.08 45.62 45.57 48.69 44.80 40.59 39.15 34.45 32.17 34.23 31.01 33.30 36.34 41.93 41.32
50.36 49.59 48.89 49.16 49.73 49.32 49.32 49.32 49.29 49.38 49.29 49.51 49.72 49.42 49.42 49.91 49.75 49.29 49.11 49.56 50.03 51.25 51.29 51.30 49.33 42.07 44.77 44.16 48.75 48.51 47.06 47.66 44.46 46.17 45.01 43.58 39.80 34.94 33.41 32.91 26.09 29.00 31.45 31.08 31.89 36.77 37.91
49.67 49.73 49.60 48.94 48.90 49.10 49.20 49.28 49.22 48.82 48.82 48.99 48.84 48.69 48.69 48.91 49.11 49.02 45.28 43.63 38.05 38.03 39.85 37.93 39.46 42.63 42.99 47.86 48.94 45.78 46.98 45.34 47.42 44.08 36.64 40.31 34.77 31.27 33.33 33.52 35.21 34.91 33.19 32.24 34.01 39.84 38.34
49.08 49.17 49.04 48.87 48.93 49.40 50.22 49.77 49.29 48.86 48.38 48.28 48.22 48.29 48.42 48.66 48.50 47.08 42.40 39.61 38.38 38.36 32.36 40.42 41.18 41.79 44.93 45.90 40.24 44.42 45.97 40.22 41.97 36.21 40.48 37.58 33.11 37.22 38.05 36.78 34.38 33.23 30.67 29.95 35.16 40.03 39.26
48.10 47.77 48.36 48.64 48.28 48.47 48.79 49.18 48.69 48.17 48.06 48.07 47.97 48.14 48.39 48.06 47.12 40.88 38.39 38.65 41.87 40.08 34.91 37.94 40.75 40.34 42.16 43.61 38.65 39.70 42.56 41.34 40.55 36.46 38.54 33.73 36.51 41.79 39.17 36.82 34.44 33.91 31.54 31.50 32.05 37.00 38.49
48.25 48.16 47.83 48.11 47.71 47.67 47.74 47.96 47.98 47.94 47.77 47.74 47.82 47.92 48.54 48.34 39.52 37.92 37.36 41.08 40.78 39.99 28.68 31.41 38.26 41.42 43.11 43.21 36.57 44.04 44.16 43.30 40.95 36.66 38.53 37.42 40.73 39.86 38.29 37.05 36.73 31.01 37.25 36.12 34.78 32.69 26.42
47.27 46.56 46.17 45.84 45.98 46.62 46.62 46.74 46.89 47.16 47.21 47.39 47.36 47.60 47.68 45.64 37.11 34.48 38.36 40.41 41.07 40.62 16.41 34.16 40.04 47.28 43.57 39.06 40.57 40.25 44.15 42.07 38.26 38.09 39.00 34.69 37.37 37.54 36.93 37.29 39.53 35.57 40.25 39.29 38.33 33.89 30.86
46.27 45.64 44.95 44.76 44.75 45.27 46.29 46.24 46.19 46.15 46.36 46.46 47.06 47.12 47.01 41.30 37.16 37.47 38.88 38.98 39.69 23.07 17.44 30.77 40.08 38.72 38.17 39.93 39.38 39.22 39.23 41.47 40.71 37.74 38.72 37.62 40.64 40.16 38.67 40.35 40.70 41.13 39.00 39.01 36.96 33.65 27.03
45.66 44.94 44.59 44.80 45.04 45.46 45.32 45.82 45.71 45.93 46.06 46.02 46.48 46.71 44.63 42.63 33.29 38.52 37.83 36.34 21.12 16.16 30.47 30.45 32.35 35.13 34.13 36.25 37.67 36.57 34.70 33.06 29.89 27.07 26.81 30.63 32.76 38.56 41.26 35.91 39.44 38.14 36.15 27.91 26.13 25.94 25.51
44.68 44.08 43.92 44.99 44.94 45.48 45.66 45.39 45.14 45.30 45.80 45.96 46.20 45.57 41.52 41.43 38.32 38.14 35.12 27.64 16.24 24.89 26.93 34.03 32.01 32.68 31.17 35.39 35.54 35.71 32.25 29.49 32.46 30.04 26.57 24.57 24.43 33.64 40.06 36.61 33.90 35.49 35.43 27.38 23.04 23.49 26.46
44.13 43.18 43.33 43.54 44.17 45.00 44.68 44.77 44.65 44.77 45.45 45.80 43.96 36.23 35.04 37.08 38.59 36.91 29.40 14.31 20.25 24.21 29.80 27.84 29.29 28.51 29.27 32.35 31.88 33.11 31.41 30.14 32.40 33.12 27.38 25.27 27.50 34.74 39.67 40.08 38.55 35.44 33.92 38.67 33.33 34.59 29.15
42.47 42.69 43.23 43.18 44.03 43.51 43.58 44.18 44.66 44.46 45.00 44.73 34.91 32.10 32.59 38.08 38.52 34.83 23.25 21.03 23.86 30.07 30.62 29.49 23.76 29.90 25.73 29.20 29.11 28.73 30.85 35.42 35.00 34.56 34.91 31.65 26.66 33.92 37.85 40.52 40.43 38.39 41.03 32.78 33.18 26.53 23.96
43.16 42.20 42.22 42.49 43.56 43.68 43.97 44.07 44.41 44.59 44.72 43.54 32.34 27.42 33.56 38.66 37.65 28.47 14.69 22.09 26.24 31.19 31.74 28.01 27.12 26.16 28.15 27.82 29.71 28.86 30.95 36.91 39.09 38.18 35.22 33.35 32.00 30.88 37.06 34.44 33.74 35.92 35.10 35.69 35.82 33.23 28.85
43.87 41.94 41.84 42.15 43.23 43.40 43.49 43.93 44.18 44.14 43.76 38.40 29.51 18.32 33.43 38.43 24.36 24.87 18.26 26.50 31.50 29.64 31.88 29.56 30.79 29.39 27.52 29.44 28.82 29.33 30.55 33.99 40.57 40.17 36.45 37.81 35.36 29.22 31.71 37.28 39.61 38.98 36.69 36.31 31.82 31.37 34.15
44.45 42.41 42.13 42.71 43.30 42.94 43.01 43.42 43.56 43.78 43.05 33.15 28.43 28.17 34.42 32.75 10.44 18.09 28.08 28.69 30.35 29.00 29.12 29.08 28.84 30.46 31.65 28.30 25.50 30.84 32.85 37.62 39.25 38.79 36.54 36.70 32.95 27.75 28.75 32.71 37.81 35.72 38.05 38.31 36.94 34.95 32.50
44.24 42.36 42.18 42.44 42.15 42.71 42.67 42.86 43.22 43.68 43.98 35.19 28.46 19.99 24.39 29.20 27.28 22.12 21.51 24.43 25.89 32.74 30.21 31.76 30.71 31.90 29.61 27.59 31.37 28.88 30.39 35.36 39.30 38.93 42.21 38.67 32.20 28.62 24.88 27.87 34.54 32.07 34.56 36.50 35.05 32.22 31.60
42.06 42.81 42.89 42.25 42.22 42.87 42.97 42.87 42.86 43.02 43.68 34.96 31.17 24.26 26.26 14.56 23.33 27.00 26.98 26.82 24.65 26.41 31.75 31.76 29.65 30.52 29.60 26.41 27.56 27.36 31.92 33.93 37.44 39.59 37.02 33.88 28.40 31.43 31.67 32.89 33.63 33.19 33.15 34.22 33.82 34.84 32.42
42.05 42.86 42.10 42.31 43.33 43.09 43.06 43.14 43.34 43.19 43.42 33.84 29.57 25.92 29.28 26.93 27.45 24.82 25.53 25.28 25.31 26.58 26.99 25.62 27.21 29.18 29.27 27.99 28.74 28.97 31.41 32.63 32.92 37.48 36.28 36.38 29.43 30.16 28.21 32.14 31.06 29.31 30.46 31.40 33.68 36.88 36.78
42.54 42.08 42.41 43.04 43.43 43.46 43.56 43.58 43.34 43.33 41.04 34.20 36.64 36.01 29.12 26.19 25.29 22.68 23.06 25.27 25.05 27.58 29.69 31.31 30.44 28.26 27.41 30.27 33.32 33.93 36.50 37.16 35.83 34.28 32.61 32.55 30.19 27.43 24.84 28.41 28.09 24.45 30.08 30.54 33.44 38.90 38.09
41.90 42.42 43.34 43.51 43.46 43.44 43.31 43.48 43.68 43.61 40.49 33.93 34.89 35.38 25.85 19.85 24.91 24.52 25.84 26.26 26.08 27.50 25.98 29.38 30.67 30.80 34.69 38.49 37.53 35.71 35.82 36.35 36.33 35.68 35.30 30.77 29.56 28.17 24.94 26.46 16.56 28.55 35.14 36.19 36.42 38.39 40.58
42.61 43.39 43.44 43.19 43.38 43.44 43.26 43.34 43.49 43.60 42.84 34.50 36.48 35.43 26.85 17.66 25.34 25.22 25.84 26.54 26.92 28.04 27.67 28.77 32.66 36.33 36.48 35.35 32.24 27.95 26.77 29.75 30.32 33.04 33.36 33.72 29.40 24.63 20.84 21.77 25.43 28.67 35.12 34.84 34.42 33.54 40.06
42.69 42.68 42.83 42.91 43.26 43.65 43.38 43.39 43.39 43.51 43.33 36.06 34.09 39.44 34.94 24.28 21.48 27.85 25.80 26.37 24.14 23.98 26.07 28.61 35.50 36.58 38.01 32.62 30.49 23.15 20.59 25.27 24.77 27.58 34.28 32.24 31.01 26.25 24.94 20.29 15.33 27.15 35.48 38.84 38.66 28.71 39.35
42.81 42.73 43.05 42.90 42.51 42.97 42.95 43.47 43.62 43.57 43.29 36.46 33.97 36.67 34.89 27.38 29.01 29.01 25.17 24.71 28.76 26.36 23.33 27.95 29.95 32.43 33.69 29.52 26.71 23.67 22.51 27.73 22.90 24.56 26.25 26.96 27.41 25.24 23.99 20.65 25.00 32.24 36.33 39.29 26.55 28.69 37.36
42.70 42.81 42.31 42.24 42.42 42.59 42.74 43.04 43.06 43.31 43.46 39.23 36.35 36.84 32.94 29.29 29.94 32.10 32.34 28.33 27.78 27.84 18.71 24.72 25.79 28.42 27.57 26.10 26.07 25.99 22.11 25.96 25.73 27.35 26.17 25.66 24.14 23.72 26.42 23.65 19.86 35.41 36.55 30.47 35.84 38.21 36.88
42.91 42.06 42.09 42.42 42.35 42.73 42.88 43.19 43.35 43.62 43.78 42.70 36.27 39.43 36.93 32.65 28.21 34.53 34.89 35.33 34.18 32.71 28.65 28.78 26.96 30.38 31.19 27.61 28.25 29.48 26.18 25.35 26.43 22.12 32.21 21.94 28.51 27.51 28.47 27.00 35.26 35.80 34.44 36.23 41.02 39.75 37.27

GFSGBSN_sfc_wetblb_075.txt.gz
Wetbulb
52.12 51.35 50.98 50.80 50.59 50.91 51.15 51.19 50.90 50.85 50.80 50.66 51.00 51.01 50.98 50.89 50.94 50.55 50.31 50.52 49.84 49.81 50.24 50.84 51.18 51.55 49.21 41.17 41.14 46.74 51.82 51.40 56.73 54.26 50.93 49.69 44.67 42.26 39.67 39.95 40.90 40.96 42.40 44.64 45.98 46.45 46.60
51.68 51.03 51.13 51.55 51.28 51.30 50.49 50.40 50.76 50.80 50.90 51.01 51.06 50.73 50.62 50.63 50.57 50.07 49.96 50.58 50.51 49.92 50.64 51.53 51.60 50.95 45.48 36.25 47.78 48.14 48.80 49.12 49.61 53.03 51.24 50.59 47.87 47.06 43.54 41.62 40.63 42.67 43.07 43.54 45.05 45.36 46.25
51.51 51.49 51.91 52.26 51.30 50.36 50.44 50.60 50.97 50.75 50.84 50.96 51.05 50.83 50.73 50.47 50.22 49.92 49.71 50.33 50.37 50.37 51.15 52.51 52.06 49.30 44.02 41.40 49.83 50.27 49.51 49.03 48.32 50.92 48.27 49.85 49.92 43.89 43.49 39.88 43.71 43.34 40.37 43.34 43.92 44.65 44.46
51.62 51.23 51.40 51.40 50.78 50.50 50.60 50.46 50.80 50.54 50.31 50.03 50.20 50.30 50.13 50.01 49.67 49.82 50.27 50.14 50.34 50.60 53.17 53.65 52.64 48.09 41.00 50.93 51.35 49.28 49.08 48.57 49.42 48.80 47.73 48.76 48.15 45.23 42.79 43.95 41.68 40.10 40.94 36.57 43.03 43.90 45.43
51.45 51.26 50.21 49.78 49.58 49.60 49.31 49.46 49.40 49.37 49.40 49.21 49.30 49.30 49.04 49.72 49.94 49.97 49.71 50.03 50.36 51.95 53.01 52.62 48.17 45.40 39.53 52.63 48.31 51.65 50.91 46.74 47.08 47.19 47.11 48.49 46.94 43.59 41.55 37.62 35.64 37.19 33.59 36.02 38.97 45.16 44.40
52.00 50.82 49.95 49.18 49.48 49.47 48.76 48.62 48.52 48.56 49.00 48.91 48.78 48.48 48.54 48.83 49.54 49.12 49.29 48.76 49.64 52.26 51.55 51.29 48.86 41.53 44.12 44.09 49.32 49.52 49.82 48.70 45.65 45.76 46.00 45.39 42.91 38.53 36.55 35.94 29.55 32.12 33.51 36.05 36.22 42.22 43.11
51.18 50.40 50.00 49.30 49.05 48.86 48.92 48.86 49.00 48.82 48.35 48.52 48.50 48.31 48.24 48.40 48.60 48.97 45.19 42.75 38.36 38.52 39.02 37.57 39.70 41.92 41.54 45.93 49.40 47.04 48.18 46.66 48.61 45.35 37.91 42.08 37.11 33.62 35.79 36.84 37.72 36.60 34.99 34.00 37.38 41.24 39.96
50.31 49.87 49.17 49.78 49.15 49.06 49.62 49.68 48.85 48.41 48.09 48.05 47.94 48.01 48.02 48.24 47.89 46.24 43.19 37.74 36.57 37.18 32.04 39.41 39.06 39.61 42.73 44.52 38.93 43.61 47.56 41.85 43.28 38.15 42.02 39.32 34.63 39.44 39.80 38.35 36.22 35.78 33.81 33.72 37.33 39.73 39.21
49.71 49.15 49.30 49.04 48.74 48.34 48.19 48.48 48.22 47.94 47.84 47.85 47.56 47.81 47.78 47.55 45.55 40.95 39.20 37.71 41.97 40.08 33.04 36.89 41.40 40.37 41.91 43.32 38.80 39.85 43.28 41.78 41.08 37.51 39.05 35.40 37.74 41.78 39.51 38.88 36.75 36.82 34.77 35.21 34.70 38.75 40.67
48.96 49.01 48.55 48.78 48.33 47.90 47.46 47.52 47.47 47.31 47.28 47.30 47.21 47.41 47.59 46.53 39.66 38.84 38.43 40.98 41.23 40.33 30.06 31.97 38.67 42.43 43.23 43.06 37.50 44.45 44.78 42.94 41.52 36.56 38.97 38.24 41.34 39.75 39.29 37.85 39.00 33.58 39.32 37.95 36.75 35.18 30.49
48.32 47.43 47.01 46.81 46.77 46.58 46.54 46.59 46.50 46.16 46.28 46.32 46.82 47.20 47.29 45.28 38.71 35.78 38.80 40.82 41.31 40.73 20.61 33.76 40.18 47.73 43.81 39.85 41.48 40.82 45.31 43.34 38.37 38.92 39.68 35.56 38.72 38.79 37.16 37.78 40.92 36.67 41.10 39.08 38.85 36.88 35.74
47.38 46.84 45.98 45.39 45.07 45.08 45.95 46.06 45.77 45.85 45.94 45.90 46.43 46.77 46.86 41.92 39.23 39.37 39.78 39.61 40.71 26.39 20.57 30.39 39.28 37.07 36.77 40.37 40.37 40.70 41.41 43.25 43.60 40.27 40.73 39.27 42.71 41.63 40.48 41.52 41.74 42.36 39.53 39.37 38.94 36.71 29.36
46.39 45.81 45.30 45.18 45.11 45.27 45.10 45.53 45.71 45.47 45.74 45.85 46.11 46.03 44.29 43.10 35.68 39.78 39.47 37.71 24.99 21.40 30.74 29.41 31.19 33.09 33.22 34.14 38.28 38.07 36.90 35.40 33.32 29.82 30.06 33.43 35.07 40.89 42.51 37.82 41.01 39.45 35.56 29.50 27.41 27.59 27.32
45.76 45.07 45.11 45.50 45.38 45.81 45.92 45.31 44.82 44.97 45.29 45.69 45.71 44.18 40.94 41.44 39.78 39.45 37.40 28.91 20.67 25.02 26.30 32.41 30.67 31.20 32.05 34.61 34.85 35.76 34.38 33.08 35.32 33.42 30.08 28.11 27.87 34.75 40.61 37.63 34.87 36.68 35.55 30.14 23.46 25.67 29.52
45.12 44.39 43.60 44.17 44.70 45.16 44.97 44.71 44.52 44.42 44.90 45.17 43.39 37.16 36.60 38.65 40.68 38.35 30.34 19.02 21.92 25.81 28.48 27.41 29.10 29.20 29.52 32.93 32.55 32.96 33.74 32.50 34.83 35.33 30.80 28.13 29.17 36.97 40.37 41.40 39.88 36.45 33.62 39.03 33.87 33.40 29.45
43.92 43.99 43.50 43.27 44.55 43.62 43.37 43.93 44.19 44.25 44.71 44.37 35.95 33.67 34.69 38.92 40.42 35.33 25.02 22.05 24.12 29.96 30.09 29.70 23.49 29.49 26.09 26.54 29.27 29.84 31.25 37.55 36.87 36.10 37.56 34.32 28.73 36.11 39.73 42.54 41.98 39.33 41.13 33.62 34.25 24.73 24.84
43.55 42.96 42.11 42.53 43.50 43.79 43.69 43.89 44.12 44.24 44.03 42.98 33.33 29.81 37.34 39.18 38.56 29.83 19.05 22.38 26.33 31.14 32.34 27.64 26.48 24.91 26.05 24.39 28.10 28.00 31.46 36.63 37.23 39.33 37.24 36.07 34.17 32.75 39.29 36.89 35.64 36.77 35.49 36.25 35.40 33.67 28.07
43.99 42.84 41.94 42.10 43.15 43.62 43.49 43.74 43.94 44.10 43.19 37.66 31.58 22.72 35.21 37.95 27.18 26.29 23.78 26.90 31.07 29.65 31.60 29.34 30.36 28.52 27.17 28.03 28.23 29.36 30.08 34.24 38.44 38.56 36.54 39.37 35.87 29.90 32.58 39.04 41.47 40.04 37.13 36.98 30.82 30.32 33.96
44.59 42.91 42.80 42.66 43.22 43.29 43.09 43.26 43.66 43.98 42.06 34.40 28.71 28.51 35.76 34.81 18.93 22.91 27.57 28.20 30.08 28.78 29.18 28.98 28.33 30.68 31.54 27.57 24.45 28.81 32.42 37.66 38.74 36.25 35.70 38.42 34.17 28.99 30.19 35.90 38.97 35.92 37.70 38.29 37.28 34.80 31.40
45.07 43.23 42.64 43.01 42.23 43.02 42.84 42.81 43.34 43.76 43.18 35.50 28.24 20.22 27.43 32.16 27.92 25.24 22.43 24.28 25.06 32.63 30.79 32.05 30.12 31.61 29.52 27.62 30.46 27.32 30.62 35.53 37.89 37.09 40.02 39.46 33.69 30.77 26.20 29.25 34.27 32.08 34.59 36.18 35.31 29.67 30.02
43.54 43.17 42.65 42.81 41.99 42.54 42.58 42.69 43.06 43.51 43.54 35.79 29.00 24.10 27.82 21.64 27.10 27.00 26.81 26.32 24.72 25.07 30.33 31.21 30.38 28.50 27.06 26.08 27.43 27.56 30.88 33.33 36.57 37.09 37.73 36.38 29.30 32.32 33.58 34.36 34.38 32.69 32.80 33.52 31.88 34.37 31.09
41.91 42.58 43.19 42.44 42.37 42.97 42.76 43.02 43.09 43.28 42.94 34.66 28.74 26.82 29.89 27.84 28.01 26.26 25.62 23.93 24.26 25.97 26.45 25.45 26.74 28.19 27.13 26.69 27.78 26.97 29.97 31.21 32.62 36.03 35.43 37.66 30.72 32.83 29.90 34.02 31.97 29.94 32.57 33.26 33.84 33.94 35.15
42.67 42.17 42.69 42.41 42.84 43.28 43.17 43.17 43.24 43.63 40.61 34.80 35.87 34.95 30.64 26.95 26.16 24.32 24.25 25.01 24.76 27.26 29.18 30.44 29.59 26.76 26.04 30.43 33.96 34.82 35.08 34.96 35.34 34.28 33.32 33.29 32.07 30.19 25.59 30.67 30.26 26.47 30.87 31.88 34.11 37.35 38.16
43.26 42.80 42.31 42.64 43.54 43.29 43.39 43.34 43.43 43.80 39.70 34.68 34.26 34.60 29.14 22.34 25.43 24.96 25.99 26.49 25.67 26.97 26.08 28.94 30.87 28.06 33.30 37.82 36.23 36.02 35.07 34.94 35.62 35.46 36.55 33.23 31.98 30.88 26.95 28.39 18.60 30.71 36.41 36.83 36.97 39.09 39.81
42.66 41.87 42.35 43.37 43.83 43.43 43.41 43.36 43.13 43.66 42.26 35.93 35.37 34.02 27.79 20.99 26.14 25.84 26.07 26.36 28.03 28.59 27.64 28.83 32.36 35.10 37.12 34.37 29.84 27.45 28.83 29.91 32.18 34.44 34.82 35.98 32.74 28.46 24.54 24.51 27.77 30.79 35.08 34.09 34.65 34.63 39.90
42.10 42.68 43.23 43.43 43.19 43.53 43.48 43.29 43.44 43.56 43.33 37.05 35.95 39.62 34.22 25.62 23.70 28.44 26.23 27.05 24.75 25.64 26.54 29.23 34.34 37.16 35.90 32.40 29.72 23.37 21.25 25.39 25.94 29.29 35.03 33.78 33.82 30.48 26.15 21.60 18.39 29.70 36.07 38.96 39.19 29.23 38.75
41.69 42.15 42.73 42.69 43.19 43.14 43.35 43.47 43.39 43.41 43.34 37.51 36.01 38.00 35.27 27.95 30.25 30.35 26.71 26.64 29.91 27.94 25.38 27.06 29.82 30.97 33.98 27.57 25.87 25.45 24.41 29.40 24.35 25.42 27.74 29.29 29.76 27.19 26.72 24.35 27.70 33.59 36.71 39.41 26.43 29.37 37.45
41.73 42.56 42.74 42.89 42.97 42.72 42.51 42.61 42.74 43.24 43.34 38.75 36.23 37.31 33.88 29.25 29.32 32.90 33.13 29.62 30.23 28.95 24.64 27.83 26.90 28.82 28.73 24.51 26.35 27.12 26.10 27.85 27.44 29.31 28.61 28.02 26.45 25.88 26.99 23.90 20.91 35.93 37.31 30.92 35.07 37.84 35.90
41.73 42.51 42.80 42.74 42.83 42.68 42.60 42.90 43.30 43.42 43.17 41.29 34.93 38.69 37.89 33.32 30.16 35.46 35.68 36.04 34.25 33.90 31.10 30.97 28.63 28.35 31.01 27.87 27.85 28.04 27.59 29.59 27.56 24.50 33.37 27.48 31.15 29.91 30.00 29.42 35.67 36.02 34.58 34.59 39.51 37.82 36.00

GFSGBSN_sfc_wetblb_078.txt.gz
Wetbulb
53.60 52.98 52.46 51.80 51.40 51.51 51.55 51.31 50.87 50.64 50.52 50.80 51.02 51.09 51.05 51.20 51.20 50.77 50.53 50.25 50.40 50.17 50.52 51.41 51.92 51.95 51.09 45.26 45.14 49.76 51.78 53.89 56.18 54.81 52.50 50.60 47.93 46.80 43.69 44.66 45.72 44.36 45.67 46.97 48.03 48.29 47.73
53.20 52.67 52.09 51.97 51.78 51.94 51.76 50.76 50.46 50.65 50.58 50.87 51.10 51.02 50.95 50.93 50.78 50.42 50.08 50.14 50.10 50.22 50.71 51.54 51.90 51.75 48.36 39.80 50.86 50.97 50.95 50.94 52.34 53.71 52.27 53.57 50.17 50.60 47.27 46.09 44.39 46.12 46.21 46.84 47.84 47.75 48.27
53.03 52.16 51.97 52.20 51.97 52.12 50.95 50.74 50.56 50.68 50.31 50.19 50.08 50.38 50.56 50.31 49.86 49.61 49.71 49.86 50.31 50.40 51.11 52.60 53.19 51.13 46.88 44.88 52.13 52.91 52.30 50.43 51.83 52.11 50.20 53.09 53.31 49.08 47.82 44.86 47.61 45.77 42.63 45.41 46.79 47.76 47.22
52.63 52.15 52.45 52.30 52.16 51.20 51.10 50.76 50.40 49.58 49.50 49.07 49.33 49.24 49.13 49.15 49.15 49.28 49.35 49.85 50.30 50.61 52.48 53.65 53.27 50.43 45.17 52.10 55.07 53.24 53.57 51.88 53.80 52.38 51.31 51.91 52.93 49.15 46.62 47.46 44.37 41.80 42.71 38.98 45.06 47.03 48.22
52.37 52.12 51.98 51.92 50.97 50.23 49.99 49.61 49.19 48.97 48.66 48.72 48.85 48.70 48.74 48.77 49.41 49.56 49.61 49.51 49.86 52.58 53.25 53.29 51.19 48.54 43.63 53.25 50.62 53.79 54.31 49.91 50.87 52.08 51.07 50.35 49.49 46.76 45.32 40.96 39.13 40.43 36.21 38.63 41.64 47.01 46.41
52.41 51.92 51.23 50.69 50.43 50.48 49.83 49.09 48.91 48.66 48.39 48.35 48.53 48.46 48.51 48.55 49.24 49.38 49.15 48.62 50.21 53.02 52.79 52.95 49.60 43.00 48.05 46.09 51.18 52.09 53.83 51.61 48.51 47.86 46.44 46.02 45.76 41.95 41.27 38.58 32.57 36.69 37.42 39.47 38.70 43.09 43.88
52.46 51.91 51.03 50.30 50.53 49.96 49.38 49.25 49.19 49.02 47.91 48.13 48.35 48.22 48.40 48.36 48.23 48.33 48.73 49.57 45.78 44.49 44.11 41.31 41.71 43.64 44.19 47.66 50.47 49.04 50.74 49.52 48.77 46.38 41.19 43.77 39.60 36.86 37.90 40.55 40.97 39.66 36.42 36.22 39.24 42.42 41.23
52.55 51.22 50.84 50.29 49.85 50.25 50.20 50.20 49.27 48.22 47.64 47.80 47.62 47.75 48.17 48.03 47.37 46.45 48.24 42.56 40.10 40.95 37.00 42.10 42.64 42.64 45.28 46.53 40.40 44.92 50.58 45.41 45.48 41.31 43.88 41.57 37.33 41.64 41.99 41.23 39.61 38.83 36.86 36.42 40.22 43.15 42.63
50.81 50.34 50.01 50.44 49.70 49.22 48.74 49.05 48.47 47.73 47.52 47.49 47.34 47.37 47.94 47.68 45.17 47.00 43.31 40.89 44.64 44.30 37.64 40.36 43.76 43.64 44.90 45.75 42.04 43.20 46.34 46.18 43.20 40.99 41.33 38.75 40.37 43.51 42.04 40.26 38.36 39.38 38.41 38.76 38.99 42.19 44.42
49.70 49.74 49.40 49.93 49.43 48.63 48.14 47.99 47.60 47.03 46.54 46.48 46.76 47.24 47.69 46.82 43.22 44.37 42.33 44.40 45.70 45.93 37.24 35.68 42.51 44.82 45.86 45.80 41.91 46.97 47.13 45.06 42.42 39.02 40.63 40.33 42.74 40.39 40.47 39.52 41.19 36.35 41.72 40.28 39.33 39.20 36.21
49.35 48.71 48.84 48.66 48.26 47.44 47.41 46.97 46.59 45.95 45.95 46.19 46.42 46.98 47.15 45.45 44.31 42.71 42.38 46.33 46.69 44.38 26.81 37.93 42.82 49.96 46.39 42.85 44.92 43.89 47.58 43.87 39.15 39.82 40.33 37.53 39.68 39.82 37.61 38.99 42.34 38.19 42.33 40.49 40.75 39.57 39.51
48.22 47.65 47.07 46.71 46.45 46.53 46.74 46.49 45.96 45.68 45.65 45.94 46.24 46.45 46.39 45.38 46.12 43.97 46.25 46.27 46.59 34.19 25.33 34.08 41.17 38.22 39.04 41.96 43.12 44.32 43.90 45.97 46.11 41.66 42.53 40.82 44.56 43.29 42.53 43.47 43.11 43.07 40.36 40.37 41.18 39.74 32.34
47.56 46.65 46.02 45.73 45.49 45.62 45.81 45.90 45.86 45.06 45.17 45.76 46.03 45.93 45.25 45.83 41.02 46.07 46.00 45.12 32.62 27.70 34.23 32.13 33.55 35.59 35.59 37.48 39.80 41.58 40.64 39.80 38.24 34.58 35.42 38.22 39.40 43.46 43.90 39.26 42.37 41.36 36.60 31.00 31.14 29.98 31.34
46.73 45.94 45.80 45.88 45.77 46.47 46.40 45.57 44.77 44.32 44.78 45.28 45.32 43.42 42.98 45.28 46.11 46.50 44.94 36.21 26.32 28.99 29.95 34.87 33.28 34.77 32.92 36.71 37.21 38.62 38.86 37.86 41.13 39.34 36.01 33.30 31.47 37.43 42.57 40.20 36.54 37.67 36.74 31.90 25.66 29.08 33.75
46.08 45.64 44.99 45.37 45.73 45.82 45.53 45.05 44.19 44.13 44.84 45.02 42.45 44.98 45.49 45.52 47.23 46.22 38.45 29.25 28.78 29.58 30.87 30.25 33.39 31.23 32.38 35.11 34.84 36.30 37.19 37.49 39.26 40.88 34.63 33.99 33.64 40.19 42.26 42.68 41.86 38.80 35.60 41.32 34.72 36.32 31.82
45.46 44.74 44.20 44.36 45.09 44.35 44.51 44.52 44.07 44.09 44.47 43.65 42.89 43.21 42.01 45.89 47.54 42.68 36.01 27.38 29.34 32.38 32.64 31.66 26.40 30.67 28.09 31.10 31.46 33.38 34.92 40.28 39.37 41.62 42.48 37.95 32.01 39.27 41.51 43.86 43.03 41.64 43.42 33.29 35.92 27.54 27.54
44.66 43.92 44.15 44.46 44.50 44.06 43.94 44.32 44.25 44.18 44.09 42.58 42.22 38.08 43.06 45.73 45.66 39.36 29.29 27.94 29.28 32.90 33.62 29.41 28.21 27.83 29.00 28.55 30.03 30.70 32.63 38.26 40.57 40.99 43.34 39.93 37.25 36.42 40.98 38.85 37.88 38.66 37.60 37.77 36.35 35.98 30.79
44.22 43.19 43.17 43.33 44.38 44.38 44.25 44.22 44.32 43.97 43.40 41.46 40.05 33.22 42.36 44.33 34.31 35.76 30.48 29.89 31.44 31.74 34.15 31.92 32.09 30.65 28.92 29.84 28.49 29.51 30.25 34.91 41.35 41.41 37.16 40.79 37.41 32.98 36.12 42.10 43.76 42.44 39.38 39.44 33.69 31.27 35.26
44.31 43.22 43.16 43.25 43.96 43.92 44.07 43.99 43.80 43.74 42.36 41.94 36.54 35.44 43.38 41.57 28.97 29.47 30.92 29.86 31.67 31.05 31.93 31.14 30.17 32.30 33.51 30.08 26.20 30.33 31.92 37.29 40.26 38.84 35.85 37.62 35.06 30.78 32.78 38.04 41.65 38.94 39.96 38.08 35.62 35.88 32.58
44.81 43.60 43.36 43.48 43.24 43.83 43.58 43.40 43.60 43.55 42.62 42.65 36.83 30.25 36.55 38.54 36.46 30.80 26.87 26.37 27.98 34.04 32.18 32.29 31.72 33.61 31.00 29.87 33.13 28.90 30.93 36.15 39.47 38.84 38.34 37.47 35.26 34.19 30.30 30.56 38.04 35.73 37.96 39.46 37.01 32.65 33.54
45.34 43.66 43.34 43.31 42.77 43.23 43.23 43.06 43.55 43.28 42.46 42.32 36.69 31.40 34.07 28.11 30.88 31.06 30.95 28.92 26.40 23.61 31.27 33.18 30.81 27.57 27.68 25.27 29.23 29.39 32.39 33.61 36.88 38.84 38.40 34.88 33.26 35.07 34.99 34.00 36.02 35.54 35.62 36.50 35.58 36.34 32.38
44.31 44.06 43.34 43.29 42.54 42.79 43.20 43.36 43.37 43.43 42.16 40.86 32.81 34.21 35.83 32.48 31.09 29.33 28.32 27.56 26.36 28.18 28.76 27.92 27.23 30.87 30.90 26.79 28.45 28.08 31.10 32.44 32.26 36.62 35.39 35.02 32.61 35.44 32.38 33.62 36.15 33.94 36.11 35.71 36.34 37.14 37.14
43.11 43.30 43.82 43.13 42.80 43.40 43.38 43.33 43.60 43.74 42.45 39.68 37.46 37.99 36.96 29.92 29.83 29.63 28.95 27.88 27.23 29.86 31.38 32.77 31.54 30.51 30.07 31.04 34.70 35.76 36.50 35.85 35.21 32.37 33.11 32.69 32.41 32.72 27.95 34.37 33.41 29.64 34.44 35.57 36.19 38.51 39.35
43.22 42.79 43.08 42.88 42.75 43.67 43.60 43.58 43.67 43.94 41.89 42.67 40.01 36.66 34.58 27.73 30.05 29.29 28.31 29.30 28.52 30.10 28.61 32.48 33.51 31.65 34.98 38.97 38.85 38.73 37.38 36.51 36.90 36.68 36.17 32.49 31.59 32.13 29.12 30.79 21.65 34.73 39.32 39.51 37.99 39.75 41.81
43.23 43.60 43.14 42.81 43.33 43.79 43.79 43.69 43.64 44.09 42.40 43.21 42.21 39.64 36.14 29.52 31.16 28.68 28.81 29.21 30.85 32.49 31.10 31.60 34.05 36.98 38.88 36.74 31.90 29.20 30.41 31.46 33.55 36.22 35.68 37.00 34.57 29.54 27.67 27.83 31.12 33.21 37.14 36.74 36.40 36.57 41.92
43.44 43.12 42.61 42.93 43.72 44.13 43.81 43.70 43.65 43.80 42.95 43.08 42.35 43.75 38.41 31.80 29.83 31.01 29.39 30.17 28.94 29.80 30.62 31.70 37.08 39.44 38.55 34.02 29.53 23.37 22.92 27.05 27.00 30.66 36.81 34.62 36.17 31.91 30.06 23.86 20.11 34.64 38.66 41.60 40.95 32.67 41.02
43.03 42.54 42.70 43.23 43.95 43.99 43.74 43.72 43.64 43.55 43.80 43.05 42.01 42.99 38.16 32.61 34.64 33.65 31.20 30.57 33.26 31.64 30.07 32.34 32.76 33.58 36.52 30.49 26.03 25.88 25.49 32.06 26.33 26.98 28.49 30.40 31.70 28.87 29.19 27.32 31.08 37.43 40.09 41.93 28.77 32.21 40.07
42.27 42.62 42.90 43.33 43.62 43.87 43.45 43.61 43.43 43.67 43.80 42.95 41.37 43.52 38.55 33.09 34.78 35.19 35.43 32.76 33.36 33.18 29.33 32.70 31.98 32.99 31.29 27.64 26.61 25.76 27.57 30.94 30.81 32.11 30.78 30.05 29.03 29.35 30.16 26.12 23.47 39.43 40.08 34.39 36.38 38.96 38.27
42.46 42.78 43.17 43.22 43.41 43.40 43.15 42.73 42.83 43.21 43.73 43.21 39.55 42.93 42.75 36.05 35.03 38.69 39.08 39.59 38.19 37.87 34.53 34.64 32.00 31.77 33.06 30.25 29.72 29.24 29.40 32.10 30.74 27.61 35.44 29.96 33.36 32.04 33.51 32.53 37.07 37.17 36.33 36.11 37.76 37.08 36.36

GFSGBSN_sfc_wetblb_081.txt.gz
Wetbulb
56.43 55.44 54.05 53.46 52.74 52.49 52.16 52.11 51.94 51.62 51.15 50.99 51.09 51.53 51.47 51.56 51.54 51.28 50.81 50.53 50.47 50.60 50.72 51.40 52.11 52.39 52.42 47.67 47.94 54.53 54.25 54.66 56.78 55.67 53.08 51.81 48.80 47.99 45.21 46.68 47.52 46.36 47.42 49.03 50.08 49.55 49.08
55.91 55.12 54.19 53.21 52.45 52.13 52.31 52.36 51.41 51.17 51.20 50.96 50.62 50.60 50.94 51.15 50.91 50.36 50.08 50.17 50.33 50.40 50.76 51.62 52.15 51.98 50.19 43.19 52.33 52.44 51.26 52.69 54.10 54.66 53.05 52.96 50.52 51.03 48.07 47.36 46.48 47.68 47.68 47.69 48.64 48.30 48.65
54.80 54.46 53.22 52.55 52.18 52.28 52.42 51.48 50.88 51.37 51.21 50.09 49.43 49.89 49.71 49.55 49.48 49.46 49.59 49.80 50.01 50.42 51.07 52.06 53.17 52.78 49.27 47.24 53.56 53.59 52.44 50.83 51.57 52.55 51.69 53.16 53.99 50.73 49.74 46.68 49.66 48.18 44.61 46.22 46.93 47.62 46.80
54.37 53.72 53.02 52.42 52.34 52.63 52.12 51.20 51.27 51.04 50.15 48.76 48.93 49.01 48.94 49.05 49.07 49.18 49.28 49.66 50.02 50.59 52.48 54.06 54.28 53.25 45.94 53.34 54.92 53.19 53.89 52.22 52.55 52.34 51.30 52.45 52.97 51.26 49.09 49.38 46.44 43.59 44.07 40.26 45.74 47.59 48.43
54.04 53.18 52.25 52.50 52.85 51.85 51.54 51.14 50.37 49.94 49.29 48.48 48.50 48.83 48.70 48.81 48.86 49.30 49.30 49.55 50.00 53.08 53.15 53.59 53.02 51.23 46.07 53.12 51.51 54.78 54.85 50.52 51.72 52.52 51.60 51.13 50.27 48.11 47.46 42.79 39.97 41.69 36.51 40.26 42.47 47.59 46.64
53.80 52.62 52.75 52.68 51.83 50.82 50.29 49.98 49.71 49.55 49.01 48.39 48.31 48.35 48.40 48.68 49.26 49.31 49.21 48.89 50.51 52.66 53.21 54.46 52.58 46.86 50.18 47.66 51.26 53.46 55.22 53.39 50.24 49.98 48.13 47.36 46.28 43.67 43.75 41.69 35.12 37.18 39.10 41.33 41.04 44.20 45.80
52.93 52.08 52.17 51.49 50.82 50.78 50.72 50.17 49.84 49.67 48.66 48.15 48.16 48.05 48.22 48.49 48.52 48.82 48.14 50.72 48.71 48.26 48.51 44.74 44.31 45.27 45.62 48.60 49.99 49.51 52.48 50.84 50.49 47.88 42.35 45.56 41.43 39.17 41.29 43.11 42.22 41.19 39.50 38.35 41.48 43.50 42.23
52.02 51.25 50.60 50.73 50.69 50.76 50.34 50.13 50.16 49.29 48.14 47.75 47.70 47.60 47.75 48.24 47.92 47.97 49.68 46.70 43.61 43.92 40.47 45.43 45.25 45.79 48.24 49.35 43.93 46.85 50.55 46.55 46.50 42.73 45.31 43.54 39.17 43.45 44.00 43.10 41.32 39.75 38.36 37.18 41.12 43.79 43.73
51.05 51.13 51.05 50.70 50.50 50.42 50.65 50.42 49.18 48.28 47.41 47.09 46.91 47.17 47.69 47.96 47.46 47.67 45.90 43.88 47.72 47.41 41.88 43.18 47.09 46.97 47.59 48.60 45.31 45.73 47.49 46.94 44.30 42.87 43.42 41.27 43.63 44.91 43.17 41.92 39.40 39.91 38.36 38.67 39.39 43.75 45.13
51.11 50.19 50.07 50.69 50.18 49.39 49.28 48.98 48.37 47.38 46.16 45.87 46.44 47.03 47.51 47.05 43.92 47.81 45.62 46.76 48.54 49.05 39.84 39.42 44.62 47.16 48.58 48.57 45.03 49.43 49.00 46.31 43.84 41.09 42.84 42.59 45.25 43.07 41.45 40.17 41.55 37.32 43.10 42.26 40.82 39.67 36.01
49.57 49.46 49.65 50.21 49.42 48.42 48.19 47.60 47.05 46.00 45.71 45.65 46.09 46.55 46.67 46.89 46.87 45.61 45.46 48.01 49.94 47.66 29.38 39.68 44.59 51.04 46.59 44.49 46.25 46.66 49.29 45.46 41.02 42.07 41.46 39.40 41.58 41.29 39.73 40.05 43.25 40.26 44.02 42.11 41.35 38.13 38.35
48.98 48.79 49.03 48.62 47.90 47.47 47.31 46.90 46.34 45.75 45.56 45.73 46.05 46.31 46.74 47.98 48.16 47.29 48.65 48.75 48.21 38.23 27.90 36.93 42.78 40.64 39.80 43.25 44.01 46.45 46.02 47.85 47.19 43.40 43.42 41.93 46.09 43.50 43.13 44.65 44.39 44.19 41.60 41.45 41.28 38.58 31.90
47.38 47.63 47.11 46.61 46.45 46.59 46.62 46.45 46.08 45.20 45.01 45.48 45.56 45.66 45.33 47.14 45.05 48.85 49.08 47.19 37.25 30.38 36.47 35.29 36.97 38.31 37.52 37.43 39.56 42.22 42.32 42.04 40.05 37.00 38.08 42.07 42.44 45.09 44.91 40.88 43.76 42.14 38.65 31.18 31.31 32.08 31.47
47.55 46.80 46.18 45.85 45.77 45.85 45.87 46.42 45.19 44.29 44.41 45.00 44.93 44.01 44.06 47.65 49.16 49.47 47.29 40.59 29.02 32.99 33.77 37.57 36.31 37.04 34.64 37.40 38.69 39.19 39.12 37.76 42.02 41.18 38.07 35.26 33.57 41.25 44.19 41.90 39.88 39.91 38.34 31.52 25.74 28.33 32.14
46.95 46.20 45.53 45.70 46.10 46.53 45.93 45.12 44.28 44.07 44.55 44.89 43.66 46.20 46.83 47.82 49.52 48.46 41.76 32.86 32.77 34.11 34.55 33.53 35.04 33.15 34.41 36.54 36.60 37.07 37.59 37.49 40.15 42.43 36.69 35.57 35.34 43.12 44.05 44.75 43.52 39.60 36.07 41.12 34.90 36.91 32.60
46.16 45.12 45.34 45.47 46.14 45.86 45.34 44.77 43.94 44.03 44.47 44.54 44.62 43.98 44.60 48.06 49.00 45.56 38.13 31.26 33.22 35.35 34.81 34.15 29.17 32.63 31.05 34.29 33.15 35.29 35.33 40.59 40.43 43.52 44.73 39.55 34.03 41.48 43.24 44.76 44.75 41.98 43.78 34.64 36.27 27.26 27.46
45.40 45.04 44.53 44.61 44.95 44.13 44.21 44.25 44.14 44.13 44.10 43.42 43.45 40.31 44.38 48.14 48.26 42.09 34.17 33.11 32.60 35.45 35.30 32.11 30.68 30.76 31.65 30.80 32.18 31.70 32.77 38.06 41.87 41.40 44.04 42.91 38.67 37.21 41.61 39.99 38.96 40.19 38.46 39.17 38.41 36.62 30.05
45.05 44.23 44.69 44.68 44.45 44.33 44.54 43.98 43.95 44.17 44.09 41.96 42.93 36.64 44.98 46.97 39.23 39.60 35.38 33.59 31.94 34.07 36.32 34.28 34.20 32.62 31.00 31.96 31.35 31.55 31.29 34.45 40.31 41.31 36.65 41.01 39.06 33.77 36.66 42.88 44.95 42.66 40.70 39.35 33.17 32.45 36.34
44.05 43.43 43.25 43.84 44.84 44.61 44.31 43.89 43.70 43.91 42.82 44.14 40.11 38.89 45.25 44.98 33.70 34.26 33.53 32.68 34.34 33.64 34.10 33.42 32.46 34.18 35.47 32.41 28.49 32.27 33.49 38.07 38.88 38.05 35.66 35.99 35.63 30.76 33.44 38.57 42.46 39.73 41.14 41.78 39.95 38.05 33.49
44.19 43.48 43.53 43.96 44.54 44.00 43.72 43.50 43.42 43.76 43.24 43.69 40.79 34.36 38.96 41.92 40.14 34.26 31.41 30.94 31.19 35.86 34.36 34.76 33.80 35.19 33.36 31.94 34.64 31.31 32.93 36.64 38.66 39.17 39.30 37.88 32.12 32.44 29.48 32.56 37.51 36.01 39.33 41.13 39.54 34.05 34.14
44.72 43.87 43.79 43.49 44.46 43.97 43.50 43.20 43.27 43.31 42.69 43.09 40.85 35.51 38.24 32.53 34.59 34.59 34.19 32.14 29.96 28.60 34.45 35.53 31.04 30.84 27.65 27.38 30.12 30.83 33.55 34.98 37.39 38.40 38.08 37.36 30.35 32.59 36.17 38.42 38.07 35.51 35.97 39.19 37.41 38.05 33.59
45.36 44.12 44.04 43.61 43.11 43.57 43.25 43.05 42.95 43.07 43.31 42.09 34.95 37.97 37.83 36.55 35.29 32.95 30.04 30.68 29.47 31.33 31.40 31.02 28.08 32.81 33.51 29.97 31.69 29.36 32.82 33.46 32.41 36.91 35.80 36.82 29.93 33.42 29.90 37.59 37.61 34.24 37.14 38.28 38.22 37.69 37.85
44.71 43.78 43.35 43.67 42.90 43.41 43.47 43.49 43.32 43.20 42.91 41.53 42.11 42.37 39.60 33.06 33.95 32.50 32.56 31.03 30.25 32.04 33.50 34.64 33.69 32.47 31.53 33.78 37.06 37.62 37.88 37.34 36.68 34.26 32.97 32.52 32.15 29.48 25.03 36.26 34.80 28.87 35.27 37.37 37.87 39.51 39.12
44.22 44.47 43.78 43.70 43.43 43.92 43.75 43.72 43.44 43.69 42.15 43.70 42.80 41.96 38.46 31.54 33.51 32.20 31.19 31.83 31.09 32.14 31.05 34.33 35.52 32.95 36.42 41.15 39.86 39.38 38.70 37.99 38.05 37.18 37.85 32.82 31.28 30.34 26.10 33.72 23.52 35.02 40.17 40.15 38.08 39.92 42.34
43.69 43.18 43.51 43.53 43.27 44.04 43.82 43.81 43.78 43.79 42.99 42.72 44.03 40.88 37.94 32.22 35.25 31.96 31.51 31.95 33.20 34.37 33.39 33.77 35.77 38.47 40.70 37.69 32.42 30.41 31.37 32.64 34.75 36.91 36.94 36.69 32.12 27.55 27.36 29.70 31.88 35.28 38.14 38.14 37.26 37.02 41.71
43.98 43.89 43.62 43.45 43.76 44.69 44.22 44.01 43.71 44.22 43.32 43.52 43.59 44.73 41.07 33.78 32.55 33.56 31.73 32.95 31.89 32.72 33.02 33.94 38.56 41.32 39.44 33.37 30.99 24.40 22.07 26.79 27.77 31.97 37.34 35.84 35.41 29.38 28.85 25.05 22.91 35.02 40.48 42.82 42.16 33.26 40.07
43.93 43.90 44.13 43.91 44.34 44.08 44.13 44.08 43.86 43.96 43.84 43.74 41.92 45.08 39.68 34.75 38.22 35.70 33.99 33.81 35.89 33.95 31.95 34.60 35.31 35.85 38.41 31.99 27.85 26.88 24.87 32.32 26.44 27.58 28.38 29.98 30.73 27.80 28.63 28.59 32.78 39.36 41.41 43.11 30.49 32.17 40.31
43.88 43.47 43.68 43.85 43.98 44.10 44.05 44.30 43.83 43.80 43.95 43.70 42.11 45.35 39.45 34.59 37.85 37.65 37.20 34.91 35.96 35.07 30.22 35.31 34.05 34.62 33.08 28.95 29.25 27.22 24.53 32.07 31.23 33.28 31.56 30.51 29.33 29.30 31.04 28.02 23.40 39.58 41.05 35.39 36.10 39.67 39.31
43.49 43.32 43.15 43.56 43.62 43.72 43.95 43.63 43.63 43.66 44.00 43.67 38.79 43.87 43.31 36.22 37.19 41.68 41.61 41.97 40.31 39.42 36.52 36.08 34.12 32.98 34.94 30.91 31.36 29.62 28.65 32.98 32.02 28.08 37.25 30.00 32.88 32.16 32.39 31.61 35.78 36.65 35.28 35.90 38.22 36.51 36.32

GFSGBSN_sfc_wetblb_084.txt.gz
Wetbulb
58.33 58.28 57.58 56.83 55.57 54.52 53.92 53.18 52.70 52.56 52.05 51.57 51.53 51.75 52.03 52.03 52.03 51.70 51.32 51.25 50.70 50.81 50.90 51.36 52.10 52.60 51.49 47.47 48.41 55.25 57.77 56.14 56.79 53.95 52.33 51.47 47.92 46.05 42.91 44.75 46.00 45.06 46.54 48.20 49.72 49.35 49.56
57.72 57.63 57.14 56.11 55.09 54.08 53.60 52.83 52.78 52.53 51.94 51.68 51.56 51.07 50.97 51.05 50.90 50.31 50.15 50.34 50.53 50.42 50.89 51.50 52.18 52.15 48.92 41.55 52.80 53.92 51.85 51.99 52.61 53.63 52.45 51.48 49.83 50.15 47.18 46.42 45.68 47.13 47.02 46.74 47.58 47.52 47.94
57.92 57.34 56.63 55.37 54.60 53.46 52.76 53.24 52.98 51.75 51.65 51.82 51.07 50.05 50.04 49.70 49.66 49.67 49.80 49.78 49.95 50.30 50.89 52.04 52.82 51.78 47.85 45.90 53.35 54.08 52.45 50.09 50.65 51.42 50.96 52.99 52.44 50.08 49.77 46.29 49.20 47.70 44.11 45.90 46.51 46.96 46.02
57.91 57.01 56.08 54.74 53.29 52.38 52.29 52.57 51.62 51.41 51.72 51.18 49.73 49.30 49.39 49.29 49.16 49.40 49.46 49.59 50.02 50.46 51.85 53.81 54.33 52.57 44.65 53.90 54.73 52.10 53.05 51.69 52.61 51.27 50.83 51.85 52.56 50.04 48.72 49.82 47.08 43.66 43.45 38.22 43.89 45.21 46.34
57.81 56.58 55.11 53.82 52.90 52.30 52.61 52.04 51.43 51.56 51.00 50.10 49.23 48.96 49.05 48.96 49.38 49.71 49.77 49.70 49.96 51.06 54.19 54.22 52.56 51.10 45.04 54.15 50.70 53.54 54.97 50.74 51.39 50.88 50.72 50.70 49.41 46.40 47.01 43.11 39.95 41.71 36.28 38.67 41.05 45.67 45.46
57.75 55.69 54.60 53.25 51.76 51.78 52.53 51.80 51.19 50.36 50.08 49.40 48.95 48.68 48.73 48.70 49.45 49.51 49.62 49.78 51.29 52.73 53.00 54.67 53.31 47.27 49.89 47.50 51.51 52.91 54.87 53.38 50.20 49.89 48.42 46.68 44.86 41.86 42.16 40.27 33.12 36.94 37.91 39.75 39.10 42.87 44.41
56.78 54.92 53.56 52.02 51.83 52.80 51.84 50.92 50.17 49.83 49.85 49.38 48.47 48.46 48.34 48.21 48.69 49.12 48.45 50.78 47.94 48.00 51.35 48.34 47.31 47.01 46.50 49.02 51.03 48.24 50.20 51.36 49.99 47.74 42.10 45.11 40.11 37.23 40.64 42.50 42.24 41.14 39.16 37.62 40.60 43.46 41.59
54.70 53.46 52.52 52.98 52.12 51.23 50.89 50.61 50.32 50.23 49.65 48.57 48.05 47.71 47.46 47.80 48.14 48.89 47.90 46.85 44.31 44.47 39.22 48.17 45.91 46.61 49.29 50.21 45.19 47.78 49.40 45.83 45.27 41.21 44.35 42.08 37.97 43.13 44.40 43.81 41.89 40.72 38.06 37.43 40.43 42.53 42.17
53.52 52.44 52.24 50.99 50.27 49.64 50.06 50.45 50.63 49.81 48.60 47.75 46.81 46.81 47.33 47.85 47.79 46.84 46.17 44.80 48.18 48.19 39.94 44.16 47.37 47.85 48.38 49.22 46.19 46.45 47.14 45.46 43.62 41.76 42.60 40.25 42.55 45.77 44.15 42.41 40.77 40.19 37.81 37.56 37.79 41.21 43.12
51.46 50.49 50.30 50.52 50.32 50.11 50.42 50.54 49.41 48.63 47.38 46.04 46.22 46.49 47.01 47.11 44.08 46.93 45.95 46.97 48.58 49.55 36.97 39.64 43.03 47.20 48.95 48.87 45.00 50.00 50.01 46.10 43.60 40.47 42.32 41.81 45.10 43.44 42.25 40.85 41.34 36.72 42.19 41.21 40.47 38.68 33.74
50.34 50.86 50.77 50.37 50.28 49.47 49.30 48.85 48.10 46.94 45.73 45.66 46.06 46.40 46.71 46.63 45.15 45.09 45.55 48.11 49.42 48.04 27.70 41.46 44.61 51.35 47.92 44.66 45.26 47.13 50.24 46.22 40.88 42.06 41.97 39.12 41.17 40.81 39.60 40.36 42.13 38.53 43.19 41.91 40.82 38.64 37.74
49.26 49.54 49.70 49.91 49.11 48.42 47.98 47.29 46.62 45.83 45.44 45.39 45.85 46.32 46.52 46.80 47.35 47.76 48.56 48.52 47.83 37.07 27.71 37.19 44.43 42.35 40.32 42.98 43.96 46.82 45.87 48.06 47.26 42.36 43.13 41.48 45.30 43.41 41.70 43.42 43.85 44.49 41.58 40.72 40.27 38.01 30.75
49.25 49.19 48.43 47.74 47.32 47.19 47.39 46.69 46.14 45.23 44.84 45.02 45.49 45.64 44.41 46.04 44.28 48.86 48.94 45.48 36.12 29.68 38.89 35.84 37.88 39.46 38.00 37.39 38.47 40.42 41.08 41.73 39.20 35.77 36.89 41.28 41.95 44.32 45.01 40.60 43.27 42.12 38.09 29.74 28.36 29.16 28.34
47.89 47.53 46.83 46.42 45.68 44.78 44.91 45.55 45.64 44.37 44.32 44.99 45.39 44.74 46.79 47.69 48.79 49.54 46.49 39.16 28.14 34.33 35.62 38.67 37.06 37.20 34.52 37.16 37.36 38.14 38.21 36.65 40.63 39.29 36.57 34.15 32.43 41.04 44.84 41.93 39.25 39.19 38.12 31.16 23.23 25.87 29.49
47.14 46.49 46.00 45.27 45.03 45.41 45.51 46.03 44.43 43.76 44.54 44.90 44.43 45.35 46.39 48.38 49.12 48.00 40.50 31.42 31.58 34.74 36.31 34.48 35.13 33.04 34.17 36.88 36.80 37.26 37.00 36.07 38.62 39.80 34.68 34.33 34.84 43.08 43.82 44.51 42.95 38.94 35.15 40.53 33.83 35.04 30.13
46.66 45.87 45.73 45.34 46.45 46.36 45.59 44.98 44.21 43.97 44.43 44.57 41.88 43.42 43.38 47.73 49.04 45.17 37.81 32.75 34.46 36.49 35.66 35.20 29.93 33.41 30.88 34.18 33.77 34.22 34.46 38.27 39.15 43.14 43.86 39.51 32.64 40.24 42.46 44.39 44.18 41.21 43.05 34.28 34.21 25.39 24.89
45.38 44.55 44.59 45.51 45.77 45.28 44.81 44.03 44.01 44.27 44.48 44.40 41.94 39.71 44.48 47.74 47.76 41.47 33.84 33.78 34.46 36.81 36.26 33.05 31.92 31.29 32.07 31.15 32.37 31.45 31.90 35.64 37.90 39.56 40.67 39.49 36.18 36.38 41.05 38.46 38.15 39.03 37.66 38.25 37.67 34.85 27.65
45.33 44.88 44.69 45.13 44.85 44.06 44.11 44.10 44.06 44.41 44.56 42.71 42.23 37.55 45.27 47.84 38.14 38.91 34.85 34.94 32.82 35.30 37.14 35.16 34.83 33.20 31.52 32.37 31.19 31.42 31.22 34.52 38.88 38.31 33.56 38.08 35.12 31.27 35.77 42.32 44.16 42.05 39.38 39.57 32.20 30.27 34.56
45.01 44.35 44.97 44.82 44.78 44.50 44.35 43.98 43.95 44.11 43.84 41.71 38.80 38.58 44.35 45.01 34.52 34.30 34.63 33.88 35.57 34.48 34.92 34.40 33.35 34.88 35.84 32.29 28.52 32.34 33.49 38.26 38.57 36.67 34.66 36.89 32.73 26.75 31.04 37.29 41.06 37.80 40.06 40.28 39.96 37.97 32.06
43.99 43.48 43.43 44.35 44.81 44.30 43.86 43.68 43.69 43.70 44.35 41.37 39.90 34.65 38.48 40.69 39.84 36.14 32.42 32.12 31.76 36.23 35.12 35.62 34.62 35.55 33.56 31.88 34.53 31.14 32.26 36.56 38.73 38.05 38.49 37.89 32.28 28.56 25.77 30.81 34.59 33.18 37.07 39.17 38.58 33.40 33.28
44.09 43.83 43.76 44.05 44.28 44.01 43.40 43.21 43.58 43.54 44.17 41.64 39.99 36.67 38.83 33.26 34.55 35.65 34.87 33.12 31.29 29.89 35.19 36.63 33.09 32.99 32.01 28.54 30.32 30.25 33.52 34.58 37.05 38.88 37.64 35.62 27.36 30.58 32.45 34.93 34.79 34.18 34.37 35.69 34.83 36.82 33.46
44.74 44.09 43.92 43.57 44.61 43.78 43.25 43.07 43.08 43.46 43.80 41.34 35.43 36.98 38.62 36.86 36.24 34.35 31.47 31.41 31.30 32.68 32.13 32.23 30.55 33.18 33.86 30.05 31.06 29.14 32.44 32.93 31.77 35.81 34.65 35.84 28.27 30.86 28.42 33.27 34.25 32.80 36.41 36.36 36.08 36.48 36.64
45.32 44.50 44.16 43.79 43.37 43.51 43.25 43.18 42.94 43.36 43.03 41.39 41.39 42.11 39.34 34.58 33.97 32.78 32.78 32.61 31.51 33.13 34.30 35.39 34.21 32.88 31.35 33.00 36.04 37.01 36.82 35.97 34.86 32.49 31.97 31.41 29.21 27.80 24.43 31.96 32.17 29.32 35.41 36.44 37.39 38.81 38.87
45.70 44.82 43.63 43.72 43.04 43.08 43.46 43.31 43.14 43.38 43.15 42.57 41.95 40.91 37.05 32.00 33.72 32.69 33.28 33.01 32.00 33.09 31.55 35.04 35.90 33.12 36.48 40.32 39.05 37.83 36.79 36.49 36.44 35.70 36.97 31.29 29.85 29.25 25.43 28.89 19.64 34.40 41.10 40.60 38.51 39.92 40.04
44.81 44.84 44.32 44.20 43.47 43.87 43.71 43.61 43.36 43.73 43.81 42.81 43.17 40.45 37.27 32.47 34.85 33.63 32.45 32.48 33.88 34.68 33.27 33.83 36.20 38.41 40.46 37.02 31.31 28.88 30.00 31.58 33.38 35.54 35.51 36.89 32.16 27.20 24.64 24.51 29.02 35.74 38.70 38.29 37.16 34.50 39.06
44.71 44.37 43.89 44.07 43.97 44.61 44.17 43.85 43.92 43.80 43.80 43.40 43.04 44.37 39.61 35.63 32.76 35.56 32.58 33.43 31.55 32.49 33.28 35.26 38.83 41.36 39.04 34.24 29.84 23.64 21.90 26.86 26.38 30.38 37.12 35.89 35.70 29.20 25.89 21.04 22.45 33.58 38.50 42.76 41.24 32.15 38.11
44.61 44.38 44.19 44.00 44.33 44.81 44.24 44.19 43.67 43.78 43.60 43.15 42.78 45.58 40.57 35.76 37.57 36.41 33.59 33.26 36.03 34.21 31.82 34.85 35.74 35.62 39.12 31.50 26.61 25.82 25.19 30.60 24.14 26.27 27.82 29.45 29.35 25.52 25.79 24.18 30.34 33.64 38.29 42.49 29.65 30.21 37.33
44.45 44.43 44.50 44.14 44.26 44.57 44.46 44.17 43.80 43.82 43.72 43.14 43.19 45.61 40.44 36.38 37.72 38.31 38.06 35.43 36.33 35.29 31.24 35.06 33.76 34.09 32.93 28.26 28.38 27.17 25.39 27.32 30.06 31.79 30.11 28.10 27.14 27.09 28.14 26.82 24.08 35.48 36.97 31.77 33.96 36.53 36.39
44.17 44.29 43.80 43.85 44.26 44.26 44.27 44.19 43.94 43.65 43.92 43.31 41.36 44.12 43.70 38.15 37.36 42.32 41.92 42.55 40.61 39.54 36.02 36.38 34.06 34.42 34.86 30.53 30.57 30.06 27.02 31.33 29.89 26.51 36.12 28.67 32.13 29.78 28.69 27.84 34.19 34.59 33.31 34.49 35.50 33.84 33.78

GFSGBSN_sfc_wetblb_087.txt.gz
Wetbulb
60.33 59.86 58.88 58.17 58.27 57.60 57.08 55.87 55.15 53.96 53.88 53.39 52.34 52.00 52.22 52.35 52.33 52.01 51.85 51.53 50.79 51.01 50.90 51.05 51.75 52.42 49.44 44.13 45.88 54.51 58.78 57.76 55.10 51.15 47.49 46.99 46.04 43.30 39.26 41.11 42.22 41.00 42.53 44.65 45.78 45.78 45.36
60.05 59.46 58.63 57.96 58.16 57.44 56.66 55.72 54.71 53.75 53.59 53.04 52.36 51.96 51.45 51.08 51.18 50.63 50.26 50.34 50.26 50.28 50.64 51.25 51.80 51.74 46.73 38.76 49.41 53.93 53.05 51.47 52.18 51.26 49.97 50.17 47.81 47.45 43.38 42.18 40.34 43.00 43.51 43.48 44.35 44.23 44.49
60.49 59.44 58.55 57.52 57.58 56.86 55.67 54.87 54.07 53.61 53.51 52.60 52.62 51.80 50.63 50.12 50.16 49.96 49.76 49.76 50.08 50.11 50.72 51.32 52.38 50.49 45.83 42.65 50.98 49.85 51.30 47.71 47.53 47.73 47.29 50.24 49.69 45.94 45.67 43.11 46.65 45.11 40.25 42.03 42.56 42.41 42.83
60.57 59.65 58.69 57.51 56.89 55.70 54.76 54.21 53.25 53.15 52.22 51.98 52.23 50.79 50.15 49.85 49.70 49.70 49.59 49.87 49.87 50.30 50.98 51.84 53.98 49.83 42.72 52.05 50.62 50.19 49.69 48.87 49.28 49.21 47.42 48.15 48.19 45.18 43.78 45.65 43.85 40.06 39.56 33.95 39.69 42.07 43.30
60.34 59.69 58.85 57.56 56.32 54.97 54.11 52.90 52.92 52.40 51.80 51.98 50.91 49.76 49.46 49.90 49.83 49.86 49.90 50.15 49.85 50.61 51.80 54.28 50.51 48.50 43.27 54.72 49.78 51.44 49.24 47.30 48.89 49.00 47.65 49.35 45.70 41.25 41.97 36.55 34.00 36.14 30.77 33.59 37.63 43.27 42.21
60.56 59.85 58.87 57.51 55.53 54.13 53.13 52.03 52.27 51.74 51.81 50.74 49.55 49.31 49.31 48.99 49.45 49.55 49.67 49.86 49.51 50.53 52.43 52.76 51.63 44.63 48.42 46.52 50.52 51.68 50.18 51.91 49.06 47.82 44.87 43.49 39.68 35.79 35.01 32.05 27.22 30.93 31.87 32.54 33.09 37.63 40.23
60.56 59.76 58.57 56.80 54.85 53.56 52.09 52.05 51.77 51.29 50.32 49.90 49.53 48.95 48.78 48.41 48.47 49.29 47.50 44.98 43.43 43.92 47.74 44.64 45.86 44.31 46.57 47.73 49.56 46.80 48.44 47.55 47.88 44.33 37.93 41.09 33.54 30.16 33.56 36.55 37.91 37.13 35.26 34.23 36.76 40.25 38.54
59.60 59.53 57.62 55.49 53.83 52.37 52.26 52.53 50.98 49.88 49.85 49.88 49.02 48.15 47.66 47.66 48.16 48.54 45.70 42.03 42.12 41.18 34.85 46.46 48.38 47.51 46.98 48.14 43.88 47.07 48.26 41.43 42.97 37.32 40.60 37.90 33.08 38.88 41.02 40.48 39.10 37.65 34.91 33.19 36.39 39.69 39.23
58.65 57.14 55.81 53.51 52.56 52.52 52.66 51.16 50.43 50.25 50.34 49.01 47.47 46.96 46.92 47.66 47.72 45.19 43.06 42.86 46.41 45.90 35.08 41.85 44.52 46.37 45.86 48.06 44.58 44.65 44.46 42.45 40.88 38.64 38.93 35.25 38.88 43.05 41.20 39.93 38.46 37.36 34.94 34.66 35.06 38.29 39.25
54.57 53.52 53.28 53.12 52.12 50.82 50.46 50.09 49.84 50.04 48.65 46.69 45.64 46.14 46.92 47.41 43.67 44.30 42.37 45.29 46.78 46.44 33.10 39.00 40.56 45.36 47.90 47.73 43.87 49.58 48.47 43.43 39.99 37.33 38.72 37.60 42.45 41.40 40.11 39.52 39.74 34.12 39.90 39.52 37.43 35.20 30.11
51.21 51.00 50.80 50.38 50.17 49.86 49.98 50.10 49.52 48.33 46.54 45.49 45.40 46.07 46.55 46.55 41.23 41.10 43.92 45.73 46.35 44.93 24.96 39.81 42.04 50.71 48.99 44.79 44.35 45.40 48.64 44.14 38.48 38.61 38.63 36.36 38.36 37.67 37.22 37.98 40.75 36.75 40.72 38.38 37.14 34.41 32.47
50.41 50.25 50.13 49.99 49.99 49.44 48.79 48.41 47.46 46.57 45.67 45.17 45.45 46.07 46.39 44.41 43.27 44.56 45.68 45.43 44.27 34.05 25.19 38.19 43.73 41.49 40.84 42.33 42.30 45.49 44.57 45.68 44.53 39.82 39.54 38.03 41.93 39.44 38.51 41.43 41.06 41.77 39.51 38.27 37.03 33.59 26.26
49.02 49.70 50.11 49.35 48.60 47.92 47.69 47.23 46.31 45.66 44.76 44.12 44.68 45.53 44.12 44.19 40.67 45.95 45.63 41.84 33.28 26.83 39.55 35.09 37.55 39.46 38.16 37.07 38.74 38.85 39.79 38.04 34.85 30.85 31.80 37.34 38.06 41.19 42.02 37.00 39.94 38.02 33.70 25.56 23.27 23.75 23.81
48.53 47.88 47.72 47.41 47.34 46.83 46.27 46.06 45.83 44.66 43.91 43.94 44.50 45.11 44.26 44.68 45.59 45.99 43.35 35.55 26.73 34.34 33.72 38.35 36.62 36.47 33.68 36.21 35.46 36.18 35.23 32.25 36.44 35.34 31.14 28.88 27.64 36.78 42.17 38.52 36.08 35.32 33.86 26.05 21.14 22.32 26.37
47.49 46.77 46.15 45.40 45.54 44.83 44.40 45.22 44.44 43.67 43.13 44.26 44.83 41.13 42.37 45.21 45.72 43.79 37.02 27.65 27.86 32.75 34.84 33.02 34.32 31.06 32.02 35.17 34.77 35.24 34.13 33.36 35.50 38.12 30.87 31.04 31.54 40.84 42.42 42.52 40.58 36.18 31.49 37.78 31.02 32.18 26.67
46.84 46.39 45.92 45.59 45.49 45.43 46.01 45.38 44.41 43.55 43.77 43.98 39.07 40.51 41.25 44.32 44.72 41.96 33.76 31.10 32.52 35.30 35.02 34.75 29.35 33.00 29.34 31.19 31.07 30.58 31.42 35.60 33.36 38.48 37.24 34.20 28.12 38.63 40.68 42.52 41.06 38.30 39.95 27.79 31.07 24.41 23.04
46.10 46.16 45.22 45.85 46.44 45.61 45.42 44.82 44.26 44.02 44.37 44.36 37.94 35.69 41.40 44.12 43.34 37.48 29.16 31.30 33.32 36.56 36.17 32.36 31.08 29.95 30.31 29.57 30.62 29.44 30.70 34.04 35.53 34.61 35.15 34.81 32.51 31.87 36.83 35.79 34.51 35.33 34.14 34.83 34.55 32.33 25.26
45.02 44.65 44.48 44.94 44.75 44.56 44.36 44.16 43.88 43.95 44.15 41.68 37.76 32.00 41.69 43.24 34.18 35.96 30.41 34.47 34.88 34.84 37.12 35.15 34.82 32.81 31.07 31.77 29.88 29.88 29.55 32.80 37.86 35.82 30.39 35.51 32.34 25.32 29.02 36.51 39.07 38.07 36.71 35.95 28.41 28.10 31.07
44.67 44.73 44.80 45.24 44.56 44.84 44.64 44.27 43.66 43.88 43.98 38.12 34.80 33.51 40.34 41.92 28.99 28.81 33.24 33.40 35.48 34.14 34.44 33.90 32.99 34.72 34.45 31.00 26.78 31.62 32.03 36.83 37.52 35.22 32.04 33.03 27.99 22.11 24.80 31.91 36.45 33.94 35.95 35.55 36.28 35.88 30.69
44.61 44.59 44.65 44.86 44.76 44.50 44.17 43.75 43.13 43.46 43.92 39.17 35.56 29.81 33.18 36.39 35.41 32.75 30.10 30.85 30.64 35.75 34.07 35.25 33.95 35.31 32.33 30.39 32.17 29.25 30.36 35.78 37.68 36.46 39.64 36.46 29.20 25.81 20.44 24.89 31.32 29.28 32.25 34.39 34.17 30.65 31.61
43.96 43.79 43.91 44.80 44.37 43.88 43.36 43.03 43.28 43.53 44.09 39.21 36.51 32.70 34.84 27.46 28.92 31.80 32.92 32.69 30.99 29.92 34.95 35.34 31.39 31.72 30.40 25.78 27.43 26.83 30.97 32.71 35.27 37.73 34.90 32.58 24.07 27.27 28.63 30.05 30.99 30.22 30.47 32.82 31.19 33.00 30.77
44.08 44.06 44.15 44.24 44.19 43.68 43.03 42.90 43.08 43.45 44.05 37.38 32.28 32.27 34.36 32.24 33.57 31.65 30.59 29.62 31.08 31.88 31.70 30.69 29.57 32.26 31.06 26.69 28.45 25.30 29.31 29.49 29.24 32.94 31.26 31.86 23.63 27.37 24.36 28.89 29.99 28.71 31.37 33.31 34.27 35.46 36.06
44.39 44.17 43.90 43.94 44.06 43.33 43.00 42.82 43.47 43.79 43.05 37.13 36.65 37.77 34.71 32.81 29.75 28.07 28.21 31.82 31.60 32.73 33.79 34.32 32.48 30.23 28.97 30.40 32.43 32.38 32.55 32.28 31.85 29.32 27.09 26.42 23.23 25.38 20.54 28.20 28.56 24.80 30.77 32.57 35.29 37.68 36.16
45.28 44.38 44.17 43.75 43.10 43.01 43.16 43.04 43.35 43.92 43.10 38.04 37.38 36.19 32.18 26.90 28.10 29.75 33.20 33.09 31.70 32.35 29.90 32.64 32.94 29.61 34.40 37.03 35.46 34.24 33.65 33.05 32.40 31.42 32.58 26.17 25.34 25.96 21.03 25.03 16.04 29.46 37.67 37.59 36.23 36.39 37.62
45.68 45.12 44.31 43.76 43.08 43.21 43.29 43.25 43.44 43.81 43.89 38.27 39.75 36.41 32.64 25.83 32.16 32.00 32.15 31.54 32.36 32.55 30.33 31.39 34.43 36.00 36.13 32.97 27.47 25.29 24.81 27.39 30.08 32.88 33.43 33.14 28.52 24.15 21.34 19.69 26.23 31.84 34.27 33.22 33.92 33.44 36.09
45.42 45.04 44.53 44.13 44.13 44.42 43.99 43.45 43.64 43.71 44.08 39.93 39.62 40.54 35.11 28.89 27.19 34.22 30.30 32.03 25.36 26.17 28.34 33.42 37.85 37.47 34.30 27.14 23.37 21.00 18.92 23.77 24.75 28.64 35.14 32.43 30.87 24.52 25.26 20.21 16.95 30.19 34.14 35.59 35.76 29.60 34.66
44.04 44.90 44.37 44.15 44.45 44.71 44.38 43.74 43.34 43.79 43.94 39.97 38.50 40.69 36.40 29.38 32.63 33.99 28.88 29.22 32.48 29.34 25.76 30.84 32.15 32.26 34.18 21.52 15.13 21.84 21.03 28.78 22.87 25.37 24.96 25.44 27.09 24.00 24.17 20.52 27.19 32.24 32.89 36.42 26.75 27.57 33.17
44.61 44.44 44.44 44.47 44.42 44.55 44.57 44.04 43.47 43.67 43.77 40.53 39.24 40.68 35.84 30.41 33.21 36.60 37.06 31.19 31.22 30.45 23.25 29.10 27.27 28.38 26.52 21.50 25.36 18.80 16.21 24.57 24.98 31.14 28.97 26.70 25.79 25.37 26.47 22.84 21.15 32.42 33.11 28.15 33.44 33.86 32.33
44.42 44.36 44.29 44.30 44.33 44.17 44.62 44.28 43.74 43.42 43.65 42.59 36.60 40.44 39.79 32.53 32.43 37.52 38.23 38.50 36.51 35.39 31.01 30.61 28.57 29.44 28.25 22.49 24.29 24.86 25.17 27.76 28.27 24.18 32.92 27.43 31.06 27.28 27.48 25.59 32.64 32.55 31.07 33.40 34.03 32.62 31.96

GFSGBSN_sfc_wetblb_090.txt.gz
Wetbulb
61.82 61.35 60.65 59.80 59.16 58.91 58.68 57.88 56.73 55.76 55.35 54.87 54.40 53.67 52.63 52.80 52.85 52.44 52.65 51.99 50.99 50.80 50.95 51.04 51.40 52.17 48.89 43.55 44.21 51.76 59.34 58.60 53.22 48.87 46.30 45.83 44.36 42.70 38.10 38.86 39.90 39.58 42.28 44.16 44.86 44.70 44.45
61.10 61.01 60.48 59.89 59.35 58.74 58.77 58.04 56.79 55.55 54.91 54.40 54.01 53.52 52.57 52.47 51.83 51.28 50.72 50.94 50.66 50.35 50.52 50.90 51.37 51.47 45.70 35.76 46.10 51.81 55.12 53.18 53.19 49.59 48.37 46.81 46.52 46.69 42.45 40.28 38.03 41.19 40.94 40.93 42.21 42.23 42.62
60.01 60.77 60.43 59.80 59.15 58.51 58.12 57.40 56.53 55.37 54.49 54.29 53.67 53.28 52.79 51.60 50.81 50.31 50.29 50.22 50.58 50.26 50.39 50.88 51.54 49.62 44.71 40.71 47.35 50.26 51.76 47.86 48.79 50.88 47.67 49.36 48.81 43.60 42.87 41.03 44.80 43.36 38.86 40.33 40.50 40.13 39.85
58.68 59.74 60.58 59.84 58.98 58.08 57.40 57.06 56.05 55.14 54.16 53.36 52.92 52.43 52.16 50.54 50.00 49.85 49.88 50.18 50.24 50.07 50.75 51.41 52.04 49.07 41.00 50.91 49.63 49.27 48.40 47.32 47.73 46.94 46.47 46.55 45.78 43.22 41.31 42.74 40.99 38.43 37.20 31.97 38.04 40.70 41.96
58.15 59.18 59.81 59.82 58.86 58.15 57.12 56.59 55.24 54.32 53.48 53.06 52.46 52.18 50.07 49.73 49.89 49.76 49.49 49.60 49.90 50.07 50.77 52.00 50.59 47.16 42.09 54.28 49.89 52.04 50.01 47.03 47.59 47.17 46.39 49.03 44.39 39.80 39.47 34.57 31.81 33.61 28.71 32.42 35.83 40.43 39.92
58.34 58.86 58.98 59.34 59.34 57.94 57.29 55.88 54.47 53.49 52.87 52.10 51.96 49.96 49.17 49.14 49.00 49.54 49.80 49.18 49.41 49.36 50.41 52.53 50.55 44.64 45.73 45.61 49.81 50.34 48.87 48.56 45.77 46.26 43.46 41.53 37.87 34.07 32.59 30.64 25.19 28.58 29.95 29.80 30.27 35.17 37.86
58.79 58.53 58.90 59.34 59.17 58.03 56.69 55.18 53.68 52.90 51.95 51.52 50.24 49.05 49.33 48.87 48.37 48.72 47.69 44.03 43.32 42.76 45.69 43.17 42.75 43.40 46.26 47.42 48.16 46.23 48.32 47.24 46.09 43.42 35.54 39.13 32.92 29.19 31.48 33.72 35.11 34.79 32.89 31.61 34.89 38.02 35.77
58.23 58.38 58.89 59.46 59.01 57.41 56.12 54.53 52.53 52.03 51.46 49.95 49.43 49.60 48.97 48.14 47.85 48.16 45.28 39.97 42.39 41.49 35.16 45.39 46.90 46.84 48.36 49.06 43.08 45.92 46.78 40.72 39.93 36.37 38.28 35.32 31.28 37.25 38.34 37.45 36.03 34.89 32.33 31.86 35.95 38.15 36.80
57.65 58.14 58.77 59.04 58.33 56.06 54.91 52.83 52.36 50.95 49.99 49.58 49.98 48.61 47.28 47.12 47.34 43.97 40.91 41.82 46.82 44.89 34.19 38.90 42.53 45.08 47.05 47.81 42.84 44.19 44.71 41.17 39.39 37.35 36.85 33.15 37.14 41.39 38.97 37.33 35.60 35.02 32.76 32.58 34.02 37.16 36.49
54.80 57.27 57.96 57.63 55.58 54.43 53.33 52.50 50.67 49.75 49.67 49.41 47.78 46.60 46.18 46.82 41.95 41.37 40.38 44.56 45.78 45.12 28.44 35.80 39.93 43.27 47.02 47.08 42.36 47.94 44.98 41.58 38.49 36.00 37.41 36.08 40.79 39.34 38.13 36.76 37.43 32.40 38.99 37.74 35.72 32.18 27.72
50.81 51.77 53.28 53.86 53.32 52.39 50.96 50.35 50.20 50.08 48.43 47.03 46.35 45.53 45.73 46.03 39.92 39.41 43.02 43.89 44.76 43.72 22.15 39.76 40.12 49.10 47.82 43.59 44.45 44.15 47.55 43.32 37.25 37.51 36.94 34.96 36.67 35.96 35.01 35.95 38.99 35.47 39.63 37.11 35.33 31.49 30.02
50.15 50.12 50.31 50.34 50.21 50.05 50.06 49.46 48.21 47.19 46.64 46.13 45.35 45.13 45.60 43.17 41.53 43.04 44.00 43.96 43.59 32.76 22.99 36.33 42.64 41.65 41.40 43.43 42.51 44.71 44.20 45.28 43.56 38.53 37.54 36.52 39.70 37.77 37.20 39.61 39.41 40.03 37.37 36.10 34.60 31.38 25.33
50.31 50.41 50.14 49.70 49.27 48.78 48.24 47.53 46.95 46.05 44.95 44.14 44.13 44.11 43.08 43.54 39.67 44.50 44.13 40.87 32.31 26.50 39.31 35.49 37.69 40.93 39.98 38.15 39.32 41.82 39.86 37.29 34.76 30.34 30.39 35.24 36.56 38.86 40.27 35.27 37.36 36.51 31.85 24.35 22.64 21.69 22.38
49.30 48.98 48.66 48.50 48.33 47.83 46.71 46.22 45.62 44.63 43.91 43.88 43.78 44.00 42.90 43.19 43.56 44.58 42.24 34.83 27.31 32.32 32.72 36.58 36.20 36.49 33.88 36.02 35.29 35.11 34.45 31.70 37.58 35.20 30.21 27.03 25.76 34.31 39.79 35.82 33.73 33.27 32.41 25.25 20.60 20.85 24.48
47.91 47.85 47.26 46.99 46.50 45.97 46.13 45.76 44.36 43.54 43.22 42.94 43.34 40.49 39.64 44.04 43.94 43.23 37.28 27.96 27.16 31.60 33.65 32.59 34.23 31.09 31.86 34.35 33.50 34.59 32.65 31.95 33.53 33.44 29.30 26.70 28.77 37.46 40.07 39.34 37.26 34.21 29.78 35.83 28.52 29.89 25.33
46.98 46.55 46.11 45.96 45.59 45.30 45.64 44.47 43.60 42.62 43.30 43.60 38.54 39.04 40.48 44.60 43.85 41.14 33.32 30.61 30.27 34.47 35.04 34.56 29.62 31.55 27.67 29.45 29.24 29.81 30.81 33.97 32.83 34.19 33.80 31.30 23.84 35.85 36.43 39.09 39.32 37.79 38.78 26.66 26.53 21.33 21.03
46.50 46.34 45.92 45.99 45.80 45.83 45.63 44.60 43.74 43.20 43.35 43.94 37.41 34.87 41.18 43.64 43.07 37.11 27.08 29.78 32.55 36.07 36.25 32.50 30.20 28.98 29.76 28.66 29.61 28.47 29.96 33.59 34.73 33.69 34.22 32.44 29.74 28.34 32.99 33.07 29.35 30.28 30.01 32.58 31.97 29.71 23.40
46.17 45.73 46.27 46.43 45.79 45.47 44.89 44.64 44.50 43.55 43.43 41.24 36.46 30.48 40.75 42.55 33.75 34.78 28.27 33.64 36.76 34.90 37.40 35.05 34.38 32.92 30.60 31.31 29.30 29.41 29.03 32.05 36.74 35.33 30.08 33.37 29.83 24.90 26.54 34.05 35.84 35.23 33.65 35.50 28.99 26.49 28.75
44.96 44.91 44.49 44.56 44.54 44.67 44.43 44.19 44.20 43.70 43.20 37.27 33.72 32.57 39.36 41.40 26.35 27.03 32.65 33.30 34.76 34.33 34.10 33.97 32.78 34.32 33.98 30.28 26.29 30.94 30.82 35.74 36.66 34.13 30.47 31.32 25.99 19.79 21.63 27.59 33.39 30.80 32.72 33.09 32.90 32.81 27.09
44.66 44.60 44.86 44.99 45.07 44.75 44.24 43.48 43.30 43.38 43.58 38.27 34.84 26.28 31.07 34.05 34.92 31.19 29.02 30.63 30.26 35.69 33.85 35.19 34.16 34.64 31.38 29.59 31.27 27.78 29.26 34.31 35.85 35.40 39.39 35.12 26.90 24.31 18.27 22.63 28.07 24.96 28.57 31.08 30.82 26.84 28.21
44.70 44.89 44.95 45.07 44.66 44.05 43.43 43.12 43.10 43.20 43.56 38.12 33.46 29.86 33.80 26.47 29.25 30.79 32.22 32.78 30.21 29.05 34.52 35.34 30.82 31.09 29.44 25.44 26.09 25.56 29.18 30.72 33.32 35.88 33.11 30.60 23.53 26.20 27.32 28.39 28.63 27.77 27.46 28.80 28.11 29.21 27.33
44.07 44.12 44.82 44.72 44.14 43.57 43.25 43.00 42.95 43.58 44.26 37.27 31.13 31.56 34.08 30.76 33.29 30.64 30.38 29.32 30.39 31.09 32.17 30.26 28.44 31.54 29.56 24.91 26.61 24.55 27.43 27.69 27.20 31.35 29.04 29.22 22.70 25.21 21.91 26.89 27.37 25.18 28.47 29.36 30.34 31.08 32.47
44.34 44.50 44.21 44.84 44.24 43.36 42.87 43.15 43.57 44.31 42.91 36.00 35.67 36.39 33.73 30.49 28.97 27.78 27.30 30.71 30.62 32.16 33.07 32.72 31.08 28.66 27.41 29.00 30.88 30.93 31.01 30.79 30.04 27.77 25.79 25.15 21.11 21.10 17.80 25.84 25.84 21.60 27.35 29.37 30.89 35.06 35.52
44.82 44.34 44.12 44.11 43.62 43.18 43.17 43.04 43.52 44.21 41.94 37.12 36.48 35.47 30.42 24.53 27.68 28.52 32.06 32.29 30.98 31.10 28.19 31.37 31.53 28.30 33.02 35.11 33.68 31.96 30.96 30.96 30.45 29.64 30.35 23.33 23.01 23.26 20.03 23.49 14.34 28.17 35.22 35.58 34.21 34.72 36.37
45.48 44.70 44.41 43.75 42.90 43.30 43.15 43.25 43.84 44.03 44.69 37.88 38.01 34.96 30.65 24.49 30.44 30.99 31.27 30.47 30.54 31.32 29.23 30.36 33.90 34.86 34.30 31.61 26.97 24.69 24.50 26.59 28.57 30.38 29.95 30.07 26.80 22.83 18.34 19.77 24.94 28.71 33.57 30.94 28.55 30.02 33.11
45.61 45.17 44.41 43.91 43.25 43.77 43.44 43.49 43.55 44.11 44.70 38.36 37.04 38.12 34.54 26.95 26.33 33.38 29.32 30.31 25.31 25.05 26.83 31.71 35.87 35.76 33.83 25.88 22.40 20.33 17.40 22.79 23.83 26.61 32.87 31.13 29.84 24.06 23.73 19.07 13.85 26.55 30.85 34.59 34.24 26.38 33.04
45.33 45.19 44.50 44.18 43.84 44.11 43.70 43.40 43.89 44.13 44.14 39.04 37.06 38.29 34.94 25.88 32.01 32.41 27.80 27.03 30.16 26.20 24.42 28.35 30.19 30.22 31.33 18.42 14.39 18.47 19.83 27.18 22.94 22.13 25.72 24.80 26.50 22.88 21.92 20.86 24.82 29.37 32.27 34.13 25.89 24.99 30.03
44.83 45.10 44.88 44.47 44.43 44.66 43.99 43.55 43.55 43.62 44.01 40.22 36.99 37.68 34.63 27.93 31.46 34.90 35.55 29.72 29.03 27.93 21.92 26.74 25.15 25.90 24.93 20.71 20.92 15.48 14.48 22.70 25.20 28.15 27.77 26.47 25.19 24.32 25.80 21.97 19.37 30.46 30.84 26.13 31.11 31.87 29.64
44.69 44.73 44.76 44.45 44.60 44.68 44.09 43.63 43.57 43.57 43.77 42.41 34.17 38.76 38.01 31.17 31.29 35.21 35.72 36.55 35.20 34.22 29.23 28.23 26.73 27.60 26.11 20.59 21.40 21.55 21.02 24.21 26.02 24.00 32.10 24.21 27.03 25.31 25.71 23.58 31.31 31.90 31.16 33.38 33.44 31.21 30.01

GFSGBSN_sfc_wetblb_093.txt.gz
Wetbulb
57.97 58.68 60.41 61.43 60.72 60.21 59.97 59.25 58.33 57.21 56.85 56.43 56.14 55.84 55.05 53.77 53.28 53.19 53.35 52.45 51.28 50.97 50.76 50.64 51.06 51.61 47.66 40.78 41.44 47.60 59.34 58.66 53.66 46.91 44.54 44.62 42.66 40.08 36.16 37.26 37.98 37.37 39.94 41.74 43.31 43.20 42.71
56.00 56.67 57.60 59.55 60.75 60.44 60.13 59.36 58.46 57.29 56.58 56.03 55.56 55.19 54.31 53.33 53.11 52.74 51.77 51.36 50.86 50.52 50.35 50.29 50.74 50.63 44.62 33.15 44.55 47.99 53.85 53.62 49.35 46.04 46.08 45.07 44.45 44.99 41.71 40.29 37.16 39.42 39.09 39.32 39.87 40.34 40.00
55.86 55.85 56.13 57.37 59.09 59.92 59.92 58.83 58.39 57.49 56.71 55.91 55.18 54.57 53.82 52.81 52.77 51.61 50.71 50.62 50.66 50.33 50.20 50.40 50.67 48.69 42.97 39.40 45.06 45.86 52.65 48.85 48.77 49.64 46.81 48.60 48.34 44.15 42.06 39.36 43.00 42.20 37.81 38.75 39.66 39.01 39.30
55.60 56.02 56.37 56.26 57.33 58.79 59.10 58.70 58.03 57.82 56.66 55.93 54.75 53.89 53.13 52.76 51.51 50.28 50.32 50.13 50.07 50.03 49.99 50.82 51.33 48.53 39.32 50.01 47.88 47.24 46.17 46.82 48.20 47.71 48.86 47.13 45.62 42.47 40.66 42.12 39.84 36.64 35.83 31.58 36.70 39.23 40.59
56.27 56.77 56.96 56.28 56.84 58.10 58.60 58.45 57.99 57.57 56.63 55.28 54.12 53.20 52.39 50.87 49.64 49.59 49.73 49.48 49.47 49.86 50.06 50.54 49.71 46.05 38.68 52.32 48.63 50.75 48.33 46.08 47.58 45.54 44.93 47.93 43.06 39.24 38.85 34.07 31.68 31.91 27.94 30.74 34.24 38.66 37.56
56.24 57.01 57.68 57.13 57.12 57.58 58.45 58.55 57.70 57.03 55.58 54.37 53.54 52.53 51.58 49.79 48.87 48.51 48.84 48.84 48.67 49.28 49.26 51.00 49.94 41.30 44.10 44.01 49.72 49.78 48.82 48.23 45.27 44.79 42.65 41.45 37.22 33.58 31.86 31.13 26.06 27.66 28.12 26.37 28.79 35.13 34.76
56.62 58.09 58.86 58.41 57.73 57.93 59.01 58.69 57.51 55.94 54.55 53.50 52.76 51.82 49.67 48.88 48.17 47.88 47.28 43.29 43.33 42.49 43.74 41.75 41.77 40.97 43.28 47.52 46.92 45.30 47.92 46.07 45.21 42.22 34.79 37.15 31.77 29.59 31.92 33.03 33.81 32.83 30.78 29.20 31.71 35.94 33.61
54.59 56.49 58.74 58.15 58.29 58.24 58.47 59.14 56.84 54.50 53.70 53.14 52.13 50.26 49.43 48.92 48.57 47.97 45.90 38.69 42.46 40.73 34.01 44.03 45.16 43.74 46.62 47.65 43.92 44.68 45.79 41.54 39.61 35.92 37.77 34.09 30.74 36.58 36.90 35.45 33.81 32.29 29.76 29.69 33.34 36.92 34.18
52.81 55.20 57.90 58.33 58.38 58.38 58.43 58.48 55.04 53.60 52.95 52.15 50.30 49.73 49.54 48.49 47.34 45.08 41.51 40.32 46.54 44.46 31.10 36.65 42.98 43.11 45.13 47.88 43.85 43.08 43.64 40.32 36.93 34.86 35.67 31.44 36.25 40.01 37.50 34.77 33.08 32.19 30.20 31.22 31.55 35.03 35.28
51.47 52.34 55.64 57.81 58.03 58.01 57.85 55.96 53.85 52.62 51.50 50.05 49.82 49.33 47.78 47.33 40.89 40.81 37.67 42.69 44.92 44.22 24.20 31.13 35.93 41.66 45.80 45.88 40.11 46.52 44.63 41.02 37.06 34.64 36.10 34.88 40.04 37.99 35.92 34.77 35.37 29.67 36.78 36.10 34.66 31.03 26.71
50.21 50.83 51.24 52.09 53.97 54.58 53.35 52.91 51.73 50.52 49.98 50.01 48.06 46.83 46.82 45.29 39.54 37.70 41.39 42.74 46.67 43.33 17.46 35.84 37.82 46.94 46.09 41.40 42.59 42.93 44.75 41.46 35.32 35.77 34.96 33.03 35.32 34.45 34.10 35.23 37.61 34.24 38.54 36.26 34.59 30.83 29.82
49.75 49.83 49.80 50.28 50.86 50.88 50.73 50.35 50.04 48.93 47.71 46.74 46.33 46.10 45.83 42.91 40.94 41.24 42.80 44.61 42.99 30.39 18.67 34.37 40.61 39.19 39.45 41.83 42.18 43.38 42.36 43.53 42.08 36.63 35.10 35.46 38.45 36.92 36.26 38.80 38.38 39.28 36.60 34.78 32.61 30.36 23.70
49.71 49.39 49.53 49.43 49.15 48.90 48.63 48.06 47.42 46.89 46.29 45.62 45.46 45.25 43.40 43.08 38.75 43.82 43.85 41.33 29.02 23.28 35.82 34.78 36.56 39.78 38.86 38.49 39.88 40.52 38.70 36.16 31.79 28.90 29.39 34.50 35.73 38.48 39.59 34.82 37.22 36.00 31.40 23.77 22.10 21.77 21.93
49.49 49.39 49.18 48.73 48.46 48.04 47.54 47.01 46.25 45.67 45.17 44.63 44.39 44.05 42.65 42.32 42.35 43.50 42.24 35.13 23.93 29.12 31.70 35.06 38.13 39.15 35.95 35.31 34.79 36.45 35.59 31.75 32.89 33.66 30.05 27.51 26.75 34.86 38.95 35.82 33.27 32.34 31.27 24.77 20.24 20.93 22.89
48.80 48.57 48.37 48.15 47.66 47.09 46.60 46.14 45.30 45.10 44.31 43.57 43.38 40.08 39.23 43.23 42.95 42.87 36.89 26.71 26.82 30.00 33.19 32.04 34.19 31.50 30.87 33.00 32.77 33.00 31.23 30.58 31.40 31.24 28.55 25.87 28.34 35.66 37.89 36.49 35.98 32.93 28.34 33.86 28.97 27.20 24.16
47.64 47.25 47.03 46.87 46.71 46.71 45.96 45.08 44.38 43.37 43.45 44.02 38.05 38.70 39.72 44.72 43.68 41.06 34.41 30.14 30.59 33.94 34.38 34.27 28.86 31.58 26.91 28.94 29.42 30.31 29.92 32.04 30.78 32.75 33.72 30.21 23.96 33.93 34.31 37.61 35.86 32.62 35.93 25.60 26.75 22.84 20.40
47.01 46.62 46.54 46.25 46.00 45.96 45.08 44.22 43.60 43.52 43.94 44.24 37.41 34.49 40.73 43.52 43.48 37.73 27.77 30.05 32.27 35.77 35.80 32.16 30.16 29.08 29.54 28.70 29.59 28.55 29.22 32.21 33.23 32.32 34.43 31.48 27.63 27.18 31.08 29.33 27.15 28.43 29.80 30.92 32.36 29.36 23.31
46.65 46.37 46.24 46.13 45.96 45.91 45.12 44.72 43.90 43.75 43.56 39.81 35.96 29.13 39.28 42.25 33.61 34.19 29.89 33.08 36.69 34.41 37.03 34.74 34.84 32.80 30.53 30.75 28.49 28.90 27.74 31.36 36.07 34.46 29.55 32.02 27.67 23.37 24.26 32.06 33.15 30.94 32.14 32.39 26.17 24.60 26.71
46.20 46.26 46.57 46.36 45.88 45.08 44.80 44.44 44.20 43.83 43.13 36.44 32.43 29.57 38.65 40.51 27.67 27.31 31.48 32.41 34.07 33.76 33.09 33.21 32.03 33.88 33.50 29.40 25.54 29.31 30.46 34.94 35.23 33.67 28.87 29.25 24.58 18.36 20.16 25.96 30.66 28.45 29.72 30.68 29.97 29.72 24.76
45.54 45.41 44.92 44.64 44.87 44.54 44.44 44.22 43.71 43.63 43.63 36.62 32.89 24.05 29.51 34.48 34.74 30.70 29.37 30.39 30.07 35.61 33.20 34.87 33.39 33.69 30.37 28.86 30.40 27.83 28.92 33.03 34.69 34.90 38.48 34.20 26.40 23.03 16.87 21.53 25.98 24.31 26.72 28.54 27.16 19.45 22.54
45.05 44.84 44.84 44.99 45.11 44.44 43.85 43.34 43.26 43.11 43.42 37.93 33.05 28.17 32.45 26.14 28.51 30.87 31.36 32.10 29.36 28.77 33.72 34.66 30.35 30.58 29.23 25.91 26.40 25.52 28.50 29.64 32.16 35.13 32.33 29.36 22.81 25.33 25.79 26.60 25.80 24.23 24.28 25.73 24.81 25.87 22.18
45.25 45.15 45.44 44.99 44.44 43.50 43.26 42.90 42.78 43.20 44.04 36.50 31.11 30.18 32.21 30.55 32.61 29.71 29.45 29.11 30.05 30.63 31.68 29.54 28.53 29.95 29.12 25.26 26.15 24.22 26.92 26.72 26.18 29.62 27.34 27.97 22.19 23.99 22.13 24.21 24.05 23.05 26.15 26.94 26.92 27.60 27.51
44.42 44.41 45.13 44.41 43.82 43.15 42.96 42.88 43.20 44.14 43.04 35.09 35.19 35.69 32.44 29.76 28.27 27.12 27.51 30.26 30.38 31.33 32.09 32.44 31.08 28.39 27.11 28.33 30.38 30.53 30.52 30.04 29.07 27.54 25.48 24.38 20.74 19.94 17.46 24.50 24.36 19.99 25.79 29.19 27.95 29.81 30.58
44.29 44.51 44.72 44.58 43.78 43.16 43.05 42.85 43.50 44.50 41.41 36.82 35.88 34.37 29.46 24.51 27.48 28.46 31.64 31.61 30.17 30.50 27.93 30.70 30.87 28.03 31.91 34.11 32.28 30.54 29.06 28.43 28.29 28.16 28.53 22.97 21.92 20.25 17.68 21.77 12.60 25.81 32.80 32.39 31.89 32.72 34.48
45.15 44.36 44.43 43.82 43.28 43.28 43.05 43.13 43.57 44.70 44.12 37.62 37.22 34.02 31.02 24.76 29.34 30.17 30.41 29.79 29.95 30.55 28.59 30.84 32.84 33.74 33.44 31.11 26.19 24.47 24.19 25.87 27.26 29.02 27.76 27.94 24.28 17.31 14.01 16.82 22.90 26.95 30.31 28.68 28.16 28.57 32.38
45.38 44.53 44.27 43.42 43.52 43.35 43.19 43.28 43.84 44.48 44.50 37.68 36.27 37.32 33.67 27.55 26.57 31.65 28.39 29.03 25.10 24.80 26.92 29.94 34.36 34.23 31.76 24.73 21.84 19.79 16.63 22.38 23.04 26.29 32.10 28.39 28.51 23.19 23.10 12.49 11.57 22.49 29.38 33.01 33.29 24.59 30.46
45.34 45.26 44.43 43.55 43.80 43.60 43.33 43.48 43.58 44.45 44.72 38.21 35.81 37.21 33.13 26.35 31.61 31.23 27.39 26.87 29.39 26.13 24.61 27.24 28.94 29.10 29.16 17.20 13.38 12.86 18.84 26.11 21.80 18.34 25.27 24.94 24.84 20.68 20.63 18.80 22.34 27.38 30.48 33.24 23.55 23.10 28.97
44.90 44.98 44.89 44.41 44.19 43.73 43.29 43.31 43.19 44.12 44.69 38.12 35.73 37.07 33.73 28.11 31.21 34.31 34.89 29.46 28.59 27.27 21.65 25.73 24.01 24.60 23.04 19.93 18.92 13.78 12.25 23.64 21.76 22.18 26.79 25.38 22.78 22.92 24.09 21.42 18.85 29.65 29.73 24.01 29.02 30.18 28.89
43.40 44.72 44.84 44.48 44.46 43.95 43.39 43.33 43.13 44.19 44.81 40.49 34.63 38.64 37.31 32.09 31.48 34.37 34.89 35.16 33.56 32.49 28.13 27.31 25.68 26.47 24.73 20.17 20.05 20.48 19.14 21.19 20.93 19.50 30.73 23.38 25.65 23.60 23.87 22.42 30.29 30.78 29.52 31.08 32.20 30.16 28.89

GFSGBSN_sfc_wetblb_096.txt.gz
Wetbulb
55.60 55.42 55.87 56.48 57.02 57.82 60.47 60.89 59.81 58.66 58.08 57.84 57.46 56.98 56.77 56.10 55.25 54.53 53.97 53.42 51.87 51.18 50.85 50.49 50.60 51.50 46.33 36.95 38.22 44.63 58.59 58.24 52.58 47.77 43.74 41.47 39.43 36.86 33.19 34.87 37.35 36.43 38.92 40.83 41.72 41.66 40.90
55.87 55.95 55.95 56.00 56.32 56.58 57.73 59.35 59.72 58.76 58.06 57.57 57.07 56.58 56.18 56.19 54.84 53.81 53.26 52.26 51.51 50.98 50.46 50.51 50.49 50.37 42.93 30.55 43.60 47.20 47.59 52.59 47.74 43.85 43.12 43.72 42.01 42.09 39.31 38.72 36.75 38.30 38.14 39.01 39.56 39.40 39.20
55.02 55.54 55.60 55.76 55.89 55.93 56.29 57.00 58.50 58.95 58.37 57.69 56.89 56.33 55.85 55.16 53.77 52.99 51.72 50.83 50.68 50.62 50.41 50.28 50.53 48.36 42.20 36.95 45.66 44.13 49.61 51.21 48.59 46.24 44.76 45.36 45.29 41.93 40.71 37.92 41.15 40.66 36.78 38.47 39.32 39.07 39.04
55.02 55.36 55.78 55.84 56.02 55.72 55.80 55.62 57.18 58.63 58.49 58.02 57.25 56.07 55.19 53.94 52.96 51.73 50.14 49.81 49.61 49.87 50.05 50.30 51.10 47.27 37.52 48.42 47.27 46.46 44.89 43.98 46.96 48.08 47.80 47.23 46.67 41.61 39.22 40.30 38.48 35.06 34.23 30.99 36.80 37.85 40.30
54.50 55.16 55.62 56.12 55.84 56.37 55.60 55.24 55.39 57.85 58.44 57.72 56.99 55.72 54.19 53.07 52.09 50.17 48.72 48.17 48.33 47.98 49.57 50.02 48.75 45.65 36.66 49.88 46.85 48.88 46.67 43.68 44.39 45.16 44.31 47.70 42.21 38.32 37.46 33.34 30.24 30.77 26.43 29.27 33.62 38.23 36.93
53.86 54.17 55.19 55.93 56.18 57.44 56.85 55.91 55.83 56.96 57.66 57.31 56.51 54.94 53.30 52.04 50.56 48.97 47.89 47.01 47.17 48.66 49.00 49.46 49.65 39.17 41.79 40.35 48.06 49.84 47.51 46.44 43.27 42.86 41.04 39.70 36.67 32.70 31.28 30.62 24.58 26.27 26.99 26.24 28.67 33.93 33.73
53.59 53.04 55.02 55.77 56.51 57.89 58.19 57.85 56.75 56.92 57.24 57.05 55.88 54.21 52.59 51.15 49.52 47.76 46.51 43.13 41.31 40.73 44.11 40.07 39.95 37.44 41.52 46.43 48.54 44.80 47.45 44.58 43.24 39.78 34.18 36.50 30.69 28.10 33.12 32.35 33.08 32.15 29.76 28.71 30.27 34.86 32.73
52.47 52.45 54.12 56.09 56.57 58.12 58.26 58.06 57.02 56.85 56.95 56.32 54.71 53.26 52.03 50.20 48.76 48.15 45.09 37.48 41.69 42.36 34.43 42.39 42.52 42.33 44.60 46.88 41.92 45.76 46.45 40.87 39.00 34.60 35.80 32.16 28.58 35.41 35.57 34.24 32.61 31.04 28.36 27.82 31.48 34.72 32.70
51.46 52.12 53.56 55.42 56.38 58.13 58.04 57.98 57.14 56.61 56.10 54.84 53.55 52.54 50.57 49.31 48.95 46.05 42.09 39.49 44.81 44.56 33.43 36.01 40.49 41.08 42.25 44.68 40.14 43.51 43.03 40.31 36.59 34.67 34.08 30.52 34.94 38.30 36.25 33.46 31.69 30.84 29.01 29.67 30.19 33.21 34.08
50.84 51.44 52.73 54.14 57.02 57.77 57.57 57.41 56.97 56.32 54.92 53.37 52.18 50.78 49.64 48.43 41.86 41.52 39.26 43.43 43.55 42.89 26.53 29.30 34.38 40.33 43.35 45.36 39.61 46.24 44.42 40.61 35.95 34.26 34.74 33.15 37.77 36.26 33.87 33.32 33.58 28.16 34.66 34.17 32.52 29.79 25.52
50.50 50.98 51.53 52.01 52.43 53.99 54.03 55.58 55.56 54.30 52.83 51.12 50.29 48.72 47.48 43.74 40.69 39.35 42.52 43.16 42.02 40.92 15.59 33.30 35.56 44.89 44.22 39.94 39.79 41.26 43.88 39.87 33.83 34.05 34.24 32.16 33.90 33.31 31.97 34.12 36.07 32.13 37.25 34.66 33.05 29.52 27.49
49.37 49.77 50.06 50.31 50.15 50.09 50.53 50.49 50.27 49.88 49.16 48.48 47.74 47.10 46.00 43.25 41.83 42.23 42.90 45.36 43.72 26.88 15.88 31.47 37.59 36.99 38.15 39.30 40.40 40.85 39.73 41.31 39.23 34.60 33.72 34.07 36.58 35.98 35.71 37.82 37.18 38.25 35.47 33.93 31.15 28.99 22.18
49.39 49.08 49.19 49.16 49.28 49.08 48.70 48.47 48.17 47.65 47.09 46.65 45.98 45.14 42.94 43.67 37.10 43.58 43.66 41.15 25.22 18.23 33.60 32.37 33.91 37.46 35.75 35.73 38.44 38.95 36.53 33.61 30.26 27.18 26.82 32.57 34.20 36.89 38.80 34.32 36.52 35.05 30.40 23.48 20.83 20.95 21.25
49.69 49.44 49.08 48.83 48.59 48.41 48.07 47.83 47.36 46.95 46.60 46.08 45.28 44.37 43.26 42.76 42.03 43.18 42.63 33.42 19.25 26.68 28.24 34.34 35.38 36.87 34.84 37.09 34.86 36.66 33.49 28.63 30.73 31.75 28.76 27.19 25.71 33.72 37.85 35.61 33.35 32.83 31.09 24.58 19.18 20.80 21.91
48.72 48.68 48.61 48.19 47.99 47.76 47.30 46.87 46.36 45.99 45.64 45.45 44.65 39.65 37.91 40.85 41.46 42.74 36.07 24.50 22.39 29.19 32.12 30.82 36.87 33.17 29.65 32.72 32.71 32.13 30.40 28.16 29.62 30.72 29.16 27.41 28.43 35.37 36.10 35.78 35.43 32.74 27.41 32.41 26.58 27.13 23.62
48.53 47.92 47.77 47.45 47.04 46.94 46.34 45.96 45.78 45.61 44.68 44.57 38.64 37.70 38.42 43.01 43.85 41.42 32.02 26.14 28.75 33.20 33.63 34.06 28.69 29.97 26.52 28.70 29.46 29.96 29.03 32.00 30.94 33.59 34.36 29.95 24.76 32.44 33.91 35.70 34.94 32.39 34.97 26.62 26.84 21.29 20.22
47.92 47.45 47.26 46.89 47.18 46.67 45.82 45.35 44.35 44.37 44.44 44.17 37.08 33.82 39.91 43.86 43.17 36.16 26.67 28.47 32.37 35.56 35.54 31.52 29.87 28.44 29.16 28.24 29.21 28.39 28.45 31.94 33.83 33.14 34.26 31.30 27.94 27.52 31.19 29.22 26.17 26.65 26.62 29.95 29.73 28.40 23.01
47.49 47.17 46.95 46.72 46.50 46.36 45.11 44.42 44.06 44.11 44.81 40.15 34.30 28.25 40.99 41.42 32.33 32.43 28.20 33.52 36.45 34.09 36.62 34.56 33.42 32.01 30.12 30.23 28.38 27.97 27.27 30.75 35.11 34.26 29.26 31.92 28.60 22.77 24.60 31.06 33.52 30.85 31.80 30.34 23.20 23.11 25.48
47.17 47.01 46.68 46.59 46.28 46.04 45.13 44.61 44.13 44.06 43.64 35.61 31.07 32.06 37.88 39.73 26.94 28.88 32.08 32.35 33.78 33.20 32.81 33.15 31.84 33.58 33.15 29.18 26.06 29.52 29.78 34.23 35.60 33.24 28.50 29.93 24.58 18.26 20.37 26.20 29.67 27.31 28.33 29.42 27.88 25.94 20.24
46.80 46.79 46.81 46.71 46.07 45.04 44.64 44.67 44.30 44.18 43.96 37.20 31.00 22.79 31.44 35.14 34.56 29.10 28.24 29.80 30.03 35.44 33.31 34.38 32.67 33.52 30.91 28.55 30.01 27.52 28.41 31.94 34.04 35.03 37.28 33.49 25.92 21.85 16.32 20.93 25.40 23.85 25.52 26.51 24.36 11.03 16.09
46.24 46.17 45.56 45.19 45.11 44.65 44.30 44.15 43.70 43.86 43.98 37.37 32.60 25.01 30.41 23.23 27.66 29.37 30.74 31.86 29.34 28.69 33.71 33.94 30.51 30.74 29.10 25.14 25.87 25.28 27.84 28.77 31.59 34.21 31.16 28.78 22.37 24.82 25.04 25.73 24.93 24.25 23.10 22.66 21.58 23.17 17.32
45.45 45.33 45.19 44.72 44.79 44.44 43.77 43.59 43.44 43.40 44.15 36.52 29.09 30.15 30.86 29.15 31.76 29.92 29.74 29.07 29.74 30.10 31.31 29.22 27.67 29.60 29.01 25.63 26.15 24.23 26.68 26.55 25.70 28.69 26.94 27.40 21.94 23.23 21.22 24.51 23.29 21.74 23.29 23.89 24.73 25.21 25.19
44.95 45.14 44.93 45.09 44.39 43.56 43.26 43.12 43.21 44.08 43.51 35.33 34.97 35.07 32.04 29.33 28.18 27.25 27.58 30.01 29.31 30.62 31.25 32.06 30.44 28.07 27.02 28.29 29.99 29.74 29.82 29.24 27.27 26.30 25.01 24.27 20.15 18.82 15.95 23.72 22.76 18.23 23.26 27.62 28.37 30.21 30.04
44.98 44.95 45.17 44.49 43.79 43.26 42.94 42.99 43.44 44.23 43.69 37.00 35.70 33.94 29.42 25.20 27.43 28.18 31.10 31.16 29.63 29.95 27.18 30.25 30.80 28.53 31.49 33.42 31.73 30.14 28.29 27.10 26.16 26.19 27.76 22.98 21.50 19.31 16.74 20.34 7.99 23.96 31.92 31.34 28.51 31.07 29.91
44.76 44.85 44.81 44.37 43.81 43.27 42.92 43.09 43.46 44.66 43.40 36.94 36.50 33.80 30.63 23.97 28.89 29.37 29.87 29.06 29.38 30.61 29.25 30.22 31.98 32.69 32.27 30.74 26.17 24.30 23.56 25.27 26.39 26.88 25.78 26.59 23.13 16.10 11.48 15.09 20.45 24.54 28.09 26.30 26.45 26.41 29.90
45.04 44.58 44.51 43.74 43.73 43.17 43.27 42.92 43.58 44.95 43.76 37.23 35.88 36.60 31.83 27.65 25.94 31.13 27.69 29.01 24.96 25.87 27.27 29.53 33.19 32.83 30.42 24.39 21.52 18.97 15.99 22.24 22.05 24.85 28.87 26.68 27.67 22.00 20.74 11.39 8.56 20.86 27.96 32.06 31.77 22.40 28.33
45.08 44.83 43.91 43.46 43.47 43.37 43.12 43.39 43.83 45.06 43.37 37.30 35.32 36.09 32.91 26.37 30.40 30.91 26.97 27.10 29.05 27.13 25.17 26.88 28.53 28.45 28.42 17.32 13.87 11.97 18.12 24.80 20.23 18.34 23.93 22.96 23.65 19.48 18.77 16.01 18.91 26.09 29.00 31.50 21.88 20.56 27.82
44.94 44.97 44.25 43.98 43.55 43.25 43.25 42.90 43.88 44.99 43.49 37.58 35.29 36.83 33.57 28.88 30.80 33.52 33.66 29.23 28.70 27.71 22.44 25.45 23.28 24.00 22.28 19.01 18.31 12.83 11.49 20.45 20.25 15.67 25.13 23.26 21.68 21.28 22.40 18.24 14.49 28.36 28.55 21.84 26.60 29.04 28.65
44.95 44.81 44.50 44.60 43.60 43.36 43.18 43.15 44.59 44.54 43.69 39.77 34.41 37.70 36.89 31.94 30.65 33.88 34.58 34.82 33.05 31.35 27.29 27.26 24.52 25.87 23.59 19.73 19.89 20.41 19.41 16.48 17.63 17.88 27.28 18.02 21.59 21.32 23.16 19.97 28.94 29.51 28.14 29.42 29.58 27.97 27.39

GFSGBSN_sfc_wetblb_102.txt.gz
Wetbulb
55.20 54.94 55.12 55.22 55.90 55.82 55.51 56.07 56.39 56.49 56.48 56.78 57.81 59.07 59.70 59.60 58.98 57.79 56.19 54.92 54.29 52.92 50.99 50.66 50.55 51.23 48.52 44.19 46.78 54.81 58.44 57.08 55.54 54.65 50.52 49.52 47.34 46.71 43.43 44.27 45.67 43.81 44.78 45.79 46.66 46.47 46.66
54.32 54.21 54.53 54.45 54.98 55.16 55.29 55.73 55.82 56.05 56.21 56.25 56.10 56.38 58.58 58.84 58.71 57.70 56.13 54.47 53.24 51.79 50.49 50.15 49.91 50.49 45.92 40.99 54.06 49.25 53.60 55.48 54.30 52.55 50.17 49.48 47.27 47.67 44.65 43.69 43.24 45.58 45.57 45.99 47.36 47.48 47.74
53.71 54.56 54.10 54.51 54.87 55.50 55.36 55.08 54.80 55.28 55.78 56.31 55.92 55.25 56.07 58.16 58.07 57.28 55.44 54.17 52.10 50.71 50.01 49.55 50.13 48.94 45.18 46.67 53.48 51.37 50.89 50.64 53.30 51.62 48.39 49.60 49.21 46.36 46.42 43.73 46.82 46.18 42.73 44.92 46.02 46.48 45.72
52.96 53.25 53.56 54.22 54.54 55.08 54.61 54.36 54.10 54.57 55.32 55.98 56.31 56.08 55.65 56.91 57.20 56.51 54.74 52.51 51.34 49.68 48.14 47.83 49.44 48.99 43.93 52.37 53.87 51.24 51.34 49.35 52.57 53.15 50.63 50.57 50.69 48.39 47.48 47.98 44.83 42.83 43.89 40.47 45.51 46.40 46.90
52.62 52.70 53.51 53.78 53.86 54.75 54.23 53.71 53.87 54.77 54.79 55.14 56.04 55.97 55.45 56.07 56.27 55.02 52.98 51.45 49.94 49.23 48.45 48.52 46.29 45.19 42.12 52.05 48.36 51.92 52.00 48.16 48.49 51.10 50.94 51.17 49.94 46.49 47.26 42.57 41.09 42.39 38.74 40.97 42.55 46.74 45.86
52.26 53.19 53.59 53.36 53.64 54.12 53.65 53.91 54.41 54.80 54.57 54.71 55.72 55.86 55.38 55.69 55.36 53.11 51.43 49.93 48.86 47.90 48.44 49.37 48.14 43.20 47.62 48.27 50.01 50.07 53.35 50.51 46.42 46.20 46.55 46.13 44.22 42.50 42.91 41.11 35.17 38.85 39.20 41.07 40.63 43.94 43.81
52.41 52.11 52.49 52.72 53.82 53.42 54.21 54.77 55.03 54.47 54.44 55.14 56.34 55.83 55.32 55.85 53.70 50.94 48.65 46.47 43.04 41.44 44.52 45.54 46.08 46.60 49.16 50.25 50.96 49.89 51.40 48.14 45.75 43.65 40.14 41.90 36.60 37.24 40.99 42.13 41.32 40.74 40.38 40.07 42.08 44.07 40.82
51.95 52.11 52.65 52.40 52.23 53.32 53.67 54.95 55.14 55.60 55.69 56.21 56.13 55.54 55.34 55.21 52.26 50.53 49.85 44.50 47.14 48.17 43.81 47.73 47.56 48.43 50.10 49.46 44.65 47.71 51.07 43.77 39.85 38.22 40.59 38.73 35.25 42.28 43.41 42.16 39.82 39.83 38.30 38.66 41.47 42.66 40.68
52.41 52.85 51.51 51.31 52.04 52.83 53.62 55.10 55.83 56.47 56.47 56.37 55.63 55.48 55.46 52.51 50.83 48.78 46.79 46.04 48.00 48.51 38.75 45.43 48.00 46.73 48.56 49.14 45.31 47.96 48.76 46.54 41.23 37.00 36.47 34.85 39.40 41.10 40.51 38.91 36.51 38.03 37.31 37.89 37.28 41.33 42.93
51.83 51.56 51.09 51.49 51.93 52.78 53.29 54.41 55.67 56.53 56.09 55.57 55.19 55.05 52.64 50.47 46.24 44.61 41.95 45.10 46.49 46.25 34.48 40.36 40.87 44.08 46.83 46.99 42.97 50.58 50.11 46.60 41.22 38.32 37.09 34.39 38.15 36.51 38.38 37.41 39.06 35.08 40.07 38.70 38.51 38.36 35.52
51.43 51.03 50.71 51.42 51.49 51.33 51.80 52.39 54.24 56.61 55.99 55.51 54.73 52.58 50.05 50.90 44.36 42.38 44.14 46.36 45.51 43.70 25.32 40.77 40.12 47.53 46.39 43.37 44.86 45.60 51.63 44.82 40.74 39.30 38.09 36.22 36.77 35.77 33.69 38.31 40.38 37.44 40.89 39.52 39.99 38.77 38.54
50.89 50.69 50.33 49.90 49.77 49.75 50.25 50.89 50.91 51.61 52.95 52.74 51.10 49.38 47.01 44.99 44.80 44.14 46.00 46.61 44.31 33.56 25.35 36.75 39.93 38.86 39.71 41.96 42.54 44.76 45.89 46.03 44.33 38.42 38.40 38.50 41.49 39.10 37.66 39.62 40.33 41.60 39.24 39.97 40.34 38.64 31.77
50.16 50.81 50.39 50.09 49.40 49.02 48.81 48.59 48.35 48.11 47.97 47.73 47.47 46.74 45.08 45.74 40.04 45.92 45.80 42.14 29.97 27.81 36.93 36.25 36.86 39.63 38.98 37.73 38.57 41.15 39.93 36.00 34.04 32.31 32.43 36.69 36.81 40.80 42.01 37.90 40.55 38.93 35.59 28.82 27.00 27.66 28.75
50.00 50.37 50.39 49.97 49.57 49.18 49.19 48.79 48.60 48.19 48.20 47.73 46.88 45.85 45.16 45.04 45.78 46.32 44.22 35.56 26.72 32.11 34.03 37.20 36.42 38.51 36.24 39.00 38.22 39.34 39.14 35.27 39.16 37.79 34.34 29.95 27.62 37.30 41.51 39.19 36.57 36.56 35.93 29.29 22.72 26.64 31.25
49.14 49.72 50.22 49.76 49.57 49.14 48.93 48.84 48.33 47.70 46.97 45.99 45.33 43.55 42.60 44.70 46.86 46.66 38.98 29.84 30.24 32.32 35.53 33.89 36.08 34.84 36.32 37.71 37.66 38.29 38.37 37.35 38.30 39.24 32.94 32.11 31.11 39.13 39.47 40.37 40.82 37.49 34.53 40.32 33.38 34.22 31.75
48.61 49.24 49.76 49.64 49.10 48.47 48.11 47.93 47.95 47.06 45.69 44.39 42.59 42.21 39.38 43.94 45.99 42.64 36.31 30.79 32.30 35.93 35.67 35.63 31.26 31.72 33.10 35.03 35.24 36.28 36.20 36.66 34.97 37.48 39.27 35.16 29.16 36.57 37.38 39.93 39.26 40.17 42.00 33.10 34.88 25.55 25.09
48.26 48.47 49.50 49.51 48.60 48.01 47.76 47.54 47.40 46.76 45.31 44.06 42.43 38.28 40.81 44.10 44.87 37.05 31.30 32.38 34.06 37.57 37.00 34.69 33.22 31.32 31.26 31.53 35.20 32.67 33.91 34.95 35.70 34.42 38.13 35.53 33.63 32.56 35.26 34.06 33.99 35.74 35.80 36.82 36.41 34.25 27.57
47.79 47.02 48.91 49.12 48.47 47.69 47.62 47.51 47.02 46.83 45.40 42.75 41.96 33.50 43.23 44.99 33.79 35.22 32.28 34.07 36.73 35.59 38.41 36.91 37.10 34.45 31.52 32.64 32.88 31.98 30.80 33.77 37.49 36.95 32.98 36.22 33.25 28.98 30.21 35.80 36.68 35.15 34.59 34.47 30.19 29.05 32.41
47.19 46.27 47.33 48.69 48.62 47.92 47.42 47.01 46.75 45.90 45.30 42.98 36.75 35.29 41.77 41.79 30.98 31.90 34.76 33.94 35.55 34.78 36.02 36.15 34.08 35.12 35.10 32.77 29.39 33.29 32.06 35.28 36.61 35.18 33.15 34.89 30.99 25.58 27.39 32.16 34.48 31.79 32.85 33.00 32.26 31.92 28.38
46.01 45.94 45.97 48.31 48.52 47.72 46.98 46.10 45.93 46.15 45.26 43.63 38.65 31.50 36.30 37.85 37.09 34.02 32.16 32.20 31.74 37.50 36.22 37.44 36.22 36.05 33.20 31.23 34.21 31.51 31.31 33.93 38.04 37.21 37.02 36.46 31.56 28.95 26.04 27.87 31.66 27.86 30.26 31.32 29.74 27.15 27.72
44.19 44.90 45.83 47.42 47.63 47.32 46.17 45.16 45.18 45.91 45.05 42.75 38.44 34.62 36.72 30.56 32.59 34.18 34.83 34.07 32.10 31.63 37.05 37.41 34.42 33.74 32.91 28.80 29.94 29.53 31.63 33.01 34.88 35.22 35.69 34.84 27.63 28.84 29.17 29.93 29.80 28.95 29.26 30.02 28.20 29.37 24.85
43.22 44.69 45.24 47.30 47.25 47.16 46.55 45.71 44.89 44.97 44.75 40.30 35.83 35.10 36.67 35.39 35.69 33.80 33.28 32.34 32.36 33.46 34.71 32.71 32.47 33.76 34.49 30.56 30.95 28.70 31.42 32.68 31.69 33.54 33.06 33.25 26.94 28.57 25.81 29.11 29.09 27.20 29.82 30.33 30.03 30.02 29.72
42.71 45.99 45.60 46.59 46.89 46.51 45.68 45.27 45.10 44.76 43.90 39.72 43.04 42.28 38.63 34.39 33.34 32.02 32.74 33.56 34.06 35.46 34.74 36.18 35.65 33.22 32.13 32.20 35.46 35.88 36.46 35.62 34.85 32.43 30.26 29.26 28.56 25.15 22.35 26.64 26.17 23.35 28.25 30.09 30.78 32.18 32.41
45.44 46.52 45.64 46.59 46.04 45.17 44.85 44.65 45.06 44.72 44.23 44.19 43.50 42.08 37.41 31.90 33.06 33.04 34.50 35.76 34.71 35.44 33.26 34.93 35.89 33.48 34.43 39.18 38.41 37.18 35.49 34.09 33.86 33.06 33.72 28.77 27.84 26.86 23.96 24.56 16.18 28.43 33.90 33.02 29.50 32.32 32.19
43.13 45.73 46.52 45.95 45.95 45.20 44.45 43.59 44.09 44.14 44.78 43.50 44.82 41.04 38.80 32.90 34.46 34.02 34.82 34.48 35.41 35.92 34.23 34.34 34.95 36.56 39.74 36.50 32.19 28.74 28.79 29.99 30.45 32.44 31.41 33.25 30.23 25.78 23.52 23.58 26.30 26.84 28.96 28.12 27.25 26.22 29.75
44.21 45.62 45.69 45.45 44.45 44.60 44.49 43.49 44.16 44.55 45.39 44.52 43.69 44.10 40.45 35.65 33.34 36.08 34.36 35.85 33.04 33.11 32.95 33.37 36.90 38.94 38.13 35.08 31.04 23.94 22.13 26.35 25.41 28.09 33.63 31.97 32.74 29.41 25.60 19.41 17.79 27.64 31.09 33.29 30.65 23.57 28.53
45.03 45.55 44.93 44.67 44.61 44.33 44.06 43.91 44.57 45.34 46.18 44.18 42.21 43.82 40.78 36.52 35.91 36.38 34.17 33.80 36.37 34.61 32.89 33.49 34.19 34.39 37.26 32.72 28.92 26.76 25.11 29.85 24.95 25.02 25.43 26.26 26.16 24.36 24.83 23.67 25.75 26.95 31.85 32.71 22.97 23.79 28.31
45.19 44.98 44.59 44.55 44.23 44.02 43.92 44.20 45.24 45.83 45.02 42.93 41.26 43.15 40.94 37.24 36.36 37.57 37.27 35.48 35.56 36.29 31.87 33.82 32.82 33.14 33.21 29.00 29.52 27.60 28.47 29.66 27.65 27.54 27.32 26.77 25.04 24.85 26.34 22.73 19.30 31.46 31.47 26.72 27.44 29.96 28.89
44.72 44.36 44.26 44.22 44.07 44.31 43.82 44.36 45.14 45.17 44.54 43.08 40.16 42.60 43.16 39.94 36.14 39.88 39.36 39.32 38.70 38.90 36.81 35.52 33.17 32.14 34.88 32.10 32.41 32.27 29.54 30.94 28.97 24.29 30.92 26.00 28.48 28.21 26.69 25.55 29.79 30.25 28.40 29.82 31.14 29.54 28.66

GFSGBSN_sfc_wetblb_105.txt.gz
Wetbulb
55.27 55.20 55.22 55.09 55.21 55.39 54.94 55.86 56.07 55.91 56.22 56.54 56.70 57.07 57.26 58.35 59.68 59.32 57.61 56.16 55.47 54.62 53.25 51.17 50.90 51.33 51.58 49.97 51.73 60.31 59.49 57.54 56.39 56.05 52.35 51.98 50.07 50.07 47.36 49.76 49.98 48.64 49.23 50.12 50.10 49.25 49.06
54.08 54.36 54.71 55.05 54.42 54.61 54.80 55.68 56.02 55.53 55.19 55.21 55.85 56.23 56.48 56.55 57.07 58.77 57.72 55.85 54.88 54.17 52.15 50.92 50.11 50.53 48.49 46.17 59.95 60.68 54.84 56.10 54.44 54.19 53.13 52.88 51.36 52.16 49.10 47.93 47.09 49.09 48.64 48.57 49.54 49.23 49.39
53.46 53.47 53.89 54.41 54.47 54.65 54.97 55.49 55.44 55.08 54.92 54.76 55.02 55.64 55.98 56.17 56.28 57.18 57.66 55.45 54.35 53.22 51.65 50.35 49.61 50.07 48.19 50.19 60.07 59.62 54.45 54.77 57.44 55.73 53.20 54.90 53.83 50.44 49.96 47.44 50.20 48.72 44.92 47.43 48.01 48.88 48.50
52.95 53.03 53.10 54.01 53.97 54.08 54.31 54.86 55.26 54.97 54.47 54.58 54.86 54.84 55.28 55.71 55.74 56.06 56.92 54.62 53.47 51.98 50.49 48.53 48.52 49.17 46.45 57.71 59.86 58.15 58.68 54.34 54.84 55.57 54.53 54.63 53.78 50.04 47.63 49.57 48.07 46.32 46.61 42.35 48.48 49.41 49.33
52.68 52.93 52.85 54.11 53.85 53.79 53.45 54.42 54.24 54.11 54.37 54.87 54.89 54.74 55.05 55.39 55.22 55.49 55.43 53.65 52.36 50.91 49.16 48.82 49.37 49.59 47.77 56.02 52.76 55.65 56.55 53.62 54.05 53.29 54.14 53.88 51.28 48.52 47.38 43.09 41.29 45.32 39.98 43.53 46.26 50.70 48.48
51.95 52.39 52.91 52.95 53.46 53.64 54.35 53.96 53.49 53.79 54.42 54.74 54.87 54.99 55.08 55.18 54.96 55.11 53.33 51.86 50.46 49.46 48.35 49.78 50.10 44.74 50.40 50.09 54.84 53.35 55.26 54.32 51.83 51.46 49.40 49.29 47.15 44.99 45.16 41.84 34.98 40.34 41.27 44.75 43.58 48.32 47.32
52.12 52.50 52.31 52.42 53.44 53.65 52.84 53.65 53.72 53.54 54.13 54.72 55.31 55.49 55.25 55.37 54.94 52.62 49.73 47.97 44.62 42.71 44.64 48.00 48.87 48.68 51.34 54.83 54.52 52.33 55.15 52.57 50.91 47.61 42.70 46.72 41.98 40.12 43.89 45.56 45.02 43.95 42.40 43.40 45.99 48.95 46.26
51.57 51.99 52.16 52.58 52.50 52.09 52.48 53.60 53.54 53.70 54.29 54.86 55.85 55.69 55.59 55.23 54.11 51.02 54.28 47.30 51.34 51.45 45.71 49.00 50.25 51.20 53.31 54.71 48.92 51.63 54.35 47.64 47.11 42.64 45.83 41.68 37.94 44.32 46.41 44.17 42.16 42.26 41.00 41.28 44.18 46.86 45.17
52.07 52.09 51.96 51.66 51.33 52.28 52.51 53.36 53.47 53.68 54.00 54.94 56.01 55.89 55.65 54.76 51.76 51.70 49.76 51.51 50.90 51.81 42.12 47.04 51.10 50.54 51.26 52.26 48.28 49.21 52.37 49.13 45.28 42.73 42.96 41.02 42.92 44.16 42.17 40.58 37.32 38.59 38.14 39.42 38.07 42.54 45.13
51.77 52.27 52.27 51.46 50.84 51.84 52.48 52.44 53.20 53.70 54.50 55.49 55.67 55.27 54.43 52.23 48.72 49.82 46.90 48.09 50.50 51.82 36.68 42.04 45.75 48.36 50.64 50.87 46.07 52.42 53.36 50.24 45.27 42.23 42.36 41.34 45.15 42.17 39.64 37.71 38.49 32.76 40.89 39.91 39.56 38.71 34.54
51.31 51.56 51.92 51.60 51.06 51.77 51.46 51.90 52.52 53.52 55.55 56.05 54.85 54.33 52.02 51.31 46.74 45.47 45.25 48.89 47.00 47.48 26.69 43.04 46.13 51.17 49.32 46.67 47.25 47.82 52.88 49.16 43.19 41.46 40.59 39.87 39.79 39.23 37.87 39.03 39.47 36.87 40.44 38.81 39.95 36.69 38.15
51.19 51.37 51.37 51.45 50.90 51.02 50.61 50.38 50.28 52.41 55.47 55.21 54.03 51.99 50.95 48.85 49.46 50.42 49.48 47.77 47.17 34.22 25.90 40.40 43.69 41.60 42.50 45.42 45.65 46.95 46.82 50.43 47.17 40.17 39.69 40.05 43.78 41.77 40.97 40.83 39.14 40.15 38.13 38.34 39.45 38.10 30.49
50.36 50.73 50.77 51.08 50.26 49.74 49.54 48.79 48.90 49.27 50.57 52.48 51.20 49.99 48.08 48.85 43.60 50.90 49.40 45.48 31.47 28.30 40.69 38.99 39.46 42.28 41.55 41.61 42.20 43.23 42.30 40.21 38.17 32.75 33.51 38.24 38.64 40.71 41.99 37.92 39.40 37.62 34.18 26.98 25.72 27.49 29.20
49.77 49.95 50.16 50.30 50.46 49.53 49.06 48.64 48.15 48.46 48.50 48.33 47.41 46.70 46.17 46.08 48.32 47.28 45.18 37.22 27.77 37.15 37.67 41.01 40.49 41.68 39.14 42.26 42.13 42.03 40.22 37.05 41.13 39.52 36.52 33.53 31.40 38.65 41.05 37.93 36.70 36.15 34.02 28.25 22.08 23.32 27.86
48.78 49.11 49.72 49.74 50.25 50.20 49.79 49.23 48.82 48.74 48.09 47.26 46.35 44.93 44.07 45.46 47.37 46.67 39.41 31.76 34.00 36.81 40.49 37.95 38.46 36.74 38.05 40.59 41.31 40.95 39.30 38.87 39.99 41.69 34.81 33.45 33.64 42.33 41.99 42.28 40.81 36.02 33.32 38.61 32.52 34.61 31.35
48.00 48.57 49.24 49.30 49.59 50.22 49.85 49.46 48.61 48.19 47.29 46.74 43.54 41.19 41.23 46.31 48.18 43.90 35.87 34.30 38.44 41.14 39.62 38.55 32.82 36.07 35.15 38.09 38.49 38.41 37.99 42.12 40.69 43.30 44.02 36.88 31.54 39.80 40.92 41.92 42.25 39.62 42.07 32.10 33.34 25.69 25.31
47.64 47.86 48.30 48.82 49.31 49.82 49.19 49.09 48.63 47.63 46.64 46.21 44.71 38.91 41.36 45.68 45.88 37.58 34.30 36.48 39.30 41.93 40.44 37.41 36.09 35.55 36.19 36.57 38.52 37.61 37.96 38.67 41.86 39.94 41.39 38.52 36.18 34.08 38.01 36.76 34.47 37.42 36.18 36.48 35.93 33.31 27.67
46.66 47.07 47.61 47.59 45.56 49.43 49.06 48.59 48.10 47.03 45.48 42.12 42.51 36.22 42.24 45.01 33.94 35.32 34.23 37.31 38.30 39.14 40.81 39.11 39.43 37.74 36.22 37.41 36.22 36.32 37.07 37.91 40.20 40.66 37.37 40.36 36.57 31.93 34.22 38.39 39.30 38.26 37.00 36.22 30.25 29.05 31.99
45.35 46.15 46.75 47.41 46.83 47.49 48.67 48.61 48.01 47.60 46.21 44.74 39.29 36.53 42.67 42.32 31.72 32.32 36.92 37.41 38.43 37.31 38.01 37.67 36.83 38.91 39.14 36.37 32.51 35.80 37.14 38.85 40.11 39.89 38.05 38.78 33.79 29.11 30.47 34.90 37.92 35.41 37.00 37.14 36.32 34.96 29.92
44.75 45.39 46.36 46.80 46.40 48.23 48.33 48.42 47.93 47.45 46.61 43.74 39.23 33.53 34.63 36.41 37.80 36.18 33.55 34.11 34.48 39.99 38.61 39.41 37.63 38.85 36.89 35.28 37.98 35.00 34.85 37.38 39.01 39.16 36.82 37.55 35.01 32.55 27.54 30.63 35.73 31.63 34.04 35.52 33.63 29.43 30.30
44.55 44.89 45.64 45.57 45.61 45.59 48.11 48.14 47.94 47.37 46.18 42.29 40.35 37.13 39.14 31.44 33.59 36.38 36.93 35.65 34.28 33.90 38.81 39.65 36.67 36.73 35.79 31.81 33.57 33.33 36.19 35.90 37.56 36.69 37.25 37.25 29.94 32.61 32.41 32.57 32.66 32.45 32.76 33.34 31.34 32.22 27.86
44.57 44.80 44.44 45.23 46.21 44.84 48.34 47.66 47.23 47.18 45.88 39.95 37.52 37.68 39.91 37.83 37.72 34.98 35.10 34.74 34.96 36.11 36.91 35.37 34.92 36.62 37.41 33.52 33.83 32.54 34.98 35.36 33.46 35.89 35.72 35.62 30.56 31.53 29.79 31.95 31.58 29.55 32.13 32.67 32.33 32.53 32.43
44.44 44.81 44.35 45.12 45.61 44.86 47.50 47.01 46.65 46.72 44.71 39.34 43.34 44.16 40.11 36.54 36.37 33.89 34.91 35.89 36.38 37.93 37.73 38.72 37.86 36.49 35.47 35.82 38.25 39.81 39.94 38.37 37.69 35.79 34.18 32.96 31.69 28.61 25.92 29.12 28.89 25.86 30.69 32.17 32.97 34.32 33.70
44.71 44.32 44.32 44.81 45.23 45.14 47.14 46.25 45.97 46.04 45.03 45.15 44.39 42.89 37.98 33.45 34.31 34.21 36.21 37.62 36.48 37.57 34.93 37.52 39.35 37.05 38.30 41.36 40.69 39.54 38.41 37.18 36.93 35.85 37.15 31.43 30.63 29.61 27.31 27.17 19.01 30.56 35.98 34.33 32.37 34.11 35.54
43.86 44.06 44.04 46.34 46.62 46.70 46.63 46.06 45.76 45.68 45.28 43.68 44.48 42.31 39.34 34.85 35.78 36.17 36.82 36.73 37.82 38.42 37.02 37.14 38.03 40.65 41.95 39.11 33.62 29.82 29.89 30.44 31.47 33.60 33.66 35.28 32.50 28.55 24.96 25.09 29.34 30.22 31.90 29.58 27.84 29.21 30.83
42.92 43.61 46.80 45.98 45.52 46.51 45.78 45.40 45.50 45.45 44.79 44.20 43.94 45.70 41.86 36.92 35.19 39.16 36.87 38.04 35.28 34.75 35.34 36.21 39.98 42.71 40.86 35.94 32.68 25.96 24.16 28.65 26.84 29.66 35.85 33.69 35.30 31.00 28.12 22.80 19.90 29.51 33.08 36.19 33.20 26.26 30.83
42.20 45.89 45.94 45.30 44.99 45.08 44.88 44.62 44.90 44.81 44.57 45.02 43.22 47.43 42.18 37.73 39.28 39.70 36.32 36.50 39.25 37.30 34.72 36.36 36.78 36.53 39.30 33.36 29.80 28.23 27.53 32.61 26.64 25.90 26.65 28.40 29.43 27.22 27.39 25.69 26.63 30.42 34.33 35.46 23.67 24.73 29.45
42.77 45.48 45.57 44.85 44.55 44.45 44.35 43.91 44.87 44.97 45.61 44.96 42.86 47.10 43.32 39.85 38.79 40.89 40.42 38.27 38.94 39.03 34.67 37.48 35.08 35.38 34.14 30.40 30.56 30.19 30.15 31.80 30.42 30.50 29.68 28.20 27.37 26.96 29.30 25.14 22.64 33.47 33.48 26.72 28.15 31.17 29.51
45.12 44.80 44.47 44.67 44.43 44.43 43.74 44.69 45.21 45.75 45.96 45.08 41.86 45.42 45.43 41.44 38.37 42.79 42.19 42.98 41.44 41.58 39.90 38.69 36.79 36.13 38.13 34.46 35.30 35.24 31.58 33.03 31.11 25.98 33.85 28.72 30.83 31.11 28.53 27.60 30.04 32.13 29.58 30.73 31.93 30.63 29.55

GFSGBSN_sfc_wetblb_108.txt.gz
Wetbulb
55.14 55.30 55.38 55.44 55.73 55.37 55.06 55.33 55.78 56.14 56.12 55.90 55.82 56.04 56.45 56.63 57.53 57.14 58.13 57.56 56.90 56.19 54.93 53.33 51.87 51.79 51.05 49.68 51.93 61.21 60.34 57.70 55.41 53.04 52.73 52.41 50.38 49.92 46.98 49.37 50.40 48.77 49.83 50.85 51.41 51.33 50.96
54.31 54.45 54.33 54.67 54.41 54.34 54.25 55.09 55.56 55.68 55.83 55.55 55.42 55.22 55.55 56.32 56.80 56.61 56.54 57.48 56.26 55.65 54.52 52.50 51.21 50.59 48.54 44.61 58.84 61.13 59.09 57.83 54.55 53.97 53.20 54.05 52.22 52.99 49.92 49.20 48.07 49.44 48.96 48.93 49.62 49.21 49.63
54.06 53.74 53.75 54.34 54.58 54.62 54.36 54.91 55.25 55.63 55.77 55.63 55.28 54.92 55.08 55.54 55.83 56.33 56.18 56.93 55.59 54.88 53.45 51.95 50.76 50.28 47.04 48.13 58.16 59.65 59.56 57.03 56.13 56.09 53.52 55.40 55.44 52.18 51.72 48.52 51.71 49.79 45.82 47.54 48.31 49.13 48.50
53.38 53.48 53.42 54.14 54.20 54.36 54.44 54.33 54.37 55.06 55.48 55.14 54.82 54.65 54.72 54.79 55.03 55.64 55.88 56.00 55.13 54.27 52.58 50.64 49.19 48.51 44.82 56.62 58.87 57.10 58.00 56.95 58.71 56.04 54.79 55.68 55.57 52.32 50.14 50.87 48.17 45.29 45.73 41.50 47.86 49.36 50.25
52.67 52.69 52.95 53.64 54.07 53.77 53.80 53.84 54.26 54.77 54.49 54.24 54.65 54.70 54.68 54.50 54.56 55.07 55.35 55.71 54.28 52.82 50.72 49.79 48.11 48.33 45.62 57.52 54.14 56.75 57.27 54.21 56.49 56.03 54.42 54.53 53.37 49.12 48.47 44.03 42.24 44.19 39.14 41.42 44.68 50.42 49.55
52.17 52.67 52.73 53.66 53.62 53.75 54.12 54.37 53.94 53.74 53.63 54.07 54.30 54.82 54.94 54.86 54.76 54.78 54.67 53.23 51.79 50.10 48.77 50.16 50.48 44.95 49.25 48.54 53.93 55.54 55.79 55.66 53.03 53.15 51.29 49.58 48.03 44.51 44.34 41.61 35.37 38.60 40.14 42.94 43.04 47.89 49.45
51.74 51.96 52.52 52.75 53.39 53.27 53.49 53.44 53.12 52.97 53.72 53.92 54.44 54.76 54.90 55.29 54.68 53.45 50.40 48.62 45.62 43.80 44.60 47.09 47.77 47.15 50.40 54.27 55.28 52.96 54.26 53.04 51.75 49.60 43.81 47.31 42.08 39.05 41.58 43.83 44.18 43.32 41.61 40.68 44.21 47.54 46.31
52.64 51.37 51.77 52.13 52.53 52.87 52.36 52.50 52.77 53.10 53.64 53.70 53.97 54.19 54.84 55.41 54.75 51.85 52.23 48.41 49.98 52.05 45.51 48.12 50.03 50.26 52.30 53.14 48.24 50.82 54.70 48.18 46.91 42.38 45.26 42.70 39.07 43.43 44.81 44.12 43.08 42.31 40.25 39.55 43.46 45.85 44.98
52.47 51.77 51.49 51.59 52.12 52.52 52.62 52.52 52.88 53.08 53.06 52.96 53.35 54.11 55.15 55.17 53.24 51.14 50.05 50.61 53.07 54.30 45.05 46.67 50.10 49.14 50.26 52.18 47.82 48.45 51.94 49.22 45.27 42.46 42.76 39.97 42.44 45.60 43.76 41.98 40.06 40.05 39.13 38.70 38.40 42.30 43.34
52.48 52.29 51.88 51.24 51.89 52.37 52.35 52.50 52.59 52.75 52.97 52.84 53.38 54.26 54.69 53.71 49.07 50.19 49.10 50.41 53.54 54.53 38.65 41.10 45.52 49.06 51.06 51.43 46.63 52.64 53.20 49.68 46.26 42.34 43.30 42.00 45.54 43.25 42.02 40.49 40.95 35.76 42.37 40.95 38.84 36.36 31.52
51.88 52.17 52.15 52.04 51.86 52.02 51.88 52.44 51.82 51.74 52.15 52.89 53.36 55.21 53.34 52.51 50.37 48.27 47.18 49.28 52.56 49.58 26.32 41.74 45.02 52.35 50.48 47.21 47.72 48.30 52.99 49.39 43.49 43.48 43.22 40.22 41.73 40.94 39.04 40.37 42.42 38.27 40.60 38.94 38.00 35.25 34.32
50.87 51.14 51.37 51.82 51.58 51.67 51.68 51.47 51.00 50.44 51.54 53.26 54.71 54.30 52.18 49.48 51.10 49.17 48.89 50.03 49.43 35.38 25.59 39.37 45.19 44.25 44.22 46.12 46.57 48.08 47.28 50.13 48.93 44.11 44.71 41.96 45.69 42.93 41.78 43.19 43.04 41.54 37.52 37.64 37.21 34.49 27.32
50.11 50.58 50.91 50.94 51.07 51.15 50.91 49.93 49.14 49.22 50.25 53.70 54.00 53.47 52.05 50.83 45.12 48.64 48.99 46.85 33.26 28.95 40.84 38.20 40.73 43.04 42.02 41.97 43.24 44.55 43.16 41.78 39.64 34.79 35.50 40.10 39.84 43.57 43.75 39.05 41.42 38.60 33.43 27.16 25.65 26.48 25.82
50.08 50.14 50.16 50.18 50.54 50.47 50.00 48.88 48.26 48.19 48.25 48.35 48.38 48.05 46.90 47.88 49.42 48.42 47.69 38.60 29.45 35.85 36.71 43.50 42.74 42.52 39.42 41.86 42.04 42.86 41.18 38.58 42.48 39.98 36.55 32.99 31.83 39.86 43.18 39.65 37.23 36.02 33.73 27.95 21.70 24.12 27.67
48.79 49.42 49.24 49.57 50.15 50.11 50.04 49.44 48.69 48.18 47.74 47.49 46.70 45.73 44.64 46.31 49.55 48.72 41.36 31.80 32.73 37.91 42.15 41.12 41.50 37.98 38.70 41.43 41.44 41.37 40.51 39.42 41.62 42.04 34.14 34.18 34.41 43.42 43.31 42.97 41.37 35.93 31.50 37.14 30.26 31.01 28.41
47.60 48.22 48.56 49.03 49.29 49.48 49.59 49.75 49.38 48.87 48.32 47.29 43.67 41.85 41.78 47.37 48.61 44.48 35.88 34.00 37.93 43.29 43.58 42.35 35.52 37.12 34.76 38.15 38.23 38.76 39.03 42.50 40.83 43.97 44.32 38.07 32.02 39.66 41.98 42.77 41.85 39.40 41.14 31.54 31.36 23.66 23.01
46.26 46.99 47.81 48.73 48.95 49.11 49.26 49.52 49.67 49.21 48.41 47.21 44.03 37.68 42.42 46.80 46.45 37.00 31.43 35.45 39.62 44.46 43.62 39.26 37.38 36.45 37.20 36.96 38.52 36.97 36.92 41.00 43.10 43.36 43.58 40.18 36.51 35.15 38.93 36.82 35.90 37.01 35.24 35.49 35.03 32.47 26.25
45.63 46.02 46.69 47.43 47.89 48.38 47.49 48.95 50.15 49.47 48.23 44.00 41.98 33.88 43.18 45.62 32.95 34.03 33.36 39.06 41.94 41.79 43.17 40.17 39.94 39.37 38.22 38.32 36.99 36.98 36.27 38.59 44.28 44.11 38.38 41.30 36.92 31.44 34.31 40.50 41.01 39.94 36.68 35.81 31.05 28.92 31.66
44.99 45.37 45.61 46.35 47.34 47.76 46.61 45.41 49.33 49.03 47.75 43.34 38.31 35.77 42.82 42.61 29.81 31.45 36.55 38.17 40.49 39.40 39.77 38.88 37.65 39.77 41.04 37.37 33.50 36.93 38.53 40.31 41.18 39.81 37.57 40.05 34.45 28.05 29.91 35.38 38.42 35.45 37.44 37.86 36.07 34.83 28.53
44.28 44.24 45.04 45.71 46.24 47.24 47.54 46.42 47.89 48.48 47.54 43.63 37.94 31.69 34.03 35.62 36.08 35.16 33.95 35.36 36.02 40.66 39.57 40.32 39.07 40.58 38.20 36.29 38.49 35.31 36.75 38.79 40.82 40.90 38.54 39.26 35.47 31.93 27.16 29.43 35.34 32.76 35.04 36.37 34.75 28.47 29.20
44.52 44.53 44.71 45.23 45.39 46.33 46.44 47.80 47.87 48.25 47.61 42.73 36.66 35.25 37.28 28.47 30.49 34.87 37.70 36.87 35.15 34.45 39.52 40.54 37.65 38.02 36.43 32.71 34.49 34.48 37.38 37.27 38.98 36.94 38.30 37.83 30.55 33.89 34.78 33.90 33.80 34.01 33.45 34.15 31.99 32.53 28.55
44.31 44.39 45.07 45.38 45.19 45.91 46.10 45.36 46.04 48.13 47.57 39.77 35.52 36.62 39.40 38.01 36.37 34.02 36.08 35.72 35.26 36.12 36.95 35.54 36.00 38.02 37.85 34.57 35.61 33.10 36.35 36.04 34.12 36.30 35.90 37.37 29.87 32.80 30.03 33.84 33.08 30.52 32.51 32.85 33.14 33.22 32.45
44.08 44.42 44.53 44.37 45.29 46.13 46.20 45.98 45.32 47.96 45.28 37.39 41.94 44.16 40.45 37.61 35.72 34.11 34.91 35.91 36.53 38.68 39.66 39.95 39.09 37.73 36.32 37.61 39.94 40.51 41.13 40.40 38.42 34.35 33.83 33.48 32.03 28.82 25.29 31.75 29.64 25.25 30.46 31.86 32.93 34.39 33.93
43.35 43.64 43.93 44.71 45.25 45.38 46.44 45.17 46.21 47.29 45.73 43.87 45.30 44.03 37.90 33.23 35.30 35.21 36.63 37.28 36.82 37.85 35.85 39.88 40.45 37.37 39.31 43.26 41.41 40.75 39.85 38.24 37.76 37.52 38.44 32.61 31.64 30.32 26.22 27.61 18.19 30.84 35.70 34.92 32.09 33.18 34.07
44.17 44.12 44.96 45.30 45.41 45.39 44.22 45.63 47.37 47.04 46.65 44.45 45.08 41.64 38.59 34.71 36.52 36.72 36.96 36.73 38.33 38.98 36.89 38.18 38.87 41.38 42.71 39.17 32.73 28.71 29.02 30.02 31.99 34.78 34.58 35.77 32.46 27.23 23.89 23.67 28.81 30.68 32.22 29.60 28.13 28.64 31.31
43.68 43.72 44.32 44.63 45.22 45.29 45.14 44.44 46.51 46.64 46.93 43.64 43.68 44.38 40.54 34.20 35.21 39.35 36.92 37.71 35.84 34.54 35.44 37.21 41.03 43.34 41.58 36.98 32.17 24.87 22.63 27.05 25.80 29.31 35.05 34.28 34.88 30.63 27.39 22.47 20.26 28.78 33.78 36.72 33.97 24.69 30.13
43.81 43.42 43.77 44.06 44.13 45.13 45.69 46.53 46.05 46.33 45.87 43.43 42.98 46.38 41.84 34.79 38.92 39.56 35.65 35.96 38.88 37.25 34.73 36.05 36.71 36.76 40.28 34.44 29.70 27.34 26.32 32.98 25.56 25.41 26.18 27.69 29.29 26.16 26.70 25.35 25.82 31.77 34.83 36.11 23.70 23.35 28.82
43.38 42.86 44.62 46.09 46.49 46.05 46.23 45.88 45.83 45.44 45.46 43.39 42.92 45.72 42.09 35.68 39.10 40.08 41.26 37.85 39.77 38.80 33.77 36.82 35.03 36.06 34.29 30.45 29.89 30.51 29.47 30.97 30.11 31.06 29.01 27.50 25.93 26.04 28.62 25.70 22.05 33.23 33.92 28.20 28.95 30.88 29.00
42.86 45.21 45.49 45.27 45.08 44.87 44.83 45.06 44.67 44.31 44.27 44.82 40.50 45.81 46.36 39.23 38.09 43.59 42.82 42.95 42.01 42.11 39.89 39.73 36.93 36.38 37.47 33.27 33.78 33.60 31.13 33.34 31.45 25.82 34.77 28.41 30.63 29.74 27.40 26.34 30.06 31.59 29.77 31.59 33.48 30.24 28.87

GFSGBSN_sfc_wetblb_111.txt.gz
Wetbulb
55.42 54.97 55.32 55.42 55.95 55.81 54.98 55.32 55.63 55.62 56.04 56.30 55.97 55.85 55.37 55.21 55.64 56.88 56.57 56.02 57.80 57.68 56.69 55.40 53.40 51.87 48.51 45.61 48.14 57.77 60.59 58.92 54.91 51.10 49.08 48.43 47.81 46.33 43.32 45.30 46.42 44.98 46.65 48.60 48.98 48.67 47.51
54.39 54.41 54.60 54.79 54.39 54.50 54.42 54.80 55.15 55.35 55.50 55.94 55.76 55.66 55.62 55.45 55.87 56.23 56.34 55.88 56.24 56.92 55.88 54.76 52.82 50.52 45.51 40.97 54.05 56.73 57.08 55.05 52.06 49.59 48.62 49.73 48.96 49.54 46.67 46.17 44.64 47.24 47.67 47.74 48.28 47.51 47.86
53.98 54.35 54.08 54.35 54.50 54.41 54.37 54.85 55.09 54.94 54.84 55.56 55.84 55.49 55.13 55.30 55.42 54.40 54.85 55.84 55.67 56.23 55.41 54.06 52.41 49.35 45.60 45.32 53.81 54.30 54.64 54.09 53.09 52.55 49.81 52.06 51.84 48.18 47.93 45.58 49.00 47.16 42.29 44.28 45.19 45.02 44.72
53.74 53.66 53.70 54.08 54.19 54.20 54.35 54.68 54.75 54.78 54.53 55.42 55.30 54.58 54.54 54.76 54.92 54.29 54.13 55.17 55.51 55.85 54.43 53.13 50.89 47.89 42.37 53.77 54.03 53.15 52.62 52.17 55.43 55.46 52.40 52.07 51.45 48.03 45.88 47.26 45.42 41.99 41.32 36.53 42.83 45.42 47.09
53.17 53.15 52.70 53.54 53.61 53.93 53.98 54.04 54.34 54.55 54.91 54.64 54.36 54.42 54.46 54.42 54.42 54.39 54.48 55.19 55.57 54.94 53.04 50.85 46.63 45.68 42.36 54.95 51.03 53.86 54.46 52.39 53.75 54.19 52.79 53.67 49.31 44.88 44.74 39.06 36.33 38.23 33.33 35.85 39.75 45.93 45.78
52.63 52.54 52.81 53.28 53.79 53.89 53.77 53.94 54.10 54.09 53.72 53.66 54.09 54.29 54.33 54.52 54.38 54.44 54.14 53.35 52.48 50.72 49.40 49.98 49.04 44.09 46.95 46.08 53.20 54.59 54.45 54.27 51.75 51.38 50.03 47.68 42.99 38.56 38.44 35.76 29.35 32.06 33.82 36.28 36.74 41.30 43.91
52.69 52.33 52.14 52.70 53.43 53.04 52.95 53.63 53.78 52.99 53.19 53.78 53.94 54.11 54.25 54.31 54.76 53.29 50.88 48.52 45.59 44.12 45.13 43.09 43.90 45.38 48.48 52.09 53.42 51.86 52.81 51.30 50.01 47.02 40.63 44.30 37.03 33.24 37.55 40.14 40.47 38.97 37.39 36.10 39.59 43.79 42.06
53.24 53.19 52.13 51.82 52.11 52.28 52.64 52.95 52.83 52.49 53.22 53.66 53.45 53.29 53.78 54.30 54.77 52.34 51.33 45.75 47.52 47.20 41.55 44.94 47.28 46.91 49.04 50.37 45.96 49.42 52.10 45.44 44.44 38.91 41.78 38.80 35.10 40.88 42.61 41.77 39.90 38.52 36.10 35.72 39.47 42.85 41.20
53.16 53.11 52.44 51.73 51.71 51.83 52.22 52.57 52.49 52.19 52.85 52.98 52.94 53.15 53.48 53.86 53.42 51.26 48.66 48.53 51.59 51.85 40.39 44.41 46.13 46.36 48.23 49.74 45.15 45.40 49.01 46.57 42.73 39.82 39.68 36.09 39.34 43.73 41.71 39.44 38.51 37.80 35.87 35.79 35.44 39.31 40.43
52.58 52.85 52.67 51.95 51.75 51.79 52.23 52.79 52.38 52.38 52.65 52.44 52.19 52.40 52.68 53.45 49.63 49.58 48.50 52.36 51.65 51.95 32.72 38.75 43.01 46.76 48.98 49.00 44.41 50.52 50.85 46.75 42.68 39.59 40.12 38.43 43.04 41.46 40.13 38.73 38.99 34.14 39.69 38.21 36.77 34.61 29.76
51.39 51.39 52.04 52.29 52.35 52.19 51.78 52.11 52.13 52.28 51.75 51.30 51.32 52.14 52.82 52.59 48.78 47.73 48.45 50.35 50.74 48.17 21.65 40.77 43.02 51.80 49.48 45.05 46.54 46.96 51.61 47.04 40.81 40.48 40.22 37.59 39.53 38.32 37.08 38.45 39.77 36.41 39.52 37.26 36.16 32.98 33.49
51.06 51.08 51.18 51.69 51.69 51.55 51.64 51.68 51.51 51.38 50.17 49.72 51.64 52.81 53.63 51.81 50.88 49.78 49.45 49.12 48.78 33.98 23.05 37.42 43.66 43.36 42.97 44.70 45.14 46.90 46.43 47.11 45.66 40.99 40.82 40.18 42.83 41.51 39.28 41.77 40.49 40.72 37.04 36.08 34.99 33.82 26.21
50.00 50.36 50.69 50.79 50.88 51.03 51.07 51.39 51.00 49.77 49.26 49.60 51.92 54.01 52.98 51.20 45.86 49.04 48.85 47.56 33.11 26.39 39.87 35.68 39.11 42.70 41.48 40.49 42.12 43.40 41.55 38.13 35.64 31.46 32.27 37.67 38.54 40.69 43.36 37.35 39.55 36.62 32.15 24.68 21.21 24.85 22.39
48.59 49.10 50.23 50.70 50.63 50.51 50.50 50.78 49.78 48.76 48.06 48.28 48.43 51.55 47.94 48.93 49.33 48.99 48.37 38.91 26.89 33.99 35.16 41.76 40.43 40.96 37.52 40.07 39.96 41.22 39.19 35.95 38.76 37.79 33.00 30.93 27.78 38.01 41.72 38.54 34.53 33.55 31.47 24.62 19.42 20.75 26.37
48.04 48.67 49.51 49.65 50.18 50.29 50.21 50.42 49.29 48.93 48.05 47.32 47.56 45.03 44.31 46.49 49.18 49.49 42.95 31.50 30.51 35.08 39.34 38.12 38.43 35.23 35.98 39.40 39.11 38.48 38.09 36.84 39.28 40.04 32.38 31.39 31.90 41.30 42.03 41.76 39.43 35.05 30.17 35.09 29.07 28.88 24.14
47.39 47.50 48.30 48.94 49.19 49.72 49.72 49.79 49.82 49.09 48.56 47.51 43.26 42.18 42.06 47.62 49.05 45.91 38.30 33.22 35.47 41.13 41.59 41.56 34.62 36.76 33.26 35.50 35.96 37.45 36.65 40.91 39.83 43.03 41.85 37.45 30.15 39.25 41.50 42.07 40.56 37.05 38.33 29.21 30.35 21.92 20.88
46.54 46.46 47.09 47.60 48.18 48.68 48.95 49.43 49.66 49.53 49.10 47.74 43.23 38.10 42.93 47.77 46.74 38.48 31.92 33.53 38.00 42.61 43.10 39.70 37.24 35.92 35.65 35.18 36.00 35.92 36.98 39.90 40.90 40.69 42.65 39.12 35.01 33.43 38.50 36.17 33.62 34.58 33.05 34.90 33.90 31.88 24.57
45.71 45.92 46.68 46.74 47.26 48.01 48.32 49.09 49.22 49.56 49.11 44.93 41.19 32.82 43.33 45.76 34.01 32.94 32.01 35.99 41.14 40.02 43.72 41.70 40.12 38.18 36.38 37.46 35.51 35.34 35.58 38.77 41.71 41.69 38.24 40.21 35.64 29.17 32.67 39.44 41.30 38.93 35.00 34.82 27.89 27.02 29.95
45.31 45.41 45.71 45.91 46.33 47.08 47.61 47.63 46.60 48.79 49.05 41.50 36.77 34.71 43.31 42.75 28.83 30.28 33.71 36.01 39.71 39.33 40.07 38.63 37.13 38.75 39.05 35.41 32.37 35.53 36.56 41.26 41.20 39.33 38.91 39.13 32.31 26.89 28.17 33.49 36.92 34.04 35.89 36.86 35.51 33.41 27.20
44.56 44.96 44.97 45.24 45.47 46.09 46.65 47.18 46.96 47.53 48.56 43.95 35.91 29.05 34.21 34.51 34.47 33.32 32.10 32.96 35.18 40.51 39.45 40.31 38.47 39.15 36.41 34.42 37.22 33.84 35.43 38.73 40.83 40.28 40.65 39.93 34.89 29.53 24.21 28.53 32.57 29.94 33.30 35.81 33.24 24.75 26.02
44.19 44.44 44.51 44.37 44.73 45.51 45.89 46.43 47.23 47.17 47.91 43.00 37.06 33.12 32.26 26.94 29.64 33.03 35.36 34.97 32.90 34.54 39.09 40.05 37.05 36.17 34.43 30.73 33.06 31.79 36.07 37.53 38.74 38.53 37.94 36.66 28.56 32.58 34.03 34.76 33.88 32.40 32.90 34.04 32.43 31.43 25.36
43.76 43.83 44.01 43.84 44.21 44.59 45.03 46.24 47.04 47.60 48.12 38.63 32.38 34.19 37.57 32.09 32.62 31.61 32.62 35.63 33.29 34.99 36.39 34.28 34.18 36.55 36.21 32.37 33.69 30.06 35.77 34.87 32.73 34.83 35.64 36.30 28.44 31.44 28.82 33.72 32.43 29.29 31.69 31.26 31.99 32.12 31.52
43.35 43.84 43.98 44.18 43.91 44.58 44.80 45.71 46.27 47.21 45.51 34.56 38.99 39.84 37.04 33.23 33.28 30.59 29.43 32.14 34.68 36.70 38.64 38.66 36.57 36.04 35.61 36.66 37.92 37.79 38.51 39.23 37.32 32.96 31.26 30.76 28.87 27.34 23.46 30.98 30.27 22.84 29.30 31.44 32.41 31.67 32.29
42.96 43.26 43.59 43.88 43.77 44.33 44.91 46.17 46.14 46.31 45.52 41.49 40.55 38.28 35.56 29.84 32.32 31.62 33.75 33.80 35.36 36.79 35.33 38.68 38.62 35.97 39.43 42.08 39.66 39.58 38.46 37.63 36.23 35.79 36.68 30.84 28.82 27.58 24.57 24.57 16.83 28.43 34.28 34.02 30.51 29.75 31.54
41.91 42.66 43.34 43.63 44.09 44.69 45.25 45.67 46.02 45.70 45.84 42.21 43.58 40.43 36.97 30.27 34.00 34.51 34.78 34.59 36.04 37.83 37.02 37.51 40.03 41.42 41.65 37.26 30.28 26.97 26.37 28.52 31.69 35.33 34.75 35.36 29.88 24.14 20.75 21.63 26.87 29.08 31.41 27.43 24.55 25.85 29.19
43.60 43.90 43.95 44.37 44.71 44.77 45.28 45.86 45.95 45.63 46.09 43.86 42.59 43.08 38.48 33.36 30.17 36.85 34.34 36.11 33.44 33.56 34.25 35.59 40.84 40.97 38.34 30.43 26.56 23.72 20.75 24.80 24.30 28.53 35.03 33.51 32.87 25.16 24.07 18.89 15.27 24.29 32.94 34.96 32.94 19.45 27.87
43.82 43.66 43.91 44.34 44.84 45.30 45.20 45.01 44.08 46.49 47.24 43.76 41.29 43.12 40.09 32.97 35.49 37.88 35.05 34.47 38.52 35.47 32.61 33.17 33.07 33.73 35.99 26.63 23.35 24.12 25.03 30.81 23.36 24.34 24.48 25.46 25.70 23.93 23.06 20.51 24.29 32.10 34.45 36.15 18.03 18.93 27.53
43.25 43.81 43.67 43.96 44.64 44.40 45.01 45.25 44.16 46.81 46.69 43.52 41.09 43.38 40.91 33.85 35.37 39.70 39.70 36.96 38.16 36.44 30.94 32.36 29.57 30.90 30.10 26.45 27.78 27.26 27.80 28.73 27.94 27.02 26.77 24.86 23.52 22.46 23.76 19.81 17.76 30.56 31.79 25.42 24.51 28.70 27.72
42.83 43.28 43.60 44.11 43.45 44.44 45.00 44.91 44.95 46.02 46.26 44.08 39.44 43.78 45.38 36.38 36.99 41.44 41.02 41.93 41.13 41.42 35.01 33.99 32.61 32.30 32.60 29.56 29.13 30.56 28.56 27.80 28.51 23.94 33.52 21.73 24.83 23.95 25.22 23.19 29.21 30.53 28.85 32.31 32.03 27.71 27.87

GFSGBSN_sfc_wetblb_114.txt.gz
Wetbulb
56.89 56.52 56.08 55.87 55.87 55.78 54.67 55.35 55.77 55.44 55.39 55.61 56.13 55.77 55.43 55.12 54.94 55.88 56.04 55.94 56.14 56.63 57.97 56.79 55.05 52.13 48.10 44.93 46.81 55.63 60.68 59.33 53.71 49.91 47.64 46.54 46.22 45.31 41.48 42.90 44.77 42.73 44.23 46.08 47.27 47.48 46.74
55.14 54.96 55.35 55.15 54.86 54.30 54.09 54.75 54.92 54.97 54.98 55.26 55.52 55.82 55.72 55.18 54.91 55.63 55.44 55.09 55.60 55.88 57.16 56.40 54.33 51.00 46.15 40.93 52.75 54.13 54.44 54.25 52.10 48.79 47.45 47.11 47.05 47.94 45.06 43.88 41.71 44.86 45.15 44.02 44.94 44.44 45.41
54.43 54.72 55.07 54.69 54.40 54.06 54.17 54.53 54.60 54.88 54.79 54.65 55.16 55.78 55.58 55.19 55.19 55.38 54.55 53.43 55.01 55.40 56.68 56.05 53.63 49.65 45.35 44.93 53.16 52.84 53.21 51.34 51.78 50.23 47.42 49.86 49.60 45.99 46.50 43.52 47.09 45.34 40.98 43.11 42.83 42.76 42.92
53.93 54.34 54.42 54.66 54.15 54.21 54.17 54.49 54.65 54.88 54.81 54.65 55.22 54.99 54.56 54.54 54.83 54.83 54.04 53.43 54.72 55.55 56.32 54.97 52.49 48.20 42.58 52.90 52.37 51.42 50.83 50.06 52.93 53.22 52.09 52.57 50.95 46.41 43.90 45.52 43.54 40.04 39.15 33.29 39.97 42.08 44.12
53.77 53.77 53.86 53.81 53.50 53.64 53.96 53.98 54.26 54.32 54.73 54.83 54.56 54.30 54.26 54.03 54.06 54.34 54.54 54.56 55.07 55.96 55.25 52.53 47.56 45.74 42.40 53.91 49.82 52.50 52.13 49.44 52.17 52.78 51.77 53.54 48.57 43.42 42.93 37.71 34.15 35.52 30.09 33.39 36.90 43.82 41.88
53.04 53.15 52.94 53.29 53.59 53.60 53.62 53.59 53.77 54.01 54.05 53.70 53.87 54.21 54.05 54.00 54.10 53.92 54.19 53.94 53.25 51.53 50.31 50.19 49.23 42.83 45.47 45.17 51.19 53.09 52.12 52.13 49.86 49.67 48.48 45.85 41.82 37.86 36.48 34.05 26.76 29.89 31.21 31.62 31.59 37.52 39.52
52.94 52.90 52.90 53.05 53.33 52.76 52.78 52.76 53.70 53.30 52.72 53.15 53.81 54.01 53.75 53.67 53.77 53.47 51.00 48.19 45.93 44.10 45.18 41.57 42.68 44.23 46.60 50.19 52.99 50.94 52.25 50.87 49.15 45.80 39.91 42.39 36.34 32.49 35.90 37.34 38.44 36.77 34.72 33.67 36.96 39.76 38.68
54.06 53.77 53.03 52.85 52.95 51.98 52.04 52.59 52.87 52.82 52.69 53.27 53.56 53.36 53.38 53.55 54.00 52.72 50.37 43.93 45.87 45.75 40.59 44.63 46.23 45.42 48.45 48.70 44.32 48.15 51.04 45.20 43.37 38.36 40.72 37.64 34.87 40.35 40.92 39.47 38.35 37.59 34.85 34.11 37.65 40.12 38.42
53.38 53.34 53.84 53.07 52.33 51.82 51.74 52.37 52.72 52.65 52.53 52.82 52.93 53.12 53.06 52.90 53.71 51.65 47.42 47.97 51.69 49.31 39.25 43.20 45.28 44.13 45.88 47.60 43.07 44.09 47.28 44.62 41.18 38.24 38.18 35.16 38.01 42.43 40.32 38.05 36.47 36.13 34.30 34.44 33.99 36.78 37.33
52.76 52.94 53.38 53.04 52.57 52.46 52.47 52.39 52.55 52.67 52.07 52.40 52.14 51.90 51.69 52.26 49.31 50.18 48.17 51.76 52.70 50.19 29.51 36.36 42.05 44.88 47.00 48.52 43.08 48.93 48.71 44.83 40.80 37.97 37.95 36.95 41.71 39.74 38.59 37.16 37.91 32.29 38.28 37.27 35.84 32.94 27.99
52.17 52.28 52.59 52.73 52.69 52.46 52.20 52.18 52.16 52.24 52.08 51.62 50.47 50.14 51.30 53.16 46.73 47.92 49.54 51.63 50.43 47.47 15.19 38.31 42.47 50.70 48.71 43.67 45.15 45.84 49.87 44.70 39.38 38.65 38.57 35.69 37.03 36.75 35.99 37.42 38.85 35.23 38.55 36.63 35.30 31.32 30.01
51.39 51.36 51.48 51.52 51.72 51.51 51.63 51.65 51.76 51.69 51.52 50.39 50.22 50.12 51.50 51.19 50.09 48.85 50.49 49.68 48.38 33.19 17.67 35.71 42.72 42.24 42.08 43.21 44.20 45.89 45.46 46.41 44.84 40.27 39.73 38.26 41.47 40.46 38.78 40.46 39.64 39.69 36.06 34.83 33.63 31.15 21.41
50.78 50.90 50.88 50.95 50.95 51.12 51.04 51.30 51.37 51.32 50.14 49.32 49.39 49.99 51.67 51.80 46.35 49.53 50.49 47.11 33.20 23.67 37.25 34.63 37.79 41.50 40.39 39.46 40.96 41.66 40.19 38.35 35.17 31.32 31.72 36.56 37.08 40.31 42.15 36.75 38.35 35.20 30.89 25.78 19.07 22.89 20.75
49.63 49.77 49.38 50.47 50.85 50.75 50.75 50.66 50.92 50.53 49.28 48.51 48.39 48.31 49.55 51.04 48.82 49.86 48.70 39.13 26.38 32.19 32.86 40.26 39.90 40.29 37.22 39.88 39.75 40.71 37.26 33.72 36.63 35.78 32.14 29.96 27.77 36.57 40.65 38.20 34.58 32.90 31.32 24.63 18.04 19.75 22.79
48.82 48.89 48.97 49.47 49.86 50.49 50.59 50.41 50.40 49.87 48.95 48.18 47.64 45.32 44.97 47.15 49.66 50.57 43.09 30.63 29.37 32.75 38.02 36.73 37.35 34.03 33.81 38.58 38.32 38.32 36.93 36.20 37.46 38.38 32.31 30.31 30.87 39.21 40.58 40.48 38.45 33.35 27.68 33.51 28.77 28.09 20.75
48.03 47.91 48.26 48.52 49.20 49.69 49.49 49.92 50.09 49.87 48.90 48.14 41.64 42.56 42.38 47.67 48.92 47.07 38.57 32.29 33.82 39.12 40.03 39.25 33.58 36.04 32.06 33.99 34.43 34.95 35.17 39.08 38.38 40.51 40.31 36.21 30.22 37.41 40.05 40.91 39.92 35.93 36.81 28.79 28.49 20.26 19.77
47.23 47.35 47.48 47.72 48.31 48.71 48.81 49.07 49.42 49.86 49.20 48.42 42.19 35.51 42.46 48.28 48.06 40.68 31.47 32.82 36.08 40.77 41.27 38.01 35.66 34.91 35.10 34.18 34.48 34.41 35.52 39.01 39.84 39.40 41.05 37.35 34.66 32.74 38.87 35.58 33.64 33.93 32.90 33.62 31.83 28.40 22.32
46.17 46.59 47.09 47.00 46.72 47.47 47.94 48.27 48.75 49.50 49.43 46.23 41.22 33.11 42.80 46.52 34.91 32.75 32.65 36.19 39.82 39.10 41.86 39.60 39.84 37.92 35.29 35.56 33.66 33.95 35.38 38.08 40.48 39.80 37.06 38.70 35.16 30.11 31.92 39.07 39.83 38.17 35.06 34.97 25.63 23.65 27.36
45.41 45.64 45.93 46.16 46.14 47.14 47.54 47.81 48.55 48.71 48.75 43.27 36.58 35.71 43.27 42.85 29.97 30.39 34.04 36.06 37.90 38.07 38.21 38.88 37.71 38.75 38.04 34.10 31.56 34.65 36.31 40.98 41.07 38.71 37.60 38.55 33.40 27.81 28.66 33.27 35.89 33.11 35.27 35.88 34.48 32.74 27.06
44.92 45.25 45.49 45.41 46.00 46.14 46.50 46.90 47.81 47.82 48.47 43.86 34.49 28.68 33.82 34.90 35.30 33.08 30.72 32.81 33.91 39.35 38.38 40.23 38.78 39.07 36.04 33.94 36.62 33.10 34.99 38.85 39.54 38.78 41.60 41.22 34.98 30.90 25.57 28.64 31.97 29.41 33.08 35.60 33.33 26.13 24.92
44.38 44.58 44.90 45.26 45.33 45.53 45.83 46.26 46.55 47.47 47.34 42.06 34.19 31.59 32.66 27.24 29.19 32.76 33.72 33.36 31.13 32.89 38.60 38.03 37.36 35.58 33.20 29.96 32.46 33.02 36.35 35.75 36.99 40.05 36.85 34.99 27.27 30.81 33.13 34.33 33.70 32.59 30.71 33.02 32.50 31.21 25.46
43.93 44.06 44.35 44.33 44.52 44.83 44.88 45.25 46.06 46.50 46.94 39.97 32.15 32.71 35.08 30.32 31.65 31.06 32.81 33.85 31.14 33.13 35.22 34.47 34.17 35.01 34.83 30.93 32.16 29.44 34.27 34.31 31.70 32.74 33.36 34.45 27.25 30.37 29.10 33.66 32.57 28.83 30.97 30.52 31.25 31.22 30.57
43.37 43.54 43.79 44.08 44.35 44.49 44.54 45.26 45.73 45.88 45.64 36.18 38.00 40.37 37.11 33.66 29.70 29.59 29.25 31.17 32.44 35.40 36.58 38.13 35.98 35.67 35.06 34.93 37.03 35.88 37.74 37.32 36.02 32.63 30.02 30.41 28.98 28.24 25.92 30.70 30.20 24.15 26.94 31.03 30.36 30.55 31.39
42.96 43.24 43.35 43.57 43.74 44.02 44.15 45.05 45.48 45.91 45.42 39.69 39.77 39.71 34.64 29.56 32.17 30.80 31.79 31.92 31.47 33.52 34.09 37.28 38.18 35.88 37.59 40.26 38.98 37.61 37.03 36.55 34.98 34.24 34.54 28.47 28.63 28.25 24.20 27.06 19.23 27.30 34.52 34.48 29.11 28.25 31.28
41.79 42.40 43.03 43.27 43.39 43.79 44.50 45.12 45.45 46.06 46.04 40.42 41.15 39.46 35.15 27.52 32.76 33.44 33.52 33.13 33.22 33.89 34.73 37.08 39.37 39.68 39.39 35.85 30.62 28.46 27.43 29.20 31.86 34.38 33.95 34.02 30.26 26.08 21.45 21.77 25.74 28.48 31.00 28.77 26.72 24.36 28.23
40.83 41.10 41.67 42.20 43.34 43.98 44.18 44.81 45.28 45.61 45.99 42.21 42.04 42.62 38.47 32.42 29.67 35.48 34.35 34.40 30.83 28.51 33.76 36.98 40.91 42.48 36.33 29.87 28.27 23.80 19.86 23.82 23.69 27.88 35.71 34.40 32.76 26.17 23.43 19.27 15.51 23.94 32.19 34.22 30.86 18.02 26.51
40.71 42.71 42.59 42.68 44.16 44.11 44.38 44.78 45.00 45.68 45.99 43.21 41.50 42.95 39.15 32.90 34.68 35.72 33.61 31.08 36.62 35.47 30.49 34.03 36.55 33.25 35.88 26.94 20.57 22.31 23.61 29.55 22.32 23.01 24.74 25.84 25.16 23.06 23.71 20.57 23.73 30.47 34.08 34.72 17.88 19.46 26.75
42.91 43.68 43.71 44.04 44.34 44.38 44.45 44.62 45.28 45.43 46.12 43.51 40.48 43.50 39.79 34.55 35.87 36.71 38.20 36.65 37.76 34.07 28.75 33.67 32.11 32.53 27.86 24.41 25.54 23.73 23.41 26.37 24.78 25.38 26.40 24.49 23.44 23.06 23.91 18.63 17.28 29.84 31.62 25.66 22.96 26.64 26.30
42.48 42.96 43.34 43.66 44.37 44.48 44.86 45.22 45.45 45.29 45.11 44.53 38.74 43.60 44.49 34.47 36.20 40.05 39.82 41.77 41.71 40.72 34.67 33.87 32.31 31.27 31.48 27.12 26.89 28.48 26.84 29.98 27.15 23.53 32.80 21.53 23.87 22.67 23.82 20.21 27.16 29.70 27.15 28.68 28.50 26.05 26.96

GFSGBSN_sfc_wetblb_117.txt.gz
Wetbulb
57.49 57.40 57.78 57.58 57.10 56.42 55.33 55.31 55.62 55.15 55.20 54.90 55.18 55.52 55.13 54.95 54.59 54.90 55.47 55.32 55.45 56.01 56.36 58.00 55.33 52.95 48.32 44.81 44.84 53.37 59.60 58.30 52.73 48.98 46.39 45.30 44.67 43.37 40.10 41.79 43.06 40.95 42.99 44.97 45.01 44.61 44.33
57.41 57.15 56.51 56.18 56.00 55.32 54.90 54.73 55.04 54.65 54.63 54.56 54.76 55.23 55.55 55.01 54.56 54.79 55.37 54.25 53.99 55.43 55.86 57.18 54.34 51.68 45.99 40.16 50.51 52.44 52.05 51.50 51.92 48.29 46.06 45.81 45.92 45.60 42.82 42.01 40.54 43.32 42.66 42.37 43.11 43.52 43.69
56.38 55.65 55.63 55.64 55.16 55.19 54.66 54.56 54.63 54.48 54.58 54.46 54.35 55.02 55.10 54.55 54.23 54.70 54.25 53.20 53.19 54.38 55.17 56.66 53.63 49.98 44.63 43.55 50.63 50.48 51.05 49.07 49.73 48.59 45.98 48.59 48.33 45.13 44.15 41.62 44.87 43.74 39.75 40.99 42.03 41.58 41.76
55.57 54.95 54.86 55.47 54.88 54.39 54.22 54.42 54.52 54.68 54.68 54.29 54.03 54.72 54.21 54.19 54.19 54.43 54.29 53.12 53.58 54.57 54.93 55.90 53.21 48.34 42.16 52.04 50.59 50.15 49.00 49.01 51.07 51.12 51.23 51.52 49.74 45.81 43.39 44.48 42.25 38.98 37.57 32.20 38.85 40.58 42.46
54.73 54.57 54.49 55.16 54.63 54.04 53.74 53.93 53.99 53.83 54.19 54.37 54.25 53.94 53.67 53.70 53.62 53.87 54.19 54.41 54.48 55.64 55.63 53.02 46.93 46.68 41.03 52.63 47.88 51.11 51.20 48.10 50.46 51.43 51.31 53.59 48.21 42.71 41.80 36.76 33.48 34.00 28.25 31.22 35.55 41.31 39.84
54.04 54.23 54.19 54.60 53.62 53.42 53.26 53.68 53.49 53.76 54.02 53.72 53.28 53.34 53.66 53.40 53.59 53.43 53.98 53.82 53.56 52.44 51.35 50.40 49.40 42.14 43.81 42.52 48.59 51.17 50.60 50.59 48.93 49.49 47.89 46.11 40.40 36.81 36.11 33.51 26.19 28.95 29.34 27.01 30.40 36.54 38.32
53.62 53.14 53.30 53.63 53.52 52.99 52.48 53.18 53.27 53.37 53.10 52.39 52.85 53.37 53.56 53.13 53.05 53.40 50.64 46.45 44.85 42.94 45.28 41.56 42.04 42.07 44.93 48.47 50.83 49.30 50.90 49.28 48.32 45.56 39.83 40.50 34.80 32.23 36.50 36.35 36.61 34.91 32.58 31.32 33.53 38.40 36.91
54.03 53.94 53.82 53.94 53.39 52.67 52.51 52.64 53.00 52.54 52.62 52.23 52.79 53.08 52.86 53.05 53.04 53.11 50.14 42.60 43.03 44.71 39.82 44.14 45.11 44.35 47.14 47.56 42.42 46.35 50.91 45.19 43.08 38.06 40.40 37.22 33.73 39.29 39.62 37.89 36.50 35.57 33.24 32.82 35.98 38.97 36.47
53.73 53.91 54.01 54.06 53.71 53.29 52.22 52.36 52.68 52.43 52.48 52.00 52.42 52.48 52.52 52.33 52.53 51.86 46.40 46.54 49.06 50.05 38.65 41.95 44.45 43.57 44.88 46.21 41.35 42.17 47.15 44.13 40.29 37.88 38.09 35.28 38.23 41.81 39.59 37.10 35.48 35.06 33.13 33.38 32.97 35.07 36.28
53.06 52.99 53.22 53.58 53.46 53.34 52.86 52.73 52.52 52.75 52.40 51.92 52.30 51.90 51.34 51.15 49.61 49.74 47.59 50.27 49.52 48.90 28.58 34.26 41.00 43.81 45.41 45.99 40.76 46.91 47.24 44.04 39.51 37.46 37.41 36.11 41.04 38.87 37.00 35.87 36.58 31.33 36.74 35.98 34.64 31.59 25.38
52.33 52.45 52.50 52.97 53.00 52.52 52.27 52.52 52.37 52.25 52.40 52.04 51.49 50.19 50.34 51.45 45.38 46.43 47.50 50.50 49.73 45.05 15.32 37.22 41.34 49.43 46.89 42.86 43.11 43.97 47.30 42.95 37.74 37.21 37.16 34.43 36.05 35.69 34.71 36.28 37.34 34.08 38.12 35.66 34.17 29.92 28.02
52.02 52.39 52.39 52.37 52.52 52.46 52.28 52.22 52.10 51.83 51.91 51.92 50.87 50.04 50.26 49.55 50.04 48.82 49.78 49.74 47.23 25.08 15.82 33.74 42.24 41.23 40.74 42.41 42.42 44.48 43.24 44.54 42.74 37.93 37.42 35.89 39.50 38.26 36.87 38.89 38.84 39.08 35.81 33.91 32.39 29.35 20.24
51.22 51.29 51.39 51.65 51.52 51.38 51.76 51.68 51.38 51.57 51.61 51.47 50.49 49.68 48.83 50.40 43.61 50.08 49.71 46.86 31.05 18.60 34.62 32.64 36.63 40.65 39.48 38.17 39.25 40.57 38.54 36.56 34.29 30.33 30.44 34.88 36.23 39.22 41.22 36.08 37.11 34.09 34.13 27.98 22.01 21.14 20.99
50.71 50.85 51.03 50.91 50.73 50.63 50.94 50.98 50.88 50.89 51.17 50.56 49.40 48.64 49.21 49.13 49.24 49.34 47.78 38.96 23.50 30.28 30.45 37.79 38.63 39.58 36.21 38.53 38.23 38.94 36.29 33.73 36.88 34.73 31.07 29.47 26.99 36.47 40.50 38.21 34.24 32.23 31.97 26.15 18.74 18.79 21.16
50.19 50.32 50.30 50.30 50.22 50.50 50.14 50.55 50.58 50.58 50.50 49.75 48.32 43.75 45.64 48.03 49.78 50.02 42.24 30.10 26.88 30.35 35.85 34.73 35.08 31.72 32.76 37.49 37.32 36.91 34.73 35.23 37.27 36.91 31.02 29.84 30.31 37.85 39.96 39.26 38.04 32.26 28.00 32.34 28.24 27.88 21.56
49.33 49.20 49.60 49.44 49.39 49.48 49.91 50.25 50.69 50.52 50.22 49.06 41.74 40.69 42.19 47.99 49.49 47.00 37.86 31.98 32.28 37.09 38.04 37.79 30.24 33.29 29.01 31.56 33.47 34.17 34.02 37.80 37.24 39.21 38.96 35.16 29.09 36.88 38.68 39.68 38.17 35.04 36.04 26.87 27.99 20.05 18.96
47.69 48.15 48.52 48.54 48.78 48.79 48.88 49.69 49.83 49.72 49.91 48.74 40.98 37.14 41.63 48.20 48.39 41.66 31.45 31.94 35.10 39.10 39.72 35.97 33.33 32.48 33.97 32.91 32.29 31.41 33.04 37.63 39.08 38.06 39.71 36.16 33.35 31.59 37.52 34.59 32.31 33.37 30.98 31.36 30.15 26.03 20.79
47.01 46.82 47.21 47.62 47.78 48.22 48.17 48.68 48.69 49.34 49.30 46.51 41.04 33.56 40.66 47.89 35.78 34.51 32.79 35.36 39.29 37.54 40.16 38.02 38.50 36.61 34.27 34.76 32.86 32.56 33.74 36.46 40.03 39.84 35.03 38.08 34.50 30.54 32.53 36.65 39.43 37.06 34.48 32.79 22.24 22.16 27.91
46.65 46.06 46.17 46.79 47.08 47.19 47.70 48.03 48.17 48.40 48.68 43.68 36.89 36.25 42.11 43.34 30.30 30.01 34.26 35.60 37.76 36.21 36.36 37.15 35.63 37.57 38.13 33.94 31.17 33.71 34.71 38.97 39.71 38.89 36.22 37.56 32.44 25.86 28.72 32.18 35.99 34.03 35.18 35.60 33.33 31.14 26.82
46.07 45.99 45.80 46.04 46.25 46.74 47.15 47.07 47.44 48.05 48.54 43.75 34.96 29.35 33.20 36.49 36.42 31.51 31.24 33.20 33.61 38.98 37.26 39.00 37.44 38.51 35.65 33.48 35.62 32.72 33.94 38.05 39.14 38.89 42.49 41.03 34.14 29.63 24.42 26.63 31.31 30.80 33.62 35.48 33.32 26.64 26.39
45.47 45.26 45.58 45.92 46.26 45.97 46.51 46.60 47.12 47.34 47.62 43.70 35.77 31.01 33.05 26.86 30.22 33.33 33.80 32.64 30.76 32.67 37.64 38.69 35.92 35.75 33.61 31.03 31.95 32.36 34.82 35.22 35.78 41.42 38.45 36.02 29.43 31.18 32.57 33.27 33.10 32.04 32.72 33.52 31.73 31.18 26.72
44.27 44.25 44.93 45.01 45.22 45.89 45.73 45.94 46.75 46.65 47.08 41.04 30.98 32.07 34.96 30.12 31.74 32.15 32.23 31.07 30.78 32.09 34.45 35.01 33.63 35.26 36.07 32.47 32.86 30.64 34.19 33.57 32.29 34.74 32.77 33.16 26.85 28.50 27.58 32.82 33.15 29.91 31.95 30.52 32.83 33.62 32.49
43.76 44.13 44.27 44.42 44.63 45.02 45.01 45.57 45.85 46.04 45.11 38.09 36.33 38.96 35.99 31.86 28.99 30.02 29.54 30.56 31.12 33.78 34.67 35.94 35.39 34.42 34.01 35.01 37.11 38.13 37.93 37.09 36.95 32.85 30.31 30.89 29.42 28.15 25.18 30.90 31.98 27.06 28.35 30.78 29.65 30.01 30.80
43.18 43.45 43.83 44.08 44.01 44.30 44.42 45.02 45.52 45.33 44.37 38.83 39.57 35.62 32.04 27.08 29.87 29.10 30.87 31.26 30.81 32.12 32.11 35.67 36.45 33.81 36.78 41.15 40.29 38.50 35.79 34.80 35.13 33.62 35.01 29.12 29.37 28.94 25.10 27.14 20.23 26.98 33.21 34.04 29.58 28.97 30.78
42.50 42.81 43.25 43.50 43.69 43.86 44.44 45.02 45.09 45.41 45.00 38.40 38.98 37.90 34.57 28.62 30.36 32.19 31.87 31.22 32.14 32.85 32.30 33.04 35.85 39.12 40.44 37.85 32.02 29.61 28.39 30.20 31.47 33.99 33.16 32.55 28.63 25.91 20.94 22.46 25.23 26.99 29.72 27.16 27.59 25.89 28.66
41.26 41.77 42.26 42.69 43.20 43.47 43.82 44.42 44.88 45.35 45.01 41.47 37.92 41.68 37.16 31.39 30.31 34.87 32.69 33.21 30.19 31.46 31.26 32.48 40.25 42.77 39.91 32.26 29.75 24.26 21.46 25.53 25.45 28.15 34.36 32.88 31.93 27.11 24.32 18.77 16.51 21.81 31.79 34.13 30.18 18.01 27.38
41.12 41.07 41.36 41.72 42.00 42.93 43.23 44.10 44.63 44.95 44.76 40.96 39.51 42.06 39.31 32.25 33.30 35.89 32.32 31.15 35.40 33.23 30.92 32.86 36.74 36.27 37.16 29.78 24.32 21.83 22.12 28.14 22.61 23.67 25.95 27.17 27.10 23.67 22.75 20.52 21.89 29.36 33.23 33.55 16.05 19.51 26.27
39.72 41.37 40.96 40.98 41.18 42.01 42.86 43.85 44.35 44.59 44.64 42.71 40.49 43.67 38.66 32.50 35.58 37.38 37.31 34.66 34.76 34.50 28.35 32.77 33.08 32.52 30.60 27.48 27.73 25.34 22.24 24.64 23.72 20.99 25.73 24.33 23.41 22.13 23.58 19.34 15.07 30.58 31.88 24.77 23.18 25.57 24.92
42.53 42.93 43.02 43.13 43.61 42.73 42.96 43.83 44.01 44.37 44.90 44.28 38.85 43.65 43.79 35.77 34.93 39.54 38.93 39.98 39.03 39.24 32.14 32.23 31.23 31.18 32.65 29.39 28.16 28.99 26.54 24.43 24.45 20.66 29.64 19.29 23.38 21.72 24.59 21.16 27.67 29.62 27.09 26.57 27.14 25.56 22.69

GFSGBSN_sfc_wetblb_120.txt.gz
Wetbulb
58.68 58.68 58.53 58.49 58.03 57.30 56.32 55.84 56.24 55.64 55.27 55.14 54.82 55.04 55.09 54.98 54.55 54.55 54.91 54.72 54.23 54.65 55.66 56.05 56.53 54.25 48.57 43.59 43.44 52.40 56.67 56.60 52.06 48.40 46.37 44.52 43.22 41.42 38.60 39.75 41.38 39.49 41.23 43.42 43.83 43.50 42.80
57.85 57.69 57.48 57.38 57.06 56.59 56.12 55.92 55.77 54.86 54.63 54.73 54.32 54.42 54.87 54.89 54.55 54.13 54.64 53.81 53.32 53.87 55.07 56.17 54.25 53.05 45.94 38.86 48.61 51.40 50.90 50.50 50.44 47.76 45.64 44.10 44.41 44.79 41.67 40.56 39.09 41.43 41.53 41.11 41.99 42.85 42.17
57.35 57.00 56.86 56.18 55.88 55.94 55.74 55.27 54.87 54.81 54.40 54.18 54.01 54.11 54.70 54.34 53.82 53.99 54.21 52.99 52.64 53.62 54.30 55.88 53.48 49.34 44.02 42.40 49.14 49.21 50.17 47.60 48.28 48.10 44.78 46.70 46.57 43.35 42.70 40.00 43.02 41.93 37.95 39.68 40.46 39.32 40.48
56.88 56.54 56.05 55.82 55.33 54.92 54.86 54.59 54.53 54.22 54.32 53.79 53.71 54.25 53.85 53.74 53.74 53.79 53.91 53.32 52.89 53.60 53.81 55.98 53.18 48.42 40.82 50.47 49.56 49.34 47.79 47.64 49.48 49.53 48.90 49.65 48.55 44.19 41.45 42.66 40.88 37.79 36.11 31.71 37.47 39.61 40.48
56.03 55.90 55.45 55.68 55.24 54.85 54.42 54.28 54.34 53.93 53.59 54.25 54.15 53.80 53.21 53.09 53.28 53.37 53.77 54.15 53.59 55.24 55.45 53.00 47.02 45.61 39.63 51.31 45.47 48.76 49.35 47.06 48.41 49.28 49.02 52.59 46.77 41.93 40.32 35.49 32.23 33.76 26.99 30.44 34.62 39.72 38.54
55.02 54.90 54.82 54.99 55.16 54.69 54.27 53.82 53.62 53.68 53.91 53.84 53.29 52.90 53.09 53.05 52.85 52.96 53.25 53.21 53.89 52.49 50.95 50.84 49.38 40.13 42.25 40.44 46.92 49.47 49.43 49.43 47.64 47.52 46.35 44.49 39.22 36.12 34.62 32.47 25.29 27.29 28.47 26.30 29.74 35.03 36.69
54.98 55.04 54.63 54.60 54.77 53.87 53.07 52.95 53.44 52.94 53.31 53.39 52.07 52.83 52.94 52.64 52.54 52.78 49.94 46.16 42.08 40.94 45.81 39.98 40.51 40.05 42.97 47.18 49.08 48.00 49.77 47.64 47.07 43.84 38.00 39.00 34.63 31.93 35.90 35.14 34.87 33.63 30.48 29.17 31.65 37.19 35.49
54.63 54.86 54.65 54.42 54.05 53.28 52.94 53.23 53.46 52.75 52.96 52.36 52.05 52.55 52.27 52.36 52.43 52.75 47.48 41.69 41.17 46.08 39.00 43.23 43.86 43.58 46.09 46.37 41.39 43.95 49.83 44.10 42.21 37.15 39.31 35.80 32.42 37.48 38.18 36.78 35.86 34.61 31.42 31.20 34.49 37.62 36.13
53.77 54.06 54.03 54.23 54.25 53.85 53.30 53.11 52.73 52.63 52.32 52.26 51.78 51.81 51.80 51.61 52.07 51.83 48.11 43.76 48.39 49.27 37.38 40.32 43.06 42.11 43.33 44.96 40.02 40.68 46.92 43.51 39.60 37.14 37.20 33.68 36.53 41.04 38.57 35.43 34.15 33.36 31.82 31.94 32.30 34.33 34.61
53.19 53.21 53.27 53.54 53.65 53.57 53.47 53.09 52.86 52.69 52.32 52.02 51.54 51.80 50.97 50.66 47.41 45.88 45.13 48.36 48.09 48.07 25.51 31.98 40.05 42.97 44.53 44.47 39.46 45.20 46.35 43.26 38.70 36.87 36.54 36.22 40.37 38.02 36.13 35.57 35.86 29.91 36.18 35.38 33.08 30.39 24.38
52.26 52.44 52.52 52.92 52.75 52.65 52.59 52.59 52.67 52.77 52.70 52.17 51.63 51.18 50.08 51.05 42.39 43.92 45.01 48.27 47.24 42.62 14.25 35.75 40.23 48.20 45.48 40.35 41.47 42.52 45.47 42.33 37.10 36.35 36.40 33.48 34.74 34.81 33.68 35.53 36.34 33.02 36.66 34.65 33.53 29.25 27.20
51.59 51.98 52.34 52.52 52.46 52.21 52.15 51.95 51.97 52.45 51.98 52.03 51.83 50.50 49.89 47.27 48.77 46.48 48.67 48.67 46.69 21.46 14.68 33.01 40.64 39.70 39.08 41.45 41.13 42.74 41.39 43.42 41.40 37.14 35.91 35.09 37.78 36.97 36.20 37.41 37.24 37.79 34.87 32.73 31.18 28.10 23.51
50.31 51.26 51.75 51.81 51.54 51.48 51.73 51.80 51.49 51.66 51.86 51.80 51.64 50.56 48.34 48.21 42.07 48.71 49.22 47.14 29.11 16.29 32.11 31.24 36.29 39.67 38.02 37.07 37.92 39.37 36.71 35.29 32.68 29.39 29.70 33.34 34.76 37.31 39.54 34.57 36.36 33.99 31.93 24.26 20.12 21.53 21.63
49.70 50.20 51.12 51.28 51.45 51.38 51.34 51.38 51.12 51.38 51.37 51.32 50.97 49.85 48.28 46.95 48.02 49.01 47.34 39.01 23.42 27.18 27.79 35.96 37.91 38.54 35.02 37.32 36.20 37.11 34.36 31.11 35.10 33.24 29.56 27.34 25.27 34.28 38.79 36.88 32.89 30.80 32.00 27.73 19.59 17.91 20.28
48.66 49.75 49.67 50.15 50.90 50.91 50.68 50.41 50.26 50.41 50.52 50.30 49.19 43.33 44.89 48.05 48.34 48.64 41.68 29.23 24.92 28.88 34.37 32.17 33.20 31.36 32.42 36.22 35.26 35.65 34.08 32.34 34.86 35.79 30.29 28.05 28.70 36.64 38.66 37.70 37.64 32.21 31.00 33.19 29.19 27.78 23.63
47.45 48.60 49.63 49.43 49.62 50.54 50.02 49.99 49.82 49.98 50.08 49.63 42.10 40.63 43.24 47.56 49.17 46.44 36.52 30.25 31.34 35.56 36.82 36.31 28.57 30.62 26.37 30.63 33.20 33.45 32.84 36.59 36.33 37.93 37.40 33.73 27.42 35.50 37.38 38.48 36.86 34.06 35.43 27.69 28.67 21.76 19.15
46.00 46.73 47.24 49.30 49.06 48.99 49.16 49.21 49.37 49.60 49.81 48.01 41.22 37.31 40.88 47.65 48.63 40.27 30.27 30.36 33.40 38.06 38.62 34.39 32.31 31.74 32.50 31.75 32.56 30.83 32.82 35.91 38.23 36.65 38.81 34.79 32.15 30.77 36.14 33.98 31.40 31.69 30.58 31.60 30.45 28.20 20.68
45.77 45.43 45.97 48.62 49.19 48.94 48.72 48.70 48.34 48.84 49.14 45.78 39.93 32.24 41.15 48.08 35.96 35.38 31.78 33.83 38.09 36.11 38.80 36.66 36.91 35.07 32.82 33.83 32.19 32.05 31.98 34.59 39.00 38.10 33.95 36.17 32.93 28.68 31.56 36.62 37.92 37.00 33.86 32.56 27.10 22.74 25.44
45.44 45.25 44.64 48.33 48.34 47.85 47.82 48.06 48.61 49.20 48.61 43.47 36.20 36.02 41.45 43.16 29.90 31.01 33.97 34.83 36.28 35.60 35.67 35.77 34.52 37.05 37.01 33.05 30.55 32.88 34.13 38.62 39.43 38.54 35.65 38.05 32.27 26.73 25.06 30.82 34.60 33.55 34.29 34.74 33.66 31.40 27.05
44.91 44.80 45.29 46.96 46.93 47.26 47.27 47.59 48.05 48.18 48.84 43.59 35.34 29.33 33.72 37.75 37.48 32.48 31.80 32.43 33.32 37.99 36.68 37.77 36.31 37.12 34.58 32.59 34.63 31.55 32.21 36.99 38.12 38.07 42.34 39.95 32.65 29.43 24.48 26.21 30.38 29.90 32.57 34.93 34.04 28.48 28.00
44.36 44.18 46.70 45.97 45.88 46.83 47.46 47.51 47.88 48.00 48.07 43.23 36.45 31.52 32.82 27.44 31.31 33.24 33.96 32.75 31.21 31.50 37.36 38.25 35.86 35.22 33.12 30.10 30.65 30.30 32.84 34.53 35.48 38.99 38.01 35.60 30.00 31.32 31.92 32.77 33.41 31.40 31.69 32.71 33.03 32.83 28.52
43.35 44.33 44.17 45.71 46.59 46.94 46.88 47.24 47.08 47.03 47.53 41.56 31.73 31.86 34.97 30.29 33.11 33.00 32.35 30.67 30.22 31.81 33.89 33.69 32.66 34.31 34.99 31.96 32.03 28.72 33.10 32.53 32.13 36.29 34.80 34.04 27.00 29.98 27.96 32.08 33.10 30.30 31.55 31.64 32.75 33.79 32.76
43.66 42.73 45.92 45.59 45.55 46.04 46.02 46.50 46.67 46.87 45.68 37.01 37.49 39.06 31.63 29.07 28.53 30.54 30.33 30.36 30.81 33.31 34.26 35.41 34.90 34.59 33.64 34.25 36.56 37.38 37.06 36.21 37.28 34.16 30.58 31.21 29.50 27.76 24.76 29.18 28.01 26.74 29.74 30.13 29.26 29.55 31.35
41.99 43.29 43.49 44.60 45.00 45.27 45.38 45.82 45.71 46.05 44.53 39.65 38.58 37.19 32.20 26.12 28.31 28.79 30.07 31.59 30.72 31.77 30.72 34.66 34.99 32.82 35.60 39.73 39.13 36.73 35.30 35.01 35.50 34.69 35.20 30.93 29.13 29.36 25.73 27.47 20.06 26.48 30.64 32.31 29.53 30.38 31.24
41.59 41.79 43.10 43.58 44.04 44.18 44.62 45.27 45.55 45.72 45.10 37.09 39.66 37.01 33.37 26.42 29.63 31.35 31.34 30.03 30.76 32.60 32.33 32.54 34.74 37.47 39.33 37.33 33.36 30.42 29.33 28.95 32.26 33.72 33.78 33.12 28.86 26.64 23.07 22.62 25.19 26.00 28.89 25.91 25.18 25.20 28.91
41.61 42.10 42.42 42.99 43.31 43.70 44.18 44.28 44.35 44.81 44.84 37.87 36.06 40.73 36.79 27.45 25.84 32.31 30.89 31.94 28.05 27.50 28.16 31.14 35.82 39.47 37.42 34.01 30.57 24.57 21.13 27.61 26.69 29.33 33.98 32.59 31.88 28.56 24.09 16.96 14.17 21.55 29.80 32.79 29.62 20.22 27.98
40.92 41.03 41.29 42.14 42.76 43.22 43.56 43.78 44.24 44.45 44.37 39.92 39.02 39.13 37.02 31.76 31.87 33.67 32.03 31.80 32.42 30.19 25.37 30.64 34.05 35.08 37.11 29.91 25.16 25.04 24.06 29.01 24.77 25.11 26.05 27.91 27.41 24.64 22.81 20.55 21.97 27.45 31.47 32.26 18.08 21.07 29.60
40.96 40.95 40.99 41.25 41.63 42.32 43.12 43.68 43.83 44.06 44.42 41.47 38.60 40.32 36.16 33.13 33.87 35.71 37.00 34.81 35.83 32.79 27.77 33.26 33.51 33.16 31.53 27.83 27.06 26.31 23.21 25.97 25.31 23.89 26.84 25.63 23.89 22.86 24.20 20.48 14.81 30.71 31.04 24.63 24.88 25.86 26.31
40.77 40.37 40.86 41.07 40.89 42.01 42.26 42.85 43.35 43.66 44.04 42.59 33.88 40.20 40.70 35.63 35.24 39.55 38.39 38.13 38.78 37.90 33.04 34.27 30.35 29.72 30.20 28.79 29.41 29.43 28.17 25.23 23.97 19.49 28.61 23.59 22.31 19.35 23.12 20.29 25.30 29.00 28.05 27.67 27.63 24.46 22.24

GFSGBSN_sfc_wetblb_123.txt.gz
Wetbulb
61.52 61.05 60.33 59.59 59.25 58.55 57.81 56.81 56.53 56.04 55.75 55.45 55.20 55.04 55.23 55.24 54.65 54.24 54.66 54.63 53.88 53.54 54.64 55.57 56.56 54.48 50.82 44.18 44.31 54.51 56.23 56.26 53.65 51.88 49.85 48.74 47.62 46.24 43.81 44.73 45.94 44.22 44.94 46.21 46.96 46.46 46.68
58.09 58.32 58.50 58.54 58.42 57.65 57.11 56.80 56.55 55.71 55.16 54.99 54.60 54.17 54.22 54.91 54.46 53.97 54.21 54.37 53.39 53.43 54.31 55.35 54.73 53.67 48.32 38.36 50.60 52.74 51.79 52.13 51.75 51.58 48.68 49.31 48.65 48.67 46.10 45.00 44.83 45.18 45.02 45.08 45.67 46.59 45.72
57.77 57.32 57.20 57.44 57.14 56.74 56.25 56.17 55.99 55.42 55.05 54.83 54.54 53.96 54.49 54.41 53.92 53.82 54.02 54.13 52.73 53.31 53.58 54.89 53.92 49.80 45.41 43.04 51.83 51.85 51.18 50.87 51.42 50.56 49.10 49.72 50.25 48.39 47.37 43.69 46.21 45.25 42.25 43.77 43.85 44.15 43.61
57.02 57.10 56.84 56.79 56.21 55.85 55.53 55.22 55.12 55.16 54.76 54.07 53.87 54.08 54.07 53.68 53.35 53.57 53.70 53.74 52.92 53.24 53.50 55.75 52.79 48.87 41.74 51.22 52.01 50.38 50.60 49.91 51.14 51.69 50.87 51.82 52.09 48.72 46.57 46.83 44.02 41.53 40.73 37.15 41.79 43.57 43.23
56.69 56.50 56.50 56.05 55.59 54.90 54.86 54.97 54.66 54.71 54.38 54.49 54.19 54.17 53.24 52.83 53.05 53.17 53.58 53.88 54.00 54.10 55.26 53.34 49.27 46.12 40.64 51.70 46.44 49.91 51.36 48.41 49.35 50.22 50.89 53.02 50.83 46.73 45.20 40.77 38.98 38.22 34.70 35.01 38.44 42.80 42.60
56.58 56.14 56.01 56.02 55.26 54.70 54.29 54.17 54.33 54.07 53.94 53.92 53.92 52.99 52.62 52.74 52.62 52.50 53.06 53.48 54.43 52.43 51.23 50.92 49.34 41.51 43.41 42.04 47.90 50.36 51.29 50.67 48.57 48.18 47.73 47.26 44.38 42.43 39.66 39.60 32.24 33.20 34.29 34.96 35.17 40.52 41.47
56.24 55.98 55.70 55.48 55.68 54.73 54.77 54.39 54.15 53.64 53.41 53.67 53.22 52.31 52.73 52.53 52.39 52.61 50.27 47.95 43.16 42.03 45.85 40.88 41.05 39.97 43.55 48.15 49.85 49.29 50.78 49.60 49.13 46.42 41.62 43.31 40.70 37.74 40.38 40.35 37.56 36.61 35.22 34.73 37.75 41.30 38.91
55.20 55.82 55.55 55.37 55.34 55.20 54.85 54.28 53.62 53.10 52.87 53.30 52.10 52.36 52.09 52.01 52.07 52.35 49.04 44.02 42.60 46.72 39.52 43.69 43.77 43.69 45.91 47.19 42.67 45.99 50.91 45.82 44.71 39.67 41.71 39.50 37.28 41.68 41.09 39.83 38.91 38.01 36.03 36.14 38.45 40.64 39.90
53.72 54.68 53.99 54.45 55.16 54.56 54.76 53.99 53.52 53.00 52.60 52.68 51.96 52.18 51.81 51.68 51.41 51.59 48.00 45.82 49.89 49.64 39.91 40.47 43.42 42.09 43.25 45.37 41.18 42.09 47.98 45.93 42.59 39.49 39.32 37.04 39.01 41.70 40.39 37.96 36.79 36.51 35.91 35.62 35.79 38.79 39.39
52.68 53.20 53.72 53.66 53.71 53.90 53.66 53.69 53.12 52.79 52.33 52.27 51.80 51.89 51.22 50.59 48.27 48.17 45.19 49.65 50.05 50.25 30.82 33.05 39.32 42.91 44.65 44.41 38.93 46.27 48.71 46.63 42.23 39.81 39.77 39.57 42.22 40.00 39.12 37.76 38.46 34.15 39.28 38.39 36.63 35.06 31.33
50.66 51.92 52.69 53.16 53.02 52.44 52.60 52.50 52.79 52.64 52.44 52.09 51.65 51.92 50.65 51.38 45.16 45.21 46.72 49.60 49.45 42.31 20.58 36.43 39.68 48.51 45.81 40.34 43.08 43.08 47.16 45.39 39.86 39.21 39.88 36.97 37.72 37.57 36.91 38.27 39.82 36.55 38.99 37.50 36.29 34.77 33.26
49.21 50.48 51.31 52.34 52.50 52.27 52.12 52.14 52.19 52.28 52.38 52.21 51.70 51.40 50.13 48.72 48.91 48.73 50.23 50.40 46.47 28.32 18.85 33.93 40.45 39.82 39.18 41.68 42.33 43.03 43.42 46.07 44.12 40.04 39.45 37.86 41.37 40.33 39.73 39.20 39.99 40.18 37.98 36.46 35.26 33.97 27.58
47.12 48.65 50.18 51.16 51.88 51.94 51.99 52.00 51.80 51.74 51.81 51.96 51.73 50.99 48.92 47.78 42.96 49.62 50.61 47.83 30.42 20.74 33.56 32.72 36.05 39.58 38.24 37.49 39.25 38.89 38.72 38.28 36.41 32.63 33.12 36.18 37.32 40.41 41.52 38.00 39.25 39.17 36.10 28.26 26.45 24.53 25.86
46.67 46.66 47.44 50.23 50.59 51.48 51.78 51.73 51.72 51.30 51.20 51.29 51.07 50.36 49.00 47.47 48.09 49.85 48.12 39.20 22.60 28.09 28.95 36.40 39.42 39.23 35.85 38.22 37.73 38.49 36.33 34.91 38.25 36.00 32.42 30.97 28.73 36.77 40.63 39.18 36.62 36.02 35.80 28.75 21.58 22.62 26.67
45.84 46.59 46.82 47.39 49.26 50.86 51.27 51.10 51.48 50.98 50.59 50.60 50.44 46.09 44.90 46.62 47.61 49.05 41.57 29.22 26.96 29.73 34.86 33.09 35.84 34.80 34.86 37.58 37.38 37.54 35.24 34.60 37.90 38.46 33.14 30.70 30.92 38.62 39.92 40.02 40.39 35.18 33.08 38.35 31.58 29.59 27.03
45.75 46.07 46.37 47.07 48.35 48.65 50.36 50.26 50.27 50.80 50.48 49.86 43.97 42.73 42.38 46.85 48.40 44.75 35.98 30.84 31.98 35.78 37.77 37.13 29.42 32.81 29.79 33.51 35.17 36.31 35.36 38.58 37.39 39.53 40.58 36.50 30.91 37.63 38.67 41.18 39.48 38.19 39.38 31.52 32.79 23.89 21.23
44.70 45.68 45.60 45.53 46.22 48.22 48.45 50.45 50.32 50.16 50.04 48.38 42.10 37.53 42.13 48.33 48.06 38.28 29.75 31.28 34.01 38.50 39.16 35.35 33.30 33.20 34.03 32.45 35.19 33.91 34.93 38.24 39.99 38.80 40.75 38.36 35.69 33.87 38.09 36.75 35.17 34.90 33.91 33.83 33.70 30.97 25.37
43.83 44.47 45.54 45.15 46.41 46.64 48.61 48.82 50.12 49.68 49.36 46.39 40.12 31.65 43.00 48.22 34.00 33.89 30.86 33.82 37.64 36.09 38.88 37.13 37.58 36.28 34.38 35.47 34.12 33.53 33.82 36.45 40.92 40.11 36.09 39.41 35.92 31.77 33.77 38.40 40.61 39.03 36.57 35.72 29.46 27.24 28.68
43.37 44.06 44.68 44.73 45.10 45.36 46.30 48.51 48.27 47.69 48.55 43.04 36.32 35.36 42.47 43.89 28.35 29.54 32.87 32.91 35.57 35.54 35.75 35.63 35.10 37.74 38.52 35.05 31.66 35.06 35.92 40.00 41.09 40.38 37.92 39.48 34.05 29.55 30.95 34.55 37.70 35.96 37.22 37.08 35.82 33.47 29.19
43.12 43.54 44.16 45.20 45.72 45.88 47.08 48.65 48.55 47.93 48.00 42.82 35.43 30.22 34.62 37.90 37.72 33.50 30.46 30.54 31.26 37.26 35.70 36.78 36.52 38.07 35.92 34.30 36.36 33.83 34.25 38.91 40.33 39.96 43.02 41.56 35.17 32.47 27.90 30.06 34.27 32.21 34.97 36.88 35.27 30.14 30.20
42.63 43.18 43.57 44.49 45.10 46.77 48.35 48.32 47.80 47.65 47.61 42.33 35.87 32.43 34.39 28.28 32.06 33.24 33.80 33.16 30.47 30.30 36.95 37.61 34.43 35.43 34.31 31.11 32.51 32.20 35.11 36.40 37.97 39.72 40.42 38.72 32.08 33.48 34.64 34.77 34.75 34.33 33.91 34.98 33.45 34.10 29.82
42.27 42.38 43.03 44.30 43.78 45.28 46.77 47.09 47.35 47.24 47.50 40.71 32.25 32.96 35.18 31.92 34.63 32.51 32.26 30.59 30.24 32.66 34.33 34.31 33.46 35.06 35.82 33.01 33.54 31.31 34.83 35.09 34.87 37.25 37.74 36.87 31.90 32.60 31.07 33.65 34.29 32.18 34.21 34.40 34.53 34.76 34.88
42.38 42.53 42.98 43.70 41.74 44.99 44.18 46.08 46.60 46.53 46.89 36.40 36.02 38.86 35.13 31.80 32.10 31.21 31.04 31.50 31.70 34.14 35.31 36.72 36.40 34.91 33.88 35.51 38.00 39.04 39.01 38.38 38.43 36.05 33.79 33.50 32.27 29.71 26.82 31.58 31.62 27.97 32.05 33.32 33.92 35.61 34.79
42.30 42.69 43.55 44.14 43.79 43.67 45.92 45.59 45.32 46.30 45.59 38.58 38.53 36.06 31.69 27.37 30.59 30.07 32.18 32.60 31.58 33.38 31.99 35.12 36.93 34.56 36.86 41.03 40.08 38.61 37.22 36.69 36.70 36.52 38.13 33.62 31.71 31.43 27.18 29.46 21.17 31.77 33.61 34.69 33.86 35.56 35.79
41.17 41.92 42.38 42.87 44.84 45.29 46.11 45.71 45.85 46.04 44.15 39.91 40.89 37.00 33.32 28.62 30.96 30.52 31.07 31.40 32.95 34.05 33.32 33.53 36.17 38.44 40.90 37.93 32.37 29.18 29.41 30.06 30.97 34.54 35.23 36.54 33.30 28.68 25.35 24.89 27.96 30.70 31.74 30.96 30.48 32.00 34.48
40.77 41.00 41.10 42.03 42.21 44.68 45.05 45.33 45.47 45.55 44.83 39.70 40.87 41.02 35.25 30.02 29.40 32.92 31.44 32.51 29.18 29.43 30.43 32.43 37.74 40.29 39.24 34.23 30.48 23.77 22.18 26.53 26.20 29.28 34.76 35.33 34.94 29.66 26.58 21.94 19.45 29.70 32.21 35.06 33.88 26.66 33.40
40.69 40.69 40.64 41.75 42.61 42.55 44.05 44.66 45.09 44.97 44.93 40.65 39.14 40.83 36.92 31.72 33.11 34.12 31.15 30.90 33.60 31.77 29.50 31.82 34.38 35.31 37.68 29.97 26.32 24.25 24.11 30.18 24.15 25.79 26.53 28.73 29.48 26.74 24.87 23.20 26.83 32.46 33.80 34.31 25.26 29.69 32.91
39.98 40.48 40.50 40.86 41.94 42.80 43.34 43.83 44.42 44.64 44.55 40.99 37.67 41.14 37.42 32.40 32.92 36.97 37.20 34.63 35.32 33.95 29.39 33.04 33.59 34.22 32.69 28.32 26.88 26.90 25.92 28.51 27.67 28.43 29.07 27.81 26.32 25.84 26.27 23.91 20.98 33.80 32.28 28.53 32.35 28.84 32.44
40.21 40.58 40.70 40.08 40.66 41.24 42.63 43.43 43.71 44.04 44.01 41.59 35.78 41.45 40.44 35.86 33.46 39.63 39.68 39.60 39.18 39.19 36.03 35.82 33.50 33.23 34.19 30.55 29.86 30.31 27.71 28.61 27.30 24.35 31.25 27.10 31.20 27.65 28.68 28.66 29.20 31.43 30.89 30.37 31.14 30.16 29.52

GFSGBSN_sfc_wetblb_126.txt.gz
Wetbulb
62.43 62.95 62.42 61.89 61.05 60.52 60.21 58.99 57.54 56.80 56.55 56.29 56.07 55.82 55.76 55.65 55.39 54.66 54.39 54.34 53.82 53.46 53.89 55.16 56.50 55.09 53.69 47.59 46.55 56.95 56.46 58.26 57.33 56.56 54.99 53.83 52.08 50.59 46.80 47.73 48.69 47.18 48.31 49.60 50.68 50.65 50.79
57.93 58.18 60.62 60.81 60.16 59.72 59.48 58.03 56.91 56.20 55.92 55.59 55.29 54.61 54.24 54.63 55.26 54.65 54.14 54.32 53.59 53.12 53.74 54.82 55.80 53.87 51.17 42.71 53.89 56.57 55.51 55.22 55.67 55.69 53.93 54.03 52.46 52.42 49.06 48.61 48.30 48.87 48.43 48.99 49.69 49.27 49.31
57.25 57.32 57.06 57.44 57.96 58.00 57.59 56.70 56.35 55.83 55.47 55.23 54.92 54.31 53.70 54.59 54.65 54.08 54.08 54.30 53.10 53.35 54.17 54.29 54.78 53.45 48.40 46.00 54.49 56.05 54.65 54.38 54.72 54.54 52.30 53.54 54.04 51.13 51.36 47.71 49.88 48.25 45.24 47.25 47.24 47.37 46.71
56.41 57.03 56.78 56.80 57.04 56.56 56.14 55.86 55.64 55.38 55.38 54.88 54.32 54.14 54.16 53.99 53.56 53.44 53.60 54.09 54.05 53.84 54.02 54.98 53.29 52.58 45.17 53.52 56.05 53.49 55.07 53.81 54.63 54.58 54.95 55.32 55.39 52.31 50.61 50.21 47.61 45.17 44.93 41.72 45.91 46.49 46.75
57.19 56.73 56.93 56.50 56.18 55.86 55.25 54.63 54.58 54.89 54.97 54.59 54.51 54.22 53.97 53.19 52.84 53.17 53.44 53.87 54.15 54.52 54.74 53.89 52.08 49.46 44.38 52.69 49.62 52.93 54.29 50.14 52.30 52.96 54.65 55.46 54.31 50.22 49.01 45.56 43.60 44.23 40.02 40.49 42.10 45.97 45.45
55.21 56.72 56.53 56.37 56.08 55.54 55.23 54.62 54.36 54.54 54.40 54.56 54.24 54.07 53.07 52.86 52.80 52.75 53.06 53.77 54.20 53.64 53.21 53.48 52.05 45.15 47.73 44.81 50.43 53.31 54.72 53.70 50.95 50.32 50.45 50.81 50.12 46.72 46.76 44.39 38.44 39.73 39.62 41.12 40.52 44.51 44.94
54.19 54.82 56.63 56.46 56.32 55.70 55.38 54.99 54.26 54.18 54.13 53.93 53.91 53.40 52.71 52.84 52.51 52.38 53.17 52.28 47.68 46.80 48.08 45.03 45.57 43.88 45.81 50.91 52.54 52.15 53.80 52.68 51.32 48.97 43.87 48.19 44.17 42.20 44.56 45.69 44.46 41.71 40.21 39.93 42.78 45.17 42.92
53.09 53.47 53.87 56.20 56.24 56.15 55.53 55.25 54.71 53.95 53.73 53.62 53.52 52.71 53.03 52.55 52.62 52.75 52.85 47.68 46.45 49.87 42.21 47.60 46.55 46.49 48.63 49.57 46.43 50.38 54.20 48.38 46.83 42.79 45.90 43.70 40.72 45.36 45.38 44.68 43.05 42.05 40.29 40.63 42.78 44.08 43.09
51.19 52.36 53.03 53.91 56.04 55.54 55.20 55.08 54.44 53.58 53.50 53.11 52.80 52.76 52.52 52.19 52.01 52.10 49.76 48.45 54.25 52.99 42.77 42.98 46.39 45.16 46.05 47.72 43.86 47.39 51.47 49.22 45.71 42.85 43.41 41.12 43.07 45.06 44.35 42.63 40.99 41.44 40.09 40.15 39.26 42.74 44.53
49.08 49.44 51.49 52.65 53.99 54.42 54.20 54.12 54.11 53.33 52.86 52.59 51.97 52.27 51.86 51.32 48.32 50.45 47.81 51.86 54.79 53.84 37.04 38.51 40.90 45.02 46.46 46.71 41.82 48.59 52.46 48.82 45.60 41.57 43.19 42.61 45.33 42.96 42.93 41.45 42.52 38.27 42.61 41.05 39.81 38.76 36.59
47.24 47.96 48.32 50.92 52.67 53.79 53.30 53.03 53.19 53.23 52.55 52.49 51.53 51.71 51.33 51.58 48.72 46.43 48.85 52.73 53.95 50.14 26.31 39.43 40.94 50.40 47.81 42.44 44.99 44.82 51.27 48.87 42.74 42.94 43.40 41.12 42.34 41.80 40.77 41.45 43.47 39.17 42.77 40.97 40.36 39.42 38.65
46.57 46.78 47.27 47.92 50.29 52.29 52.59 52.20 52.49 52.49 52.24 52.10 51.43 51.56 50.94 49.90 51.26 51.24 53.02 53.35 50.53 33.62 24.92 36.96 42.72 41.97 41.14 42.59 44.61 45.82 44.25 49.06 47.39 43.59 43.42 42.40 45.35 44.04 43.09 43.42 44.36 44.38 41.57 40.99 40.73 39.00 31.84
46.23 46.15 46.78 46.54 47.43 48.48 51.71 52.07 51.74 51.84 51.63 51.69 51.36 51.46 49.80 50.00 44.09 53.09 54.19 49.40 33.01 27.15 36.62 36.43 38.71 41.79 41.64 39.17 41.82 42.31 40.05 39.23 38.81 35.15 36.14 40.46 40.91 43.79 45.25 41.36 43.39 43.12 39.44 34.12 31.45 31.63 30.89
45.45 46.70 46.20 46.68 46.78 47.12 47.90 51.40 51.42 51.22 51.38 51.46 51.06 50.58 49.72 49.39 51.11 51.95 49.70 40.28 25.42 33.03 34.15 39.82 41.28 41.73 38.55 40.60 41.43 40.78 39.60 37.26 41.43 40.31 37.99 35.22 33.11 41.09 44.11 42.00 39.90 40.38 39.86 33.75 25.06 28.53 32.57
44.83 45.56 46.48 46.37 46.33 46.20 47.48 49.50 51.08 51.24 51.08 50.93 50.65 50.22 48.06 50.10 50.65 51.48 41.85 30.68 30.33 34.20 36.05 36.25 41.05 37.60 37.62 40.33 40.23 40.56 39.78 39.20 41.20 41.68 35.81 35.08 34.61 42.93 43.32 44.13 43.46 39.05 36.15 41.99 34.99 35.65 31.19
44.43 44.78 45.22 46.00 46.40 46.40 46.90 47.44 49.08 51.04 51.30 50.66 46.12 44.64 45.19 49.98 50.19 45.59 36.38 30.78 34.59 38.17 39.28 38.47 34.60 37.58 34.92 38.02 38.18 39.50 38.91 42.45 40.08 43.49 45.06 39.59 33.50 41.21 42.16 44.10 44.18 41.64 43.97 33.77 35.94 26.20 25.69
43.98 44.16 44.52 44.89 45.77 46.09 46.18 46.54 47.48 50.58 51.24 50.28 43.70 38.22 45.62 50.69 47.94 38.05 30.09 32.42 35.97 40.66 40.94 37.52 35.23 34.17 35.46 35.81 38.71 38.03 38.18 41.22 43.28 42.81 44.44 42.22 38.85 37.61 41.10 39.59 38.65 38.84 38.13 38.80 38.29 35.97 28.91
43.53 43.66 43.95 44.47 45.07 45.55 46.30 46.79 46.79 48.26 49.20 47.71 40.94 33.67 47.22 49.50 34.28 34.88 32.07 35.91 38.94 37.82 41.49 38.53 39.17 37.74 36.80 37.79 36.44 37.21 37.07 39.47 44.03 44.28 39.41 42.76 39.90 34.43 37.25 43.23 44.88 43.48 40.13 39.96 32.91 31.33 34.75
43.35 43.51 43.59 44.03 44.52 44.78 45.37 45.83 46.26 47.41 48.79 43.84 36.14 38.11 45.90 46.39 30.04 31.31 35.13 35.05 38.14 37.08 37.40 37.49 36.74 38.67 39.67 36.91 33.65 37.53 38.75 42.22 43.68 42.51 41.36 42.59 38.13 32.21 33.99 38.35 42.06 39.34 41.13 41.20 40.15 38.07 32.28
42.73 43.07 43.13 43.80 44.16 44.58 45.31 46.35 46.22 46.71 49.26 44.07 37.52 32.07 35.68 39.06 40.17 35.09 32.26 32.62 32.77 38.45 37.56 38.50 37.64 39.57 37.57 35.43 38.12 35.31 36.77 40.77 42.66 43.01 43.13 43.15 38.32 34.58 30.77 33.23 37.92 34.93 37.34 39.44 37.96 33.08 33.33
42.64 42.75 42.89 43.49 43.83 44.30 44.93 45.89 46.62 46.98 47.24 40.86 36.34 33.32 36.47 29.51 32.89 35.60 36.07 34.35 32.10 32.02 37.26 38.69 36.15 36.53 35.86 32.21 33.42 33.74 37.07 38.42 40.79 42.14 41.21 40.50 33.20 35.18 36.59 37.83 37.81 36.93 36.51 37.55 36.15 36.90 32.28
42.31 42.48 42.56 42.83 43.11 43.78 44.83 45.52 46.58 46.56 45.48 37.49 32.43 34.24 37.02 36.07 35.98 34.31 34.88 33.24 32.49 33.73 35.43 34.04 33.79 36.05 36.17 32.76 34.49 32.48 35.75 36.45 36.25 40.05 39.57 40.87 32.64 34.85 32.44 36.16 36.27 34.04 37.00 37.63 37.59 37.81 37.47
42.13 42.29 42.51 42.82 43.32 43.81 44.73 45.24 44.60 47.55 45.51 34.42 36.50 41.35 39.16 35.48 35.11 33.45 33.78 34.55 34.71 36.87 37.27 38.26 37.67 36.04 34.96 37.09 40.13 40.73 41.36 40.92 40.23 38.24 37.23 36.54 34.52 31.89 27.92 34.11 33.76 29.23 35.04 36.47 37.80 39.61 38.79
41.77 42.36 42.39 42.96 43.20 43.71 44.15 44.76 43.95 47.93 44.96 40.07 40.61 40.15 36.07 30.59 34.66 33.78 34.61 35.79 34.74 35.82 34.12 37.22 38.52 36.28 39.55 43.24 42.46 41.28 40.58 39.80 39.93 39.54 40.31 35.14 34.14 33.18 28.71 31.19 22.78 35.71 39.97 39.88 38.24 39.66 41.07
41.73 42.15 42.19 42.76 43.36 44.13 44.01 44.93 44.18 45.87 44.82 42.08 42.49 40.13 36.84 32.24 35.15 34.41 35.18 35.03 35.75 36.94 35.41 36.72 38.49 41.03 43.65 39.99 33.61 30.45 31.34 31.65 33.60 37.03 37.48 38.63 35.12 29.00 26.43 26.74 31.56 34.58 37.12 35.61 34.91 35.09 41.00
41.80 41.45 41.44 41.18 42.36 43.83 43.89 44.73 43.73 45.04 45.58 42.72 42.72 44.43 39.97 34.88 32.36 36.17 34.74 36.32 34.64 34.20 34.43 36.07 40.93 43.18 40.61 36.13 31.81 25.13 24.00 28.22 28.00 31.48 37.13 36.71 36.97 31.96 28.87 23.84 21.31 33.80 39.17 40.51 38.99 30.45 40.92
40.44 40.07 39.10 41.46 40.91 43.86 44.37 44.04 44.26 44.62 44.97 44.47 41.90 45.56 41.28 35.95 37.51 37.54 34.26 34.56 38.07 36.39 34.10 35.84 36.89 37.28 40.46 32.94 28.28 26.37 26.17 32.27 26.41 26.77 28.87 29.49 30.19 26.28 27.49 25.51 29.80 37.54 38.13 39.14 28.43 32.53 38.83
40.24 40.36 40.06 40.66 41.14 42.91 43.67 43.77 44.37 45.06 44.92 43.93 42.15 45.67 41.21 37.27 37.66 39.42 39.58 37.55 38.16 37.85 33.34 36.81 36.10 36.32 34.42 29.67 28.78 29.07 28.38 30.99 30.17 32.46 30.55 29.75 28.39 27.80 28.88 25.59 23.58 37.85 36.54 31.13 37.22 36.46 38.84
39.86 40.23 40.49 40.38 39.99 41.97 42.20 43.94 44.71 45.42 44.28 44.16 39.65 44.72 45.53 39.70 38.01 41.48 41.90 42.74 42.11 41.61 39.03 39.22 36.09 36.51 37.88 33.31 34.00 33.85 30.44 32.83 31.41 26.49 36.47 29.03 34.13 31.88 31.91 33.07 36.10 39.07 37.29 36.97 37.11 37.14 38.23